<?xml version="1.0" encoding="UTF-8" standalone="no" ?>
<gpx xmlns="http://www.topografix.com/GPX/1/1" xmlns:xsi="http://www.w3.org/2001/XMLSchema-instance" xsi:schemaLocation="http://www.topografix.com/GPX/1/1 http://www.topografix.com/GPX/1/1/gpx.xsd" version="1.1" creator="VisuGPX - https://www.visugpx.com">
  <metadata>
    <name>Sortie GR du 11 décembre 2011</name>
    <desc><![CDATA[Sortie longue au départ du cimétière de St-Romain, avec Nini comme Raïs!!!]]></desc>
  </metadata>
  <trk>
    <name><![CDATA[2011-12-11T08:04:35Z]]></name>
    <trkseg>
      <trkpt lat="45.83466" lon="4.82363">
        <ele>253</ele>
        <time>2011-12-11T08:04:35Z</time>
      </trkpt>
      <trkpt lat="45.83461" lon="4.82362">
        <ele>254</ele>
        <time>2011-12-11T08:04:39Z</time>
      </trkpt>
      <trkpt lat="45.83456" lon="4.8236">
        <ele>254</ele>
        <time>2011-12-11T08:04:45Z</time>
      </trkpt>
      <trkpt lat="45.83448" lon="4.82359">
        <ele>256</ele>
        <time>2011-12-11T08:04:53Z</time>
      </trkpt>
      <trkpt lat="45.83442" lon="4.82344">
        <ele>258</ele>
        <time>2011-12-11T08:05:05Z</time>
      </trkpt>
      <trkpt lat="45.83442" lon="4.82339">
        <ele>258</ele>
        <time>2011-12-11T08:05:10Z</time>
      </trkpt>
      <trkpt lat="45.8344" lon="4.82336">
        <ele>258</ele>
        <time>2011-12-11T08:05:13Z</time>
      </trkpt>
      <trkpt lat="45.83436" lon="4.82335">
        <ele>260</ele>
        <time>2011-12-11T08:05:15Z</time>
      </trkpt>
      <trkpt lat="45.83435" lon="4.82335">
        <ele>260</ele>
        <time>2011-12-11T08:05:16Z</time>
      </trkpt>
      <trkpt lat="45.83434" lon="4.82341">
        <ele>260</ele>
        <time>2011-12-11T08:05:23Z</time>
      </trkpt>
      <trkpt lat="45.83432" lon="4.82344">
        <ele>260</ele>
        <time>2011-12-11T08:05:26Z</time>
      </trkpt>
      <trkpt lat="45.83428" lon="4.82349">
        <ele>260</ele>
        <time>2011-12-11T08:05:30Z</time>
      </trkpt>
      <trkpt lat="45.83426" lon="4.82351">
        <ele>260</ele>
        <time>2011-12-11T08:05:31Z</time>
      </trkpt>
      <trkpt lat="45.83425" lon="4.82354">
        <ele>260</ele>
        <time>2011-12-11T08:05:34Z</time>
      </trkpt>
      <trkpt lat="45.83423" lon="4.8236">
        <ele>259</ele>
        <time>2011-12-11T08:05:41Z</time>
      </trkpt>
      <trkpt lat="45.83414" lon="4.8238">
        <ele>274</ele>
        <time>2011-12-11T08:06:04Z</time>
      </trkpt>
      <trkpt lat="45.83393" lon="4.82371">
        <ele>277</ele>
        <time>2011-12-11T08:06:38Z</time>
      </trkpt>
      <trkpt lat="45.83398" lon="4.82358">
        <ele>276</ele>
        <time>2011-12-11T08:06:49Z</time>
      </trkpt>
      <trkpt lat="45.83394" lon="4.82355">
        <ele>276</ele>
        <time>2011-12-11T08:06:52Z</time>
      </trkpt>
      <trkpt lat="45.83389" lon="4.82352">
        <ele>277</ele>
        <time>2011-12-11T08:06:59Z</time>
      </trkpt>
      <trkpt lat="45.83385" lon="4.8235">
        <ele>278</ele>
        <time>2011-12-11T08:07:03Z</time>
      </trkpt>
      <trkpt lat="45.83372" lon="4.82347">
        <ele>281</ele>
        <time>2011-12-11T08:07:19Z</time>
      </trkpt>
      <trkpt lat="45.83358" lon="4.8234">
        <ele>284</ele>
        <time>2011-12-11T08:07:45Z</time>
      </trkpt>
      <trkpt lat="45.83355" lon="4.82339">
        <ele>285</ele>
        <time>2011-12-11T08:07:49Z</time>
      </trkpt>
      <trkpt lat="45.83354" lon="4.82338">
        <ele>286</ele>
        <time>2011-12-11T08:07:50Z</time>
      </trkpt>
      <trkpt lat="45.83349" lon="4.82341">
        <ele>287</ele>
        <time>2011-12-11T08:08:00Z</time>
      </trkpt>
      <trkpt lat="45.83346" lon="4.82349">
        <ele>286</ele>
        <time>2011-12-11T08:08:03Z</time>
      </trkpt>
      <trkpt lat="45.83344" lon="4.82355">
        <ele>286</ele>
        <time>2011-12-11T08:08:05Z</time>
      </trkpt>
      <trkpt lat="45.83338" lon="4.82369">
        <ele>285</ele>
        <time>2011-12-11T08:08:10Z</time>
      </trkpt>
      <trkpt lat="45.83335" lon="4.82377">
        <ele>285</ele>
        <time>2011-12-11T08:08:13Z</time>
      </trkpt>
      <trkpt lat="45.83333" lon="4.82383">
        <ele>285</ele>
        <time>2011-12-11T08:08:15Z</time>
      </trkpt>
      <trkpt lat="45.83327" lon="4.82396">
        <ele>299</ele>
        <time>2011-12-11T08:08:20Z</time>
      </trkpt>
      <trkpt lat="45.83326" lon="4.82399">
        <ele>298</ele>
        <time>2011-12-11T08:08:21Z</time>
      </trkpt>
      <trkpt lat="45.83322" lon="4.82411">
        <ele>297</ele>
        <time>2011-12-11T08:08:25Z</time>
      </trkpt>
      <trkpt lat="45.83322" lon="4.82413">
        <ele>296</ele>
        <time>2011-12-11T08:08:26Z</time>
      </trkpt>
      <trkpt lat="45.8332" lon="4.82421">
        <ele>295</ele>
        <time>2011-12-11T08:08:29Z</time>
      </trkpt>
      <trkpt lat="45.8332" lon="4.82425">
        <ele>295</ele>
        <time>2011-12-11T08:08:30Z</time>
      </trkpt>
      <trkpt lat="45.83317" lon="4.82434">
        <ele>296</ele>
        <time>2011-12-11T08:08:33Z</time>
      </trkpt>
      <trkpt lat="45.83314" lon="4.8245">
        <ele>297</ele>
        <time>2011-12-11T08:08:38Z</time>
      </trkpt>
      <trkpt lat="45.83311" lon="4.82456">
        <ele>297</ele>
        <time>2011-12-11T08:08:40Z</time>
      </trkpt>
      <trkpt lat="45.83302" lon="4.82468">
        <ele>297</ele>
        <time>2011-12-11T08:08:45Z</time>
      </trkpt>
      <trkpt lat="45.833" lon="4.82471">
        <ele>297</ele>
        <time>2011-12-11T08:08:46Z</time>
      </trkpt>
      <trkpt lat="45.83298" lon="4.82482">
        <ele>297</ele>
        <time>2011-12-11T08:08:50Z</time>
      </trkpt>
      <trkpt lat="45.83291" lon="4.82493">
        <ele>298</ele>
        <time>2011-12-11T08:08:54Z</time>
      </trkpt>
      <trkpt lat="45.83288" lon="4.82499">
        <ele>299</ele>
        <time>2011-12-11T08:08:56Z</time>
      </trkpt>
      <trkpt lat="45.83283" lon="4.82515">
        <ele>294</ele>
        <time>2011-12-11T08:09:02Z</time>
      </trkpt>
      <trkpt lat="45.83282" lon="4.82518">
        <ele>294</ele>
        <time>2011-12-11T08:09:03Z</time>
      </trkpt>
      <trkpt lat="45.83279" lon="4.82531">
        <ele>294</ele>
        <time>2011-12-11T08:09:07Z</time>
      </trkpt>
      <trkpt lat="45.83276" lon="4.82543">
        <ele>293</ele>
        <time>2011-12-11T08:09:11Z</time>
      </trkpt>
      <trkpt lat="45.83276" lon="4.82557">
        <ele>293</ele>
        <time>2011-12-11T08:09:15Z</time>
      </trkpt>
      <trkpt lat="45.83277" lon="4.8257">
        <ele>293</ele>
        <time>2011-12-11T08:09:19Z</time>
      </trkpt>
      <trkpt lat="45.83274" lon="4.82594">
        <ele>289</ele>
        <time>2011-12-11T08:09:26Z</time>
      </trkpt>
      <trkpt lat="45.83273" lon="4.82597">
        <ele>289</ele>
        <time>2011-12-11T08:09:27Z</time>
      </trkpt>
      <trkpt lat="45.83268" lon="4.82612">
        <ele>288</ele>
        <time>2011-12-11T08:09:32Z</time>
      </trkpt>
      <trkpt lat="45.83264" lon="4.8262">
        <ele>288</ele>
        <time>2011-12-11T08:09:35Z</time>
      </trkpt>
      <trkpt lat="45.83261" lon="4.82625">
        <ele>288</ele>
        <time>2011-12-11T08:09:37Z</time>
      </trkpt>
      <trkpt lat="45.8325" lon="4.82638">
        <ele>288</ele>
        <time>2011-12-11T08:09:43Z</time>
      </trkpt>
      <trkpt lat="45.83249" lon="4.8264">
        <ele>301</ele>
        <time>2011-12-11T08:09:44Z</time>
      </trkpt>
      <trkpt lat="45.8324" lon="4.8265">
        <ele>300</ele>
        <time>2011-12-11T08:09:49Z</time>
      </trkpt>
      <trkpt lat="45.83234" lon="4.82658">
        <ele>300</ele>
        <time>2011-12-11T08:09:52Z</time>
      </trkpt>
      <trkpt lat="45.83232" lon="4.82664">
        <ele>300</ele>
        <time>2011-12-11T08:09:54Z</time>
      </trkpt>
      <trkpt lat="45.8323" lon="4.82672">
        <ele>296</ele>
        <time>2011-12-11T08:09:57Z</time>
      </trkpt>
      <trkpt lat="45.83229" lon="4.82679">
        <ele>296</ele>
        <time>2011-12-11T08:09:59Z</time>
      </trkpt>
      <trkpt lat="45.83228" lon="4.82682">
        <ele>296</ele>
        <time>2011-12-11T08:10:00Z</time>
      </trkpt>
      <trkpt lat="45.83226" lon="4.827">
        <ele>297</ele>
        <time>2011-12-11T08:10:05Z</time>
      </trkpt>
      <trkpt lat="45.83226" lon="4.82711">
        <ele>297</ele>
        <time>2011-12-11T08:10:08Z</time>
      </trkpt>
      <trkpt lat="45.83225" lon="4.82721">
        <ele>296</ele>
        <time>2011-12-11T08:10:11Z</time>
      </trkpt>
      <trkpt lat="45.83221" lon="4.82739">
        <ele>295</ele>
        <time>2011-12-11T08:10:17Z</time>
      </trkpt>
      <trkpt lat="45.8322" lon="4.82746">
        <ele>295</ele>
        <time>2011-12-11T08:10:19Z</time>
      </trkpt>
      <trkpt lat="45.83216" lon="4.82761">
        <ele>292</ele>
        <time>2011-12-11T08:10:24Z</time>
      </trkpt>
      <trkpt lat="45.83215" lon="4.82764">
        <ele>292</ele>
        <time>2011-12-11T08:10:25Z</time>
      </trkpt>
      <trkpt lat="45.83214" lon="4.82779">
        <ele>292</ele>
        <time>2011-12-11T08:10:29Z</time>
      </trkpt>
      <trkpt lat="45.83213" lon="4.82792">
        <ele>292</ele>
        <time>2011-12-11T08:10:33Z</time>
      </trkpt>
      <trkpt lat="45.83212" lon="4.82803">
        <ele>292</ele>
        <time>2011-12-11T08:10:36Z</time>
      </trkpt>
      <trkpt lat="45.83213" lon="4.82819">
        <ele>291</ele>
        <time>2011-12-11T08:10:41Z</time>
      </trkpt>
      <trkpt lat="45.83213" lon="4.82836">
        <ele>288</ele>
        <time>2011-12-11T08:10:47Z</time>
      </trkpt>
      <trkpt lat="45.83209" lon="4.82845">
        <ele>288</ele>
        <time>2011-12-11T08:10:50Z</time>
      </trkpt>
      <trkpt lat="45.83207" lon="4.82851">
        <ele>288</ele>
        <time>2011-12-11T08:10:52Z</time>
      </trkpt>
      <trkpt lat="45.83204" lon="4.82869">
        <ele>288</ele>
        <time>2011-12-11T08:10:58Z</time>
      </trkpt>
      <trkpt lat="45.83204" lon="4.82872">
        <ele>288</ele>
        <time>2011-12-11T08:10:59Z</time>
      </trkpt>
      <trkpt lat="45.83202" lon="4.82873">
        <ele>288</ele>
        <time>2011-12-11T08:11:00Z</time>
      </trkpt>
      <trkpt lat="45.83196" lon="4.82878">
        <ele>288</ele>
        <time>2011-12-11T08:11:03Z</time>
      </trkpt>
      <trkpt lat="45.83191" lon="4.82891">
        <ele>289</ele>
        <time>2011-12-11T08:11:07Z</time>
      </trkpt>
      <trkpt lat="45.8319" lon="4.82893">
        <ele>289</ele>
        <time>2011-12-11T08:11:08Z</time>
      </trkpt>
      <trkpt lat="45.83183" lon="4.82907">
        <ele>289</ele>
        <time>2011-12-11T08:11:13Z</time>
      </trkpt>
      <trkpt lat="45.83181" lon="4.82912">
        <ele>290</ele>
        <time>2011-12-11T08:11:15Z</time>
      </trkpt>
      <trkpt lat="45.83176" lon="4.8292">
        <ele>289</ele>
        <time>2011-12-11T08:11:18Z</time>
      </trkpt>
      <trkpt lat="45.83169" lon="4.82929">
        <ele>289</ele>
        <time>2011-12-11T08:11:23Z</time>
      </trkpt>
      <trkpt lat="45.83167" lon="4.82931">
        <ele>289</ele>
        <time>2011-12-11T08:11:24Z</time>
      </trkpt>
      <trkpt lat="45.83164" lon="4.82944">
        <ele>296</ele>
        <time>2011-12-11T08:11:28Z</time>
      </trkpt>
      <trkpt lat="45.8316" lon="4.82953">
        <ele>296</ele>
        <time>2011-12-11T08:11:32Z</time>
      </trkpt>
      <trkpt lat="45.83158" lon="4.82954">
        <ele>296</ele>
        <time>2011-12-11T08:11:33Z</time>
      </trkpt>
      <trkpt lat="45.83153" lon="4.82962">
        <ele>296</ele>
        <time>2011-12-11T08:11:37Z</time>
      </trkpt>
      <trkpt lat="45.83151" lon="4.82977">
        <ele>296</ele>
        <time>2011-12-11T08:11:42Z</time>
      </trkpt>
      <trkpt lat="45.83151" lon="4.82981">
        <ele>295</ele>
        <time>2011-12-11T08:11:43Z</time>
      </trkpt>
      <trkpt lat="45.83149" lon="4.82993">
        <ele>295</ele>
        <time>2011-12-11T08:11:47Z</time>
      </trkpt>
      <trkpt lat="45.83146" lon="4.83002">
        <ele>296</ele>
        <time>2011-12-11T08:11:50Z</time>
      </trkpt>
      <trkpt lat="45.83146" lon="4.83008">
        <ele>296</ele>
        <time>2011-12-11T08:11:52Z</time>
      </trkpt>
      <trkpt lat="45.83143" lon="4.83013">
        <ele>297</ele>
        <time>2011-12-11T08:11:54Z</time>
      </trkpt>
      <trkpt lat="45.83143" lon="4.83015">
        <ele>297</ele>
        <time>2011-12-11T08:11:55Z</time>
      </trkpt>
      <trkpt lat="45.83142" lon="4.8302">
        <ele>298</ele>
        <time>2011-12-11T08:11:57Z</time>
      </trkpt>
      <trkpt lat="45.8314" lon="4.83028">
        <ele>298</ele>
        <time>2011-12-11T08:12:00Z</time>
      </trkpt>
      <trkpt lat="45.83141" lon="4.83033">
        <ele>298</ele>
        <time>2011-12-11T08:12:02Z</time>
      </trkpt>
      <trkpt lat="45.8314" lon="4.8305">
        <ele>299</ele>
        <time>2011-12-11T08:12:08Z</time>
      </trkpt>
      <trkpt lat="45.8314" lon="4.83052">
        <ele>299</ele>
        <time>2011-12-11T08:12:09Z</time>
      </trkpt>
      <trkpt lat="45.83139" lon="4.83054">
        <ele>299</ele>
        <time>2011-12-11T08:12:10Z</time>
      </trkpt>
      <trkpt lat="45.83137" lon="4.8306">
        <ele>300</ele>
        <time>2011-12-11T08:12:13Z</time>
      </trkpt>
      <trkpt lat="45.83136" lon="4.83063">
        <ele>300</ele>
        <time>2011-12-11T08:12:14Z</time>
      </trkpt>
      <trkpt lat="45.83137" lon="4.8307">
        <ele>300</ele>
        <time>2011-12-11T08:12:17Z</time>
      </trkpt>
      <trkpt lat="45.83137" lon="4.83077">
        <ele>300</ele>
        <time>2011-12-11T08:12:19Z</time>
      </trkpt>
      <trkpt lat="45.83137" lon="4.8308">
        <ele>300</ele>
        <time>2011-12-11T08:12:20Z</time>
      </trkpt>
      <trkpt lat="45.83135" lon="4.83088">
        <ele>300</ele>
        <time>2011-12-11T08:12:24Z</time>
      </trkpt>
      <trkpt lat="45.83128" lon="4.83095">
        <ele>300</ele>
        <time>2011-12-11T08:12:29Z</time>
      </trkpt>
      <trkpt lat="45.83123" lon="4.83094">
        <ele>300</ele>
        <time>2011-12-11T08:12:31Z</time>
      </trkpt>
      <trkpt lat="45.8312" lon="4.83093">
        <ele>300</ele>
        <time>2011-12-11T08:12:33Z</time>
      </trkpt>
      <trkpt lat="45.83109" lon="4.8309">
        <ele>301</ele>
        <time>2011-12-11T08:12:39Z</time>
      </trkpt>
      <trkpt lat="45.83105" lon="4.8309">
        <ele>302</ele>
        <time>2011-12-11T08:12:42Z</time>
      </trkpt>
      <trkpt lat="45.83101" lon="4.83089">
        <ele>302</ele>
        <time>2011-12-11T08:12:44Z</time>
      </trkpt>
      <trkpt lat="45.83098" lon="4.83089">
        <ele>303</ele>
        <time>2011-12-11T08:12:46Z</time>
      </trkpt>
      <trkpt lat="45.83091" lon="4.83088">
        <ele>304</ele>
        <time>2011-12-11T08:12:49Z</time>
      </trkpt>
      <trkpt lat="45.83087" lon="4.83088">
        <ele>305</ele>
        <time>2011-12-11T08:12:52Z</time>
      </trkpt>
      <trkpt lat="45.83083" lon="4.83087">
        <ele>306</ele>
        <time>2011-12-11T08:12:54Z</time>
      </trkpt>
      <trkpt lat="45.83077" lon="4.83086">
        <ele>306</ele>
        <time>2011-12-11T08:12:57Z</time>
      </trkpt>
      <trkpt lat="45.83075" lon="4.83086">
        <ele>306</ele>
        <time>2011-12-11T08:12:58Z</time>
      </trkpt>
      <trkpt lat="45.83068" lon="4.83086">
        <ele>306</ele>
        <time>2011-12-11T08:13:02Z</time>
      </trkpt>
      <trkpt lat="45.83066" lon="4.83086">
        <ele>306</ele>
        <time>2011-12-11T08:13:03Z</time>
      </trkpt>
      <trkpt lat="45.83061" lon="4.83085">
        <ele>306</ele>
        <time>2011-12-11T08:13:07Z</time>
      </trkpt>
      <trkpt lat="45.8306" lon="4.83085">
        <ele>306</ele>
        <time>2011-12-11T08:13:08Z</time>
      </trkpt>
      <trkpt lat="45.83056" lon="4.83085">
        <ele>306</ele>
        <time>2011-12-11T08:13:12Z</time>
      </trkpt>
      <trkpt lat="45.83054" lon="4.83084">
        <ele>306</ele>
        <time>2011-12-11T08:13:13Z</time>
      </trkpt>
      <trkpt lat="45.83049" lon="4.83083">
        <ele>310</ele>
        <time>2011-12-11T08:13:15Z</time>
      </trkpt>
      <trkpt lat="45.8304" lon="4.83081">
        <ele>311</ele>
        <time>2011-12-11T08:13:19Z</time>
      </trkpt>
      <trkpt lat="45.83037" lon="4.8308">
        <ele>311</ele>
        <time>2011-12-11T08:13:21Z</time>
      </trkpt>
      <trkpt lat="45.83033" lon="4.8308">
        <ele>312</ele>
        <time>2011-12-11T08:13:23Z</time>
      </trkpt>
      <trkpt lat="45.83031" lon="4.83082">
        <ele>312</ele>
        <time>2011-12-11T08:13:24Z</time>
      </trkpt>
      <trkpt lat="45.83028" lon="4.83082">
        <ele>312</ele>
        <time>2011-12-11T08:13:25Z</time>
      </trkpt>
      <trkpt lat="45.83027" lon="4.83084">
        <ele>308</ele>
        <time>2011-12-11T08:13:27Z</time>
      </trkpt>
      <trkpt lat="45.8302" lon="4.8309">
        <ele>309</ele>
        <time>2011-12-11T08:13:31Z</time>
      </trkpt>
      <trkpt lat="45.83017" lon="4.83093">
        <ele>309</ele>
        <time>2011-12-11T08:13:33Z</time>
      </trkpt>
      <trkpt lat="45.83012" lon="4.83098">
        <ele>309</ele>
        <time>2011-12-11T08:13:36Z</time>
      </trkpt>
      <trkpt lat="45.83006" lon="4.83104">
        <ele>309</ele>
        <time>2011-12-11T08:13:40Z</time>
      </trkpt>
      <trkpt lat="45.82994" lon="4.83108">
        <ele>310</ele>
        <time>2011-12-11T08:13:46Z</time>
      </trkpt>
      <trkpt lat="45.82987" lon="4.83111">
        <ele>310</ele>
        <time>2011-12-11T08:13:50Z</time>
      </trkpt>
      <trkpt lat="45.82986" lon="4.83111">
        <ele>310</ele>
        <time>2011-12-11T08:13:51Z</time>
      </trkpt>
      <trkpt lat="45.82975" lon="4.83112">
        <ele>310</ele>
        <time>2011-12-11T08:13:56Z</time>
      </trkpt>
      <trkpt lat="45.82967" lon="4.83113">
        <ele>310</ele>
        <time>2011-12-11T08:14:00Z</time>
      </trkpt>
      <trkpt lat="45.82963" lon="4.83116">
        <ele>309</ele>
        <time>2011-12-11T08:14:02Z</time>
      </trkpt>
      <trkpt lat="45.82956" lon="4.83117">
        <ele>309</ele>
        <time>2011-12-11T08:14:05Z</time>
      </trkpt>
      <trkpt lat="45.82953" lon="4.83117">
        <ele>309</ele>
        <time>2011-12-11T08:14:06Z</time>
      </trkpt>
      <trkpt lat="45.82951" lon="4.83117">
        <ele>309</ele>
        <time>2011-12-11T08:14:07Z</time>
      </trkpt>
      <trkpt lat="45.82938" lon="4.83118">
        <ele>309</ele>
        <time>2011-12-11T08:14:13Z</time>
      </trkpt>
      <trkpt lat="45.82935" lon="4.83118">
        <ele>309</ele>
        <time>2011-12-11T08:14:14Z</time>
      </trkpt>
      <trkpt lat="45.82926" lon="4.83119">
        <ele>310</ele>
        <time>2011-12-11T08:14:18Z</time>
      </trkpt>
      <trkpt lat="45.82922" lon="4.8312">
        <ele>309</ele>
        <time>2011-12-11T08:14:20Z</time>
      </trkpt>
      <trkpt lat="45.82916" lon="4.8312">
        <ele>309</ele>
        <time>2011-12-11T08:14:23Z</time>
      </trkpt>
      <trkpt lat="45.82914" lon="4.8312">
        <ele>309</ele>
        <time>2011-12-11T08:14:24Z</time>
      </trkpt>
      <trkpt lat="45.829" lon="4.83119">
        <ele>309</ele>
        <time>2011-12-11T08:14:30Z</time>
      </trkpt>
      <trkpt lat="45.82895" lon="4.83121">
        <ele>309</ele>
        <time>2011-12-11T08:14:33Z</time>
      </trkpt>
      <trkpt lat="45.82893" lon="4.83121">
        <ele>309</ele>
        <time>2011-12-11T08:14:34Z</time>
      </trkpt>
      <trkpt lat="45.82892" lon="4.83121">
        <ele>309</ele>
        <time>2011-12-11T08:14:35Z</time>
      </trkpt>
      <trkpt lat="45.82884" lon="4.8312">
        <ele>309</ele>
        <time>2011-12-11T08:14:39Z</time>
      </trkpt>
      <trkpt lat="45.82876" lon="4.83123">
        <ele>308</ele>
        <time>2011-12-11T08:14:43Z</time>
      </trkpt>
      <trkpt lat="45.82875" lon="4.83124">
        <ele>308</ele>
        <time>2011-12-11T08:14:44Z</time>
      </trkpt>
      <trkpt lat="45.82863" lon="4.83121">
        <ele>309</ele>
        <time>2011-12-11T08:14:48Z</time>
      </trkpt>
      <trkpt lat="45.82858" lon="4.83121">
        <ele>309</ele>
        <time>2011-12-11T08:14:50Z</time>
      </trkpt>
      <trkpt lat="45.82852" lon="4.83118">
        <ele>309</ele>
        <time>2011-12-11T08:14:53Z</time>
      </trkpt>
      <trkpt lat="45.82848" lon="4.83117">
        <ele>309</ele>
        <time>2011-12-11T08:14:55Z</time>
      </trkpt>
      <trkpt lat="45.82844" lon="4.83116">
        <ele>309</ele>
        <time>2011-12-11T08:14:57Z</time>
      </trkpt>
      <trkpt lat="45.82839" lon="4.83116">
        <ele>309</ele>
        <time>2011-12-11T08:14:59Z</time>
      </trkpt>
      <trkpt lat="45.82828" lon="4.83114">
        <ele>308</ele>
        <time>2011-12-11T08:15:04Z</time>
      </trkpt>
      <trkpt lat="45.82819" lon="4.83113">
        <ele>308</ele>
        <time>2011-12-11T08:15:08Z</time>
      </trkpt>
      <trkpt lat="45.82814" lon="4.83112">
        <ele>308</ele>
        <time>2011-12-11T08:15:10Z</time>
      </trkpt>
      <trkpt lat="45.82801" lon="4.83109">
        <ele>307</ele>
        <time>2011-12-11T08:15:14Z</time>
      </trkpt>
      <trkpt lat="45.82789" lon="4.83109">
        <ele>307</ele>
        <time>2011-12-11T08:15:19Z</time>
      </trkpt>
      <trkpt lat="45.82782" lon="4.83114">
        <ele>307</ele>
        <time>2011-12-11T08:15:23Z</time>
      </trkpt>
      <trkpt lat="45.82781" lon="4.83116">
        <ele>306</ele>
        <time>2011-12-11T08:15:24Z</time>
      </trkpt>
      <trkpt lat="45.82779" lon="4.83118">
        <ele>306</ele>
        <time>2011-12-11T08:15:25Z</time>
      </trkpt>
      <trkpt lat="45.82774" lon="4.83133">
        <ele>305</ele>
        <time>2011-12-11T08:15:30Z</time>
      </trkpt>
      <trkpt lat="45.82773" lon="4.83137">
        <ele>304</ele>
        <time>2011-12-11T08:15:31Z</time>
      </trkpt>
      <trkpt lat="45.82768" lon="4.83152">
        <ele>302</ele>
        <time>2011-12-11T08:15:36Z</time>
      </trkpt>
      <trkpt lat="45.82762" lon="4.83159">
        <ele>301</ele>
        <time>2011-12-11T08:15:39Z</time>
      </trkpt>
      <trkpt lat="45.82755" lon="4.83163">
        <ele>299</ele>
        <time>2011-12-11T08:15:42Z</time>
      </trkpt>
      <trkpt lat="45.8275" lon="4.83164">
        <ele>297</ele>
        <time>2011-12-11T08:15:45Z</time>
      </trkpt>
      <trkpt lat="45.82746" lon="4.83164">
        <ele>298</ele>
        <time>2011-12-11T08:15:47Z</time>
      </trkpt>
      <trkpt lat="45.82743" lon="4.83163">
        <ele>298</ele>
        <time>2011-12-11T08:15:48Z</time>
      </trkpt>
      <trkpt lat="45.82731" lon="4.83157">
        <ele>299</ele>
        <time>2011-12-11T08:15:53Z</time>
      </trkpt>
      <trkpt lat="45.82727" lon="4.83152">
        <ele>299</ele>
        <time>2011-12-11T08:15:56Z</time>
      </trkpt>
      <trkpt lat="45.82725" lon="4.83151">
        <ele>300</ele>
        <time>2011-12-11T08:15:58Z</time>
      </trkpt>
      <trkpt lat="45.82722" lon="4.83151">
        <ele>300</ele>
        <time>2011-12-11T08:15:59Z</time>
      </trkpt>
      <trkpt lat="45.82716" lon="4.83145">
        <ele>300</ele>
        <time>2011-12-11T08:16:03Z</time>
      </trkpt>
      <trkpt lat="45.82714" lon="4.83144">
        <ele>300</ele>
        <time>2011-12-11T08:16:05Z</time>
      </trkpt>
      <trkpt lat="45.82709" lon="4.83141">
        <ele>300</ele>
        <time>2011-12-11T08:16:08Z</time>
      </trkpt>
      <trkpt lat="45.82707" lon="4.83141">
        <ele>300</ele>
        <time>2011-12-11T08:16:09Z</time>
      </trkpt>
      <trkpt lat="45.82693" lon="4.83137">
        <ele>299</ele>
        <time>2011-12-11T08:16:14Z</time>
      </trkpt>
      <trkpt lat="45.82688" lon="4.83134">
        <ele>299</ele>
        <time>2011-12-11T08:16:16Z</time>
      </trkpt>
      <trkpt lat="45.82681" lon="4.83129">
        <ele>300</ele>
        <time>2011-12-11T08:16:18Z</time>
      </trkpt>
      <trkpt lat="45.82668" lon="4.83124">
        <ele>300</ele>
        <time>2011-12-11T08:16:22Z</time>
      </trkpt>
      <trkpt lat="45.82665" lon="4.83122">
        <ele>295</ele>
        <time>2011-12-11T08:16:23Z</time>
      </trkpt>
      <trkpt lat="45.82652" lon="4.83113">
        <ele>296</ele>
        <time>2011-12-11T08:16:28Z</time>
      </trkpt>
      <trkpt lat="45.82649" lon="4.83112">
        <ele>296</ele>
        <time>2011-12-11T08:16:29Z</time>
      </trkpt>
      <trkpt lat="45.82639" lon="4.83111">
        <ele>295</ele>
        <time>2011-12-11T08:16:33Z</time>
      </trkpt>
      <trkpt lat="45.82631" lon="4.83107">
        <ele>295</ele>
        <time>2011-12-11T08:16:36Z</time>
      </trkpt>
      <trkpt lat="45.8262" lon="4.83101">
        <ele>294</ele>
        <time>2011-12-11T08:16:40Z</time>
      </trkpt>
      <trkpt lat="45.82613" lon="4.83098">
        <ele>294</ele>
        <time>2011-12-11T08:16:43Z</time>
      </trkpt>
      <trkpt lat="45.82608" lon="4.83095">
        <ele>294</ele>
        <time>2011-12-11T08:16:45Z</time>
      </trkpt>
      <trkpt lat="45.82608" lon="4.83093">
        <ele>294</ele>
        <time>2011-12-11T08:16:48Z</time>
      </trkpt>
      <trkpt lat="45.82609" lon="4.83091">
        <ele>294</ele>
        <time>2011-12-11T08:16:49Z</time>
      </trkpt>
      <trkpt lat="45.82612" lon="4.83089">
        <ele>294</ele>
        <time>2011-12-11T08:16:52Z</time>
      </trkpt>
      <trkpt lat="45.82612" lon="4.83085">
        <ele>294</ele>
        <time>2011-12-11T08:16:54Z</time>
      </trkpt>
      <trkpt lat="45.82612" lon="4.83079">
        <ele>302</ele>
        <time>2011-12-11T08:16:58Z</time>
      </trkpt>
      <trkpt lat="45.82614" lon="4.83073">
        <ele>303</ele>
        <time>2011-12-11T08:17:00Z</time>
      </trkpt>
      <trkpt lat="45.82616" lon="4.83062">
        <ele>304</ele>
        <time>2011-12-11T08:17:06Z</time>
      </trkpt>
      <trkpt lat="45.82614" lon="4.83056">
        <ele>304</ele>
        <time>2011-12-11T08:17:07Z</time>
      </trkpt>
      <trkpt lat="45.82613" lon="4.83054">
        <ele>304</ele>
        <time>2011-12-11T08:17:08Z</time>
      </trkpt>
      <trkpt lat="45.82611" lon="4.83042">
        <ele>305</ele>
        <time>2011-12-11T08:17:14Z</time>
      </trkpt>
      <trkpt lat="45.82611" lon="4.83034">
        <ele>306</ele>
        <time>2011-12-11T08:17:21Z</time>
      </trkpt>
      <trkpt lat="45.82612" lon="4.83033">
        <ele>306</ele>
        <time>2011-12-11T08:17:22Z</time>
      </trkpt>
      <trkpt lat="45.82611" lon="4.83028">
        <ele>306</ele>
        <time>2011-12-11T08:17:26Z</time>
      </trkpt>
      <trkpt lat="45.8261" lon="4.83024">
        <ele>306</ele>
        <time>2011-12-11T08:17:28Z</time>
      </trkpt>
      <trkpt lat="45.8261" lon="4.83021">
        <ele>307</ele>
        <time>2011-12-11T08:17:30Z</time>
      </trkpt>
      <trkpt lat="45.8261" lon="4.83019">
        <ele>307</ele>
        <time>2011-12-11T08:17:32Z</time>
      </trkpt>
      <trkpt lat="45.82609" lon="4.83014">
        <ele>307</ele>
        <time>2011-12-11T08:17:35Z</time>
      </trkpt>
      <trkpt lat="45.82607" lon="4.83006">
        <ele>307</ele>
        <time>2011-12-11T08:17:42Z</time>
      </trkpt>
      <trkpt lat="45.82607" lon="4.83004">
        <ele>307</ele>
        <time>2011-12-11T08:17:43Z</time>
      </trkpt>
      <trkpt lat="45.82607" lon="4.83003">
        <ele>307</ele>
        <time>2011-12-11T08:17:44Z</time>
      </trkpt>
      <trkpt lat="45.82604" lon="4.82991">
        <ele>316</ele>
        <time>2011-12-11T08:17:51Z</time>
      </trkpt>
      <trkpt lat="45.82603" lon="4.8299">
        <ele>316</ele>
        <time>2011-12-11T08:17:53Z</time>
      </trkpt>
      <trkpt lat="45.82599" lon="4.82985">
        <ele>316</ele>
        <time>2011-12-11T08:17:58Z</time>
      </trkpt>
      <trkpt lat="45.82597" lon="4.82983">
        <ele>316</ele>
        <time>2011-12-11T08:17:59Z</time>
      </trkpt>
      <trkpt lat="45.82596" lon="4.82982">
        <ele>316</ele>
        <time>2011-12-11T08:18:00Z</time>
      </trkpt>
      <trkpt lat="45.82594" lon="4.82976">
        <ele>317</ele>
        <time>2011-12-11T08:18:03Z</time>
      </trkpt>
      <trkpt lat="45.82592" lon="4.82974">
        <ele>317</ele>
        <time>2011-12-11T08:18:05Z</time>
      </trkpt>
      <trkpt lat="45.82582" lon="4.82966">
        <ele>312</ele>
        <time>2011-12-11T08:18:12Z</time>
      </trkpt>
      <trkpt lat="45.82579" lon="4.82963">
        <ele>312</ele>
        <time>2011-12-11T08:18:16Z</time>
      </trkpt>
      <trkpt lat="45.82577" lon="4.82961">
        <ele>312</ele>
        <time>2011-12-11T08:18:18Z</time>
      </trkpt>
      <trkpt lat="45.82576" lon="4.8296">
        <ele>312</ele>
        <time>2011-12-11T08:18:20Z</time>
      </trkpt>
      <trkpt lat="45.82574" lon="4.82959">
        <ele>312</ele>
        <time>2011-12-11T08:18:23Z</time>
      </trkpt>
      <trkpt lat="45.82564" lon="4.82956">
        <ele>312</ele>
        <time>2011-12-11T08:18:29Z</time>
      </trkpt>
      <trkpt lat="45.8256" lon="4.82955">
        <ele>312</ele>
        <time>2011-12-11T08:18:31Z</time>
      </trkpt>
      <trkpt lat="45.82551" lon="4.8295">
        <ele>312</ele>
        <time>2011-12-11T08:18:37Z</time>
      </trkpt>
      <trkpt lat="45.82546" lon="4.82947">
        <ele>312</ele>
        <time>2011-12-11T08:18:39Z</time>
      </trkpt>
      <trkpt lat="45.82539" lon="4.8294">
        <ele>312</ele>
        <time>2011-12-11T08:18:43Z</time>
      </trkpt>
      <trkpt lat="45.82535" lon="4.82931">
        <ele>313</ele>
        <time>2011-12-11T08:18:45Z</time>
      </trkpt>
      <trkpt lat="45.82534" lon="4.82927">
        <ele>313</ele>
        <time>2011-12-11T08:18:47Z</time>
      </trkpt>
      <trkpt lat="45.82533" lon="4.82924">
        <ele>313</ele>
        <time>2011-12-11T08:18:48Z</time>
      </trkpt>
      <trkpt lat="45.8253" lon="4.82918">
        <ele>313</ele>
        <time>2011-12-11T08:18:50Z</time>
      </trkpt>
      <trkpt lat="45.82526" lon="4.82909">
        <ele>323</ele>
        <time>2011-12-11T08:18:54Z</time>
      </trkpt>
      <trkpt lat="45.82522" lon="4.82905">
        <ele>322</ele>
        <time>2011-12-11T08:18:56Z</time>
      </trkpt>
      <trkpt lat="45.82515" lon="4.829">
        <ele>322</ele>
        <time>2011-12-11T08:18:59Z</time>
      </trkpt>
      <trkpt lat="45.82502" lon="4.82901">
        <ele>320</ele>
        <time>2011-12-11T08:19:03Z</time>
      </trkpt>
      <trkpt lat="45.825" lon="4.82901">
        <ele>318</ele>
        <time>2011-12-11T08:19:05Z</time>
      </trkpt>
      <trkpt lat="45.82486" lon="4.82903">
        <ele>318</ele>
        <time>2011-12-11T08:19:10Z</time>
      </trkpt>
      <trkpt lat="45.82469" lon="4.82909">
        <ele>319</ele>
        <time>2011-12-11T08:19:17Z</time>
      </trkpt>
      <trkpt lat="45.82467" lon="4.8291">
        <ele>318</ele>
        <time>2011-12-11T08:19:18Z</time>
      </trkpt>
      <trkpt lat="45.82457" lon="4.82916">
        <ele>318</ele>
        <time>2011-12-11T08:19:22Z</time>
      </trkpt>
      <trkpt lat="45.8245" lon="4.8292">
        <ele>307</ele>
        <time>2011-12-11T08:19:25Z</time>
      </trkpt>
      <trkpt lat="45.82445" lon="4.82923">
        <ele>307</ele>
        <time>2011-12-11T08:19:27Z</time>
      </trkpt>
      <trkpt lat="45.82431" lon="4.8293">
        <ele>307</ele>
        <time>2011-12-11T08:19:33Z</time>
      </trkpt>
      <trkpt lat="45.82418" lon="4.82933">
        <ele>307</ele>
        <time>2011-12-11T08:19:38Z</time>
      </trkpt>
      <trkpt lat="45.82411" lon="4.82929">
        <ele>306</ele>
        <time>2011-12-11T08:19:41Z</time>
      </trkpt>
      <trkpt lat="45.82407" lon="4.82927">
        <ele>306</ele>
        <time>2011-12-11T08:19:43Z</time>
      </trkpt>
      <trkpt lat="45.82396" lon="4.8292">
        <ele>305</ele>
        <time>2011-12-11T08:19:48Z</time>
      </trkpt>
      <trkpt lat="45.82394" lon="4.82919">
        <ele>305</ele>
        <time>2011-12-11T08:19:49Z</time>
      </trkpt>
      <trkpt lat="45.82384" lon="4.82917">
        <ele>314</ele>
        <time>2011-12-11T08:19:53Z</time>
      </trkpt>
      <trkpt lat="45.82376" lon="4.82913">
        <ele>314</ele>
        <time>2011-12-11T08:19:57Z</time>
      </trkpt>
      <trkpt lat="45.82371" lon="4.82912">
        <ele>314</ele>
        <time>2011-12-11T08:19:59Z</time>
      </trkpt>
      <trkpt lat="45.82358" lon="4.82907">
        <ele>313</ele>
        <time>2011-12-11T08:20:03Z</time>
      </trkpt>
      <trkpt lat="45.82356" lon="4.82907">
        <ele>313</ele>
        <time>2011-12-11T08:20:05Z</time>
      </trkpt>
      <trkpt lat="45.82345" lon="4.82906">
        <ele>312</ele>
        <time>2011-12-11T08:20:09Z</time>
      </trkpt>
      <trkpt lat="45.8234" lon="4.82905">
        <ele>311</ele>
        <time>2011-12-11T08:20:11Z</time>
      </trkpt>
      <trkpt lat="45.82331" lon="4.82905">
        <ele>310</ele>
        <time>2011-12-11T08:20:14Z</time>
      </trkpt>
      <trkpt lat="45.8232" lon="4.82902">
        <ele>312</ele>
        <time>2011-12-11T08:20:18Z</time>
      </trkpt>
      <trkpt lat="45.82315" lon="4.829">
        <ele>313</ele>
        <time>2011-12-11T08:20:20Z</time>
      </trkpt>
      <trkpt lat="45.82302" lon="4.82896">
        <ele>314</ele>
        <time>2011-12-11T08:20:25Z</time>
      </trkpt>
      <trkpt lat="45.82292" lon="4.82895">
        <ele>314</ele>
        <time>2011-12-11T08:20:29Z</time>
      </trkpt>
      <trkpt lat="45.82282" lon="4.82894">
        <ele>314</ele>
        <time>2011-12-11T08:20:32Z</time>
      </trkpt>
      <trkpt lat="45.82278" lon="4.82896">
        <ele>314</ele>
        <time>2011-12-11T08:20:33Z</time>
      </trkpt>
      <trkpt lat="45.82266" lon="4.82907">
        <ele>313</ele>
        <time>2011-12-11T08:20:40Z</time>
      </trkpt>
      <trkpt lat="45.82261" lon="4.82911">
        <ele>312</ele>
        <time>2011-12-11T08:20:43Z</time>
      </trkpt>
      <trkpt lat="45.82247" lon="4.82915">
        <ele>311</ele>
        <time>2011-12-11T08:20:49Z</time>
      </trkpt>
      <trkpt lat="45.82246" lon="4.82916">
        <ele>311</ele>
        <time>2011-12-11T08:20:50Z</time>
      </trkpt>
      <trkpt lat="45.82242" lon="4.82916">
        <ele>311</ele>
        <time>2011-12-11T08:20:54Z</time>
      </trkpt>
      <trkpt lat="45.82243" lon="4.82913">
        <ele>311</ele>
        <time>2011-12-11T08:20:56Z</time>
      </trkpt>
      <trkpt lat="45.82244" lon="4.82912">
        <ele>311</ele>
        <time>2011-12-11T08:20:57Z</time>
      </trkpt>
      <trkpt lat="45.82244" lon="4.82906">
        <ele>312</ele>
        <time>2011-12-11T08:21:01Z</time>
      </trkpt>
      <trkpt lat="45.82247" lon="4.82897">
        <ele>313</ele>
        <time>2011-12-11T08:21:09Z</time>
      </trkpt>
      <trkpt lat="45.82248" lon="4.82896">
        <ele>313</ele>
        <time>2011-12-11T08:21:10Z</time>
      </trkpt>
      <trkpt lat="45.8225" lon="4.82891">
        <ele>314</ele>
        <time>2011-12-11T08:21:14Z</time>
      </trkpt>
      <trkpt lat="45.82247" lon="4.82877">
        <ele>315</ele>
        <time>2011-12-11T08:21:20Z</time>
      </trkpt>
      <trkpt lat="45.82244" lon="4.82869">
        <ele>316</ele>
        <time>2011-12-11T08:21:24Z</time>
      </trkpt>
      <trkpt lat="45.82241" lon="4.82866">
        <ele>316</ele>
        <time>2011-12-11T08:21:26Z</time>
      </trkpt>
      <trkpt lat="45.82239" lon="4.82861">
        <ele>317</ele>
        <time>2011-12-11T08:21:31Z</time>
      </trkpt>
      <trkpt lat="45.8224" lon="4.8286">
        <ele>317</ele>
        <time>2011-12-11T08:21:32Z</time>
      </trkpt>
      <trkpt lat="45.8224" lon="4.82859">
        <ele>317</ele>
        <time>2011-12-11T08:21:33Z</time>
      </trkpt>
      <trkpt lat="45.8224" lon="4.82857">
        <ele>318</ele>
        <time>2011-12-11T08:21:36Z</time>
      </trkpt>
      <trkpt lat="45.82237" lon="4.82852">
        <ele>318</ele>
        <time>2011-12-11T08:21:40Z</time>
      </trkpt>
      <trkpt lat="45.82238" lon="4.8285">
        <ele>319</ele>
        <time>2011-12-11T08:21:42Z</time>
      </trkpt>
      <trkpt lat="45.82238" lon="4.82845">
        <ele>319</ele>
        <time>2011-12-11T08:21:45Z</time>
      </trkpt>
      <trkpt lat="45.82238" lon="4.82841">
        <ele>320</ele>
        <time>2011-12-11T08:21:48Z</time>
      </trkpt>
      <trkpt lat="45.82238" lon="4.8284">
        <ele>320</ele>
        <time>2011-12-11T08:21:49Z</time>
      </trkpt>
      <trkpt lat="45.82238" lon="4.82838">
        <ele>320</ele>
        <time>2011-12-11T08:21:50Z</time>
      </trkpt>
      <trkpt lat="45.82239" lon="4.82831">
        <ele>325</ele>
        <time>2011-12-11T08:21:55Z</time>
      </trkpt>
      <trkpt lat="45.82239" lon="4.82826">
        <ele>325</ele>
        <time>2011-12-11T08:21:58Z</time>
      </trkpt>
      <trkpt lat="45.82239" lon="4.8282">
        <ele>326</ele>
        <time>2011-12-11T08:22:02Z</time>
      </trkpt>
      <trkpt lat="45.8224" lon="4.82818">
        <ele>326</ele>
        <time>2011-12-11T08:22:03Z</time>
      </trkpt>
      <trkpt lat="45.82241" lon="4.82811">
        <ele>327</ele>
        <time>2011-12-11T08:22:08Z</time>
      </trkpt>
      <trkpt lat="45.82242" lon="4.8281">
        <ele>327</ele>
        <time>2011-12-11T08:22:09Z</time>
      </trkpt>
      <trkpt lat="45.82242" lon="4.82803">
        <ele>327</ele>
        <time>2011-12-11T08:22:14Z</time>
      </trkpt>
      <trkpt lat="45.82241" lon="4.828">
        <ele>328</ele>
        <time>2011-12-11T08:22:16Z</time>
      </trkpt>
      <trkpt lat="45.8224" lon="4.82798">
        <ele>328</ele>
        <time>2011-12-11T08:22:18Z</time>
      </trkpt>
      <trkpt lat="45.82237" lon="4.82796">
        <ele>328</ele>
        <time>2011-12-11T08:22:20Z</time>
      </trkpt>
      <trkpt lat="45.82233" lon="4.82792">
        <ele>328</ele>
        <time>2011-12-11T08:22:23Z</time>
      </trkpt>
      <trkpt lat="45.82233" lon="4.82785">
        <ele>329</ele>
        <time>2011-12-11T08:22:29Z</time>
      </trkpt>
      <trkpt lat="45.82234" lon="4.82779">
        <ele>330</ele>
        <time>2011-12-11T08:22:35Z</time>
      </trkpt>
      <trkpt lat="45.82233" lon="4.82775">
        <ele>330</ele>
        <time>2011-12-11T08:22:38Z</time>
      </trkpt>
      <trkpt lat="45.82236" lon="4.82771">
        <ele>330</ele>
        <time>2011-12-11T08:22:41Z</time>
      </trkpt>
      <trkpt lat="45.82237" lon="4.8277">
        <ele>331</ele>
        <time>2011-12-11T08:22:42Z</time>
      </trkpt>
      <trkpt lat="45.82247" lon="4.82766">
        <ele>332</ele>
        <time>2011-12-11T08:22:47Z</time>
      </trkpt>
      <trkpt lat="45.82248" lon="4.82765">
        <ele>332</ele>
        <time>2011-12-11T08:22:48Z</time>
      </trkpt>
      <trkpt lat="45.82249" lon="4.82763">
        <ele>332</ele>
        <time>2011-12-11T08:22:49Z</time>
      </trkpt>
      <trkpt lat="45.82254" lon="4.8276">
        <ele>333</ele>
        <time>2011-12-11T08:22:52Z</time>
      </trkpt>
      <trkpt lat="45.82256" lon="4.82759">
        <ele>333</ele>
        <time>2011-12-11T08:22:53Z</time>
      </trkpt>
      <trkpt lat="45.82264" lon="4.82758">
        <ele>333</ele>
        <time>2011-12-11T08:22:57Z</time>
      </trkpt>
      <trkpt lat="45.82265" lon="4.82758">
        <ele>333</ele>
        <time>2011-12-11T08:22:58Z</time>
      </trkpt>
      <trkpt lat="45.82267" lon="4.82757">
        <ele>333</ele>
        <time>2011-12-11T08:22:59Z</time>
      </trkpt>
      <trkpt lat="45.82269" lon="4.82756">
        <ele>332</ele>
        <time>2011-12-11T08:23:02Z</time>
      </trkpt>
      <trkpt lat="45.82271" lon="4.82756">
        <ele>332</ele>
        <time>2011-12-11T08:23:03Z</time>
      </trkpt>
      <trkpt lat="45.82278" lon="4.82752">
        <ele>332</ele>
        <time>2011-12-11T08:23:07Z</time>
      </trkpt>
      <trkpt lat="45.8228" lon="4.82751">
        <ele>332</ele>
        <time>2011-12-11T08:23:08Z</time>
      </trkpt>
      <trkpt lat="45.82285" lon="4.82751">
        <ele>332</ele>
        <time>2011-12-11T08:23:10Z</time>
      </trkpt>
      <trkpt lat="45.82292" lon="4.8275">
        <ele>340</ele>
        <time>2011-12-11T08:23:13Z</time>
      </trkpt>
      <trkpt lat="45.82299" lon="4.82738">
        <ele>341</ele>
        <time>2011-12-11T08:23:19Z</time>
      </trkpt>
      <trkpt lat="45.823" lon="4.82736">
        <ele>341</ele>
        <time>2011-12-11T08:23:20Z</time>
      </trkpt>
      <trkpt lat="45.82303" lon="4.82722">
        <ele>342</ele>
        <time>2011-12-11T08:23:26Z</time>
      </trkpt>
      <trkpt lat="45.82305" lon="4.82713">
        <ele>342</ele>
        <time>2011-12-11T08:23:30Z</time>
      </trkpt>
      <trkpt lat="45.82307" lon="4.82711">
        <ele>342</ele>
        <time>2011-12-11T08:23:31Z</time>
      </trkpt>
      <trkpt lat="45.82309" lon="4.8271">
        <ele>343</ele>
        <time>2011-12-11T08:23:32Z</time>
      </trkpt>
      <trkpt lat="45.8232" lon="4.82703">
        <ele>343</ele>
        <time>2011-12-11T08:23:38Z</time>
      </trkpt>
      <trkpt lat="45.82323" lon="4.82704">
        <ele>343</ele>
        <time>2011-12-11T08:23:41Z</time>
      </trkpt>
      <trkpt lat="45.82325" lon="4.82705">
        <ele>343</ele>
        <time>2011-12-11T08:23:42Z</time>
      </trkpt>
      <trkpt lat="45.82325" lon="4.82704">
        <ele>343</ele>
        <time>2011-12-11T08:23:43Z</time>
      </trkpt>
      <trkpt lat="45.82331" lon="4.82701">
        <ele>344</ele>
        <time>2011-12-11T08:23:48Z</time>
      </trkpt>
      <trkpt lat="45.82334" lon="4.82699">
        <ele>346</ele>
        <time>2011-12-11T08:23:54Z</time>
      </trkpt>
      <trkpt lat="45.82332" lon="4.82696">
        <ele>344</ele>
        <time>2011-12-11T08:24:00Z</time>
      </trkpt>
      <trkpt lat="45.82342" lon="4.827">
        <ele>346</ele>
        <time>2011-12-11T08:24:14Z</time>
      </trkpt>
      <trkpt lat="45.82352" lon="4.82697">
        <ele>346</ele>
        <time>2011-12-11T08:24:19Z</time>
      </trkpt>
      <trkpt lat="45.82355" lon="4.82698">
        <ele>346</ele>
        <time>2011-12-11T08:24:21Z</time>
      </trkpt>
      <trkpt lat="45.82361" lon="4.82697">
        <ele>346</ele>
        <time>2011-12-11T08:24:24Z</time>
      </trkpt>
      <trkpt lat="45.82364" lon="4.82696">
        <ele>346</ele>
        <time>2011-12-11T08:24:26Z</time>
      </trkpt>
      <trkpt lat="45.8238" lon="4.82695">
        <ele>347</ele>
        <time>2011-12-11T08:24:32Z</time>
      </trkpt>
      <trkpt lat="45.82394" lon="4.82696">
        <ele>347</ele>
        <time>2011-12-11T08:24:38Z</time>
      </trkpt>
      <trkpt lat="45.82398" lon="4.82696">
        <ele>347</ele>
        <time>2011-12-11T08:24:39Z</time>
      </trkpt>
      <trkpt lat="45.82405" lon="4.82696">
        <ele>348</ele>
        <time>2011-12-11T08:24:42Z</time>
      </trkpt>
      <trkpt lat="45.82407" lon="4.82697">
        <ele>348</ele>
        <time>2011-12-11T08:24:43Z</time>
      </trkpt>
      <trkpt lat="45.82411" lon="4.82697">
        <ele>348</ele>
        <time>2011-12-11T08:24:45Z</time>
      </trkpt>
      <trkpt lat="45.82416" lon="4.82699">
        <ele>347</ele>
        <time>2011-12-11T08:24:47Z</time>
      </trkpt>
      <trkpt lat="45.8242" lon="4.82699">
        <ele>350</ele>
        <time>2011-12-11T08:24:48Z</time>
      </trkpt>
      <trkpt lat="45.82424" lon="4.82701">
        <ele>350</ele>
        <time>2011-12-11T08:24:50Z</time>
      </trkpt>
      <trkpt lat="45.82426" lon="4.82703">
        <ele>350</ele>
        <time>2011-12-11T08:24:52Z</time>
      </trkpt>
      <trkpt lat="45.82429" lon="4.82703">
        <ele>350</ele>
        <time>2011-12-11T08:24:53Z</time>
      </trkpt>
      <trkpt lat="45.82435" lon="4.82705">
        <ele>350</ele>
        <time>2011-12-11T08:24:55Z</time>
      </trkpt>
      <trkpt lat="45.8244" lon="4.82705">
        <ele>350</ele>
        <time>2011-12-11T08:24:57Z</time>
      </trkpt>
      <trkpt lat="45.82443" lon="4.82706">
        <ele>350</ele>
        <time>2011-12-11T08:24:58Z</time>
      </trkpt>
      <trkpt lat="45.82454" lon="4.82708">
        <ele>350</ele>
        <time>2011-12-11T08:25:02Z</time>
      </trkpt>
      <trkpt lat="45.82456" lon="4.82709">
        <ele>350</ele>
        <time>2011-12-11T08:25:03Z</time>
      </trkpt>
      <trkpt lat="45.82469" lon="4.82712">
        <ele>350</ele>
        <time>2011-12-11T08:25:08Z</time>
      </trkpt>
      <trkpt lat="45.82472" lon="4.82712">
        <ele>350</ele>
        <time>2011-12-11T08:25:09Z</time>
      </trkpt>
      <trkpt lat="45.82482" lon="4.82713">
        <ele>350</ele>
        <time>2011-12-11T08:25:13Z</time>
      </trkpt>
      <trkpt lat="45.82491" lon="4.82714">
        <ele>350</ele>
        <time>2011-12-11T08:25:16Z</time>
      </trkpt>
      <trkpt lat="45.82496" lon="4.82715">
        <ele>350</ele>
        <time>2011-12-11T08:25:18Z</time>
      </trkpt>
      <trkpt lat="45.82509" lon="4.82717">
        <ele>353</ele>
        <time>2011-12-11T08:25:23Z</time>
      </trkpt>
      <trkpt lat="45.82512" lon="4.82717">
        <ele>353</ele>
        <time>2011-12-11T08:25:24Z</time>
      </trkpt>
      <trkpt lat="45.82523" lon="4.82712">
        <ele>354</ele>
        <time>2011-12-11T08:25:30Z</time>
      </trkpt>
      <trkpt lat="45.82528" lon="4.82708">
        <ele>354</ele>
        <time>2011-12-11T08:25:33Z</time>
      </trkpt>
      <trkpt lat="45.82532" lon="4.82705">
        <ele>355</ele>
        <time>2011-12-11T08:25:35Z</time>
      </trkpt>
      <trkpt lat="45.82546" lon="4.82708">
        <ele>355</ele>
        <time>2011-12-11T08:25:41Z</time>
      </trkpt>
      <trkpt lat="45.8256" lon="4.82714">
        <ele>354</ele>
        <time>2011-12-11T08:25:46Z</time>
      </trkpt>
      <trkpt lat="45.82563" lon="4.82714">
        <ele>354</ele>
        <time>2011-12-11T08:25:47Z</time>
      </trkpt>
      <trkpt lat="45.8257" lon="4.82717">
        <ele>354</ele>
        <time>2011-12-11T08:25:51Z</time>
      </trkpt>
      <trkpt lat="45.82583" lon="4.82718">
        <ele>360</ele>
        <time>2011-12-11T08:25:56Z</time>
      </trkpt>
      <trkpt lat="45.82588" lon="4.82719">
        <ele>360</ele>
        <time>2011-12-11T08:25:57Z</time>
      </trkpt>
      <trkpt lat="45.82593" lon="4.82722">
        <ele>359</ele>
        <time>2011-12-11T08:26:01Z</time>
      </trkpt>
      <trkpt lat="45.826" lon="4.82724">
        <ele>360</ele>
        <time>2011-12-11T08:26:06Z</time>
      </trkpt>
      <trkpt lat="45.82602" lon="4.82724">
        <ele>360</ele>
        <time>2011-12-11T08:26:07Z</time>
      </trkpt>
      <trkpt lat="45.82609" lon="4.82727">
        <ele>361</ele>
        <time>2011-12-11T08:26:11Z</time>
      </trkpt>
      <trkpt lat="45.82619" lon="4.82733">
        <ele>361</ele>
        <time>2011-12-11T08:26:16Z</time>
      </trkpt>
      <trkpt lat="45.82627" lon="4.82739">
        <ele>362</ele>
        <time>2011-12-11T08:26:21Z</time>
      </trkpt>
      <trkpt lat="45.82635" lon="4.82747">
        <ele>362</ele>
        <time>2011-12-11T08:26:25Z</time>
      </trkpt>
      <trkpt lat="45.82637" lon="4.82749">
        <ele>362</ele>
        <time>2011-12-11T08:26:26Z</time>
      </trkpt>
      <trkpt lat="45.82646" lon="4.82759">
        <ele>355</ele>
        <time>2011-12-11T08:26:31Z</time>
      </trkpt>
      <trkpt lat="45.8265" lon="4.82763">
        <ele>355</ele>
        <time>2011-12-11T08:26:33Z</time>
      </trkpt>
      <trkpt lat="45.82658" lon="4.82772">
        <ele>355</ele>
        <time>2011-12-11T08:26:37Z</time>
      </trkpt>
      <trkpt lat="45.82664" lon="4.82779">
        <ele>354</ele>
        <time>2011-12-11T08:26:40Z</time>
      </trkpt>
      <trkpt lat="45.82666" lon="4.82781">
        <ele>354</ele>
        <time>2011-12-11T08:26:42Z</time>
      </trkpt>
      <trkpt lat="45.82667" lon="4.82782">
        <ele>364</ele>
        <time>2011-12-11T08:26:43Z</time>
      </trkpt>
      <trkpt lat="45.8267" lon="4.82784">
        <ele>364</ele>
        <time>2011-12-11T08:26:47Z</time>
      </trkpt>
      <trkpt lat="45.82669" lon="4.82788">
        <ele>364</ele>
        <time>2011-12-11T08:26:55Z</time>
      </trkpt>
      <trkpt lat="45.8267" lon="4.82788">
        <ele>364</ele>
        <time>2011-12-11T08:27:09Z</time>
      </trkpt>
      <trkpt lat="45.82672" lon="4.8279">
        <ele>364</ele>
        <time>2011-12-11T08:27:12Z</time>
      </trkpt>
      <trkpt lat="45.82675" lon="4.82792">
        <ele>364</ele>
        <time>2011-12-11T08:27:15Z</time>
      </trkpt>
      <trkpt lat="45.82677" lon="4.82794">
        <ele>364</ele>
        <time>2011-12-11T08:27:17Z</time>
      </trkpt>
      <trkpt lat="45.82678" lon="4.82794">
        <ele>364</ele>
        <time>2011-12-11T08:27:18Z</time>
      </trkpt>
      <trkpt lat="45.82679" lon="4.82795">
        <ele>364</ele>
        <time>2011-12-11T08:27:19Z</time>
      </trkpt>
      <trkpt lat="45.82686" lon="4.82801">
        <ele>364</ele>
        <time>2011-12-11T08:27:26Z</time>
      </trkpt>
      <trkpt lat="45.82687" lon="4.82801">
        <ele>364</ele>
        <time>2011-12-11T08:27:27Z</time>
      </trkpt>
      <trkpt lat="45.8269" lon="4.82801">
        <ele>364</ele>
        <time>2011-12-11T08:27:29Z</time>
      </trkpt>
      <trkpt lat="45.82693" lon="4.82801">
        <ele>365</ele>
        <time>2011-12-11T08:27:31Z</time>
      </trkpt>
      <trkpt lat="45.82696" lon="4.82801">
        <ele>365</ele>
        <time>2011-12-11T08:27:32Z</time>
      </trkpt>
      <trkpt lat="45.82702" lon="4.82803">
        <ele>366</ele>
        <time>2011-12-11T08:27:36Z</time>
      </trkpt>
      <trkpt lat="45.82706" lon="4.82798">
        <ele>367</ele>
        <time>2011-12-11T08:27:42Z</time>
      </trkpt>
      <trkpt lat="45.82707" lon="4.82797">
        <ele>367</ele>
        <time>2011-12-11T08:27:43Z</time>
      </trkpt>
      <trkpt lat="45.82711" lon="4.82796">
        <ele>367</ele>
        <time>2011-12-11T08:27:47Z</time>
      </trkpt>
      <trkpt lat="45.82713" lon="4.82797">
        <ele>368</ele>
        <time>2011-12-11T08:27:48Z</time>
      </trkpt>
      <trkpt lat="45.8272" lon="4.82798">
        <ele>368</ele>
        <time>2011-12-11T08:27:52Z</time>
      </trkpt>
      <trkpt lat="45.82722" lon="4.82799">
        <ele>368</ele>
        <time>2011-12-11T08:27:53Z</time>
      </trkpt>
      <trkpt lat="45.82723" lon="4.828">
        <ele>368</ele>
        <time>2011-12-11T08:27:54Z</time>
      </trkpt>
      <trkpt lat="45.82727" lon="4.82803">
        <ele>368</ele>
        <time>2011-12-11T08:27:56Z</time>
      </trkpt>
      <trkpt lat="45.82729" lon="4.82803">
        <ele>368</ele>
        <time>2011-12-11T08:27:58Z</time>
      </trkpt>
      <trkpt lat="45.82732" lon="4.82803">
        <ele>369</ele>
        <time>2011-12-11T08:27:59Z</time>
      </trkpt>
      <trkpt lat="45.82738" lon="4.82801">
        <ele>369</ele>
        <time>2011-12-11T08:28:03Z</time>
      </trkpt>
      <trkpt lat="45.82749" lon="4.82803">
        <ele>370</ele>
        <time>2011-12-11T08:28:08Z</time>
      </trkpt>
      <trkpt lat="45.82753" lon="4.82803">
        <ele>378</ele>
        <time>2011-12-11T08:28:10Z</time>
      </trkpt>
      <trkpt lat="45.82756" lon="4.82804">
        <ele>378</ele>
        <time>2011-12-11T08:28:11Z</time>
      </trkpt>
      <trkpt lat="45.82757" lon="4.82806">
        <ele>377</ele>
        <time>2011-12-11T08:28:12Z</time>
      </trkpt>
      <trkpt lat="45.82761" lon="4.82821">
        <ele>374</ele>
        <time>2011-12-11T08:28:17Z</time>
      </trkpt>
      <trkpt lat="45.82761" lon="4.82824">
        <ele>373</ele>
        <time>2011-12-11T08:28:18Z</time>
      </trkpt>
      <trkpt lat="45.82761" lon="4.82834">
        <ele>365</ele>
        <time>2011-12-11T08:28:21Z</time>
      </trkpt>
      <trkpt lat="45.82761" lon="4.82841">
        <ele>364</ele>
        <time>2011-12-11T08:28:24Z</time>
      </trkpt>
      <trkpt lat="45.82763" lon="4.82842">
        <ele>364</ele>
        <time>2011-12-11T08:28:26Z</time>
      </trkpt>
      <trkpt lat="45.82764" lon="4.82842">
        <ele>364</ele>
        <time>2011-12-11T08:28:27Z</time>
      </trkpt>
      <trkpt lat="45.82767" lon="4.82841">
        <ele>363</ele>
        <time>2011-12-11T08:28:28Z</time>
      </trkpt>
      <trkpt lat="45.82774" lon="4.82837">
        <ele>363</ele>
        <time>2011-12-11T08:28:32Z</time>
      </trkpt>
      <trkpt lat="45.82779" lon="4.82835">
        <ele>363</ele>
        <time>2011-12-11T08:28:36Z</time>
      </trkpt>
      <trkpt lat="45.82781" lon="4.82832">
        <ele>376</ele>
        <time>2011-12-11T08:28:41Z</time>
      </trkpt>
      <trkpt lat="45.82783" lon="4.8283">
        <ele>377</ele>
        <time>2011-12-11T08:28:42Z</time>
      </trkpt>
      <trkpt lat="45.82784" lon="4.82827">
        <ele>377</ele>
        <time>2011-12-11T08:28:45Z</time>
      </trkpt>
      <trkpt lat="45.82786" lon="4.82827">
        <ele>377</ele>
        <time>2011-12-11T08:28:47Z</time>
      </trkpt>
      <trkpt lat="45.82787" lon="4.82828">
        <ele>377</ele>
        <time>2011-12-11T08:28:48Z</time>
      </trkpt>
      <trkpt lat="45.82798" lon="4.82826">
        <ele>378</ele>
        <time>2011-12-11T08:28:54Z</time>
      </trkpt>
      <trkpt lat="45.828" lon="4.82825">
        <ele>378</ele>
        <time>2011-12-11T08:28:55Z</time>
      </trkpt>
      <trkpt lat="45.82801" lon="4.82823">
        <ele>378</ele>
        <time>2011-12-11T08:28:57Z</time>
      </trkpt>
      <trkpt lat="45.82803" lon="4.82821">
        <ele>378</ele>
        <time>2011-12-11T08:28:59Z</time>
      </trkpt>
      <trkpt lat="45.82806" lon="4.82819">
        <ele>379</ele>
        <time>2011-12-11T08:29:01Z</time>
      </trkpt>
      <trkpt lat="45.82805" lon="4.82816">
        <ele>379</ele>
        <time>2011-12-11T08:29:04Z</time>
      </trkpt>
      <trkpt lat="45.82808" lon="4.82809">
        <ele>380</ele>
        <time>2011-12-11T08:29:10Z</time>
      </trkpt>
      <trkpt lat="45.8281" lon="4.828">
        <ele>381</ele>
        <time>2011-12-11T08:29:23Z</time>
      </trkpt>
      <trkpt lat="45.82809" lon="4.82797">
        <ele>382</ele>
        <time>2011-12-11T08:29:30Z</time>
      </trkpt>
      <trkpt lat="45.8281" lon="4.82795">
        <ele>382</ele>
        <time>2011-12-11T08:29:33Z</time>
      </trkpt>
      <trkpt lat="45.8281" lon="4.82789">
        <ele>383</ele>
        <time>2011-12-11T08:29:40Z</time>
      </trkpt>
      <trkpt lat="45.82811" lon="4.82788">
        <ele>383</ele>
        <time>2011-12-11T08:29:41Z</time>
      </trkpt>
      <trkpt lat="45.82808" lon="4.82787">
        <ele>383</ele>
        <time>2011-12-11T08:29:43Z</time>
      </trkpt>
      <trkpt lat="45.82802" lon="4.82785">
        <ele>383</ele>
        <time>2011-12-11T08:29:47Z</time>
      </trkpt>
      <trkpt lat="45.82799" lon="4.82783">
        <ele>383</ele>
        <time>2011-12-11T08:29:51Z</time>
      </trkpt>
      <trkpt lat="45.82797" lon="4.82779">
        <ele>384</ele>
        <time>2011-12-11T08:29:54Z</time>
      </trkpt>
      <trkpt lat="45.82798" lon="4.82772">
        <ele>385</ele>
        <time>2011-12-11T08:30:00Z</time>
      </trkpt>
      <trkpt lat="45.82799" lon="4.82771">
        <ele>385</ele>
        <time>2011-12-11T08:30:01Z</time>
      </trkpt>
      <trkpt lat="45.82798" lon="4.82769">
        <ele>385</ele>
        <time>2011-12-11T08:30:05Z</time>
      </trkpt>
      <trkpt lat="45.82799" lon="4.82767">
        <ele>386</ele>
        <time>2011-12-11T08:30:07Z</time>
      </trkpt>
      <trkpt lat="45.82798" lon="4.82765">
        <ele>386</ele>
        <time>2011-12-11T08:30:09Z</time>
      </trkpt>
      <trkpt lat="45.82798" lon="4.82764">
        <ele>386</ele>
        <time>2011-12-11T08:30:11Z</time>
      </trkpt>
      <trkpt lat="45.82798" lon="4.82761">
        <ele>386</ele>
        <time>2011-12-11T08:30:13Z</time>
      </trkpt>
      <trkpt lat="45.82796" lon="4.82758">
        <ele>386</ele>
        <time>2011-12-11T08:30:17Z</time>
      </trkpt>
      <trkpt lat="45.82795" lon="4.82757">
        <ele>386</ele>
        <time>2011-12-11T08:30:18Z</time>
      </trkpt>
      <trkpt lat="45.82795" lon="4.82754">
        <ele>386</ele>
        <time>2011-12-11T08:30:22Z</time>
      </trkpt>
      <trkpt lat="45.82792" lon="4.82751">
        <ele>386</ele>
        <time>2011-12-11T08:30:25Z</time>
      </trkpt>
      <trkpt lat="45.82792" lon="4.8275">
        <ele>399</ele>
        <time>2011-12-11T08:30:26Z</time>
      </trkpt>
      <trkpt lat="45.82793" lon="4.82745">
        <ele>399</ele>
        <time>2011-12-11T08:30:30Z</time>
      </trkpt>
      <trkpt lat="45.82794" lon="4.82743">
        <ele>399</ele>
        <time>2011-12-11T08:30:32Z</time>
      </trkpt>
      <trkpt lat="45.8279" lon="4.82739">
        <ele>399</ele>
        <time>2011-12-11T08:30:36Z</time>
      </trkpt>
      <trkpt lat="45.82787" lon="4.82735">
        <ele>399</ele>
        <time>2011-12-11T08:30:42Z</time>
      </trkpt>
      <trkpt lat="45.82786" lon="4.82729">
        <ele>400</ele>
        <time>2011-12-11T08:30:49Z</time>
      </trkpt>
      <trkpt lat="45.82787" lon="4.82728">
        <ele>400</ele>
        <time>2011-12-11T08:30:50Z</time>
      </trkpt>
      <trkpt lat="45.82788" lon="4.82724">
        <ele>400</ele>
        <time>2011-12-11T08:30:54Z</time>
      </trkpt>
      <trkpt lat="45.82787" lon="4.82723">
        <ele>400</ele>
        <time>2011-12-11T08:30:55Z</time>
      </trkpt>
      <trkpt lat="45.82788" lon="4.82719">
        <ele>401</ele>
        <time>2011-12-11T08:31:00Z</time>
      </trkpt>
      <trkpt lat="45.82791" lon="4.82714">
        <ele>401</ele>
        <time>2011-12-11T08:31:07Z</time>
      </trkpt>
      <trkpt lat="45.82792" lon="4.82712">
        <ele>402</ele>
        <time>2011-12-11T08:31:09Z</time>
      </trkpt>
      <trkpt lat="45.82796" lon="4.82706">
        <ele>402</ele>
        <time>2011-12-11T08:31:14Z</time>
      </trkpt>
      <trkpt lat="45.82797" lon="4.82702">
        <ele>403</ele>
        <time>2011-12-11T08:31:17Z</time>
      </trkpt>
      <trkpt lat="45.828" lon="4.82696">
        <ele>404</ele>
        <time>2011-12-11T08:31:22Z</time>
      </trkpt>
      <trkpt lat="45.82801" lon="4.82696">
        <ele>404</ele>
        <time>2011-12-11T08:31:23Z</time>
      </trkpt>
      <trkpt lat="45.82803" lon="4.82688">
        <ele>405</ele>
        <time>2011-12-11T08:31:29Z</time>
      </trkpt>
      <trkpt lat="45.82803" lon="4.82686">
        <ele>405</ele>
        <time>2011-12-11T08:31:30Z</time>
      </trkpt>
      <trkpt lat="45.82803" lon="4.82683">
        <ele>405</ele>
        <time>2011-12-11T08:31:33Z</time>
      </trkpt>
      <trkpt lat="45.82804" lon="4.82681">
        <ele>405</ele>
        <time>2011-12-11T08:31:34Z</time>
      </trkpt>
      <trkpt lat="45.82803" lon="4.82678">
        <ele>406</ele>
        <time>2011-12-11T08:31:36Z</time>
      </trkpt>
      <trkpt lat="45.82804" lon="4.82676">
        <ele>406</ele>
        <time>2011-12-11T08:31:42Z</time>
      </trkpt>
      <trkpt lat="45.82803" lon="4.82675">
        <ele>406</ele>
        <time>2011-12-11T08:31:49Z</time>
      </trkpt>
      <trkpt lat="45.82808" lon="4.8268">
        <ele>406</ele>
        <time>2011-12-11T08:32:04Z</time>
      </trkpt>
      <trkpt lat="45.82814" lon="4.82676">
        <ele>407</ele>
        <time>2011-12-11T08:32:14Z</time>
      </trkpt>
      <trkpt lat="45.82816" lon="4.82673">
        <ele>408</ele>
        <time>2011-12-11T08:32:16Z</time>
      </trkpt>
      <trkpt lat="45.82818" lon="4.8267">
        <ele>409</ele>
        <time>2011-12-11T08:32:18Z</time>
      </trkpt>
      <trkpt lat="45.82827" lon="4.82666">
        <ele>414</ele>
        <time>2011-12-11T08:32:22Z</time>
      </trkpt>
      <trkpt lat="45.82828" lon="4.82663">
        <ele>414</ele>
        <time>2011-12-11T08:32:24Z</time>
      </trkpt>
      <trkpt lat="45.8283" lon="4.82661">
        <ele>414</ele>
        <time>2011-12-11T08:32:25Z</time>
      </trkpt>
      <trkpt lat="45.82835" lon="4.82653">
        <ele>416</ele>
        <time>2011-12-11T08:32:29Z</time>
      </trkpt>
      <trkpt lat="45.82839" lon="4.82648">
        <ele>416</ele>
        <time>2011-12-11T08:32:34Z</time>
      </trkpt>
      <trkpt lat="45.82841" lon="4.82644">
        <ele>417</ele>
        <time>2011-12-11T08:32:36Z</time>
      </trkpt>
      <trkpt lat="45.82844" lon="4.82639">
        <ele>417</ele>
        <time>2011-12-11T08:32:38Z</time>
      </trkpt>
      <trkpt lat="45.82846" lon="4.82636">
        <ele>418</ele>
        <time>2011-12-11T08:32:40Z</time>
      </trkpt>
      <trkpt lat="45.82854" lon="4.82626">
        <ele>418</ele>
        <time>2011-12-11T08:32:45Z</time>
      </trkpt>
      <trkpt lat="45.82855" lon="4.82625">
        <ele>418</ele>
        <time>2011-12-11T08:32:46Z</time>
      </trkpt>
      <trkpt lat="45.82857" lon="4.82622">
        <ele>419</ele>
        <time>2011-12-11T08:32:49Z</time>
      </trkpt>
      <trkpt lat="45.82859" lon="4.8262">
        <ele>419</ele>
        <time>2011-12-11T08:32:50Z</time>
      </trkpt>
      <trkpt lat="45.82864" lon="4.82612">
        <ele>419</ele>
        <time>2011-12-11T08:32:54Z</time>
      </trkpt>
      <trkpt lat="45.82867" lon="4.8261">
        <ele>419</ele>
        <time>2011-12-11T08:32:55Z</time>
      </trkpt>
      <trkpt lat="45.82872" lon="4.82606">
        <ele>419</ele>
        <time>2011-12-11T08:32:59Z</time>
      </trkpt>
      <trkpt lat="45.82874" lon="4.82604">
        <ele>419</ele>
        <time>2011-12-11T08:33:01Z</time>
      </trkpt>
      <trkpt lat="45.82885" lon="4.82597">
        <ele>420</ele>
        <time>2011-12-11T08:33:07Z</time>
      </trkpt>
      <trkpt lat="45.82889" lon="4.82596">
        <ele>420</ele>
        <time>2011-12-11T08:33:09Z</time>
      </trkpt>
      <trkpt lat="45.82896" lon="4.82594">
        <ele>420</ele>
        <time>2011-12-11T08:33:12Z</time>
      </trkpt>
      <trkpt lat="45.82905" lon="4.82586">
        <ele>421</ele>
        <time>2011-12-11T08:33:18Z</time>
      </trkpt>
      <trkpt lat="45.82908" lon="4.82585">
        <ele>422</ele>
        <time>2011-12-11T08:33:19Z</time>
      </trkpt>
      <trkpt lat="45.82919" lon="4.8258">
        <ele>423</ele>
        <time>2011-12-11T08:33:24Z</time>
      </trkpt>
      <trkpt lat="45.82926" lon="4.82576">
        <ele>422</ele>
        <time>2011-12-11T08:33:27Z</time>
      </trkpt>
      <trkpt lat="45.82931" lon="4.82572">
        <ele>421</ele>
        <time>2011-12-11T08:33:30Z</time>
      </trkpt>
      <trkpt lat="45.8294" lon="4.82563">
        <ele>421</ele>
        <time>2011-12-11T08:33:36Z</time>
      </trkpt>
      <trkpt lat="45.82942" lon="4.82561">
        <ele>421</ele>
        <time>2011-12-11T08:33:37Z</time>
      </trkpt>
      <trkpt lat="45.82948" lon="4.82549">
        <ele>421</ele>
        <time>2011-12-11T08:33:43Z</time>
      </trkpt>
      <trkpt lat="45.82955" lon="4.82542">
        <ele>420</ele>
        <time>2011-12-11T08:33:47Z</time>
      </trkpt>
      <trkpt lat="45.82958" lon="4.82539">
        <ele>420</ele>
        <time>2011-12-11T08:33:49Z</time>
      </trkpt>
      <trkpt lat="45.82962" lon="4.82535">
        <ele>420</ele>
        <time>2011-12-11T08:33:52Z</time>
      </trkpt>
      <trkpt lat="45.82964" lon="4.82533">
        <ele>420</ele>
        <time>2011-12-11T08:33:54Z</time>
      </trkpt>
      <trkpt lat="45.8297" lon="4.82525">
        <ele>421</ele>
        <time>2011-12-11T08:33:59Z</time>
      </trkpt>
      <trkpt lat="45.82982" lon="4.82513">
        <ele>421</ele>
        <time>2011-12-11T08:34:05Z</time>
      </trkpt>
      <trkpt lat="45.82983" lon="4.82511">
        <ele>421</ele>
        <time>2011-12-11T08:34:06Z</time>
      </trkpt>
      <trkpt lat="45.82984" lon="4.82508">
        <ele>421</ele>
        <time>2011-12-11T08:34:07Z</time>
      </trkpt>
      <trkpt lat="45.82986" lon="4.825">
        <ele>424</ele>
        <time>2011-12-11T08:34:10Z</time>
      </trkpt>
      <trkpt lat="45.82986" lon="4.82497">
        <ele>424</ele>
        <time>2011-12-11T08:34:11Z</time>
      </trkpt>
      <trkpt lat="45.82986" lon="4.82486">
        <ele>424</ele>
        <time>2011-12-11T08:34:15Z</time>
      </trkpt>
      <trkpt lat="45.82985" lon="4.82482">
        <ele>425</ele>
        <time>2011-12-11T08:34:16Z</time>
      </trkpt>
      <trkpt lat="45.82981" lon="4.8247">
        <ele>426</ele>
        <time>2011-12-11T08:34:20Z</time>
      </trkpt>
      <trkpt lat="45.8298" lon="4.82457">
        <ele>426</ele>
        <time>2011-12-11T08:34:26Z</time>
      </trkpt>
      <trkpt lat="45.82978" lon="4.8245">
        <ele>427</ele>
        <time>2011-12-11T08:34:30Z</time>
      </trkpt>
      <trkpt lat="45.82978" lon="4.82448">
        <ele>427</ele>
        <time>2011-12-11T08:34:32Z</time>
      </trkpt>
      <trkpt lat="45.82977" lon="4.82438">
        <ele>427</ele>
        <time>2011-12-11T08:34:37Z</time>
      </trkpt>
      <trkpt lat="45.82976" lon="4.8243">
        <ele>427</ele>
        <time>2011-12-11T08:34:40Z</time>
      </trkpt>
      <trkpt lat="45.82975" lon="4.82421">
        <ele>427</ele>
        <time>2011-12-11T08:34:43Z</time>
      </trkpt>
      <trkpt lat="45.82969" lon="4.82406">
        <ele>428</ele>
        <time>2011-12-11T08:34:47Z</time>
      </trkpt>
      <trkpt lat="45.82967" lon="4.824">
        <ele>428</ele>
        <time>2011-12-11T08:34:49Z</time>
      </trkpt>
      <trkpt lat="45.82965" lon="4.82383">
        <ele>428</ele>
        <time>2011-12-11T08:34:54Z</time>
      </trkpt>
      <trkpt lat="45.82964" lon="4.8238">
        <ele>428</ele>
        <time>2011-12-11T08:34:55Z</time>
      </trkpt>
      <trkpt lat="45.82958" lon="4.82363">
        <ele>429</ele>
        <time>2011-12-11T08:35:00Z</time>
      </trkpt>
      <trkpt lat="45.82955" lon="4.82354">
        <ele>429</ele>
        <time>2011-12-11T08:35:03Z</time>
      </trkpt>
      <trkpt lat="45.82953" lon="4.82346">
        <ele>429</ele>
        <time>2011-12-11T08:35:05Z</time>
      </trkpt>
      <trkpt lat="45.82958" lon="4.82332">
        <ele>426</ele>
        <time>2011-12-11T08:35:10Z</time>
      </trkpt>
      <trkpt lat="45.8296" lon="4.8233">
        <ele>425</ele>
        <time>2011-12-11T08:35:11Z</time>
      </trkpt>
      <trkpt lat="45.82963" lon="4.82328">
        <ele>425</ele>
        <time>2011-12-11T08:35:12Z</time>
      </trkpt>
      <trkpt lat="45.82965" lon="4.82323">
        <ele>425</ele>
        <time>2011-12-11T08:35:14Z</time>
      </trkpt>
      <trkpt lat="45.82965" lon="4.82312">
        <ele>424</ele>
        <time>2011-12-11T08:35:19Z</time>
      </trkpt>
      <trkpt lat="45.82962" lon="4.8231">
        <ele>424</ele>
        <time>2011-12-11T08:35:20Z</time>
      </trkpt>
      <trkpt lat="45.8296" lon="4.82303">
        <ele>424</ele>
        <time>2011-12-11T08:35:24Z</time>
      </trkpt>
      <trkpt lat="45.82958" lon="4.82299">
        <ele>424</ele>
        <time>2011-12-11T08:35:26Z</time>
      </trkpt>
      <trkpt lat="45.82958" lon="4.82298">
        <ele>424</ele>
        <time>2011-12-11T08:35:27Z</time>
      </trkpt>
      <trkpt lat="45.82955" lon="4.82288">
        <ele>424</ele>
        <time>2011-12-11T08:35:32Z</time>
      </trkpt>
      <trkpt lat="45.82953" lon="4.82278">
        <ele>424</ele>
        <time>2011-12-11T08:35:36Z</time>
      </trkpt>
      <trkpt lat="45.82952" lon="4.82276">
        <ele>424</ele>
        <time>2011-12-11T08:35:37Z</time>
      </trkpt>
      <trkpt lat="45.82953" lon="4.82265">
        <ele>423</ele>
        <time>2011-12-11T08:35:42Z</time>
      </trkpt>
      <trkpt lat="45.82953" lon="4.82251">
        <ele>423</ele>
        <time>2011-12-11T08:35:47Z</time>
      </trkpt>
      <trkpt lat="45.82944" lon="4.8224">
        <ele>418</ele>
        <time>2011-12-11T08:35:51Z</time>
      </trkpt>
      <trkpt lat="45.82941" lon="4.82234">
        <ele>417</ele>
        <time>2011-12-11T08:35:53Z</time>
      </trkpt>
      <trkpt lat="45.8294" lon="4.82231">
        <ele>417</ele>
        <time>2011-12-11T08:35:54Z</time>
      </trkpt>
      <trkpt lat="45.82937" lon="4.82223">
        <ele>417</ele>
        <time>2011-12-11T08:35:56Z</time>
      </trkpt>
      <trkpt lat="45.82926" lon="4.82209">
        <ele>416</ele>
        <time>2011-12-11T08:36:01Z</time>
      </trkpt>
      <trkpt lat="45.82915" lon="4.82198">
        <ele>423</ele>
        <time>2011-12-11T08:36:06Z</time>
      </trkpt>
      <trkpt lat="45.82909" lon="4.82193">
        <ele>422</ele>
        <time>2011-12-11T08:36:09Z</time>
      </trkpt>
      <trkpt lat="45.82906" lon="4.82187">
        <ele>422</ele>
        <time>2011-12-11T08:36:11Z</time>
      </trkpt>
      <trkpt lat="45.82904" lon="4.82186">
        <ele>422</ele>
        <time>2011-12-11T08:36:12Z</time>
      </trkpt>
      <trkpt lat="45.82899" lon="4.82185">
        <ele>422</ele>
        <time>2011-12-11T08:36:14Z</time>
      </trkpt>
      <trkpt lat="45.82893" lon="4.82182">
        <ele>423</ele>
        <time>2011-12-11T08:36:17Z</time>
      </trkpt>
      <trkpt lat="45.82888" lon="4.82177">
        <ele>423</ele>
        <time>2011-12-11T08:36:20Z</time>
      </trkpt>
      <trkpt lat="45.82879" lon="4.82173">
        <ele>424</ele>
        <time>2011-12-11T08:36:26Z</time>
      </trkpt>
      <trkpt lat="45.82875" lon="4.82173">
        <ele>425</ele>
        <time>2011-12-11T08:36:28Z</time>
      </trkpt>
      <trkpt lat="45.82865" lon="4.82172">
        <ele>426</ele>
        <time>2011-12-11T08:36:33Z</time>
      </trkpt>
      <trkpt lat="45.8286" lon="4.82176">
        <ele>427</ele>
        <time>2011-12-11T08:36:39Z</time>
      </trkpt>
      <trkpt lat="45.82856" lon="4.82175">
        <ele>427</ele>
        <time>2011-12-11T08:36:41Z</time>
      </trkpt>
      <trkpt lat="45.82855" lon="4.82175">
        <ele>427</ele>
        <time>2011-12-11T08:36:43Z</time>
      </trkpt>
      <trkpt lat="45.82845" lon="4.82177">
        <ele>428</ele>
        <time>2011-12-11T08:36:50Z</time>
      </trkpt>
      <trkpt lat="45.82844" lon="4.82182">
        <ele>428</ele>
        <time>2011-12-11T08:36:56Z</time>
      </trkpt>
      <trkpt lat="45.8284" lon="4.82186">
        <ele>428</ele>
        <time>2011-12-11T08:37:00Z</time>
      </trkpt>
      <trkpt lat="45.82839" lon="4.82186">
        <ele>428</ele>
        <time>2011-12-11T08:37:01Z</time>
      </trkpt>
      <trkpt lat="45.82839" lon="4.82191">
        <ele>429</ele>
        <time>2011-12-11T08:37:05Z</time>
      </trkpt>
      <trkpt lat="45.82836" lon="4.8219">
        <ele>429</ele>
        <time>2011-12-11T08:37:06Z</time>
      </trkpt>
      <trkpt lat="45.82829" lon="4.82191">
        <ele>436</ele>
        <time>2011-12-11T08:37:10Z</time>
      </trkpt>
      <trkpt lat="45.82828" lon="4.82193">
        <ele>436</ele>
        <time>2011-12-11T08:37:12Z</time>
      </trkpt>
      <trkpt lat="45.82827" lon="4.82192">
        <ele>436</ele>
        <time>2011-12-11T08:37:13Z</time>
      </trkpt>
      <trkpt lat="45.82822" lon="4.82192">
        <ele>437</ele>
        <time>2011-12-11T08:37:19Z</time>
      </trkpt>
      <trkpt lat="45.82819" lon="4.82192">
        <ele>437</ele>
        <time>2011-12-11T08:37:24Z</time>
      </trkpt>
      <trkpt lat="45.82817" lon="4.82193">
        <ele>437</ele>
        <time>2011-12-11T08:37:26Z</time>
      </trkpt>
      <trkpt lat="45.82815" lon="4.82195">
        <ele>437</ele>
        <time>2011-12-11T08:37:28Z</time>
      </trkpt>
      <trkpt lat="45.82807" lon="4.82195">
        <ele>438</ele>
        <time>2011-12-11T08:37:34Z</time>
      </trkpt>
      <trkpt lat="45.82801" lon="4.82195">
        <ele>439</ele>
        <time>2011-12-11T08:37:42Z</time>
      </trkpt>
      <trkpt lat="45.82799" lon="4.82195">
        <ele>439</ele>
        <time>2011-12-11T08:37:44Z</time>
      </trkpt>
      <trkpt lat="45.82798" lon="4.82197">
        <ele>439</ele>
        <time>2011-12-11T08:37:46Z</time>
      </trkpt>
      <trkpt lat="45.82796" lon="4.82197">
        <ele>439</ele>
        <time>2011-12-11T08:37:48Z</time>
      </trkpt>
      <trkpt lat="45.82792" lon="4.82196">
        <ele>439</ele>
        <time>2011-12-11T08:37:52Z</time>
      </trkpt>
      <trkpt lat="45.82786" lon="4.82195">
        <ele>440</ele>
        <time>2011-12-11T08:37:59Z</time>
      </trkpt>
      <trkpt lat="45.82784" lon="4.82196">
        <ele>440</ele>
        <time>2011-12-11T08:38:02Z</time>
      </trkpt>
      <trkpt lat="45.82782" lon="4.82197">
        <ele>440</ele>
        <time>2011-12-11T08:38:03Z</time>
      </trkpt>
      <trkpt lat="45.82775" lon="4.82197">
        <ele>441</ele>
        <time>2011-12-11T08:38:06Z</time>
      </trkpt>
      <trkpt lat="45.8277" lon="4.82203">
        <ele>441</ele>
        <time>2011-12-11T08:38:12Z</time>
      </trkpt>
      <trkpt lat="45.82767" lon="4.82208">
        <ele>441</ele>
        <time>2011-12-11T08:38:16Z</time>
      </trkpt>
      <trkpt lat="45.82766" lon="4.82208">
        <ele>442</ele>
        <time>2011-12-11T08:38:17Z</time>
      </trkpt>
      <trkpt lat="45.82766" lon="4.82208">
        <ele>442</ele>
        <time>2011-12-11T08:38:18Z</time>
      </trkpt>
      <trkpt lat="45.82765" lon="4.82208">
        <ele>442</ele>
        <time>2011-12-11T08:38:19Z</time>
      </trkpt>
      <trkpt lat="45.82764" lon="4.82209">
        <ele>442</ele>
        <time>2011-12-11T08:38:21Z</time>
      </trkpt>
      <trkpt lat="45.82762" lon="4.82211">
        <ele>442</ele>
        <time>2011-12-11T08:38:23Z</time>
      </trkpt>
      <trkpt lat="45.8276" lon="4.82214">
        <ele>442</ele>
        <time>2011-12-11T08:38:26Z</time>
      </trkpt>
      <trkpt lat="45.82758" lon="4.82215">
        <ele>442</ele>
        <time>2011-12-11T08:38:28Z</time>
      </trkpt>
      <trkpt lat="45.82756" lon="4.82216">
        <ele>442</ele>
        <time>2011-12-11T08:38:30Z</time>
      </trkpt>
      <trkpt lat="45.82751" lon="4.82218">
        <ele>443</ele>
        <time>2011-12-11T08:38:35Z</time>
      </trkpt>
      <trkpt lat="45.82747" lon="4.82219">
        <ele>449</ele>
        <time>2011-12-11T08:38:38Z</time>
      </trkpt>
      <trkpt lat="45.82736" lon="4.82224">
        <ele>449</ele>
        <time>2011-12-11T08:38:47Z</time>
      </trkpt>
      <trkpt lat="45.82734" lon="4.82225">
        <ele>449</ele>
        <time>2011-12-11T08:38:49Z</time>
      </trkpt>
      <trkpt lat="45.82727" lon="4.82231">
        <ele>449</ele>
        <time>2011-12-11T08:38:55Z</time>
      </trkpt>
      <trkpt lat="45.8272" lon="4.82237">
        <ele>450</ele>
        <time>2011-12-11T08:39:02Z</time>
      </trkpt>
      <trkpt lat="45.82718" lon="4.8224">
        <ele>450</ele>
        <time>2011-12-11T08:39:04Z</time>
      </trkpt>
      <trkpt lat="45.82711" lon="4.82245">
        <ele>450</ele>
        <time>2011-12-11T08:39:10Z</time>
      </trkpt>
      <trkpt lat="45.82705" lon="4.82255">
        <ele>451</ele>
        <time>2011-12-11T08:39:19Z</time>
      </trkpt>
      <trkpt lat="45.82704" lon="4.82256">
        <ele>451</ele>
        <time>2011-12-11T08:39:20Z</time>
      </trkpt>
      <trkpt lat="45.82704" lon="4.82257">
        <ele>451</ele>
        <time>2011-12-11T08:39:21Z</time>
      </trkpt>
      <trkpt lat="45.82704" lon="4.82262">
        <ele>451</ele>
        <time>2011-12-11T08:39:24Z</time>
      </trkpt>
      <trkpt lat="45.82703" lon="4.82265">
        <ele>451</ele>
        <time>2011-12-11T08:39:29Z</time>
      </trkpt>
      <trkpt lat="45.82698" lon="4.82259">
        <ele>451</ele>
        <time>2011-12-11T08:39:39Z</time>
      </trkpt>
      <trkpt lat="45.82694" lon="4.82252">
        <ele>451</ele>
        <time>2011-12-11T08:39:42Z</time>
      </trkpt>
      <trkpt lat="45.82691" lon="4.82247">
        <ele>452</ele>
        <time>2011-12-11T08:39:44Z</time>
      </trkpt>
      <trkpt lat="45.82683" lon="4.82231">
        <ele>452</ele>
        <time>2011-12-11T08:39:50Z</time>
      </trkpt>
      <trkpt lat="45.82676" lon="4.82217">
        <ele>451</ele>
        <time>2011-12-11T08:39:55Z</time>
      </trkpt>
      <trkpt lat="45.82672" lon="4.82209">
        <ele>451</ele>
        <time>2011-12-11T08:39:58Z</time>
      </trkpt>
      <trkpt lat="45.82669" lon="4.82203">
        <ele>451</ele>
        <time>2011-12-11T08:40:00Z</time>
      </trkpt>
      <trkpt lat="45.82663" lon="4.82185">
        <ele>455</ele>
        <time>2011-12-11T08:40:06Z</time>
      </trkpt>
      <trkpt lat="45.82656" lon="4.82171">
        <ele>455</ele>
        <time>2011-12-11T08:40:11Z</time>
      </trkpt>
      <trkpt lat="45.82652" lon="4.82161">
        <ele>454</ele>
        <time>2011-12-11T08:40:14Z</time>
      </trkpt>
      <trkpt lat="45.82649" lon="4.82155">
        <ele>454</ele>
        <time>2011-12-11T08:40:16Z</time>
      </trkpt>
      <trkpt lat="45.82644" lon="4.82137">
        <ele>454</ele>
        <time>2011-12-11T08:40:22Z</time>
      </trkpt>
      <trkpt lat="45.82635" lon="4.82117">
        <ele>454</ele>
        <time>2011-12-11T08:40:28Z</time>
      </trkpt>
      <trkpt lat="45.82633" lon="4.82113">
        <ele>454</ele>
        <time>2011-12-11T08:40:29Z</time>
      </trkpt>
      <trkpt lat="45.82629" lon="4.82099">
        <ele>454</ele>
        <time>2011-12-11T08:40:34Z</time>
      </trkpt>
      <trkpt lat="45.82626" lon="4.82089">
        <ele>455</ele>
        <time>2011-12-11T08:40:37Z</time>
      </trkpt>
      <trkpt lat="45.8262" lon="4.82079">
        <ele>455</ele>
        <time>2011-12-11T08:40:40Z</time>
      </trkpt>
      <trkpt lat="45.82615" lon="4.82066">
        <ele>456</ele>
        <time>2011-12-11T08:40:44Z</time>
      </trkpt>
      <trkpt lat="45.82614" lon="4.82062">
        <ele>456</ele>
        <time>2011-12-11T08:40:45Z</time>
      </trkpt>
      <trkpt lat="45.82615" lon="4.82048">
        <ele>456</ele>
        <time>2011-12-11T08:40:50Z</time>
      </trkpt>
      <trkpt lat="45.82616" lon="4.8204">
        <ele>456</ele>
        <time>2011-12-11T08:40:53Z</time>
      </trkpt>
      <trkpt lat="45.82617" lon="4.82033">
        <ele>456</ele>
        <time>2011-12-11T08:40:55Z</time>
      </trkpt>
      <trkpt lat="45.82618" lon="4.82027">
        <ele>456</ele>
        <time>2011-12-11T08:40:57Z</time>
      </trkpt>
      <trkpt lat="45.82619" lon="4.82022">
        <ele>456</ele>
        <time>2011-12-11T08:40:59Z</time>
      </trkpt>
      <trkpt lat="45.82624" lon="4.8202">
        <ele>455</ele>
        <time>2011-12-11T08:41:04Z</time>
      </trkpt>
      <trkpt lat="45.82624" lon="4.82021">
        <ele>455</ele>
        <time>2011-12-11T08:41:05Z</time>
      </trkpt>
      <trkpt lat="45.82626" lon="4.82021">
        <ele>455</ele>
        <time>2011-12-11T08:41:06Z</time>
      </trkpt>
      <trkpt lat="45.82627" lon="4.82019">
        <ele>455</ele>
        <time>2011-12-11T08:41:10Z</time>
      </trkpt>
      <trkpt lat="45.82628" lon="4.8202">
        <ele>455</ele>
        <time>2011-12-11T08:41:11Z</time>
      </trkpt>
      <trkpt lat="45.82634" lon="4.82028">
        <ele>455</ele>
        <time>2011-12-11T08:41:15Z</time>
      </trkpt>
      <trkpt lat="45.82636" lon="4.82029">
        <ele>454</ele>
        <time>2011-12-11T08:41:16Z</time>
      </trkpt>
      <trkpt lat="45.82639" lon="4.82028">
        <ele>454</ele>
        <time>2011-12-11T08:41:18Z</time>
      </trkpt>
      <trkpt lat="45.82639" lon="4.82029">
        <ele>454</ele>
        <time>2011-12-11T08:41:22Z</time>
      </trkpt>
      <trkpt lat="45.8264" lon="4.82024">
        <ele>454</ele>
        <time>2011-12-11T08:41:26Z</time>
      </trkpt>
      <trkpt lat="45.8264" lon="4.82018">
        <ele>454</ele>
        <time>2011-12-11T08:41:29Z</time>
      </trkpt>
      <trkpt lat="45.82639" lon="4.82013">
        <ele>454</ele>
        <time>2011-12-11T08:41:32Z</time>
      </trkpt>
      <trkpt lat="45.82639" lon="4.82009">
        <ele>454</ele>
        <time>2011-12-11T08:41:34Z</time>
      </trkpt>
      <trkpt lat="45.8264" lon="4.82003">
        <ele>454</ele>
        <time>2011-12-11T08:41:36Z</time>
      </trkpt>
      <trkpt lat="45.82638" lon="4.81999">
        <ele>455</ele>
        <time>2011-12-11T08:41:37Z</time>
      </trkpt>
      <trkpt lat="45.82637" lon="4.81996">
        <ele>455</ele>
        <time>2011-12-11T08:41:38Z</time>
      </trkpt>
      <trkpt lat="45.82634" lon="4.81991">
        <ele>455</ele>
        <time>2011-12-11T08:41:40Z</time>
      </trkpt>
      <trkpt lat="45.82638" lon="4.81989">
        <ele>455</ele>
        <time>2011-12-11T08:41:44Z</time>
      </trkpt>
      <trkpt lat="45.82642" lon="4.81988">
        <ele>455</ele>
        <time>2011-12-11T08:41:49Z</time>
      </trkpt>
      <trkpt lat="45.82639" lon="4.81979">
        <ele>455</ele>
        <time>2011-12-11T08:41:55Z</time>
      </trkpt>
      <trkpt lat="45.82639" lon="4.81979">
        <ele>455</ele>
        <time>2011-12-11T08:41:56Z</time>
      </trkpt>
      <trkpt lat="45.82636" lon="4.81978">
        <ele>455</ele>
        <time>2011-12-11T08:41:58Z</time>
      </trkpt>
      <trkpt lat="45.82635" lon="4.81977">
        <ele>455</ele>
        <time>2011-12-11T08:41:59Z</time>
      </trkpt>
      <trkpt lat="45.82633" lon="4.8198">
        <ele>455</ele>
        <time>2011-12-11T08:42:02Z</time>
      </trkpt>
      <trkpt lat="45.82633" lon="4.81979">
        <ele>455</ele>
        <time>2011-12-11T08:42:03Z</time>
      </trkpt>
      <trkpt lat="45.82635" lon="4.81975">
        <ele>455</ele>
        <time>2011-12-11T08:42:06Z</time>
      </trkpt>
      <trkpt lat="45.82636" lon="4.81971">
        <ele>455</ele>
        <time>2011-12-11T08:42:09Z</time>
      </trkpt>
      <trkpt lat="45.82635" lon="4.81973">
        <ele>455</ele>
        <time>2011-12-11T08:42:16Z</time>
      </trkpt>
      <trkpt lat="45.82637" lon="4.81978">
        <ele>455</ele>
        <time>2011-12-11T08:42:20Z</time>
      </trkpt>
      <trkpt lat="45.82639" lon="4.8198">
        <ele>455</ele>
        <time>2011-12-11T08:42:23Z</time>
      </trkpt>
      <trkpt lat="45.82641" lon="4.81978">
        <ele>455</ele>
        <time>2011-12-11T08:42:25Z</time>
      </trkpt>
      <trkpt lat="45.82642" lon="4.81977">
        <ele>455</ele>
        <time>2011-12-11T08:42:26Z</time>
      </trkpt>
      <trkpt lat="45.82643" lon="4.81976">
        <ele>455</ele>
        <time>2011-12-11T08:42:28Z</time>
      </trkpt>
      <trkpt lat="45.82643" lon="4.81975">
        <ele>455</ele>
        <time>2011-12-11T08:42:29Z</time>
      </trkpt>
      <trkpt lat="45.82643" lon="4.81971">
        <ele>455</ele>
        <time>2011-12-11T08:42:32Z</time>
      </trkpt>
      <trkpt lat="45.82645" lon="4.8198">
        <ele>455</ele>
        <time>2011-12-11T08:42:44Z</time>
      </trkpt>
      <trkpt lat="45.82646" lon="4.81981">
        <ele>455</ele>
        <time>2011-12-11T08:42:47Z</time>
      </trkpt>
      <trkpt lat="45.82652" lon="4.8198">
        <ele>454</ele>
        <time>2011-12-11T08:42:52Z</time>
      </trkpt>
      <trkpt lat="45.82654" lon="4.81982">
        <ele>454</ele>
        <time>2011-12-11T08:42:55Z</time>
      </trkpt>
      <trkpt lat="45.82656" lon="4.81983">
        <ele>454</ele>
        <time>2011-12-11T08:42:57Z</time>
      </trkpt>
      <trkpt lat="45.82655" lon="4.81984">
        <ele>454</ele>
        <time>2011-12-11T08:43:00Z</time>
      </trkpt>
      <trkpt lat="45.82655" lon="4.8198">
        <ele>454</ele>
        <time>2011-12-11T08:43:04Z</time>
      </trkpt>
      <trkpt lat="45.82655" lon="4.81977">
        <ele>454</ele>
        <time>2011-12-11T08:43:07Z</time>
      </trkpt>
      <trkpt lat="45.82654" lon="4.81973">
        <ele>454</ele>
        <time>2011-12-11T08:43:09Z</time>
      </trkpt>
      <trkpt lat="45.82651" lon="4.81969">
        <ele>455</ele>
        <time>2011-12-11T08:43:11Z</time>
      </trkpt>
      <trkpt lat="45.8265" lon="4.81968">
        <ele>455</ele>
        <time>2011-12-11T08:43:13Z</time>
      </trkpt>
      <trkpt lat="45.82652" lon="4.81971">
        <ele>455</ele>
        <time>2011-12-11T08:43:15Z</time>
      </trkpt>
      <trkpt lat="45.82654" lon="4.81967">
        <ele>455</ele>
        <time>2011-12-11T08:43:21Z</time>
      </trkpt>
      <trkpt lat="45.82656" lon="4.81965">
        <ele>455</ele>
        <time>2011-12-11T08:43:24Z</time>
      </trkpt>
      <trkpt lat="45.82657" lon="4.81954">
        <ele>455</ele>
        <time>2011-12-11T08:43:31Z</time>
      </trkpt>
      <trkpt lat="45.82661" lon="4.81953">
        <ele>455</ele>
        <time>2011-12-11T08:43:35Z</time>
      </trkpt>
      <trkpt lat="45.82661" lon="4.81951">
        <ele>455</ele>
        <time>2011-12-11T08:43:38Z</time>
      </trkpt>
      <trkpt lat="45.82661" lon="4.81955">
        <ele>455</ele>
        <time>2011-12-11T08:43:41Z</time>
      </trkpt>
      <trkpt lat="45.8266" lon="4.81955">
        <ele>455</ele>
        <time>2011-12-11T08:43:42Z</time>
      </trkpt>
      <trkpt lat="45.82679" lon="4.81957">
        <ele>447</ele>
        <time>2011-12-11T08:43:45Z</time>
      </trkpt>
      <trkpt lat="45.82803" lon="4.81967">
        <ele>427</ele>
        <time>2011-12-11T08:44:29Z</time>
      </trkpt>
      <trkpt lat="45.82819" lon="4.81965">
        <ele>425</ele>
        <time>2011-12-11T08:44:36Z</time>
      </trkpt>
      <trkpt lat="45.82825" lon="4.81969">
        <ele>425</ele>
        <time>2011-12-11T08:44:42Z</time>
      </trkpt>
      <trkpt lat="45.82834" lon="4.81969">
        <ele>414</ele>
        <time>2011-12-11T08:44:45Z</time>
      </trkpt>
      <trkpt lat="45.82837" lon="4.81969">
        <ele>414</ele>
        <time>2011-12-11T08:44:47Z</time>
      </trkpt>
      <trkpt lat="45.8284" lon="4.8197">
        <ele>414</ele>
        <time>2011-12-11T08:44:49Z</time>
      </trkpt>
      <trkpt lat="45.82849" lon="4.8197">
        <ele>413</ele>
        <time>2011-12-11T08:44:54Z</time>
      </trkpt>
      <trkpt lat="45.82856" lon="4.81971">
        <ele>412</ele>
        <time>2011-12-11T08:44:58Z</time>
      </trkpt>
      <trkpt lat="45.82864" lon="4.81974">
        <ele>412</ele>
        <time>2011-12-11T08:45:02Z</time>
      </trkpt>
      <trkpt lat="45.82866" lon="4.81975">
        <ele>411</ele>
        <time>2011-12-11T08:45:03Z</time>
      </trkpt>
      <trkpt lat="45.82874" lon="4.81977">
        <ele>410</ele>
        <time>2011-12-11T08:45:06Z</time>
      </trkpt>
      <trkpt lat="45.82876" lon="4.81976">
        <ele>410</ele>
        <time>2011-12-11T08:45:07Z</time>
      </trkpt>
      <trkpt lat="45.82894" lon="4.81977">
        <ele>408</ele>
        <time>2011-12-11T08:45:16Z</time>
      </trkpt>
      <trkpt lat="45.82897" lon="4.81978">
        <ele>407</ele>
        <time>2011-12-11T08:45:18Z</time>
      </trkpt>
      <trkpt lat="45.82902" lon="4.81981">
        <ele>406</ele>
        <time>2011-12-11T08:45:21Z</time>
      </trkpt>
      <trkpt lat="45.82922" lon="4.81989">
        <ele>397</ele>
        <time>2011-12-11T08:45:27Z</time>
      </trkpt>
      <trkpt lat="45.8294" lon="4.81992">
        <ele>396</ele>
        <time>2011-12-11T08:45:31Z</time>
      </trkpt>
      <trkpt lat="45.82948" lon="4.81994">
        <ele>395</ele>
        <time>2011-12-11T08:45:34Z</time>
      </trkpt>
      <trkpt lat="45.82949" lon="4.81994">
        <ele>395</ele>
        <time>2011-12-11T08:45:41Z</time>
      </trkpt>
      <trkpt lat="45.82953" lon="4.81997">
        <ele>395</ele>
        <time>2011-12-11T08:45:50Z</time>
      </trkpt>
      <trkpt lat="45.82949" lon="4.81996">
        <ele>395</ele>
        <time>2011-12-11T08:45:53Z</time>
      </trkpt>
      <trkpt lat="45.82947" lon="4.81996">
        <ele>395</ele>
        <time>2011-12-11T08:45:54Z</time>
      </trkpt>
      <trkpt lat="45.82945" lon="4.81995">
        <ele>396</ele>
        <time>2011-12-11T08:45:55Z</time>
      </trkpt>
      <trkpt lat="45.8294" lon="4.81995">
        <ele>396</ele>
        <time>2011-12-11T08:45:57Z</time>
      </trkpt>
      <trkpt lat="45.82928" lon="4.8199">
        <ele>397</ele>
        <time>2011-12-11T08:46:02Z</time>
      </trkpt>
      <trkpt lat="45.82925" lon="4.8199">
        <ele>397</ele>
        <time>2011-12-11T08:46:06Z</time>
      </trkpt>
      <trkpt lat="45.82934" lon="4.81995">
        <ele>397</ele>
        <time>2011-12-11T08:46:16Z</time>
      </trkpt>
      <trkpt lat="45.82943" lon="4.81999">
        <ele>396</ele>
        <time>2011-12-11T08:46:21Z</time>
      </trkpt>
      <trkpt lat="45.82946" lon="4.81995">
        <ele>395</ele>
        <time>2011-12-11T08:46:33Z</time>
      </trkpt>
      <trkpt lat="45.82956" lon="4.81992">
        <ele>394</ele>
        <time>2011-12-11T08:46:38Z</time>
      </trkpt>
      <trkpt lat="45.82958" lon="4.8199">
        <ele>394</ele>
        <time>2011-12-11T08:46:39Z</time>
      </trkpt>
      <trkpt lat="45.82959" lon="4.81989">
        <ele>394</ele>
        <time>2011-12-11T08:46:40Z</time>
      </trkpt>
      <trkpt lat="45.82961" lon="4.81986">
        <ele>394</ele>
        <time>2011-12-11T08:46:42Z</time>
      </trkpt>
      <trkpt lat="45.82961" lon="4.81984">
        <ele>394</ele>
        <time>2011-12-11T08:46:43Z</time>
      </trkpt>
      <trkpt lat="45.82962" lon="4.8198">
        <ele>394</ele>
        <time>2011-12-11T08:46:46Z</time>
      </trkpt>
      <trkpt lat="45.82964" lon="4.81964">
        <ele>394</ele>
        <time>2011-12-11T08:46:55Z</time>
      </trkpt>
      <trkpt lat="45.82966" lon="4.81957">
        <ele>394</ele>
        <time>2011-12-11T08:46:58Z</time>
      </trkpt>
      <trkpt lat="45.82968" lon="4.81949">
        <ele>394</ele>
        <time>2011-12-11T08:47:01Z</time>
      </trkpt>
      <trkpt lat="45.8297" lon="4.81937">
        <ele>393</ele>
        <time>2011-12-11T08:47:06Z</time>
      </trkpt>
      <trkpt lat="45.82972" lon="4.81932">
        <ele>393</ele>
        <time>2011-12-11T08:47:09Z</time>
      </trkpt>
      <trkpt lat="45.82974" lon="4.81927">
        <ele>392</ele>
        <time>2011-12-11T08:47:12Z</time>
      </trkpt>
      <trkpt lat="45.82972" lon="4.81917">
        <ele>392</ele>
        <time>2011-12-11T08:47:16Z</time>
      </trkpt>
      <trkpt lat="45.82972" lon="4.81906">
        <ele>392</ele>
        <time>2011-12-11T08:47:20Z</time>
      </trkpt>
      <trkpt lat="45.82971" lon="4.81904">
        <ele>393</ele>
        <time>2011-12-11T08:47:21Z</time>
      </trkpt>
      <trkpt lat="45.82971" lon="4.81886">
        <ele>393</ele>
        <time>2011-12-11T08:47:27Z</time>
      </trkpt>
      <trkpt lat="45.82972" lon="4.81884">
        <ele>393</ele>
        <time>2011-12-11T08:47:28Z</time>
      </trkpt>
      <trkpt lat="45.82973" lon="4.81879">
        <ele>392</ele>
        <time>2011-12-11T08:47:30Z</time>
      </trkpt>
      <trkpt lat="45.82978" lon="4.81877">
        <ele>392</ele>
        <time>2011-12-11T08:47:31Z</time>
      </trkpt>
      <trkpt lat="45.82982" lon="4.81876">
        <ele>391</ele>
        <time>2011-12-11T08:47:32Z</time>
      </trkpt>
      <trkpt lat="45.82989" lon="4.81875">
        <ele>390</ele>
        <time>2011-12-11T08:47:33Z</time>
      </trkpt>
      <trkpt lat="45.82988" lon="4.81873">
        <ele>390</ele>
        <time>2011-12-11T08:47:34Z</time>
      </trkpt>
      <trkpt lat="45.82997" lon="4.81861">
        <ele>388</ele>
        <time>2011-12-11T08:47:39Z</time>
      </trkpt>
      <trkpt lat="45.83" lon="4.81851">
        <ele>385</ele>
        <time>2011-12-11T08:47:43Z</time>
      </trkpt>
      <trkpt lat="45.82999" lon="4.81848">
        <ele>384</ele>
        <time>2011-12-11T08:47:44Z</time>
      </trkpt>
      <trkpt lat="45.83" lon="4.81845">
        <ele>370</ele>
        <time>2011-12-11T08:47:45Z</time>
      </trkpt>
      <trkpt lat="45.82994" lon="4.8183">
        <ele>380</ele>
        <time>2011-12-11T08:47:50Z</time>
      </trkpt>
      <trkpt lat="45.82991" lon="4.81827">
        <ele>381</ele>
        <time>2011-12-11T08:47:51Z</time>
      </trkpt>
      <trkpt lat="45.82991" lon="4.81821">
        <ele>382</ele>
        <time>2011-12-11T08:47:54Z</time>
      </trkpt>
      <trkpt lat="45.82992" lon="4.81815">
        <ele>383</ele>
        <time>2011-12-11T08:47:57Z</time>
      </trkpt>
      <trkpt lat="45.82995" lon="4.81813">
        <ele>383</ele>
        <time>2011-12-11T08:47:59Z</time>
      </trkpt>
      <trkpt lat="45.82995" lon="4.8181">
        <ele>383</ele>
        <time>2011-12-11T08:48:01Z</time>
      </trkpt>
      <trkpt lat="45.82988" lon="4.81803">
        <ele>384</ele>
        <time>2011-12-11T08:48:04Z</time>
      </trkpt>
      <trkpt lat="45.82986" lon="4.818">
        <ele>385</ele>
        <time>2011-12-11T08:48:05Z</time>
      </trkpt>
      <trkpt lat="45.82988" lon="4.81797">
        <ele>384</ele>
        <time>2011-12-11T08:48:07Z</time>
      </trkpt>
      <trkpt lat="45.82988" lon="4.81796">
        <ele>384</ele>
        <time>2011-12-11T08:48:08Z</time>
      </trkpt>
      <trkpt lat="45.82987" lon="4.81795">
        <ele>384</ele>
        <time>2011-12-11T08:48:11Z</time>
      </trkpt>
      <trkpt lat="45.8298" lon="4.81792">
        <ele>385</ele>
        <time>2011-12-11T08:48:14Z</time>
      </trkpt>
      <trkpt lat="45.82974" lon="4.81789">
        <ele>386</ele>
        <time>2011-12-11T08:48:18Z</time>
      </trkpt>
      <trkpt lat="45.82971" lon="4.81788">
        <ele>386</ele>
        <time>2011-12-11T08:48:19Z</time>
      </trkpt>
      <trkpt lat="45.82965" lon="4.8178">
        <ele>387</ele>
        <time>2011-12-11T08:48:25Z</time>
      </trkpt>
      <trkpt lat="45.82966" lon="4.81777">
        <ele>387</ele>
        <time>2011-12-11T08:48:29Z</time>
      </trkpt>
      <trkpt lat="45.82968" lon="4.81774">
        <ele>386</ele>
        <time>2011-12-11T08:48:32Z</time>
      </trkpt>
      <trkpt lat="45.82969" lon="4.81773">
        <ele>386</ele>
        <time>2011-12-11T08:48:36Z</time>
      </trkpt>
      <trkpt lat="45.82964" lon="4.81772">
        <ele>387</ele>
        <time>2011-12-11T08:48:37Z</time>
      </trkpt>
      <trkpt lat="45.82958" lon="4.81768">
        <ele>389</ele>
        <time>2011-12-11T08:48:41Z</time>
      </trkpt>
      <trkpt lat="45.82955" lon="4.81765">
        <ele>389</ele>
        <time>2011-12-11T08:48:48Z</time>
      </trkpt>
      <trkpt lat="45.82948" lon="4.81761">
        <ele>391</ele>
        <time>2011-12-11T08:48:51Z</time>
      </trkpt>
      <trkpt lat="45.82945" lon="4.81755">
        <ele>393</ele>
        <time>2011-12-11T08:48:57Z</time>
      </trkpt>
      <trkpt lat="45.8294" lon="4.81754">
        <ele>394</ele>
        <time>2011-12-11T08:49:00Z</time>
      </trkpt>
      <trkpt lat="45.82941" lon="4.81755">
        <ele>394</ele>
        <time>2011-12-11T08:49:01Z</time>
      </trkpt>
      <trkpt lat="45.82938" lon="4.81755">
        <ele>395</ele>
        <time>2011-12-11T08:49:12Z</time>
      </trkpt>
      <trkpt lat="45.82937" lon="4.81755">
        <ele>395</ele>
        <time>2011-12-11T08:49:13Z</time>
      </trkpt>
      <trkpt lat="45.82935" lon="4.81757">
        <ele>396</ele>
        <time>2011-12-11T08:49:16Z</time>
      </trkpt>
      <trkpt lat="45.8294" lon="4.81758">
        <ele>394</ele>
        <time>2011-12-11T08:49:18Z</time>
      </trkpt>
      <trkpt lat="45.82947" lon="4.81759">
        <ele>392</ele>
        <time>2011-12-11T08:49:21Z</time>
      </trkpt>
      <trkpt lat="45.82952" lon="4.8176">
        <ele>390</ele>
        <time>2011-12-11T08:49:27Z</time>
      </trkpt>
      <trkpt lat="45.82955" lon="4.81761">
        <ele>389</ele>
        <time>2011-12-11T08:49:29Z</time>
      </trkpt>
      <trkpt lat="45.82956" lon="4.81762">
        <ele>389</ele>
        <time>2011-12-11T08:49:31Z</time>
      </trkpt>
      <trkpt lat="45.82949" lon="4.81765">
        <ele>391</ele>
        <time>2011-12-11T08:49:35Z</time>
      </trkpt>
      <trkpt lat="45.82945" lon="4.81767">
        <ele>392</ele>
        <time>2011-12-11T08:49:39Z</time>
      </trkpt>
      <trkpt lat="45.82941" lon="4.81767">
        <ele>393</ele>
        <time>2011-12-11T08:49:40Z</time>
      </trkpt>
      <trkpt lat="45.82941" lon="4.81771">
        <ele>393</ele>
        <time>2011-12-11T08:49:43Z</time>
      </trkpt>
      <trkpt lat="45.8294" lon="4.81775">
        <ele>393</ele>
        <time>2011-12-11T08:49:47Z</time>
      </trkpt>
      <trkpt lat="45.82941" lon="4.81777">
        <ele>393</ele>
        <time>2011-12-11T08:49:48Z</time>
      </trkpt>
      <trkpt lat="45.82942" lon="4.81778">
        <ele>393</ele>
        <time>2011-12-11T08:49:49Z</time>
      </trkpt>
      <trkpt lat="45.8294" lon="4.8178">
        <ele>393</ele>
        <time>2011-12-11T08:49:51Z</time>
      </trkpt>
      <trkpt lat="45.82939" lon="4.81784">
        <ele>393</ele>
        <time>2011-12-11T08:49:56Z</time>
      </trkpt>
      <trkpt lat="45.82938" lon="4.81788">
        <ele>393</ele>
        <time>2011-12-11T08:49:59Z</time>
      </trkpt>
      <trkpt lat="45.82938" lon="4.81792">
        <ele>394</ele>
        <time>2011-12-11T08:50:04Z</time>
      </trkpt>
      <trkpt lat="45.82942" lon="4.81798">
        <ele>393</ele>
        <time>2011-12-11T08:50:07Z</time>
      </trkpt>
      <trkpt lat="45.82944" lon="4.818">
        <ele>393</ele>
        <time>2011-12-11T08:50:09Z</time>
      </trkpt>
      <trkpt lat="45.82946" lon="4.81802">
        <ele>393</ele>
        <time>2011-12-11T08:50:10Z</time>
      </trkpt>
      <trkpt lat="45.82946" lon="4.81803">
        <ele>393</ele>
        <time>2011-12-11T08:50:11Z</time>
      </trkpt>
      <trkpt lat="45.82948" lon="4.81814">
        <ele>393</ele>
        <time>2011-12-11T08:50:19Z</time>
      </trkpt>
      <trkpt lat="45.82948" lon="4.81823">
        <ele>394</ele>
        <time>2011-12-11T08:50:25Z</time>
      </trkpt>
      <trkpt lat="45.82947" lon="4.81824">
        <ele>394</ele>
        <time>2011-12-11T08:50:26Z</time>
      </trkpt>
      <trkpt lat="45.82945" lon="4.81824">
        <ele>395</ele>
        <time>2011-12-11T08:50:27Z</time>
      </trkpt>
      <trkpt lat="45.82944" lon="4.81823">
        <ele>395</ele>
        <time>2011-12-11T08:50:29Z</time>
      </trkpt>
      <trkpt lat="45.8294" lon="4.8182">
        <ele>396</ele>
        <time>2011-12-11T08:50:34Z</time>
      </trkpt>
      <trkpt lat="45.82937" lon="4.81818">
        <ele>397</ele>
        <time>2011-12-11T08:50:36Z</time>
      </trkpt>
      <trkpt lat="45.82937" lon="4.81819">
        <ele>397</ele>
        <time>2011-12-11T08:50:37Z</time>
      </trkpt>
      <trkpt lat="45.82933" lon="4.81815">
        <ele>397</ele>
        <time>2011-12-11T08:50:47Z</time>
      </trkpt>
      <trkpt lat="45.8293" lon="4.81813">
        <ele>398</ele>
        <time>2011-12-11T08:50:51Z</time>
      </trkpt>
      <trkpt lat="45.82928" lon="4.81814">
        <ele>398</ele>
        <time>2011-12-11T08:50:53Z</time>
      </trkpt>
      <trkpt lat="45.82923" lon="4.81811">
        <ele>398</ele>
        <time>2011-12-11T08:50:57Z</time>
      </trkpt>
      <trkpt lat="45.8292" lon="4.81808">
        <ele>398</ele>
        <time>2011-12-11T08:51:01Z</time>
      </trkpt>
      <trkpt lat="45.82916" lon="4.81803">
        <ele>414</ele>
        <time>2011-12-11T08:51:05Z</time>
      </trkpt>
      <trkpt lat="45.82913" lon="4.818">
        <ele>414</ele>
        <time>2011-12-11T08:51:08Z</time>
      </trkpt>
      <trkpt lat="45.82911" lon="4.81799">
        <ele>415</ele>
        <time>2011-12-11T08:51:11Z</time>
      </trkpt>
      <trkpt lat="45.8291" lon="4.81798">
        <ele>415</ele>
        <time>2011-12-11T08:51:12Z</time>
      </trkpt>
      <trkpt lat="45.82905" lon="4.81792">
        <ele>415</ele>
        <time>2011-12-11T08:51:18Z</time>
      </trkpt>
      <trkpt lat="45.82903" lon="4.8179">
        <ele>415</ele>
        <time>2011-12-11T08:51:20Z</time>
      </trkpt>
      <trkpt lat="45.82901" lon="4.81789">
        <ele>415</ele>
        <time>2011-12-11T08:51:21Z</time>
      </trkpt>
      <trkpt lat="45.82899" lon="4.81788">
        <ele>415</ele>
        <time>2011-12-11T08:51:23Z</time>
      </trkpt>
      <trkpt lat="45.82897" lon="4.81787">
        <ele>415</ele>
        <time>2011-12-11T08:51:25Z</time>
      </trkpt>
      <trkpt lat="45.82896" lon="4.81787">
        <ele>416</ele>
        <time>2011-12-11T08:51:26Z</time>
      </trkpt>
      <trkpt lat="45.82894" lon="4.81787">
        <ele>416</ele>
        <time>2011-12-11T08:51:29Z</time>
      </trkpt>
      <trkpt lat="45.82893" lon="4.81785">
        <ele>416</ele>
        <time>2011-12-11T08:51:31Z</time>
      </trkpt>
      <trkpt lat="45.8289" lon="4.8178">
        <ele>416</ele>
        <time>2011-12-11T08:51:35Z</time>
      </trkpt>
      <trkpt lat="45.82887" lon="4.81776">
        <ele>416</ele>
        <time>2011-12-11T08:51:39Z</time>
      </trkpt>
      <trkpt lat="45.82886" lon="4.81774">
        <ele>416</ele>
        <time>2011-12-11T08:51:41Z</time>
      </trkpt>
      <trkpt lat="45.82882" lon="4.81773">
        <ele>417</ele>
        <time>2011-12-11T08:51:46Z</time>
      </trkpt>
      <trkpt lat="45.82881" lon="4.81773">
        <ele>417</ele>
        <time>2011-12-11T08:51:47Z</time>
      </trkpt>
      <trkpt lat="45.82877" lon="4.81768">
        <ele>418</ele>
        <time>2011-12-11T08:51:51Z</time>
      </trkpt>
      <trkpt lat="45.82875" lon="4.81766">
        <ele>418</ele>
        <time>2011-12-11T08:51:54Z</time>
      </trkpt>
      <trkpt lat="45.82872" lon="4.81763">
        <ele>419</ele>
        <time>2011-12-11T08:51:56Z</time>
      </trkpt>
      <trkpt lat="45.82868" lon="4.81759">
        <ele>420</ele>
        <time>2011-12-11T08:51:59Z</time>
      </trkpt>
      <trkpt lat="45.82866" lon="4.81758">
        <ele>420</ele>
        <time>2011-12-11T08:52:01Z</time>
      </trkpt>
      <trkpt lat="45.82865" lon="4.81757">
        <ele>420</ele>
        <time>2011-12-11T08:52:02Z</time>
      </trkpt>
      <trkpt lat="45.82865" lon="4.81756">
        <ele>420</ele>
        <time>2011-12-11T08:52:03Z</time>
      </trkpt>
      <trkpt lat="45.82864" lon="4.81755">
        <ele>421</ele>
        <time>2011-12-11T08:52:04Z</time>
      </trkpt>
      <trkpt lat="45.8286" lon="4.8175">
        <ele>422</ele>
        <time>2011-12-11T08:52:10Z</time>
      </trkpt>
      <trkpt lat="45.82857" lon="4.81746">
        <ele>418</ele>
        <time>2011-12-11T08:52:16Z</time>
      </trkpt>
      <trkpt lat="45.82851" lon="4.81742">
        <ele>420</ele>
        <time>2011-12-11T08:52:20Z</time>
      </trkpt>
      <trkpt lat="45.82845" lon="4.81737">
        <ele>421</ele>
        <time>2011-12-11T08:52:26Z</time>
      </trkpt>
      <trkpt lat="45.82836" lon="4.8173">
        <ele>420</ele>
        <time>2011-12-11T08:52:33Z</time>
      </trkpt>
      <trkpt lat="45.82834" lon="4.81729">
        <ele>420</ele>
        <time>2011-12-11T08:52:34Z</time>
      </trkpt>
      <trkpt lat="45.82828" lon="4.81725">
        <ele>431</ele>
        <time>2011-12-11T08:52:38Z</time>
      </trkpt>
      <trkpt lat="45.82821" lon="4.81719">
        <ele>431</ele>
        <time>2011-12-11T08:52:42Z</time>
      </trkpt>
      <trkpt lat="45.82818" lon="4.81715">
        <ele>430</ele>
        <time>2011-12-11T08:52:44Z</time>
      </trkpt>
      <trkpt lat="45.82812" lon="4.8171">
        <ele>430</ele>
        <time>2011-12-11T08:52:48Z</time>
      </trkpt>
      <trkpt lat="45.82809" lon="4.81707">
        <ele>430</ele>
        <time>2011-12-11T08:52:50Z</time>
      </trkpt>
      <trkpt lat="45.82803" lon="4.81702">
        <ele>431</ele>
        <time>2011-12-11T08:52:53Z</time>
      </trkpt>
      <trkpt lat="45.82798" lon="4.81698">
        <ele>431</ele>
        <time>2011-12-11T08:52:55Z</time>
      </trkpt>
      <trkpt lat="45.82791" lon="4.81685">
        <ele>431</ele>
        <time>2011-12-11T08:53:01Z</time>
      </trkpt>
      <trkpt lat="45.8279" lon="4.81682">
        <ele>431</ele>
        <time>2011-12-11T08:53:02Z</time>
      </trkpt>
      <trkpt lat="45.82785" lon="4.81665">
        <ele>427</ele>
        <time>2011-12-11T08:53:08Z</time>
      </trkpt>
      <trkpt lat="45.82782" lon="4.81656">
        <ele>428</ele>
        <time>2011-12-11T08:53:11Z</time>
      </trkpt>
      <trkpt lat="45.8278" lon="4.81648">
        <ele>427</ele>
        <time>2011-12-11T08:53:14Z</time>
      </trkpt>
      <trkpt lat="45.82779" lon="4.81644">
        <ele>427</ele>
        <time>2011-12-11T08:53:15Z</time>
      </trkpt>
      <trkpt lat="45.82774" lon="4.81633">
        <ele>427</ele>
        <time>2011-12-11T08:53:18Z</time>
      </trkpt>
      <trkpt lat="45.82771" lon="4.81626">
        <ele>427</ele>
        <time>2011-12-11T08:53:20Z</time>
      </trkpt>
      <trkpt lat="45.8277" lon="4.81623">
        <ele>428</ele>
        <time>2011-12-11T08:53:21Z</time>
      </trkpt>
      <trkpt lat="45.82769" lon="4.81616">
        <ele>428</ele>
        <time>2011-12-11T08:53:23Z</time>
      </trkpt>
      <trkpt lat="45.82767" lon="4.81608">
        <ele>428</ele>
        <time>2011-12-11T08:53:26Z</time>
      </trkpt>
      <trkpt lat="45.82767" lon="4.81604">
        <ele>428</ele>
        <time>2011-12-11T08:53:28Z</time>
      </trkpt>
      <trkpt lat="45.82767" lon="4.81602">
        <ele>429</ele>
        <time>2011-12-11T08:53:29Z</time>
      </trkpt>
      <trkpt lat="45.82763" lon="4.81591">
        <ele>431</ele>
        <time>2011-12-11T08:53:33Z</time>
      </trkpt>
      <trkpt lat="45.82762" lon="4.81587">
        <ele>431</ele>
        <time>2011-12-11T08:53:34Z</time>
      </trkpt>
      <trkpt lat="45.82762" lon="4.81582">
        <ele>429</ele>
        <time>2011-12-11T08:53:36Z</time>
      </trkpt>
      <trkpt lat="45.82761" lon="4.81576">
        <ele>428</ele>
        <time>2011-12-11T08:53:38Z</time>
      </trkpt>
      <trkpt lat="45.82757" lon="4.8156">
        <ele>425</ele>
        <time>2011-12-11T08:53:43Z</time>
      </trkpt>
      <trkpt lat="45.82756" lon="4.81556">
        <ele>425</ele>
        <time>2011-12-11T08:53:44Z</time>
      </trkpt>
      <trkpt lat="45.82755" lon="4.81543">
        <ele>423</ele>
        <time>2011-12-11T08:53:48Z</time>
      </trkpt>
      <trkpt lat="45.82755" lon="4.81528">
        <ele>424</ele>
        <time>2011-12-11T08:53:53Z</time>
      </trkpt>
      <trkpt lat="45.82755" lon="4.81522">
        <ele>424</ele>
        <time>2011-12-11T08:53:55Z</time>
      </trkpt>
      <trkpt lat="45.82753" lon="4.8151">
        <ele>427</ele>
        <time>2011-12-11T08:53:58Z</time>
      </trkpt>
      <trkpt lat="45.82752" lon="4.81502">
        <ele>430</ele>
        <time>2011-12-11T08:54:00Z</time>
      </trkpt>
      <trkpt lat="45.82752" lon="4.81489">
        <ele>425</ele>
        <time>2011-12-11T08:54:03Z</time>
      </trkpt>
      <trkpt lat="45.82754" lon="4.81474">
        <ele>421</ele>
        <time>2011-12-11T08:54:07Z</time>
      </trkpt>
      <trkpt lat="45.82755" lon="4.81471">
        <ele>420</ele>
        <time>2011-12-11T08:54:08Z</time>
      </trkpt>
      <trkpt lat="45.82756" lon="4.81466">
        <ele>419</ele>
        <time>2011-12-11T08:54:10Z</time>
      </trkpt>
      <trkpt lat="45.82757" lon="4.81456">
        <ele>419</ele>
        <time>2011-12-11T08:54:13Z</time>
      </trkpt>
      <trkpt lat="45.8276" lon="4.81446">
        <ele>418</ele>
        <time>2011-12-11T08:54:16Z</time>
      </trkpt>
      <trkpt lat="45.82763" lon="4.81435">
        <ele>419</ele>
        <time>2011-12-11T08:54:19Z</time>
      </trkpt>
      <trkpt lat="45.82765" lon="4.8142">
        <ele>420</ele>
        <time>2011-12-11T08:54:23Z</time>
      </trkpt>
      <trkpt lat="45.82764" lon="4.81416">
        <ele>419</ele>
        <time>2011-12-11T08:54:24Z</time>
      </trkpt>
      <trkpt lat="45.82765" lon="4.81395">
        <ele>417</ele>
        <time>2011-12-11T08:54:29Z</time>
      </trkpt>
      <trkpt lat="45.82766" lon="4.81392">
        <ele>417</ele>
        <time>2011-12-11T08:54:30Z</time>
      </trkpt>
      <trkpt lat="45.82769" lon="4.81373">
        <ele>416</ele>
        <time>2011-12-11T08:54:35Z</time>
      </trkpt>
      <trkpt lat="45.8277" lon="4.81366">
        <ele>415</ele>
        <time>2011-12-11T08:54:37Z</time>
      </trkpt>
      <trkpt lat="45.82773" lon="4.8135">
        <ele>415</ele>
        <time>2011-12-11T08:54:41Z</time>
      </trkpt>
      <trkpt lat="45.82775" lon="4.81338">
        <ele>415</ele>
        <time>2011-12-11T08:54:44Z</time>
      </trkpt>
      <trkpt lat="45.82777" lon="4.81328">
        <ele>414</ele>
        <time>2011-12-11T08:54:47Z</time>
      </trkpt>
      <trkpt lat="45.82778" lon="4.81321">
        <ele>414</ele>
        <time>2011-12-11T08:54:49Z</time>
      </trkpt>
      <trkpt lat="45.8278" lon="4.81311">
        <ele>414</ele>
        <time>2011-12-11T08:54:52Z</time>
      </trkpt>
      <trkpt lat="45.82781" lon="4.81303">
        <ele>413</ele>
        <time>2011-12-11T08:54:54Z</time>
      </trkpt>
      <trkpt lat="45.82785" lon="4.81288">
        <ele>413</ele>
        <time>2011-12-11T08:54:58Z</time>
      </trkpt>
      <trkpt lat="45.82786" lon="4.81285">
        <ele>413</ele>
        <time>2011-12-11T08:54:59Z</time>
      </trkpt>
      <trkpt lat="45.82793" lon="4.81268">
        <ele>413</ele>
        <time>2011-12-11T08:55:04Z</time>
      </trkpt>
      <trkpt lat="45.82796" lon="4.81262">
        <ele>413</ele>
        <time>2011-12-11T08:55:06Z</time>
      </trkpt>
      <trkpt lat="45.82801" lon="4.81249">
        <ele>411</ele>
        <time>2011-12-11T08:55:10Z</time>
      </trkpt>
      <trkpt lat="45.82806" lon="4.8124">
        <ele>411</ele>
        <time>2011-12-11T08:55:13Z</time>
      </trkpt>
      <trkpt lat="45.8281" lon="4.8123">
        <ele>411</ele>
        <time>2011-12-11T08:55:16Z</time>
      </trkpt>
      <trkpt lat="45.82815" lon="4.81217">
        <ele>411</ele>
        <time>2011-12-11T08:55:20Z</time>
      </trkpt>
      <trkpt lat="45.82817" lon="4.8121">
        <ele>411</ele>
        <time>2011-12-11T08:55:22Z</time>
      </trkpt>
      <trkpt lat="45.82822" lon="4.81193">
        <ele>410</ele>
        <time>2011-12-11T08:55:27Z</time>
      </trkpt>
      <trkpt lat="45.82829" lon="4.81174">
        <ele>410</ele>
        <time>2011-12-11T08:55:33Z</time>
      </trkpt>
      <trkpt lat="45.82831" lon="4.81167">
        <ele>410</ele>
        <time>2011-12-11T08:55:35Z</time>
      </trkpt>
      <trkpt lat="45.82835" lon="4.81153">
        <ele>409</ele>
        <time>2011-12-11T08:55:39Z</time>
      </trkpt>
      <trkpt lat="45.8284" lon="4.81141">
        <ele>408</ele>
        <time>2011-12-11T08:55:43Z</time>
      </trkpt>
      <trkpt lat="45.82841" lon="4.81134">
        <ele>408</ele>
        <time>2011-12-11T08:55:45Z</time>
      </trkpt>
      <trkpt lat="45.82845" lon="4.81121">
        <ele>408</ele>
        <time>2011-12-11T08:55:49Z</time>
      </trkpt>
      <trkpt lat="45.82849" lon="4.81118">
        <ele>407</ele>
        <time>2011-12-11T08:55:51Z</time>
      </trkpt>
      <trkpt lat="45.82858" lon="4.81109">
        <ele>407</ele>
        <time>2011-12-11T08:55:55Z</time>
      </trkpt>
      <trkpt lat="45.82864" lon="4.81107">
        <ele>407</ele>
        <time>2011-12-11T08:55:58Z</time>
      </trkpt>
      <trkpt lat="45.82866" lon="4.81108">
        <ele>407</ele>
        <time>2011-12-11T08:56:00Z</time>
      </trkpt>
      <trkpt lat="45.8287" lon="4.81112">
        <ele>407</ele>
        <time>2011-12-11T08:56:04Z</time>
      </trkpt>
      <trkpt lat="45.82872" lon="4.81112">
        <ele>407</ele>
        <time>2011-12-11T08:56:05Z</time>
      </trkpt>
      <trkpt lat="45.82882" lon="4.81109">
        <ele>408</ele>
        <time>2011-12-11T08:56:09Z</time>
      </trkpt>
      <trkpt lat="45.82889" lon="4.81109">
        <ele>408</ele>
        <time>2011-12-11T08:56:11Z</time>
      </trkpt>
      <trkpt lat="45.82904" lon="4.81107">
        <ele>408</ele>
        <time>2011-12-11T08:56:16Z</time>
      </trkpt>
      <trkpt lat="45.82908" lon="4.81107">
        <ele>408</ele>
        <time>2011-12-11T08:56:17Z</time>
      </trkpt>
      <trkpt lat="45.82921" lon="4.81104">
        <ele>404</ele>
        <time>2011-12-11T08:56:22Z</time>
      </trkpt>
      <trkpt lat="45.82923" lon="4.81103">
        <ele>404</ele>
        <time>2011-12-11T08:56:23Z</time>
      </trkpt>
      <trkpt lat="45.82936" lon="4.81099">
        <ele>403</ele>
        <time>2011-12-11T08:56:29Z</time>
      </trkpt>
      <trkpt lat="45.82939" lon="4.81099">
        <ele>403</ele>
        <time>2011-12-11T08:56:31Z</time>
      </trkpt>
      <trkpt lat="45.82941" lon="4.81099">
        <ele>403</ele>
        <time>2011-12-11T08:56:34Z</time>
      </trkpt>
      <trkpt lat="45.82943" lon="4.81097">
        <ele>403</ele>
        <time>2011-12-11T08:56:36Z</time>
      </trkpt>
      <trkpt lat="45.82948" lon="4.81093">
        <ele>402</ele>
        <time>2011-12-11T08:56:40Z</time>
      </trkpt>
      <trkpt lat="45.82954" lon="4.81092">
        <ele>402</ele>
        <time>2011-12-11T08:56:42Z</time>
      </trkpt>
      <trkpt lat="45.82958" lon="4.8109">
        <ele>402</ele>
        <time>2011-12-11T08:56:44Z</time>
      </trkpt>
      <trkpt lat="45.82974" lon="4.81084">
        <ele>402</ele>
        <time>2011-12-11T08:56:49Z</time>
      </trkpt>
      <trkpt lat="45.82976" lon="4.81082">
        <ele>407</ele>
        <time>2011-12-11T08:56:50Z</time>
      </trkpt>
      <trkpt lat="45.82981" lon="4.81078">
        <ele>407</ele>
        <time>2011-12-11T08:56:52Z</time>
      </trkpt>
      <trkpt lat="45.82986" lon="4.81076">
        <ele>407</ele>
        <time>2011-12-11T08:56:54Z</time>
      </trkpt>
      <trkpt lat="45.82993" lon="4.81068">
        <ele>407</ele>
        <time>2011-12-11T08:56:58Z</time>
      </trkpt>
      <trkpt lat="45.82995" lon="4.81067">
        <ele>407</ele>
        <time>2011-12-11T08:57:00Z</time>
      </trkpt>
      <trkpt lat="45.83001" lon="4.81066">
        <ele>404</ele>
        <time>2011-12-11T08:57:02Z</time>
      </trkpt>
      <trkpt lat="45.83008" lon="4.81061">
        <ele>404</ele>
        <time>2011-12-11T08:57:05Z</time>
      </trkpt>
      <trkpt lat="45.83011" lon="4.81058">
        <ele>404</ele>
        <time>2011-12-11T08:57:07Z</time>
      </trkpt>
      <trkpt lat="45.83018" lon="4.81056">
        <ele>403</ele>
        <time>2011-12-11T08:57:10Z</time>
      </trkpt>
      <trkpt lat="45.83028" lon="4.81051">
        <ele>403</ele>
        <time>2011-12-11T08:57:15Z</time>
      </trkpt>
      <trkpt lat="45.83034" lon="4.8105">
        <ele>402</ele>
        <time>2011-12-11T08:57:17Z</time>
      </trkpt>
      <trkpt lat="45.83042" lon="4.8105">
        <ele>402</ele>
        <time>2011-12-11T08:57:20Z</time>
      </trkpt>
      <trkpt lat="45.83047" lon="4.81049">
        <ele>401</ele>
        <time>2011-12-11T08:57:22Z</time>
      </trkpt>
      <trkpt lat="45.83056" lon="4.81047">
        <ele>401</ele>
        <time>2011-12-11T08:57:25Z</time>
      </trkpt>
      <trkpt lat="45.83058" lon="4.81046">
        <ele>401</ele>
        <time>2011-12-11T08:57:26Z</time>
      </trkpt>
      <trkpt lat="45.83063" lon="4.8104">
        <ele>401</ele>
        <time>2011-12-11T08:57:29Z</time>
      </trkpt>
      <trkpt lat="45.83064" lon="4.81037">
        <ele>401</ele>
        <time>2011-12-11T08:57:30Z</time>
      </trkpt>
      <trkpt lat="45.83065" lon="4.81033">
        <ele>402</ele>
        <time>2011-12-11T08:57:31Z</time>
      </trkpt>
      <trkpt lat="45.8307" lon="4.81024">
        <ele>402</ele>
        <time>2011-12-11T08:57:34Z</time>
      </trkpt>
      <trkpt lat="45.83073" lon="4.81019">
        <ele>403</ele>
        <time>2011-12-11T08:57:36Z</time>
      </trkpt>
      <trkpt lat="45.83075" lon="4.81016">
        <ele>403</ele>
        <time>2011-12-11T08:57:37Z</time>
      </trkpt>
      <trkpt lat="45.83081" lon="4.81008">
        <ele>403</ele>
        <time>2011-12-11T08:57:40Z</time>
      </trkpt>
      <trkpt lat="45.83083" lon="4.81006">
        <ele>404</ele>
        <time>2011-12-11T08:57:41Z</time>
      </trkpt>
      <trkpt lat="45.83088" lon="4.81">
        <ele>401</ele>
        <time>2011-12-11T08:57:43Z</time>
      </trkpt>
      <trkpt lat="45.83093" lon="4.80995">
        <ele>404</ele>
        <time>2011-12-11T08:57:45Z</time>
      </trkpt>
      <trkpt lat="45.83105" lon="4.80983">
        <ele>404</ele>
        <time>2011-12-11T08:57:51Z</time>
      </trkpt>
      <trkpt lat="45.83114" lon="4.8098">
        <ele>404</ele>
        <time>2011-12-11T08:57:55Z</time>
      </trkpt>
      <trkpt lat="45.83117" lon="4.80979">
        <ele>403</ele>
        <time>2011-12-11T08:57:56Z</time>
      </trkpt>
      <trkpt lat="45.83123" lon="4.80977">
        <ele>403</ele>
        <time>2011-12-11T08:57:58Z</time>
      </trkpt>
      <trkpt lat="45.83129" lon="4.80974">
        <ele>403</ele>
        <time>2011-12-11T08:58:01Z</time>
      </trkpt>
      <trkpt lat="45.83131" lon="4.80971">
        <ele>403</ele>
        <time>2011-12-11T08:58:04Z</time>
      </trkpt>
      <trkpt lat="45.83131" lon="4.80969">
        <ele>403</ele>
        <time>2011-12-11T08:58:07Z</time>
      </trkpt>
      <trkpt lat="45.83133" lon="4.80965">
        <ele>403</ele>
        <time>2011-12-11T08:58:10Z</time>
      </trkpt>
      <trkpt lat="45.83137" lon="4.80963">
        <ele>403</ele>
        <time>2011-12-11T08:58:13Z</time>
      </trkpt>
      <trkpt lat="45.83138" lon="4.80961">
        <ele>403</ele>
        <time>2011-12-11T08:58:14Z</time>
      </trkpt>
      <trkpt lat="45.83142" lon="4.8096">
        <ele>403</ele>
        <time>2011-12-11T08:58:16Z</time>
      </trkpt>
      <trkpt lat="45.83143" lon="4.80959">
        <ele>403</ele>
        <time>2011-12-11T08:58:17Z</time>
      </trkpt>
      <trkpt lat="45.83142" lon="4.80959">
        <ele>403</ele>
        <time>2011-12-11T08:58:18Z</time>
      </trkpt>
      <trkpt lat="45.8315" lon="4.80951">
        <ele>403</ele>
        <time>2011-12-11T08:58:24Z</time>
      </trkpt>
      <trkpt lat="45.8315" lon="4.8095">
        <ele>403</ele>
        <time>2011-12-11T08:58:25Z</time>
      </trkpt>
      <trkpt lat="45.83156" lon="4.80948">
        <ele>403</ele>
        <time>2011-12-11T08:58:28Z</time>
      </trkpt>
      <trkpt lat="45.83159" lon="4.80947">
        <ele>403</ele>
        <time>2011-12-11T08:58:29Z</time>
      </trkpt>
      <trkpt lat="45.83162" lon="4.80946">
        <ele>403</ele>
        <time>2011-12-11T08:58:31Z</time>
      </trkpt>
      <trkpt lat="45.83171" lon="4.80941">
        <ele>401</ele>
        <time>2011-12-11T08:58:38Z</time>
      </trkpt>
      <trkpt lat="45.83171" lon="4.80934">
        <ele>402</ele>
        <time>2011-12-11T08:58:43Z</time>
      </trkpt>
      <trkpt lat="45.83168" lon="4.80928">
        <ele>403</ele>
        <time>2011-12-11T08:58:47Z</time>
      </trkpt>
      <trkpt lat="45.83166" lon="4.80923">
        <ele>405</ele>
        <time>2011-12-11T08:58:50Z</time>
      </trkpt>
      <trkpt lat="45.83166" lon="4.80921">
        <ele>405</ele>
        <time>2011-12-11T08:58:51Z</time>
      </trkpt>
      <trkpt lat="45.83166" lon="4.80919">
        <ele>405</ele>
        <time>2011-12-11T08:58:52Z</time>
      </trkpt>
      <trkpt lat="45.83166" lon="4.80916">
        <ele>405</ele>
        <time>2011-12-11T08:58:54Z</time>
      </trkpt>
      <trkpt lat="45.83168" lon="4.80908">
        <ele>407</ele>
        <time>2011-12-11T08:59:00Z</time>
      </trkpt>
      <trkpt lat="45.83168" lon="4.80907">
        <ele>407</ele>
        <time>2011-12-11T08:59:01Z</time>
      </trkpt>
      <trkpt lat="45.8317" lon="4.80902">
        <ele>408</ele>
        <time>2011-12-11T08:59:05Z</time>
      </trkpt>
      <trkpt lat="45.8317" lon="4.80901">
        <ele>408</ele>
        <time>2011-12-11T08:59:06Z</time>
      </trkpt>
      <trkpt lat="45.83169" lon="4.80895">
        <ele>409</ele>
        <time>2011-12-11T08:59:09Z</time>
      </trkpt>
      <trkpt lat="45.83169" lon="4.80895">
        <ele>409</ele>
        <time>2011-12-11T08:59:10Z</time>
      </trkpt>
      <trkpt lat="45.83169" lon="4.80894">
        <ele>409</ele>
        <time>2011-12-11T08:59:12Z</time>
      </trkpt>
      <trkpt lat="45.83169" lon="4.80893">
        <ele>410</ele>
        <time>2011-12-11T08:59:13Z</time>
      </trkpt>
      <trkpt lat="45.83167" lon="4.8089">
        <ele>410</ele>
        <time>2011-12-11T08:59:16Z</time>
      </trkpt>
      <trkpt lat="45.83161" lon="4.80879">
        <ele>414</ele>
        <time>2011-12-11T08:59:22Z</time>
      </trkpt>
      <trkpt lat="45.83159" lon="4.80875">
        <ele>415</ele>
        <time>2011-12-11T08:59:24Z</time>
      </trkpt>
      <trkpt lat="45.83162" lon="4.80872">
        <ele>415</ele>
        <time>2011-12-11T08:59:27Z</time>
      </trkpt>
      <trkpt lat="45.8316" lon="4.8087">
        <ele>415</ele>
        <time>2011-12-11T08:59:30Z</time>
      </trkpt>
      <trkpt lat="45.83159" lon="4.80867">
        <ele>416</ele>
        <time>2011-12-11T08:59:33Z</time>
      </trkpt>
      <trkpt lat="45.83161" lon="4.80867">
        <ele>416</ele>
        <time>2011-12-11T08:59:39Z</time>
      </trkpt>
      <trkpt lat="45.83162" lon="4.80867">
        <ele>416</ele>
        <time>2011-12-11T08:59:40Z</time>
      </trkpt>
      <trkpt lat="45.83163" lon="4.8086">
        <ele>416</ele>
        <time>2011-12-11T08:59:45Z</time>
      </trkpt>
      <trkpt lat="45.83164" lon="4.80859">
        <ele>416</ele>
        <time>2011-12-11T08:59:46Z</time>
      </trkpt>
      <trkpt lat="45.83162" lon="4.80854">
        <ele>417</ele>
        <time>2011-12-11T08:59:51Z</time>
      </trkpt>
      <trkpt lat="45.83159" lon="4.80852">
        <ele>417</ele>
        <time>2011-12-11T08:59:53Z</time>
      </trkpt>
      <trkpt lat="45.83159" lon="4.80849">
        <ele>417</ele>
        <time>2011-12-11T08:59:55Z</time>
      </trkpt>
      <trkpt lat="45.83161" lon="4.80848">
        <ele>417</ele>
        <time>2011-12-11T08:59:56Z</time>
      </trkpt>
      <trkpt lat="45.83162" lon="4.80841">
        <ele>417</ele>
        <time>2011-12-11T09:00:01Z</time>
      </trkpt>
      <trkpt lat="45.83161" lon="4.80835">
        <ele>418</ele>
        <time>2011-12-11T09:00:04Z</time>
      </trkpt>
      <trkpt lat="45.83161" lon="4.80831">
        <ele>419</ele>
        <time>2011-12-11T09:00:06Z</time>
      </trkpt>
      <trkpt lat="45.83162" lon="4.80827">
        <ele>419</ele>
        <time>2011-12-11T09:00:08Z</time>
      </trkpt>
      <trkpt lat="45.83163" lon="4.80821">
        <ele>420</ele>
        <time>2011-12-11T09:00:11Z</time>
      </trkpt>
      <trkpt lat="45.83164" lon="4.80819">
        <ele>420</ele>
        <time>2011-12-11T09:00:12Z</time>
      </trkpt>
      <trkpt lat="45.83167" lon="4.80812">
        <ele>419</ele>
        <time>2011-12-11T09:00:16Z</time>
      </trkpt>
      <trkpt lat="45.8317" lon="4.80813">
        <ele>419</ele>
        <time>2011-12-11T09:00:17Z</time>
      </trkpt>
      <trkpt lat="45.83176" lon="4.8082">
        <ele>418</ele>
        <time>2011-12-11T09:00:21Z</time>
      </trkpt>
      <trkpt lat="45.83177" lon="4.80822">
        <ele>418</ele>
        <time>2011-12-11T09:00:22Z</time>
      </trkpt>
      <trkpt lat="45.83179" lon="4.80825">
        <ele>418</ele>
        <time>2011-12-11T09:00:23Z</time>
      </trkpt>
      <trkpt lat="45.83186" lon="4.80828">
        <ele>418</ele>
        <time>2011-12-11T09:00:27Z</time>
      </trkpt>
      <trkpt lat="45.83194" lon="4.8083">
        <ele>418</ele>
        <time>2011-12-11T09:00:30Z</time>
      </trkpt>
      <trkpt lat="45.83196" lon="4.80828">
        <ele>418</ele>
        <time>2011-12-11T09:00:32Z</time>
      </trkpt>
      <trkpt lat="45.83199" lon="4.80826">
        <ele>418</ele>
        <time>2011-12-11T09:00:35Z</time>
      </trkpt>
      <trkpt lat="45.83202" lon="4.80823">
        <ele>418</ele>
        <time>2011-12-11T09:00:37Z</time>
      </trkpt>
      <trkpt lat="45.8321" lon="4.80816">
        <ele>418</ele>
        <time>2011-12-11T09:00:41Z</time>
      </trkpt>
      <trkpt lat="45.83213" lon="4.80813">
        <ele>418</ele>
        <time>2011-12-11T09:00:42Z</time>
      </trkpt>
      <trkpt lat="45.83219" lon="4.80801">
        <ele>419</ele>
        <time>2011-12-11T09:00:47Z</time>
      </trkpt>
      <trkpt lat="45.83223" lon="4.80797">
        <ele>419</ele>
        <time>2011-12-11T09:00:49Z</time>
      </trkpt>
      <trkpt lat="45.83224" lon="4.80795">
        <ele>419</ele>
        <time>2011-12-11T09:00:50Z</time>
      </trkpt>
      <trkpt lat="45.83228" lon="4.80791">
        <ele>419</ele>
        <time>2011-12-11T09:00:52Z</time>
      </trkpt>
      <trkpt lat="45.83242" lon="4.80784">
        <ele>419</ele>
        <time>2011-12-11T09:00:58Z</time>
      </trkpt>
      <trkpt lat="45.83244" lon="4.80783">
        <ele>419</ele>
        <time>2011-12-11T09:00:59Z</time>
      </trkpt>
      <trkpt lat="45.8325" lon="4.80773">
        <ele>419</ele>
        <time>2011-12-11T09:01:04Z</time>
      </trkpt>
      <trkpt lat="45.83257" lon="4.80771">
        <ele>420</ele>
        <time>2011-12-11T09:01:10Z</time>
      </trkpt>
      <trkpt lat="45.83259" lon="4.8077">
        <ele>420</ele>
        <time>2011-12-11T09:01:11Z</time>
      </trkpt>
      <trkpt lat="45.83263" lon="4.80767">
        <ele>420</ele>
        <time>2011-12-11T09:01:14Z</time>
      </trkpt>
      <trkpt lat="45.83268" lon="4.80762">
        <ele>420</ele>
        <time>2011-12-11T09:01:17Z</time>
      </trkpt>
      <trkpt lat="45.83269" lon="4.80758">
        <ele>420</ele>
        <time>2011-12-11T09:01:19Z</time>
      </trkpt>
      <trkpt lat="45.83271" lon="4.80754">
        <ele>420</ele>
        <time>2011-12-11T09:01:21Z</time>
      </trkpt>
      <trkpt lat="45.83272" lon="4.80753">
        <ele>421</ele>
        <time>2011-12-11T09:01:22Z</time>
      </trkpt>
      <trkpt lat="45.83273" lon="4.80748">
        <ele>422</ele>
        <time>2011-12-11T09:01:24Z</time>
      </trkpt>
      <trkpt lat="45.83278" lon="4.80737">
        <ele>422</ele>
        <time>2011-12-11T09:01:28Z</time>
      </trkpt>
      <trkpt lat="45.83279" lon="4.80731">
        <ele>422</ele>
        <time>2011-12-11T09:01:31Z</time>
      </trkpt>
      <trkpt lat="45.83281" lon="4.80726">
        <ele>422</ele>
        <time>2011-12-11T09:01:33Z</time>
      </trkpt>
      <trkpt lat="45.83287" lon="4.80716">
        <ele>423</ele>
        <time>2011-12-11T09:01:38Z</time>
      </trkpt>
      <trkpt lat="45.8329" lon="4.80715">
        <ele>423</ele>
        <time>2011-12-11T09:01:41Z</time>
      </trkpt>
      <trkpt lat="45.83292" lon="4.80715">
        <ele>423</ele>
        <time>2011-12-11T09:01:44Z</time>
      </trkpt>
      <trkpt lat="45.83294" lon="4.80716">
        <ele>423</ele>
        <time>2011-12-11T09:01:46Z</time>
      </trkpt>
      <trkpt lat="45.83299" lon="4.80717">
        <ele>423</ele>
        <time>2011-12-11T09:01:51Z</time>
      </trkpt>
      <trkpt lat="45.83301" lon="4.80715">
        <ele>423</ele>
        <time>2011-12-11T09:01:55Z</time>
      </trkpt>
      <trkpt lat="45.83303" lon="4.80714">
        <ele>423</ele>
        <time>2011-12-11T09:01:57Z</time>
      </trkpt>
      <trkpt lat="45.83307" lon="4.8071">
        <ele>424</ele>
        <time>2011-12-11T09:02:02Z</time>
      </trkpt>
      <trkpt lat="45.8331" lon="4.80707">
        <ele>424</ele>
        <time>2011-12-11T09:02:05Z</time>
      </trkpt>
      <trkpt lat="45.83312" lon="4.80707">
        <ele>424</ele>
        <time>2011-12-11T09:02:07Z</time>
      </trkpt>
      <trkpt lat="45.83314" lon="4.80708">
        <ele>424</ele>
        <time>2011-12-11T09:02:09Z</time>
      </trkpt>
      <trkpt lat="45.83317" lon="4.80709">
        <ele>424</ele>
        <time>2011-12-11T09:02:11Z</time>
      </trkpt>
      <trkpt lat="45.83323" lon="4.80708">
        <ele>424</ele>
        <time>2011-12-11T09:02:15Z</time>
      </trkpt>
      <trkpt lat="45.83324" lon="4.80707">
        <ele>424</ele>
        <time>2011-12-11T09:02:16Z</time>
      </trkpt>
      <trkpt lat="45.83329" lon="4.80704">
        <ele>424</ele>
        <time>2011-12-11T09:02:20Z</time>
      </trkpt>
      <trkpt lat="45.8333" lon="4.80703">
        <ele>424</ele>
        <time>2011-12-11T09:02:21Z</time>
      </trkpt>
      <trkpt lat="45.83334" lon="4.80698">
        <ele>429</ele>
        <time>2011-12-11T09:02:26Z</time>
      </trkpt>
      <trkpt lat="45.83335" lon="4.80697">
        <ele>429</ele>
        <time>2011-12-11T09:02:27Z</time>
      </trkpt>
      <trkpt lat="45.83338" lon="4.8069">
        <ele>429</ele>
        <time>2011-12-11T09:02:32Z</time>
      </trkpt>
      <trkpt lat="45.83341" lon="4.80685">
        <ele>429</ele>
        <time>2011-12-11T09:02:34Z</time>
      </trkpt>
      <trkpt lat="45.83344" lon="4.8068">
        <ele>429</ele>
        <time>2011-12-11T09:02:36Z</time>
      </trkpt>
      <trkpt lat="45.83345" lon="4.80677">
        <ele>429</ele>
        <time>2011-12-11T09:02:37Z</time>
      </trkpt>
      <trkpt lat="45.83348" lon="4.80668">
        <ele>429</ele>
        <time>2011-12-11T09:02:42Z</time>
      </trkpt>
      <trkpt lat="45.83352" lon="4.80665">
        <ele>432</ele>
        <time>2011-12-11T09:02:45Z</time>
      </trkpt>
      <trkpt lat="45.83354" lon="4.80664">
        <ele>432</ele>
        <time>2011-12-11T09:02:48Z</time>
      </trkpt>
      <trkpt lat="45.8336" lon="4.80666">
        <ele>433</ele>
        <time>2011-12-11T09:02:55Z</time>
      </trkpt>
      <trkpt lat="45.83367" lon="4.80665">
        <ele>433</ele>
        <time>2011-12-11T09:03:00Z</time>
      </trkpt>
      <trkpt lat="45.83369" lon="4.80665">
        <ele>433</ele>
        <time>2011-12-11T09:03:04Z</time>
      </trkpt>
      <trkpt lat="45.8337" lon="4.80665">
        <ele>434</ele>
        <time>2011-12-11T09:03:05Z</time>
      </trkpt>
      <trkpt lat="45.83378" lon="4.80663">
        <ele>434</ele>
        <time>2011-12-11T09:03:11Z</time>
      </trkpt>
      <trkpt lat="45.8338" lon="4.80662">
        <ele>435</ele>
        <time>2011-12-11T09:03:13Z</time>
      </trkpt>
      <trkpt lat="45.83383" lon="4.8066">
        <ele>435</ele>
        <time>2011-12-11T09:03:17Z</time>
      </trkpt>
      <trkpt lat="45.83383" lon="4.80658">
        <ele>435</ele>
        <time>2011-12-11T09:03:21Z</time>
      </trkpt>
      <trkpt lat="45.83384" lon="4.80656">
        <ele>435</ele>
        <time>2011-12-11T09:03:22Z</time>
      </trkpt>
      <trkpt lat="45.83384" lon="4.80654">
        <ele>435</ele>
        <time>2011-12-11T09:03:23Z</time>
      </trkpt>
      <trkpt lat="45.83384" lon="4.80646">
        <ele>435</ele>
        <time>2011-12-11T09:03:27Z</time>
      </trkpt>
      <trkpt lat="45.83382" lon="4.80632">
        <ele>435</ele>
        <time>2011-12-11T09:03:32Z</time>
      </trkpt>
      <trkpt lat="45.83381" lon="4.80629">
        <ele>435</ele>
        <time>2011-12-11T09:03:33Z</time>
      </trkpt>
      <trkpt lat="45.83379" lon="4.80616">
        <ele>435</ele>
        <time>2011-12-11T09:03:37Z</time>
      </trkpt>
      <trkpt lat="45.83377" lon="4.80602">
        <ele>435</ele>
        <time>2011-12-11T09:03:41Z</time>
      </trkpt>
      <trkpt lat="45.83375" lon="4.80593">
        <ele>435</ele>
        <time>2011-12-11T09:03:44Z</time>
      </trkpt>
      <trkpt lat="45.83373" lon="4.80574">
        <ele>439</ele>
        <time>2011-12-11T09:03:50Z</time>
      </trkpt>
      <trkpt lat="45.83372" lon="4.80571">
        <ele>439</ele>
        <time>2011-12-11T09:03:51Z</time>
      </trkpt>
      <trkpt lat="45.83371" lon="4.80563">
        <ele>439</ele>
        <time>2011-12-11T09:03:54Z</time>
      </trkpt>
      <trkpt lat="45.83371" lon="4.8056">
        <ele>439</ele>
        <time>2011-12-11T09:03:55Z</time>
      </trkpt>
      <trkpt lat="45.83374" lon="4.80559">
        <ele>439</ele>
        <time>2011-12-11T09:03:58Z</time>
      </trkpt>
      <trkpt lat="45.83376" lon="4.80559">
        <ele>440</ele>
        <time>2011-12-11T09:04:00Z</time>
      </trkpt>
      <trkpt lat="45.83382" lon="4.80557">
        <ele>440</ele>
        <time>2011-12-11T09:04:04Z</time>
      </trkpt>
      <trkpt lat="45.83385" lon="4.80556">
        <ele>440</ele>
        <time>2011-12-11T09:04:06Z</time>
      </trkpt>
      <trkpt lat="45.83388" lon="4.80555">
        <ele>441</ele>
        <time>2011-12-11T09:04:08Z</time>
      </trkpt>
      <trkpt lat="45.83392" lon="4.80553">
        <ele>441</ele>
        <time>2011-12-11T09:04:11Z</time>
      </trkpt>
      <trkpt lat="45.83394" lon="4.80552">
        <ele>441</ele>
        <time>2011-12-11T09:04:13Z</time>
      </trkpt>
      <trkpt lat="45.834" lon="4.8055">
        <ele>441</ele>
        <time>2011-12-11T09:04:17Z</time>
      </trkpt>
      <trkpt lat="45.83402" lon="4.8055">
        <ele>442</ele>
        <time>2011-12-11T09:04:18Z</time>
      </trkpt>
      <trkpt lat="45.83404" lon="4.80548">
        <ele>442</ele>
        <time>2011-12-11T09:04:20Z</time>
      </trkpt>
      <trkpt lat="45.83407" lon="4.80543">
        <ele>442</ele>
        <time>2011-12-11T09:04:23Z</time>
      </trkpt>
      <trkpt lat="45.83415" lon="4.80539">
        <ele>443</ele>
        <time>2011-12-11T09:04:27Z</time>
      </trkpt>
      <trkpt lat="45.83416" lon="4.80539">
        <ele>443</ele>
        <time>2011-12-11T09:04:28Z</time>
      </trkpt>
      <trkpt lat="45.83418" lon="4.80537">
        <ele>450</ele>
        <time>2011-12-11T09:04:29Z</time>
      </trkpt>
      <trkpt lat="45.83422" lon="4.80537">
        <ele>450</ele>
        <time>2011-12-11T09:04:30Z</time>
      </trkpt>
      <trkpt lat="45.83431" lon="4.80534">
        <ele>451</ele>
        <time>2011-12-11T09:04:34Z</time>
      </trkpt>
      <trkpt lat="45.83435" lon="4.80533">
        <ele>451</ele>
        <time>2011-12-11T09:04:36Z</time>
      </trkpt>
      <trkpt lat="45.83436" lon="4.80532">
        <ele>451</ele>
        <time>2011-12-11T09:04:37Z</time>
      </trkpt>
      <trkpt lat="45.83438" lon="4.80531">
        <ele>451</ele>
        <time>2011-12-11T09:04:38Z</time>
      </trkpt>
      <trkpt lat="45.83439" lon="4.80531">
        <ele>451</ele>
        <time>2011-12-11T09:04:39Z</time>
      </trkpt>
      <trkpt lat="45.83441" lon="4.80529">
        <ele>451</ele>
        <time>2011-12-11T09:04:42Z</time>
      </trkpt>
      <trkpt lat="45.83445" lon="4.80527">
        <ele>451</ele>
        <time>2011-12-11T09:04:45Z</time>
      </trkpt>
      <trkpt lat="45.83453" lon="4.80525">
        <ele>452</ele>
        <time>2011-12-11T09:04:51Z</time>
      </trkpt>
      <trkpt lat="45.83454" lon="4.80524">
        <ele>452</ele>
        <time>2011-12-11T09:04:53Z</time>
      </trkpt>
      <trkpt lat="45.83455" lon="4.80524">
        <ele>452</ele>
        <time>2011-12-11T09:04:54Z</time>
      </trkpt>
      <trkpt lat="45.83456" lon="4.80523">
        <ele>452</ele>
        <time>2011-12-11T09:04:55Z</time>
      </trkpt>
      <trkpt lat="45.83466" lon="4.80524">
        <ele>453</ele>
        <time>2011-12-11T09:04:59Z</time>
      </trkpt>
      <trkpt lat="45.83476" lon="4.80521">
        <ele>454</ele>
        <time>2011-12-11T09:05:03Z</time>
      </trkpt>
      <trkpt lat="45.8348" lon="4.80519">
        <ele>455</ele>
        <time>2011-12-11T09:05:05Z</time>
      </trkpt>
      <trkpt lat="45.83484" lon="4.80518">
        <ele>455</ele>
        <time>2011-12-11T09:05:07Z</time>
      </trkpt>
      <trkpt lat="45.83489" lon="4.80512">
        <ele>456</ele>
        <time>2011-12-11T09:05:12Z</time>
      </trkpt>
      <trkpt lat="45.8349" lon="4.8051">
        <ele>457</ele>
        <time>2011-12-11T09:05:13Z</time>
      </trkpt>
      <trkpt lat="45.83492" lon="4.80509">
        <ele>457</ele>
        <time>2011-12-11T09:05:14Z</time>
      </trkpt>
      <trkpt lat="45.83497" lon="4.80506">
        <ele>458</ele>
        <time>2011-12-11T09:05:17Z</time>
      </trkpt>
      <trkpt lat="45.83498" lon="4.80505">
        <ele>459</ele>
        <time>2011-12-11T09:05:18Z</time>
      </trkpt>
      <trkpt lat="45.83499" lon="4.80503">
        <ele>459</ele>
        <time>2011-12-11T09:05:19Z</time>
      </trkpt>
      <trkpt lat="45.83504" lon="4.80498">
        <ele>461</ele>
        <time>2011-12-11T09:05:23Z</time>
      </trkpt>
      <trkpt lat="45.83507" lon="4.80493">
        <ele>462</ele>
        <time>2011-12-11T09:05:26Z</time>
      </trkpt>
      <trkpt lat="45.83509" lon="4.80491">
        <ele>462</ele>
        <time>2011-12-11T09:05:28Z</time>
      </trkpt>
      <trkpt lat="45.83512" lon="4.8049">
        <ele>463</ele>
        <time>2011-12-11T09:05:29Z</time>
      </trkpt>
      <trkpt lat="45.83523" lon="4.8048">
        <ele>464</ele>
        <time>2011-12-11T09:05:35Z</time>
      </trkpt>
      <trkpt lat="45.83525" lon="4.8048">
        <ele>464</ele>
        <time>2011-12-11T09:05:36Z</time>
      </trkpt>
      <trkpt lat="45.83532" lon="4.80476">
        <ele>465</ele>
        <time>2011-12-11T09:05:42Z</time>
      </trkpt>
      <trkpt lat="45.83532" lon="4.80475">
        <ele>465</ele>
        <time>2011-12-11T09:05:43Z</time>
      </trkpt>
      <trkpt lat="45.83532" lon="4.80474">
        <ele>465</ele>
        <time>2011-12-11T09:05:44Z</time>
      </trkpt>
      <trkpt lat="45.83534" lon="4.80472">
        <ele>465</ele>
        <time>2011-12-11T09:05:47Z</time>
      </trkpt>
      <trkpt lat="45.83537" lon="4.80467">
        <ele>465</ele>
        <time>2011-12-11T09:05:54Z</time>
      </trkpt>
      <trkpt lat="45.83539" lon="4.80466">
        <ele>465</ele>
        <time>2011-12-11T09:05:55Z</time>
      </trkpt>
      <trkpt lat="45.83543" lon="4.80463">
        <ele>465</ele>
        <time>2011-12-11T09:05:59Z</time>
      </trkpt>
      <trkpt lat="45.83545" lon="4.80461">
        <ele>466</ele>
        <time>2011-12-11T09:06:02Z</time>
      </trkpt>
      <trkpt lat="45.8355" lon="4.8046">
        <ele>466</ele>
        <time>2011-12-11T09:06:06Z</time>
      </trkpt>
      <trkpt lat="45.83555" lon="4.80458">
        <ele>466</ele>
        <time>2011-12-11T09:06:09Z</time>
      </trkpt>
      <trkpt lat="45.83557" lon="4.80457">
        <ele>466</ele>
        <time>2011-12-11T09:06:10Z</time>
      </trkpt>
      <trkpt lat="45.8356" lon="4.80455">
        <ele>466</ele>
        <time>2011-12-11T09:06:14Z</time>
      </trkpt>
      <trkpt lat="45.83568" lon="4.80453">
        <ele>466</ele>
        <time>2011-12-11T09:06:20Z</time>
      </trkpt>
      <trkpt lat="45.83571" lon="4.80449">
        <ele>467</ele>
        <time>2011-12-11T09:06:23Z</time>
      </trkpt>
      <trkpt lat="45.83574" lon="4.80448">
        <ele>467</ele>
        <time>2011-12-11T09:06:26Z</time>
      </trkpt>
      <trkpt lat="45.83576" lon="4.80447">
        <ele>467</ele>
        <time>2011-12-11T09:06:27Z</time>
      </trkpt>
      <trkpt lat="45.83579" lon="4.80448">
        <ele>467</ele>
        <time>2011-12-11T09:06:29Z</time>
      </trkpt>
      <trkpt lat="45.83584" lon="4.80447">
        <ele>467</ele>
        <time>2011-12-11T09:06:34Z</time>
      </trkpt>
      <trkpt lat="45.83593" lon="4.80447">
        <ele>467</ele>
        <time>2011-12-11T09:06:40Z</time>
      </trkpt>
      <trkpt lat="45.83599" lon="4.8044">
        <ele>467</ele>
        <time>2011-12-11T09:06:46Z</time>
      </trkpt>
      <trkpt lat="45.83603" lon="4.80438">
        <ele>467</ele>
        <time>2011-12-11T09:06:48Z</time>
      </trkpt>
      <trkpt lat="45.83608" lon="4.80436">
        <ele>467</ele>
        <time>2011-12-11T09:06:51Z</time>
      </trkpt>
      <trkpt lat="45.83611" lon="4.80434">
        <ele>467</ele>
        <time>2011-12-11T09:06:53Z</time>
      </trkpt>
      <trkpt lat="45.83613" lon="4.8043">
        <ele>467</ele>
        <time>2011-12-11T09:06:56Z</time>
      </trkpt>
      <trkpt lat="45.83617" lon="4.80431">
        <ele>467</ele>
        <time>2011-12-11T09:07:00Z</time>
      </trkpt>
      <trkpt lat="45.83615" lon="4.80427">
        <ele>467</ele>
        <time>2011-12-11T09:07:04Z</time>
      </trkpt>
      <trkpt lat="45.83614" lon="4.80428">
        <ele>467</ele>
        <time>2011-12-11T09:07:08Z</time>
      </trkpt>
      <trkpt lat="45.83615" lon="4.80429">
        <ele>467</ele>
        <time>2011-12-11T09:07:10Z</time>
      </trkpt>
      <trkpt lat="45.83616" lon="4.80427">
        <ele>467</ele>
        <time>2011-12-11T09:07:12Z</time>
      </trkpt>
      <trkpt lat="45.8362" lon="4.80423">
        <ele>467</ele>
        <time>2011-12-11T09:07:18Z</time>
      </trkpt>
      <trkpt lat="45.83623" lon="4.8042">
        <ele>467</ele>
        <time>2011-12-11T09:07:20Z</time>
      </trkpt>
      <trkpt lat="45.83624" lon="4.80418">
        <ele>467</ele>
        <time>2011-12-11T09:07:21Z</time>
      </trkpt>
      <trkpt lat="45.83625" lon="4.80416">
        <ele>470</ele>
        <time>2011-12-11T09:07:22Z</time>
      </trkpt>
      <trkpt lat="45.83634" lon="4.80404">
        <ele>470</ele>
        <time>2011-12-11T09:07:28Z</time>
      </trkpt>
      <trkpt lat="45.83636" lon="4.80403">
        <ele>470</ele>
        <time>2011-12-11T09:07:29Z</time>
      </trkpt>
      <trkpt lat="45.83646" lon="4.80396">
        <ele>469</ele>
        <time>2011-12-11T09:07:33Z</time>
      </trkpt>
      <trkpt lat="45.83654" lon="4.80391">
        <ele>469</ele>
        <time>2011-12-11T09:07:36Z</time>
      </trkpt>
      <trkpt lat="45.83659" lon="4.80388">
        <ele>469</ele>
        <time>2011-12-11T09:07:38Z</time>
      </trkpt>
      <trkpt lat="45.83669" lon="4.8038">
        <ele>467</ele>
        <time>2011-12-11T09:07:43Z</time>
      </trkpt>
      <trkpt lat="45.8367" lon="4.80379">
        <ele>467</ele>
        <time>2011-12-11T09:07:44Z</time>
      </trkpt>
      <trkpt lat="45.83681" lon="4.8038">
        <ele>467</ele>
        <time>2011-12-11T09:07:50Z</time>
      </trkpt>
      <trkpt lat="45.83684" lon="4.8039">
        <ele>466</ele>
        <time>2011-12-11T09:07:55Z</time>
      </trkpt>
      <trkpt lat="45.83687" lon="4.80402">
        <ele>466</ele>
        <time>2011-12-11T09:07:59Z</time>
      </trkpt>
      <trkpt lat="45.83687" lon="4.80404">
        <ele>466</ele>
        <time>2011-12-11T09:08:00Z</time>
      </trkpt>
      <trkpt lat="45.83688" lon="4.80416">
        <ele>466</ele>
        <time>2011-12-11T09:08:05Z</time>
      </trkpt>
      <trkpt lat="45.83689" lon="4.80429">
        <ele>461</ele>
        <time>2011-12-11T09:08:10Z</time>
      </trkpt>
      <trkpt lat="45.8369" lon="4.80444">
        <ele>460</ele>
        <time>2011-12-11T09:08:15Z</time>
      </trkpt>
      <trkpt lat="45.8369" lon="4.80448">
        <ele>460</ele>
        <time>2011-12-11T09:08:16Z</time>
      </trkpt>
      <trkpt lat="45.8369" lon="4.80457">
        <ele>459</ele>
        <time>2011-12-11T09:08:20Z</time>
      </trkpt>
      <trkpt lat="45.83691" lon="4.80458">
        <ele>459</ele>
        <time>2011-12-11T09:08:21Z</time>
      </trkpt>
      <trkpt lat="45.83693" lon="4.80468">
        <ele>458</ele>
        <time>2011-12-11T09:08:25Z</time>
      </trkpt>
      <trkpt lat="45.83693" lon="4.80471">
        <ele>458</ele>
        <time>2011-12-11T09:08:26Z</time>
      </trkpt>
      <trkpt lat="45.83694" lon="4.80483">
        <ele>458</ele>
        <time>2011-12-11T09:08:30Z</time>
      </trkpt>
      <trkpt lat="45.83694" lon="4.80489">
        <ele>458</ele>
        <time>2011-12-11T09:08:32Z</time>
      </trkpt>
      <trkpt lat="45.83694" lon="4.80498">
        <ele>457</ele>
        <time>2011-12-11T09:08:35Z</time>
      </trkpt>
      <trkpt lat="45.83694" lon="4.80501">
        <ele>451</ele>
        <time>2011-12-11T09:08:36Z</time>
      </trkpt>
      <trkpt lat="45.83695" lon="4.80517">
        <ele>450</ele>
        <time>2011-12-11T09:08:41Z</time>
      </trkpt>
      <trkpt lat="45.83696" lon="4.80526">
        <ele>449</ele>
        <time>2011-12-11T09:08:44Z</time>
      </trkpt>
      <trkpt lat="45.83698" lon="4.80533">
        <ele>448</ele>
        <time>2011-12-11T09:08:46Z</time>
      </trkpt>
      <trkpt lat="45.83702" lon="4.80542">
        <ele>447</ele>
        <time>2011-12-11T09:08:49Z</time>
      </trkpt>
      <trkpt lat="45.83704" lon="4.80543">
        <ele>447</ele>
        <time>2011-12-11T09:08:50Z</time>
      </trkpt>
      <trkpt lat="45.83708" lon="4.80544">
        <ele>447</ele>
        <time>2011-12-11T09:08:52Z</time>
      </trkpt>
      <trkpt lat="45.83714" lon="4.80545">
        <ele>447</ele>
        <time>2011-12-11T09:08:55Z</time>
      </trkpt>
      <trkpt lat="45.83716" lon="4.80545">
        <ele>447</ele>
        <time>2011-12-11T09:08:56Z</time>
      </trkpt>
      <trkpt lat="45.83724" lon="4.80544">
        <ele>447</ele>
        <time>2011-12-11T09:09:01Z</time>
      </trkpt>
      <trkpt lat="45.83725" lon="4.80544">
        <ele>447</ele>
        <time>2011-12-11T09:09:02Z</time>
      </trkpt>
      <trkpt lat="45.83729" lon="4.80545">
        <ele>446</ele>
        <time>2011-12-11T09:09:05Z</time>
      </trkpt>
      <trkpt lat="45.8373" lon="4.80546">
        <ele>446</ele>
        <time>2011-12-11T09:09:07Z</time>
      </trkpt>
      <trkpt lat="45.83722" lon="4.80553">
        <ele>446</ele>
        <time>2011-12-11T09:09:11Z</time>
      </trkpt>
      <trkpt lat="45.83715" lon="4.80555">
        <ele>446</ele>
        <time>2011-12-11T09:09:14Z</time>
      </trkpt>
      <trkpt lat="45.83707" lon="4.80557">
        <ele>446</ele>
        <time>2011-12-11T09:09:17Z</time>
      </trkpt>
      <trkpt lat="45.83707" lon="4.80559">
        <ele>446</ele>
        <time>2011-12-11T09:09:18Z</time>
      </trkpt>
      <trkpt lat="45.83707" lon="4.80566">
        <ele>446</ele>
        <time>2011-12-11T09:09:20Z</time>
      </trkpt>
      <trkpt lat="45.83709" lon="4.80574">
        <ele>445</ele>
        <time>2011-12-11T09:09:22Z</time>
      </trkpt>
      <trkpt lat="45.83711" lon="4.80588">
        <ele>436</ele>
        <time>2011-12-11T09:09:26Z</time>
      </trkpt>
      <trkpt lat="45.83713" lon="4.80602">
        <ele>435</ele>
        <time>2011-12-11T09:09:30Z</time>
      </trkpt>
      <trkpt lat="45.83714" lon="4.80608">
        <ele>435</ele>
        <time>2011-12-11T09:09:32Z</time>
      </trkpt>
      <trkpt lat="45.83718" lon="4.80629">
        <ele>433</ele>
        <time>2011-12-11T09:09:37Z</time>
      </trkpt>
      <trkpt lat="45.8372" lon="4.80653">
        <ele>431</ele>
        <time>2011-12-11T09:09:43Z</time>
      </trkpt>
      <trkpt lat="45.83721" lon="4.80657">
        <ele>431</ele>
        <time>2011-12-11T09:09:44Z</time>
      </trkpt>
      <trkpt lat="45.83723" lon="4.80677">
        <ele>423</ele>
        <time>2011-12-11T09:09:49Z</time>
      </trkpt>
      <trkpt lat="45.83723" lon="4.80685">
        <ele>423</ele>
        <time>2011-12-11T09:09:51Z</time>
      </trkpt>
      <trkpt lat="45.83724" lon="4.80693">
        <ele>422</ele>
        <time>2011-12-11T09:09:53Z</time>
      </trkpt>
      <trkpt lat="45.83725" lon="4.80703">
        <ele>422</ele>
        <time>2011-12-11T09:09:56Z</time>
      </trkpt>
      <trkpt lat="45.83726" lon="4.80705">
        <ele>422</ele>
        <time>2011-12-11T09:09:57Z</time>
      </trkpt>
      <trkpt lat="45.83731" lon="4.80706">
        <ele>422</ele>
        <time>2011-12-11T09:09:59Z</time>
      </trkpt>
      <trkpt lat="45.83736" lon="4.80705">
        <ele>422</ele>
        <time>2011-12-11T09:10:01Z</time>
      </trkpt>
      <trkpt lat="45.83748" lon="4.8071">
        <ele>421</ele>
        <time>2011-12-11T09:10:06Z</time>
      </trkpt>
      <trkpt lat="45.8375" lon="4.80712">
        <ele>421</ele>
        <time>2011-12-11T09:10:07Z</time>
      </trkpt>
      <trkpt lat="45.83756" lon="4.8072">
        <ele>427</ele>
        <time>2011-12-11T09:10:11Z</time>
      </trkpt>
      <trkpt lat="45.83764" lon="4.8073">
        <ele>426</ele>
        <time>2011-12-11T09:10:15Z</time>
      </trkpt>
      <trkpt lat="45.83765" lon="4.80733">
        <ele>426</ele>
        <time>2011-12-11T09:10:16Z</time>
      </trkpt>
      <trkpt lat="45.83774" lon="4.80745">
        <ele>426</ele>
        <time>2011-12-11T09:10:21Z</time>
      </trkpt>
      <trkpt lat="45.83776" lon="4.80749">
        <ele>427</ele>
        <time>2011-12-11T09:10:23Z</time>
      </trkpt>
      <trkpt lat="45.83782" lon="4.80757">
        <ele>422</ele>
        <time>2011-12-11T09:10:26Z</time>
      </trkpt>
      <trkpt lat="45.83791" lon="4.80765">
        <ele>424</ele>
        <time>2011-12-11T09:10:30Z</time>
      </trkpt>
      <trkpt lat="45.83795" lon="4.8077">
        <ele>424</ele>
        <time>2011-12-11T09:10:32Z</time>
      </trkpt>
      <trkpt lat="45.838" lon="4.80776">
        <ele>424</ele>
        <time>2011-12-11T09:10:35Z</time>
      </trkpt>
      <trkpt lat="45.83804" lon="4.80781">
        <ele>424</ele>
        <time>2011-12-11T09:10:37Z</time>
      </trkpt>
      <trkpt lat="45.83808" lon="4.8079">
        <ele>424</ele>
        <time>2011-12-11T09:10:40Z</time>
      </trkpt>
      <trkpt lat="45.83809" lon="4.80793">
        <ele>424</ele>
        <time>2011-12-11T09:10:41Z</time>
      </trkpt>
      <trkpt lat="45.83813" lon="4.80805">
        <ele>423</ele>
        <time>2011-12-11T09:10:45Z</time>
      </trkpt>
      <trkpt lat="45.83815" lon="4.80812">
        <ele>423</ele>
        <time>2011-12-11T09:10:47Z</time>
      </trkpt>
      <trkpt lat="45.83823" lon="4.80826">
        <ele>423</ele>
        <time>2011-12-11T09:10:52Z</time>
      </trkpt>
      <trkpt lat="45.83825" lon="4.80827">
        <ele>423</ele>
        <time>2011-12-11T09:10:53Z</time>
      </trkpt>
      <trkpt lat="45.83831" lon="4.80832">
        <ele>423</ele>
        <time>2011-12-11T09:10:56Z</time>
      </trkpt>
      <trkpt lat="45.83832" lon="4.80833">
        <ele>423</ele>
        <time>2011-12-11T09:10:57Z</time>
      </trkpt>
      <trkpt lat="45.83839" lon="4.80835">
        <ele>422</ele>
        <time>2011-12-11T09:11:01Z</time>
      </trkpt>
      <trkpt lat="45.83844" lon="4.80836">
        <ele>422</ele>
        <time>2011-12-11T09:11:03Z</time>
      </trkpt>
      <trkpt lat="45.83851" lon="4.80837">
        <ele>422</ele>
        <time>2011-12-11T09:11:06Z</time>
      </trkpt>
      <trkpt lat="45.83861" lon="4.8084">
        <ele>422</ele>
        <time>2011-12-11T09:11:11Z</time>
      </trkpt>
      <trkpt lat="45.83863" lon="4.8084">
        <ele>422</ele>
        <time>2011-12-11T09:11:12Z</time>
      </trkpt>
      <trkpt lat="45.83875" lon="4.80839">
        <ele>423</ele>
        <time>2011-12-11T09:11:17Z</time>
      </trkpt>
      <trkpt lat="45.83882" lon="4.80838">
        <ele>424</ele>
        <time>2011-12-11T09:11:20Z</time>
      </trkpt>
      <trkpt lat="45.83888" lon="4.80839">
        <ele>425</ele>
        <time>2011-12-11T09:11:22Z</time>
      </trkpt>
      <trkpt lat="45.83899" lon="4.80839">
        <ele>427</ele>
        <time>2011-12-11T09:11:27Z</time>
      </trkpt>
      <trkpt lat="45.83901" lon="4.80839">
        <ele>428</ele>
        <time>2011-12-11T09:11:28Z</time>
      </trkpt>
      <trkpt lat="45.8391" lon="4.80839">
        <ele>431</ele>
        <time>2011-12-11T09:11:32Z</time>
      </trkpt>
      <trkpt lat="45.83919" lon="4.80839">
        <ele>435</ele>
        <time>2011-12-11T09:11:36Z</time>
      </trkpt>
      <trkpt lat="45.83925" lon="4.8084">
        <ele>435</ele>
        <time>2011-12-11T09:11:39Z</time>
      </trkpt>
      <trkpt lat="45.83938" lon="4.80843">
        <ele>435</ele>
        <time>2011-12-11T09:11:45Z</time>
      </trkpt>
      <trkpt lat="45.8395" lon="4.80844">
        <ele>435</ele>
        <time>2011-12-11T09:11:51Z</time>
      </trkpt>
      <trkpt lat="45.83956" lon="4.80845">
        <ele>436</ele>
        <time>2011-12-11T09:11:54Z</time>
      </trkpt>
      <trkpt lat="45.83958" lon="4.80847">
        <ele>436</ele>
        <time>2011-12-11T09:11:55Z</time>
      </trkpt>
      <trkpt lat="45.8396" lon="4.8085">
        <ele>436</ele>
        <time>2011-12-11T09:11:56Z</time>
      </trkpt>
      <trkpt lat="45.83961" lon="4.80853">
        <ele>436</ele>
        <time>2011-12-11T09:11:57Z</time>
      </trkpt>
      <trkpt lat="45.83961" lon="4.80862">
        <ele>435</ele>
        <time>2011-12-11T09:12:00Z</time>
      </trkpt>
      <trkpt lat="45.8396" lon="4.80868">
        <ele>435</ele>
        <time>2011-12-11T09:12:02Z</time>
      </trkpt>
      <trkpt lat="45.83959" lon="4.80875">
        <ele>435</ele>
        <time>2011-12-11T09:12:04Z</time>
      </trkpt>
      <trkpt lat="45.83955" lon="4.80892">
        <ele>433</ele>
        <time>2011-12-11T09:12:09Z</time>
      </trkpt>
      <trkpt lat="45.83954" lon="4.80895">
        <ele>433</ele>
        <time>2011-12-11T09:12:10Z</time>
      </trkpt>
      <trkpt lat="45.83952" lon="4.8091">
        <ele>432</ele>
        <time>2011-12-11T09:12:14Z</time>
      </trkpt>
      <trkpt lat="45.83949" lon="4.80922">
        <ele>429</ele>
        <time>2011-12-11T09:12:18Z</time>
      </trkpt>
      <trkpt lat="45.83948" lon="4.80933">
        <ele>429</ele>
        <time>2011-12-11T09:12:21Z</time>
      </trkpt>
      <trkpt lat="45.83945" lon="4.80949">
        <ele>429</ele>
        <time>2011-12-11T09:12:26Z</time>
      </trkpt>
      <trkpt lat="45.83942" lon="4.80971">
        <ele>429</ele>
        <time>2011-12-11T09:12:33Z</time>
      </trkpt>
      <trkpt lat="45.83942" lon="4.80974">
        <ele>429</ele>
        <time>2011-12-11T09:12:34Z</time>
      </trkpt>
      <trkpt lat="45.83941" lon="4.80991">
        <ele>428</ele>
        <time>2011-12-11T09:12:39Z</time>
      </trkpt>
      <trkpt lat="45.83941" lon="4.81001">
        <ele>427</ele>
        <time>2011-12-11T09:12:42Z</time>
      </trkpt>
      <trkpt lat="45.83939" lon="4.81013">
        <ele>427</ele>
        <time>2011-12-11T09:12:45Z</time>
      </trkpt>
      <trkpt lat="45.83939" lon="4.8103">
        <ele>428</ele>
        <time>2011-12-11T09:12:50Z</time>
      </trkpt>
      <trkpt lat="45.8394" lon="4.81048">
        <ele>428</ele>
        <time>2011-12-11T09:12:55Z</time>
      </trkpt>
      <trkpt lat="45.83942" lon="4.81059">
        <ele>428</ele>
        <time>2011-12-11T09:12:58Z</time>
      </trkpt>
      <trkpt lat="45.83944" lon="4.81067">
        <ele>427</ele>
        <time>2011-12-11T09:13:00Z</time>
      </trkpt>
      <trkpt lat="45.83947" lon="4.81083">
        <ele>427</ele>
        <time>2011-12-11T09:13:05Z</time>
      </trkpt>
      <trkpt lat="45.83948" lon="4.81086">
        <ele>425</ele>
        <time>2011-12-11T09:13:06Z</time>
      </trkpt>
      <trkpt lat="45.83948" lon="4.8109">
        <ele>425</ele>
        <time>2011-12-11T09:13:07Z</time>
      </trkpt>
      <trkpt lat="45.83952" lon="4.811">
        <ele>425</ele>
        <time>2011-12-11T09:13:10Z</time>
      </trkpt>
      <trkpt lat="45.83956" lon="4.81113">
        <ele>426</ele>
        <time>2011-12-11T09:13:14Z</time>
      </trkpt>
      <trkpt lat="45.83957" lon="4.81116">
        <ele>426</ele>
        <time>2011-12-11T09:13:15Z</time>
      </trkpt>
      <trkpt lat="45.83964" lon="4.81134">
        <ele>426</ele>
        <time>2011-12-11T09:13:20Z</time>
      </trkpt>
      <trkpt lat="45.83965" lon="4.81137">
        <ele>426</ele>
        <time>2011-12-11T09:13:21Z</time>
      </trkpt>
      <trkpt lat="45.83968" lon="4.81145">
        <ele>427</ele>
        <time>2011-12-11T09:13:24Z</time>
      </trkpt>
      <trkpt lat="45.83974" lon="4.81158">
        <ele>428</ele>
        <time>2011-12-11T09:13:28Z</time>
      </trkpt>
      <trkpt lat="45.83975" lon="4.81161">
        <ele>428</ele>
        <time>2011-12-11T09:13:29Z</time>
      </trkpt>
      <trkpt lat="45.8398" lon="4.81174">
        <ele>424</ele>
        <time>2011-12-11T09:13:33Z</time>
      </trkpt>
      <trkpt lat="45.83985" lon="4.81186">
        <ele>423</ele>
        <time>2011-12-11T09:13:37Z</time>
      </trkpt>
      <trkpt lat="45.83986" lon="4.81189">
        <ele>423</ele>
        <time>2011-12-11T09:13:38Z</time>
      </trkpt>
      <trkpt lat="45.83992" lon="4.81205">
        <ele>421</ele>
        <time>2011-12-11T09:13:43Z</time>
      </trkpt>
      <trkpt lat="45.83995" lon="4.81207">
        <ele>421</ele>
        <time>2011-12-11T09:13:44Z</time>
      </trkpt>
      <trkpt lat="45.84004" lon="4.81219">
        <ele>432</ele>
        <time>2011-12-11T09:13:49Z</time>
      </trkpt>
      <trkpt lat="45.84008" lon="4.81223">
        <ele>431</ele>
        <time>2011-12-11T09:13:51Z</time>
      </trkpt>
      <trkpt lat="45.8401" lon="4.81226">
        <ele>431</ele>
        <time>2011-12-11T09:13:52Z</time>
      </trkpt>
      <trkpt lat="45.84012" lon="4.81227">
        <ele>431</ele>
        <time>2011-12-11T09:13:53Z</time>
      </trkpt>
      <trkpt lat="45.84027" lon="4.81237">
        <ele>431</ele>
        <time>2011-12-11T09:13:59Z</time>
      </trkpt>
      <trkpt lat="45.84038" lon="4.81242">
        <ele>432</ele>
        <time>2011-12-11T09:14:04Z</time>
      </trkpt>
      <trkpt lat="45.84045" lon="4.81245">
        <ele>432</ele>
        <time>2011-12-11T09:14:07Z</time>
      </trkpt>
      <trkpt lat="45.84053" lon="4.81247">
        <ele>433</ele>
        <time>2011-12-11T09:14:10Z</time>
      </trkpt>
      <trkpt lat="45.84061" lon="4.81247">
        <ele>433</ele>
        <time>2011-12-11T09:14:13Z</time>
      </trkpt>
      <trkpt lat="45.84064" lon="4.81247">
        <ele>433</ele>
        <time>2011-12-11T09:14:14Z</time>
      </trkpt>
      <trkpt lat="45.84068" lon="4.81247">
        <ele>433</ele>
        <time>2011-12-11T09:14:15Z</time>
      </trkpt>
      <trkpt lat="45.84083" lon="4.81249">
        <ele>432</ele>
        <time>2011-12-11T09:14:20Z</time>
      </trkpt>
      <trkpt lat="45.84098" lon="4.8125">
        <ele>434</ele>
        <time>2011-12-11T09:14:25Z</time>
      </trkpt>
      <trkpt lat="45.84102" lon="4.81251">
        <ele>428</ele>
        <time>2011-12-11T09:14:27Z</time>
      </trkpt>
      <trkpt lat="45.84112" lon="4.81252">
        <ele>427</ele>
        <time>2011-12-11T09:14:31Z</time>
      </trkpt>
      <trkpt lat="45.84117" lon="4.81252">
        <ele>426</ele>
        <time>2011-12-11T09:14:33Z</time>
      </trkpt>
      <trkpt lat="45.84122" lon="4.81251">
        <ele>426</ele>
        <time>2011-12-11T09:14:35Z</time>
      </trkpt>
      <trkpt lat="45.84125" lon="4.8125">
        <ele>426</ele>
        <time>2011-12-11T09:14:36Z</time>
      </trkpt>
      <trkpt lat="45.84135" lon="4.81249">
        <ele>434</ele>
        <time>2011-12-11T09:14:40Z</time>
      </trkpt>
      <trkpt lat="45.84142" lon="4.81251">
        <ele>426</ele>
        <time>2011-12-11T09:14:42Z</time>
      </trkpt>
      <trkpt lat="45.84153" lon="4.8125">
        <ele>432</ele>
        <time>2011-12-11T09:14:46Z</time>
      </trkpt>
      <trkpt lat="45.84163" lon="4.81248">
        <ele>430</ele>
        <time>2011-12-11T09:14:49Z</time>
      </trkpt>
      <trkpt lat="45.8417" lon="4.81246">
        <ele>430</ele>
        <time>2011-12-11T09:14:52Z</time>
      </trkpt>
      <trkpt lat="45.84179" lon="4.81243">
        <ele>430</ele>
        <time>2011-12-11T09:14:56Z</time>
      </trkpt>
      <trkpt lat="45.84182" lon="4.81242">
        <ele>431</ele>
        <time>2011-12-11T09:14:57Z</time>
      </trkpt>
      <trkpt lat="45.84192" lon="4.81241">
        <ele>431</ele>
        <time>2011-12-11T09:15:01Z</time>
      </trkpt>
      <trkpt lat="45.84203" lon="4.8124">
        <ele>431</ele>
        <time>2011-12-11T09:15:05Z</time>
      </trkpt>
      <trkpt lat="45.8422" lon="4.81237">
        <ele>430</ele>
        <time>2011-12-11T09:15:11Z</time>
      </trkpt>
      <trkpt lat="45.84222" lon="4.81237">
        <ele>430</ele>
        <time>2011-12-11T09:15:12Z</time>
      </trkpt>
      <trkpt lat="45.84233" lon="4.8124">
        <ele>428</ele>
        <time>2011-12-11T09:15:16Z</time>
      </trkpt>
      <trkpt lat="45.8424" lon="4.81242">
        <ele>427</ele>
        <time>2011-12-11T09:15:18Z</time>
      </trkpt>
      <trkpt lat="45.84248" lon="4.81246">
        <ele>425</ele>
        <time>2011-12-11T09:15:21Z</time>
      </trkpt>
      <trkpt lat="45.84256" lon="4.81251">
        <ele>423</ele>
        <time>2011-12-11T09:15:26Z</time>
      </trkpt>
      <trkpt lat="45.84258" lon="4.81252">
        <ele>423</ele>
        <time>2011-12-11T09:15:27Z</time>
      </trkpt>
      <trkpt lat="45.84268" lon="4.81255">
        <ele>422</ele>
        <time>2011-12-11T09:15:31Z</time>
      </trkpt>
      <trkpt lat="45.84278" lon="4.81259">
        <ele>422</ele>
        <time>2011-12-11T09:15:35Z</time>
      </trkpt>
      <trkpt lat="45.84282" lon="4.81262">
        <ele>422</ele>
        <time>2011-12-11T09:15:37Z</time>
      </trkpt>
      <trkpt lat="45.84288" lon="4.81264">
        <ele>422</ele>
        <time>2011-12-11T09:15:40Z</time>
      </trkpt>
      <trkpt lat="45.8429" lon="4.81266">
        <ele>422</ele>
        <time>2011-12-11T09:15:41Z</time>
      </trkpt>
      <trkpt lat="45.84295" lon="4.81268">
        <ele>422</ele>
        <time>2011-12-11T09:15:43Z</time>
      </trkpt>
      <trkpt lat="45.84303" lon="4.81272">
        <ele>422</ele>
        <time>2011-12-11T09:15:47Z</time>
      </trkpt>
      <trkpt lat="45.84315" lon="4.81273">
        <ele>422</ele>
        <time>2011-12-11T09:15:51Z</time>
      </trkpt>
      <trkpt lat="45.84318" lon="4.81272">
        <ele>422</ele>
        <time>2011-12-11T09:15:52Z</time>
      </trkpt>
      <trkpt lat="45.84319" lon="4.81269">
        <ele>423</ele>
        <time>2011-12-11T09:15:54Z</time>
      </trkpt>
      <trkpt lat="45.84328" lon="4.81262">
        <ele>424</ele>
        <time>2011-12-11T09:16:00Z</time>
      </trkpt>
      <trkpt lat="45.84329" lon="4.81258">
        <ele>424</ele>
        <time>2011-12-11T09:16:02Z</time>
      </trkpt>
      <trkpt lat="45.84329" lon="4.81253">
        <ele>425</ele>
        <time>2011-12-11T09:16:05Z</time>
      </trkpt>
      <trkpt lat="45.84329" lon="4.81251">
        <ele>425</ele>
        <time>2011-12-11T09:16:06Z</time>
      </trkpt>
      <trkpt lat="45.84329" lon="4.81249">
        <ele>427</ele>
        <time>2011-12-11T09:16:07Z</time>
      </trkpt>
      <trkpt lat="45.84331" lon="4.81243">
        <ele>427</ele>
        <time>2011-12-11T09:16:11Z</time>
      </trkpt>
      <trkpt lat="45.84335" lon="4.81236">
        <ele>425</ele>
        <time>2011-12-11T09:16:15Z</time>
      </trkpt>
      <trkpt lat="45.84336" lon="4.81234">
        <ele>425</ele>
        <time>2011-12-11T09:16:16Z</time>
      </trkpt>
      <trkpt lat="45.84337" lon="4.81232">
        <ele>425</ele>
        <time>2011-12-11T09:16:17Z</time>
      </trkpt>
      <trkpt lat="45.84338" lon="4.81225">
        <ele>425</ele>
        <time>2011-12-11T09:16:21Z</time>
      </trkpt>
      <trkpt lat="45.84339" lon="4.8122">
        <ele>426</ele>
        <time>2011-12-11T09:16:23Z</time>
      </trkpt>
      <trkpt lat="45.84339" lon="4.81217">
        <ele>426</ele>
        <time>2011-12-11T09:16:25Z</time>
      </trkpt>
      <trkpt lat="45.84339" lon="4.81209">
        <ele>426</ele>
        <time>2011-12-11T09:16:29Z</time>
      </trkpt>
      <trkpt lat="45.84341" lon="4.81199">
        <ele>427</ele>
        <time>2011-12-11T09:16:34Z</time>
      </trkpt>
      <trkpt lat="45.84343" lon="4.81189">
        <ele>428</ele>
        <time>2011-12-11T09:16:41Z</time>
      </trkpt>
      <trkpt lat="45.84344" lon="4.81184">
        <ele>429</ele>
        <time>2011-12-11T09:16:44Z</time>
      </trkpt>
      <trkpt lat="45.84343" lon="4.81177">
        <ele>430</ele>
        <time>2011-12-11T09:16:48Z</time>
      </trkpt>
      <trkpt lat="45.84345" lon="4.81171">
        <ele>430</ele>
        <time>2011-12-11T09:16:51Z</time>
      </trkpt>
      <trkpt lat="45.84346" lon="4.81166">
        <ele>434</ele>
        <time>2011-12-11T09:16:54Z</time>
      </trkpt>
      <trkpt lat="45.84344" lon="4.81158">
        <ele>434</ele>
        <time>2011-12-11T09:16:58Z</time>
      </trkpt>
      <trkpt lat="45.84344" lon="4.81154">
        <ele>434</ele>
        <time>2011-12-11T09:17:00Z</time>
      </trkpt>
      <trkpt lat="45.84345" lon="4.8115">
        <ele>434</ele>
        <time>2011-12-11T09:17:03Z</time>
      </trkpt>
      <trkpt lat="45.84346" lon="4.81147">
        <ele>434</ele>
        <time>2011-12-11T09:17:05Z</time>
      </trkpt>
      <trkpt lat="45.84346" lon="4.81143">
        <ele>434</ele>
        <time>2011-12-11T09:17:07Z</time>
      </trkpt>
      <trkpt lat="45.84348" lon="4.8114">
        <ele>434</ele>
        <time>2011-12-11T09:17:09Z</time>
      </trkpt>
      <trkpt lat="45.84347" lon="4.81133">
        <ele>434</ele>
        <time>2011-12-11T09:17:13Z</time>
      </trkpt>
      <trkpt lat="45.84349" lon="4.81132">
        <ele>434</ele>
        <time>2011-12-11T09:17:14Z</time>
      </trkpt>
      <trkpt lat="45.8435" lon="4.81126">
        <ele>435</ele>
        <time>2011-12-11T09:17:18Z</time>
      </trkpt>
      <trkpt lat="45.8435" lon="4.81124">
        <ele>435</ele>
        <time>2011-12-11T09:17:19Z</time>
      </trkpt>
      <trkpt lat="45.84353" lon="4.81117">
        <ele>435</ele>
        <time>2011-12-11T09:17:24Z</time>
      </trkpt>
      <trkpt lat="45.84352" lon="4.81112">
        <ele>436</ele>
        <time>2011-12-11T09:17:26Z</time>
      </trkpt>
      <trkpt lat="45.84353" lon="4.81109">
        <ele>436</ele>
        <time>2011-12-11T09:17:28Z</time>
      </trkpt>
      <trkpt lat="45.84355" lon="4.81104">
        <ele>436</ele>
        <time>2011-12-11T09:17:31Z</time>
      </trkpt>
      <trkpt lat="45.84357" lon="4.811">
        <ele>436</ele>
        <time>2011-12-11T09:17:34Z</time>
      </trkpt>
      <trkpt lat="45.84357" lon="4.81097">
        <ele>436</ele>
        <time>2011-12-11T09:17:36Z</time>
      </trkpt>
      <trkpt lat="45.84357" lon="4.81092">
        <ele>437</ele>
        <time>2011-12-11T09:17:39Z</time>
      </trkpt>
      <trkpt lat="45.84357" lon="4.8109">
        <ele>437</ele>
        <time>2011-12-11T09:17:40Z</time>
      </trkpt>
      <trkpt lat="45.84358" lon="4.81086">
        <ele>437</ele>
        <time>2011-12-11T09:17:43Z</time>
      </trkpt>
      <trkpt lat="45.8436" lon="4.81085">
        <ele>437</ele>
        <time>2011-12-11T09:17:44Z</time>
      </trkpt>
      <trkpt lat="45.84361" lon="4.81083">
        <ele>437</ele>
        <time>2011-12-11T09:17:45Z</time>
      </trkpt>
      <trkpt lat="45.84362" lon="4.8108">
        <ele>442</ele>
        <time>2011-12-11T09:17:47Z</time>
      </trkpt>
      <trkpt lat="45.84364" lon="4.81073">
        <ele>443</ele>
        <time>2011-12-11T09:17:51Z</time>
      </trkpt>
      <trkpt lat="45.84364" lon="4.81065">
        <ele>443</ele>
        <time>2011-12-11T09:17:56Z</time>
      </trkpt>
      <trkpt lat="45.84364" lon="4.81062">
        <ele>443</ele>
        <time>2011-12-11T09:17:58Z</time>
      </trkpt>
      <trkpt lat="45.84364" lon="4.81061">
        <ele>443</ele>
        <time>2011-12-11T09:17:59Z</time>
      </trkpt>
      <trkpt lat="45.84364" lon="4.81059">
        <ele>443</ele>
        <time>2011-12-11T09:18:00Z</time>
      </trkpt>
      <trkpt lat="45.84365" lon="4.81055">
        <ele>443</ele>
        <time>2011-12-11T09:18:02Z</time>
      </trkpt>
      <trkpt lat="45.84365" lon="4.81048">
        <ele>444</ele>
        <time>2011-12-11T09:18:06Z</time>
      </trkpt>
      <trkpt lat="45.84365" lon="4.81046">
        <ele>444</ele>
        <time>2011-12-11T09:18:07Z</time>
      </trkpt>
      <trkpt lat="45.84366" lon="4.81043">
        <ele>444</ele>
        <time>2011-12-11T09:18:09Z</time>
      </trkpt>
      <trkpt lat="45.84367" lon="4.81039">
        <ele>444</ele>
        <time>2011-12-11T09:18:11Z</time>
      </trkpt>
      <trkpt lat="45.84367" lon="4.81037">
        <ele>445</ele>
        <time>2011-12-11T09:18:13Z</time>
      </trkpt>
      <trkpt lat="45.84368" lon="4.81034">
        <ele>445</ele>
        <time>2011-12-11T09:18:15Z</time>
      </trkpt>
      <trkpt lat="45.84369" lon="4.81028">
        <ele>445</ele>
        <time>2011-12-11T09:18:18Z</time>
      </trkpt>
      <trkpt lat="45.8437" lon="4.81025">
        <ele>445</ele>
        <time>2011-12-11T09:18:20Z</time>
      </trkpt>
      <trkpt lat="45.8437" lon="4.81024">
        <ele>445</ele>
        <time>2011-12-11T09:18:21Z</time>
      </trkpt>
      <trkpt lat="45.8437" lon="4.81022">
        <ele>445</ele>
        <time>2011-12-11T09:18:22Z</time>
      </trkpt>
      <trkpt lat="45.84372" lon="4.81013">
        <ele>446</ele>
        <time>2011-12-11T09:18:27Z</time>
      </trkpt>
      <trkpt lat="45.84374" lon="4.81008">
        <ele>446</ele>
        <time>2011-12-11T09:18:30Z</time>
      </trkpt>
      <trkpt lat="45.84373" lon="4.81002">
        <ele>446</ele>
        <time>2011-12-11T09:18:33Z</time>
      </trkpt>
      <trkpt lat="45.84373" lon="4.80994">
        <ele>453</ele>
        <time>2011-12-11T09:18:38Z</time>
      </trkpt>
      <trkpt lat="45.84373" lon="4.80991">
        <ele>453</ele>
        <time>2011-12-11T09:18:40Z</time>
      </trkpt>
      <trkpt lat="45.84376" lon="4.80984">
        <ele>453</ele>
        <time>2011-12-11T09:18:45Z</time>
      </trkpt>
      <trkpt lat="45.84376" lon="4.80979">
        <ele>453</ele>
        <time>2011-12-11T09:18:48Z</time>
      </trkpt>
      <trkpt lat="45.84377" lon="4.80973">
        <ele>453</ele>
        <time>2011-12-11T09:18:52Z</time>
      </trkpt>
      <trkpt lat="45.84379" lon="4.80966">
        <ele>454</ele>
        <time>2011-12-11T09:18:56Z</time>
      </trkpt>
      <trkpt lat="45.8438" lon="4.80962">
        <ele>454</ele>
        <time>2011-12-11T09:18:58Z</time>
      </trkpt>
      <trkpt lat="45.84379" lon="4.80961">
        <ele>454</ele>
        <time>2011-12-11T09:18:59Z</time>
      </trkpt>
      <trkpt lat="45.84381" lon="4.80957">
        <ele>454</ele>
        <time>2011-12-11T09:19:01Z</time>
      </trkpt>
      <trkpt lat="45.84381" lon="4.80955">
        <ele>454</ele>
        <time>2011-12-11T09:19:02Z</time>
      </trkpt>
      <trkpt lat="45.84384" lon="4.80948">
        <ele>455</ele>
        <time>2011-12-11T09:19:06Z</time>
      </trkpt>
      <trkpt lat="45.84389" lon="4.80939">
        <ele>455</ele>
        <time>2011-12-11T09:19:12Z</time>
      </trkpt>
      <trkpt lat="45.84391" lon="4.80938">
        <ele>455</ele>
        <time>2011-12-11T09:19:13Z</time>
      </trkpt>
      <trkpt lat="45.84394" lon="4.80935">
        <ele>455</ele>
        <time>2011-12-11T09:19:15Z</time>
      </trkpt>
      <trkpt lat="45.84393" lon="4.8093">
        <ele>456</ele>
        <time>2011-12-11T09:19:17Z</time>
      </trkpt>
      <trkpt lat="45.84392" lon="4.80928">
        <ele>456</ele>
        <time>2011-12-11T09:19:18Z</time>
      </trkpt>
      <trkpt lat="45.84389" lon="4.80915">
        <ele>461</ele>
        <time>2011-12-11T09:19:24Z</time>
      </trkpt>
      <trkpt lat="45.84391" lon="4.80908">
        <ele>461</ele>
        <time>2011-12-11T09:19:28Z</time>
      </trkpt>
      <trkpt lat="45.84392" lon="4.80905">
        <ele>461</ele>
        <time>2011-12-11T09:19:30Z</time>
      </trkpt>
      <trkpt lat="45.84399" lon="4.80898">
        <ele>461</ele>
        <time>2011-12-11T09:19:35Z</time>
      </trkpt>
      <trkpt lat="45.844" lon="4.80897">
        <ele>461</ele>
        <time>2011-12-11T09:19:36Z</time>
      </trkpt>
      <trkpt lat="45.844" lon="4.80892">
        <ele>461</ele>
        <time>2011-12-11T09:19:39Z</time>
      </trkpt>
      <trkpt lat="45.84403" lon="4.80889">
        <ele>461</ele>
        <time>2011-12-11T09:19:41Z</time>
      </trkpt>
      <trkpt lat="45.84405" lon="4.80878">
        <ele>462</ele>
        <time>2011-12-11T09:19:47Z</time>
      </trkpt>
      <trkpt lat="45.84409" lon="4.80868">
        <ele>462</ele>
        <time>2011-12-11T09:19:53Z</time>
      </trkpt>
      <trkpt lat="45.8441" lon="4.80867">
        <ele>462</ele>
        <time>2011-12-11T09:19:54Z</time>
      </trkpt>
      <trkpt lat="45.84414" lon="4.80858">
        <ele>463</ele>
        <time>2011-12-11T09:19:59Z</time>
      </trkpt>
      <trkpt lat="45.84415" lon="4.80857">
        <ele>463</ele>
        <time>2011-12-11T09:20:00Z</time>
      </trkpt>
      <trkpt lat="45.84417" lon="4.80851">
        <ele>461</ele>
        <time>2011-12-11T09:20:04Z</time>
      </trkpt>
      <trkpt lat="45.84416" lon="4.80847">
        <ele>463</ele>
        <time>2011-12-11T09:20:06Z</time>
      </trkpt>
      <trkpt lat="45.84416" lon="4.80845">
        <ele>463</ele>
        <time>2011-12-11T09:20:07Z</time>
      </trkpt>
      <trkpt lat="45.84415" lon="4.80837">
        <ele>464</ele>
        <time>2011-12-11T09:20:12Z</time>
      </trkpt>
      <trkpt lat="45.84415" lon="4.80828">
        <ele>465</ele>
        <time>2011-12-11T09:20:18Z</time>
      </trkpt>
      <trkpt lat="45.84416" lon="4.80822">
        <ele>467</ele>
        <time>2011-12-11T09:20:22Z</time>
      </trkpt>
      <trkpt lat="45.84416" lon="4.80819">
        <ele>467</ele>
        <time>2011-12-11T09:20:24Z</time>
      </trkpt>
      <trkpt lat="45.84417" lon="4.80818">
        <ele>467</ele>
        <time>2011-12-11T09:20:25Z</time>
      </trkpt>
      <trkpt lat="45.84417" lon="4.80812">
        <ele>468</ele>
        <time>2011-12-11T09:20:29Z</time>
      </trkpt>
      <trkpt lat="45.84417" lon="4.80809">
        <ele>467</ele>
        <time>2011-12-11T09:20:31Z</time>
      </trkpt>
      <trkpt lat="45.84417" lon="4.80801">
        <ele>467</ele>
        <time>2011-12-11T09:20:37Z</time>
      </trkpt>
      <trkpt lat="45.84418" lon="4.80801">
        <ele>467</ele>
        <time>2011-12-11T09:20:38Z</time>
      </trkpt>
      <trkpt lat="45.84422" lon="4.80804">
        <ele>467</ele>
        <time>2011-12-11T09:21:38Z</time>
      </trkpt>
      <trkpt lat="45.84422" lon="4.80804">
        <ele>467</ele>
        <time>2011-12-11T09:21:40Z</time>
      </trkpt>
      <trkpt lat="45.84425" lon="4.80804">
        <ele>467</ele>
        <time>2011-12-11T09:21:46Z</time>
      </trkpt>
      <trkpt lat="45.84437" lon="4.80806">
        <ele>467</ele>
        <time>2011-12-11T09:21:52Z</time>
      </trkpt>
      <trkpt lat="45.8444" lon="4.80808">
        <ele>467</ele>
        <time>2011-12-11T09:21:53Z</time>
      </trkpt>
      <trkpt lat="45.84452" lon="4.80811">
        <ele>466</ele>
        <time>2011-12-11T09:21:58Z</time>
      </trkpt>
      <trkpt lat="45.84457" lon="4.80809">
        <ele>466</ele>
        <time>2011-12-11T09:22:00Z</time>
      </trkpt>
      <trkpt lat="45.84457" lon="4.80808">
        <ele>466</ele>
        <time>2011-12-11T09:22:02Z</time>
      </trkpt>
      <trkpt lat="45.84461" lon="4.80808">
        <ele>466</ele>
        <time>2011-12-11T09:22:04Z</time>
      </trkpt>
      <trkpt lat="45.84465" lon="4.80807">
        <ele>466</ele>
        <time>2011-12-11T09:22:06Z</time>
      </trkpt>
      <trkpt lat="45.84469" lon="4.80802">
        <ele>466</ele>
        <time>2011-12-11T09:22:09Z</time>
      </trkpt>
      <trkpt lat="45.84474" lon="4.808">
        <ele>466</ele>
        <time>2011-12-11T09:22:11Z</time>
      </trkpt>
      <trkpt lat="45.84474" lon="4.80795">
        <ele>467</ele>
        <time>2011-12-11T09:22:13Z</time>
      </trkpt>
      <trkpt lat="45.84475" lon="4.80791">
        <ele>467</ele>
        <time>2011-12-11T09:22:16Z</time>
      </trkpt>
      <trkpt lat="45.84476" lon="4.8079">
        <ele>467</ele>
        <time>2011-12-11T09:22:17Z</time>
      </trkpt>
      <trkpt lat="45.84479" lon="4.80789">
        <ele>467</ele>
        <time>2011-12-11T09:22:20Z</time>
      </trkpt>
      <trkpt lat="45.84477" lon="4.80791">
        <ele>467</ele>
        <time>2011-12-11T09:22:22Z</time>
      </trkpt>
      <trkpt lat="45.84475" lon="4.80791">
        <ele>467</ele>
        <time>2011-12-11T09:22:25Z</time>
      </trkpt>
      <trkpt lat="45.84477" lon="4.80786">
        <ele>467</ele>
        <time>2011-12-11T09:22:28Z</time>
      </trkpt>
      <trkpt lat="45.84476" lon="4.80782">
        <ele>467</ele>
        <time>2011-12-11T09:22:30Z</time>
      </trkpt>
      <trkpt lat="45.84475" lon="4.8078">
        <ele>468</ele>
        <time>2011-12-11T09:22:31Z</time>
      </trkpt>
      <trkpt lat="45.84475" lon="4.80776">
        <ele>468</ele>
        <time>2011-12-11T09:22:33Z</time>
      </trkpt>
      <trkpt lat="45.84475" lon="4.80773">
        <ele>468</ele>
        <time>2011-12-11T09:22:34Z</time>
      </trkpt>
      <trkpt lat="45.84476" lon="4.80773">
        <ele>468</ele>
        <time>2011-12-11T09:23:08Z</time>
      </trkpt>
      <trkpt lat="45.84477" lon="4.80771">
        <ele>468</ele>
        <time>2011-12-11T09:23:12Z</time>
      </trkpt>
      <trkpt lat="45.84477" lon="4.80768">
        <ele>468</ele>
        <time>2011-12-11T09:23:14Z</time>
      </trkpt>
      <trkpt lat="45.84477" lon="4.80766">
        <ele>468</ele>
        <time>2011-12-11T09:23:15Z</time>
      </trkpt>
      <trkpt lat="45.84479" lon="4.80764">
        <ele>468</ele>
        <time>2011-12-11T09:23:16Z</time>
      </trkpt>
      <trkpt lat="45.84481" lon="4.80762">
        <ele>469</ele>
        <time>2011-12-11T09:23:24Z</time>
      </trkpt>
      <trkpt lat="45.84483" lon="4.80756">
        <ele>469</ele>
        <time>2011-12-11T09:23:27Z</time>
      </trkpt>
      <trkpt lat="45.84481" lon="4.80745">
        <ele>474</ele>
        <time>2011-12-11T09:23:32Z</time>
      </trkpt>
      <trkpt lat="45.84484" lon="4.80741">
        <ele>474</ele>
        <time>2011-12-11T09:23:38Z</time>
      </trkpt>
      <trkpt lat="45.84487" lon="4.80741">
        <ele>473</ele>
        <time>2011-12-11T09:23:40Z</time>
      </trkpt>
      <trkpt lat="45.84491" lon="4.8074">
        <ele>473</ele>
        <time>2011-12-11T09:23:43Z</time>
      </trkpt>
      <trkpt lat="45.84493" lon="4.80731">
        <ele>474</ele>
        <time>2011-12-11T09:23:47Z</time>
      </trkpt>
      <trkpt lat="45.84493" lon="4.80723">
        <ele>475</ele>
        <time>2011-12-11T09:23:50Z</time>
      </trkpt>
      <trkpt lat="45.84494" lon="4.8072">
        <ele>475</ele>
        <time>2011-12-11T09:23:51Z</time>
      </trkpt>
      <trkpt lat="45.84498" lon="4.80707">
        <ele>476</ele>
        <time>2011-12-11T09:23:56Z</time>
      </trkpt>
      <trkpt lat="45.84502" lon="4.807">
        <ele>477</ele>
        <time>2011-12-11T09:23:59Z</time>
      </trkpt>
      <trkpt lat="45.84503" lon="4.80695">
        <ele>477</ele>
        <time>2011-12-11T09:24:01Z</time>
      </trkpt>
      <trkpt lat="45.84503" lon="4.80694">
        <ele>477</ele>
        <time>2011-12-11T09:24:02Z</time>
      </trkpt>
      <trkpt lat="45.84508" lon="4.80692">
        <ele>477</ele>
        <time>2011-12-11T09:24:06Z</time>
      </trkpt>
      <trkpt lat="45.84515" lon="4.80691">
        <ele>478</ele>
        <time>2011-12-11T09:24:09Z</time>
      </trkpt>
      <trkpt lat="45.84516" lon="4.80687">
        <ele>478</ele>
        <time>2011-12-11T09:24:11Z</time>
      </trkpt>
      <trkpt lat="45.84516" lon="4.80685">
        <ele>478</ele>
        <time>2011-12-11T09:24:12Z</time>
      </trkpt>
      <trkpt lat="45.84516" lon="4.80685">
        <ele>478</ele>
        <time>2011-12-11T09:24:14Z</time>
      </trkpt>
      <trkpt lat="45.84515" lon="4.80682">
        <ele>478</ele>
        <time>2011-12-11T09:24:15Z</time>
      </trkpt>
      <trkpt lat="45.84513" lon="4.80675">
        <ele>478</ele>
        <time>2011-12-11T09:24:19Z</time>
      </trkpt>
      <trkpt lat="45.84514" lon="4.80673">
        <ele>478</ele>
        <time>2011-12-11T09:24:20Z</time>
      </trkpt>
      <trkpt lat="45.84514" lon="4.80672">
        <ele>478</ele>
        <time>2011-12-11T09:24:21Z</time>
      </trkpt>
      <trkpt lat="45.84517" lon="4.80673">
        <ele>478</ele>
        <time>2011-12-11T09:24:23Z</time>
      </trkpt>
      <trkpt lat="45.84518" lon="4.80671">
        <ele>478</ele>
        <time>2011-12-11T09:24:24Z</time>
      </trkpt>
      <trkpt lat="45.84521" lon="4.80669">
        <ele>478</ele>
        <time>2011-12-11T09:24:27Z</time>
      </trkpt>
      <trkpt lat="45.84525" lon="4.80667">
        <ele>478</ele>
        <time>2011-12-11T09:24:30Z</time>
      </trkpt>
      <trkpt lat="45.84527" lon="4.80665">
        <ele>484</ele>
        <time>2011-12-11T09:24:32Z</time>
      </trkpt>
      <trkpt lat="45.84532" lon="4.8066">
        <ele>485</ele>
        <time>2011-12-11T09:24:37Z</time>
      </trkpt>
      <trkpt lat="45.84534" lon="4.8066">
        <ele>485</ele>
        <time>2011-12-11T09:24:38Z</time>
      </trkpt>
      <trkpt lat="45.84538" lon="4.80659">
        <ele>486</ele>
        <time>2011-12-11T09:24:41Z</time>
      </trkpt>
      <trkpt lat="45.84539" lon="4.8066">
        <ele>486</ele>
        <time>2011-12-11T09:24:44Z</time>
      </trkpt>
      <trkpt lat="45.84538" lon="4.80655">
        <ele>486</ele>
        <time>2011-12-11T09:24:55Z</time>
      </trkpt>
      <trkpt lat="45.84539" lon="4.80654">
        <ele>486</ele>
        <time>2011-12-11T09:24:56Z</time>
      </trkpt>
      <trkpt lat="45.8454" lon="4.80642">
        <ele>487</ele>
        <time>2011-12-11T09:24:59Z</time>
      </trkpt>
      <trkpt lat="45.84541" lon="4.80628">
        <ele>488</ele>
        <time>2011-12-11T09:25:04Z</time>
      </trkpt>
      <trkpt lat="45.84543" lon="4.80626">
        <ele>488</ele>
        <time>2011-12-11T09:25:05Z</time>
      </trkpt>
      <trkpt lat="45.84543" lon="4.80624">
        <ele>488</ele>
        <time>2011-12-11T09:25:06Z</time>
      </trkpt>
      <trkpt lat="45.84546" lon="4.8062">
        <ele>488</ele>
        <time>2011-12-11T09:25:09Z</time>
      </trkpt>
      <trkpt lat="45.8455" lon="4.80613">
        <ele>489</ele>
        <time>2011-12-11T09:25:14Z</time>
      </trkpt>
      <trkpt lat="45.84551" lon="4.80613">
        <ele>489</ele>
        <time>2011-12-11T09:25:15Z</time>
      </trkpt>
      <trkpt lat="45.84551" lon="4.8061">
        <ele>489</ele>
        <time>2011-12-11T09:25:19Z</time>
      </trkpt>
      <trkpt lat="45.84551" lon="4.80609">
        <ele>489</ele>
        <time>2011-12-11T09:25:20Z</time>
      </trkpt>
      <trkpt lat="45.84551" lon="4.80607">
        <ele>489</ele>
        <time>2011-12-11T09:25:21Z</time>
      </trkpt>
      <trkpt lat="45.84551" lon="4.80606">
        <ele>489</ele>
        <time>2011-12-11T09:25:22Z</time>
      </trkpt>
      <trkpt lat="45.84548" lon="4.80599">
        <ele>489</ele>
        <time>2011-12-11T09:25:26Z</time>
      </trkpt>
      <trkpt lat="45.84548" lon="4.80598">
        <ele>490</ele>
        <time>2011-12-11T09:25:27Z</time>
      </trkpt>
      <trkpt lat="45.84547" lon="4.80597">
        <ele>490</ele>
        <time>2011-12-11T09:25:28Z</time>
      </trkpt>
      <trkpt lat="45.84547" lon="4.80594">
        <ele>490</ele>
        <time>2011-12-11T09:25:30Z</time>
      </trkpt>
      <trkpt lat="45.84548" lon="4.80592">
        <ele>490</ele>
        <time>2011-12-11T09:25:31Z</time>
      </trkpt>
      <trkpt lat="45.84548" lon="4.80586">
        <ele>490</ele>
        <time>2011-12-11T09:25:35Z</time>
      </trkpt>
      <trkpt lat="45.84548" lon="4.80582">
        <ele>498</ele>
        <time>2011-12-11T09:25:37Z</time>
      </trkpt>
      <trkpt lat="45.84548" lon="4.80581">
        <ele>498</ele>
        <time>2011-12-11T09:25:38Z</time>
      </trkpt>
      <trkpt lat="45.84549" lon="4.80577">
        <ele>498</ele>
        <time>2011-12-11T09:25:42Z</time>
      </trkpt>
      <trkpt lat="45.8455" lon="4.8057">
        <ele>498</ele>
        <time>2011-12-11T09:25:48Z</time>
      </trkpt>
      <trkpt lat="45.8455" lon="4.80569">
        <ele>498</ele>
        <time>2011-12-11T09:25:50Z</time>
      </trkpt>
      <trkpt lat="45.84553" lon="4.80563">
        <ele>499</ele>
        <time>2011-12-11T09:25:54Z</time>
      </trkpt>
      <trkpt lat="45.84555" lon="4.80559">
        <ele>499</ele>
        <time>2011-12-11T09:25:57Z</time>
      </trkpt>
      <trkpt lat="45.84558" lon="4.80559">
        <ele>499</ele>
        <time>2011-12-11T09:25:59Z</time>
      </trkpt>
      <trkpt lat="45.84571" lon="4.80564">
        <ele>498</ele>
        <time>2011-12-11T09:26:06Z</time>
      </trkpt>
      <trkpt lat="45.84572" lon="4.80567">
        <ele>497</ele>
        <time>2011-12-11T09:26:07Z</time>
      </trkpt>
      <trkpt lat="45.84577" lon="4.80578">
        <ele>496</ele>
        <time>2011-12-11T09:26:11Z</time>
      </trkpt>
      <trkpt lat="45.84579" lon="4.80588">
        <ele>493</ele>
        <time>2011-12-11T09:26:15Z</time>
      </trkpt>
      <trkpt lat="45.8458" lon="4.8059">
        <ele>492</ele>
        <time>2011-12-11T09:26:16Z</time>
      </trkpt>
      <trkpt lat="45.84582" lon="4.80602">
        <ele>491</ele>
        <time>2011-12-11T09:26:20Z</time>
      </trkpt>
      <trkpt lat="45.84588" lon="4.80614">
        <ele>492</ele>
        <time>2011-12-11T09:26:25Z</time>
      </trkpt>
      <trkpt lat="45.84593" lon="4.80622">
        <ele>492</ele>
        <time>2011-12-11T09:26:29Z</time>
      </trkpt>
      <trkpt lat="45.84595" lon="4.80624">
        <ele>492</ele>
        <time>2011-12-11T09:26:30Z</time>
      </trkpt>
      <trkpt lat="45.84602" lon="4.80633">
        <ele>491</ele>
        <time>2011-12-11T09:26:35Z</time>
      </trkpt>
      <trkpt lat="45.84604" lon="4.80634">
        <ele>491</ele>
        <time>2011-12-11T09:26:42Z</time>
      </trkpt>
      <trkpt lat="45.84604" lon="4.80627">
        <ele>492</ele>
        <time>2011-12-11T09:26:58Z</time>
      </trkpt>
      <trkpt lat="45.84607" lon="4.80618">
        <ele>492</ele>
        <time>2011-12-11T09:27:05Z</time>
      </trkpt>
      <trkpt lat="45.84608" lon="4.80617">
        <ele>492</ele>
        <time>2011-12-11T09:27:06Z</time>
      </trkpt>
      <trkpt lat="45.84609" lon="4.80616">
        <ele>492</ele>
        <time>2011-12-11T09:27:07Z</time>
      </trkpt>
      <trkpt lat="45.84611" lon="4.80612">
        <ele>493</ele>
        <time>2011-12-11T09:27:11Z</time>
      </trkpt>
      <trkpt lat="45.84613" lon="4.80609">
        <ele>493</ele>
        <time>2011-12-11T09:27:13Z</time>
      </trkpt>
      <trkpt lat="45.84616" lon="4.806">
        <ele>493</ele>
        <time>2011-12-11T09:27:20Z</time>
      </trkpt>
      <trkpt lat="45.84618" lon="4.80595">
        <ele>494</ele>
        <time>2011-12-11T09:27:25Z</time>
      </trkpt>
      <trkpt lat="45.84619" lon="4.80591">
        <ele>494</ele>
        <time>2011-12-11T09:27:28Z</time>
      </trkpt>
      <trkpt lat="45.84624" lon="4.8058">
        <ele>501</ele>
        <time>2011-12-11T09:27:37Z</time>
      </trkpt>
      <trkpt lat="45.84626" lon="4.80572">
        <ele>501</ele>
        <time>2011-12-11T09:27:43Z</time>
      </trkpt>
      <trkpt lat="45.84628" lon="4.80568">
        <ele>502</ele>
        <time>2011-12-11T09:27:46Z</time>
      </trkpt>
      <trkpt lat="45.8463" lon="4.80557">
        <ele>502</ele>
        <time>2011-12-11T09:27:54Z</time>
      </trkpt>
      <trkpt lat="45.84631" lon="4.80551">
        <ele>503</ele>
        <time>2011-12-11T09:27:59Z</time>
      </trkpt>
      <trkpt lat="45.84632" lon="4.80546">
        <ele>503</ele>
        <time>2011-12-11T09:28:02Z</time>
      </trkpt>
      <trkpt lat="45.84634" lon="4.80532">
        <ele>504</ele>
        <time>2011-12-11T09:28:11Z</time>
      </trkpt>
      <trkpt lat="45.84634" lon="4.80527">
        <ele>505</ele>
        <time>2011-12-11T09:28:17Z</time>
      </trkpt>
      <trkpt lat="45.84634" lon="4.80521">
        <ele>505</ele>
        <time>2011-12-11T09:28:21Z</time>
      </trkpt>
      <trkpt lat="45.84633" lon="4.8051">
        <ele>506</ele>
        <time>2011-12-11T09:28:27Z</time>
      </trkpt>
      <trkpt lat="45.8463" lon="4.80501">
        <ele>506</ele>
        <time>2011-12-11T09:28:33Z</time>
      </trkpt>
      <trkpt lat="45.84629" lon="4.80498">
        <ele>514</ele>
        <time>2011-12-11T09:28:36Z</time>
      </trkpt>
      <trkpt lat="45.84628" lon="4.80496">
        <ele>514</ele>
        <time>2011-12-11T09:28:37Z</time>
      </trkpt>
      <trkpt lat="45.84626" lon="4.80492">
        <ele>514</ele>
        <time>2011-12-11T09:28:40Z</time>
      </trkpt>
      <trkpt lat="45.84622" lon="4.80483">
        <ele>514</ele>
        <time>2011-12-11T09:28:45Z</time>
      </trkpt>
      <trkpt lat="45.84619" lon="4.80475">
        <ele>514</ele>
        <time>2011-12-11T09:28:49Z</time>
      </trkpt>
      <trkpt lat="45.84619" lon="4.80473">
        <ele>515</ele>
        <time>2011-12-11T09:28:50Z</time>
      </trkpt>
      <trkpt lat="45.84618" lon="4.8047">
        <ele>515</ele>
        <time>2011-12-11T09:28:52Z</time>
      </trkpt>
      <trkpt lat="45.84613" lon="4.80458">
        <ele>515</ele>
        <time>2011-12-11T09:28:59Z</time>
      </trkpt>
      <trkpt lat="45.84612" lon="4.80456">
        <ele>516</ele>
        <time>2011-12-11T09:29:00Z</time>
      </trkpt>
      <trkpt lat="45.8461" lon="4.80451">
        <ele>516</ele>
        <time>2011-12-11T09:29:05Z</time>
      </trkpt>
      <trkpt lat="45.8461" lon="4.8045">
        <ele>516</ele>
        <time>2011-12-11T09:29:06Z</time>
      </trkpt>
      <trkpt lat="45.84607" lon="4.80446">
        <ele>516</ele>
        <time>2011-12-11T09:29:11Z</time>
      </trkpt>
      <trkpt lat="45.84606" lon="4.80445">
        <ele>516</ele>
        <time>2011-12-11T09:29:12Z</time>
      </trkpt>
      <trkpt lat="45.84603" lon="4.80438">
        <ele>517</ele>
        <time>2011-12-11T09:29:18Z</time>
      </trkpt>
      <trkpt lat="45.84601" lon="4.80431">
        <ele>517</ele>
        <time>2011-12-11T09:29:24Z</time>
      </trkpt>
      <trkpt lat="45.84601" lon="4.80429">
        <ele>517</ele>
        <time>2011-12-11T09:29:26Z</time>
      </trkpt>
      <trkpt lat="45.84601" lon="4.80428">
        <ele>517</ele>
        <time>2011-12-11T09:29:27Z</time>
      </trkpt>
      <trkpt lat="45.846" lon="4.80423">
        <ele>517</ele>
        <time>2011-12-11T09:29:32Z</time>
      </trkpt>
      <trkpt lat="45.84597" lon="4.80414">
        <ele>522</ele>
        <time>2011-12-11T09:29:40Z</time>
      </trkpt>
      <trkpt lat="45.84595" lon="4.80405">
        <ele>523</ele>
        <time>2011-12-11T09:29:48Z</time>
      </trkpt>
      <trkpt lat="45.84594" lon="4.80396">
        <ele>524</ele>
        <time>2011-12-11T09:29:56Z</time>
      </trkpt>
      <trkpt lat="45.84594" lon="4.80394">
        <ele>524</ele>
        <time>2011-12-11T09:29:57Z</time>
      </trkpt>
      <trkpt lat="45.84594" lon="4.80385">
        <ele>526</ele>
        <time>2011-12-11T09:30:03Z</time>
      </trkpt>
      <trkpt lat="45.84594" lon="4.80379">
        <ele>526</ele>
        <time>2011-12-11T09:30:07Z</time>
      </trkpt>
      <trkpt lat="45.84593" lon="4.80375">
        <ele>527</ele>
        <time>2011-12-11T09:30:10Z</time>
      </trkpt>
      <trkpt lat="45.84593" lon="4.80374">
        <ele>527</ele>
        <time>2011-12-11T09:30:11Z</time>
      </trkpt>
      <trkpt lat="45.84591" lon="4.80367">
        <ele>528</ele>
        <time>2011-12-11T09:30:16Z</time>
      </trkpt>
      <trkpt lat="45.8459" lon="4.80358">
        <ele>529</ele>
        <time>2011-12-11T09:30:23Z</time>
      </trkpt>
      <trkpt lat="45.84589" lon="4.80354">
        <ele>529</ele>
        <time>2011-12-11T09:30:26Z</time>
      </trkpt>
      <trkpt lat="45.84585" lon="4.80345">
        <ele>530</ele>
        <time>2011-12-11T09:30:32Z</time>
      </trkpt>
      <trkpt lat="45.84583" lon="4.80335">
        <ele>532</ele>
        <time>2011-12-11T09:30:40Z</time>
      </trkpt>
      <trkpt lat="45.84583" lon="4.8033">
        <ele>533</ele>
        <time>2011-12-11T09:30:44Z</time>
      </trkpt>
      <trkpt lat="45.84582" lon="4.80326">
        <ele>534</ele>
        <time>2011-12-11T09:30:47Z</time>
      </trkpt>
      <trkpt lat="45.84578" lon="4.80314">
        <ele>536</ele>
        <time>2011-12-11T09:30:56Z</time>
      </trkpt>
      <trkpt lat="45.84574" lon="4.80308">
        <ele>537</ele>
        <time>2011-12-11T09:31:02Z</time>
      </trkpt>
      <trkpt lat="45.84571" lon="4.80305">
        <ele>537</ele>
        <time>2011-12-11T09:31:05Z</time>
      </trkpt>
      <trkpt lat="45.84562" lon="4.80298">
        <ele>538</ele>
        <time>2011-12-11T09:31:14Z</time>
      </trkpt>
      <trkpt lat="45.84559" lon="4.80295">
        <ele>539</ele>
        <time>2011-12-11T09:31:18Z</time>
      </trkpt>
      <trkpt lat="45.84554" lon="4.80292">
        <ele>539</ele>
        <time>2011-12-11T09:31:23Z</time>
      </trkpt>
      <trkpt lat="45.84549" lon="4.80286">
        <ele>540</ele>
        <time>2011-12-11T09:31:29Z</time>
      </trkpt>
      <trkpt lat="45.84542" lon="4.80282">
        <ele>540</ele>
        <time>2011-12-11T09:31:35Z</time>
      </trkpt>
      <trkpt lat="45.84532" lon="4.80283">
        <ele>540</ele>
        <time>2011-12-11T09:31:42Z</time>
      </trkpt>
      <trkpt lat="45.84524" lon="4.80281">
        <ele>540</ele>
        <time>2011-12-11T09:31:48Z</time>
      </trkpt>
      <trkpt lat="45.84523" lon="4.80281">
        <ele>541</ele>
        <time>2011-12-11T09:31:49Z</time>
      </trkpt>
      <trkpt lat="45.84511" lon="4.80274">
        <ele>542</ele>
        <time>2011-12-11T09:31:55Z</time>
      </trkpt>
      <trkpt lat="45.84507" lon="4.8027">
        <ele>542</ele>
        <time>2011-12-11T09:31:58Z</time>
      </trkpt>
      <trkpt lat="45.84501" lon="4.80264">
        <ele>544</ele>
        <time>2011-12-11T09:32:02Z</time>
      </trkpt>
      <trkpt lat="45.84493" lon="4.80253">
        <ele>545</ele>
        <time>2011-12-11T09:32:08Z</time>
      </trkpt>
      <trkpt lat="45.84483" lon="4.80245">
        <ele>548</ele>
        <time>2011-12-11T09:32:14Z</time>
      </trkpt>
      <trkpt lat="45.84476" lon="4.8024">
        <ele>548</ele>
        <time>2011-12-11T09:32:18Z</time>
      </trkpt>
      <trkpt lat="45.8447" lon="4.80233">
        <ele>549</ele>
        <time>2011-12-11T09:32:22Z</time>
      </trkpt>
      <trkpt lat="45.84462" lon="4.80222">
        <ele>549</ele>
        <time>2011-12-11T09:32:28Z</time>
      </trkpt>
      <trkpt lat="45.8446" lon="4.80218">
        <ele>549</ele>
        <time>2011-12-11T09:32:30Z</time>
      </trkpt>
      <trkpt lat="45.84452" lon="4.80206">
        <ele>550</ele>
        <time>2011-12-11T09:32:36Z</time>
      </trkpt>
      <trkpt lat="45.8445" lon="4.80202">
        <ele>550</ele>
        <time>2011-12-11T09:32:38Z</time>
      </trkpt>
      <trkpt lat="45.84443" lon="4.8019">
        <ele>550</ele>
        <time>2011-12-11T09:32:43Z</time>
      </trkpt>
      <trkpt lat="45.84438" lon="4.8018">
        <ele>551</ele>
        <time>2011-12-11T09:32:47Z</time>
      </trkpt>
      <trkpt lat="45.84435" lon="4.80176">
        <ele>551</ele>
        <time>2011-12-11T09:32:49Z</time>
      </trkpt>
      <trkpt lat="45.84427" lon="4.80165">
        <ele>554</ele>
        <time>2011-12-11T09:32:55Z</time>
      </trkpt>
      <trkpt lat="45.84423" lon="4.80161">
        <ele>554</ele>
        <time>2011-12-11T09:32:57Z</time>
      </trkpt>
      <trkpt lat="45.84417" lon="4.80156">
        <ele>554</ele>
        <time>2011-12-11T09:33:01Z</time>
      </trkpt>
      <trkpt lat="45.84412" lon="4.80149">
        <ele>555</ele>
        <time>2011-12-11T09:33:07Z</time>
      </trkpt>
      <trkpt lat="45.84409" lon="4.80144">
        <ele>555</ele>
        <time>2011-12-11T09:33:11Z</time>
      </trkpt>
      <trkpt lat="45.84403" lon="4.80138">
        <ele>556</ele>
        <time>2011-12-11T09:33:17Z</time>
      </trkpt>
      <trkpt lat="45.84395" lon="4.80127">
        <ele>556</ele>
        <time>2011-12-11T09:33:26Z</time>
      </trkpt>
      <trkpt lat="45.84394" lon="4.80126">
        <ele>557</ele>
        <time>2011-12-11T09:33:27Z</time>
      </trkpt>
      <trkpt lat="45.84384" lon="4.80114">
        <ele>557</ele>
        <time>2011-12-11T09:33:37Z</time>
      </trkpt>
      <trkpt lat="45.84381" lon="4.80109">
        <ele>557</ele>
        <time>2011-12-11T09:33:41Z</time>
      </trkpt>
      <trkpt lat="45.84376" lon="4.80103">
        <ele>558</ele>
        <time>2011-12-11T09:33:47Z</time>
      </trkpt>
      <trkpt lat="45.8437" lon="4.80094">
        <ele>558</ele>
        <time>2011-12-11T09:33:54Z</time>
      </trkpt>
      <trkpt lat="45.84368" lon="4.8009">
        <ele>558</ele>
        <time>2011-12-11T09:33:57Z</time>
      </trkpt>
      <trkpt lat="45.84364" lon="4.80082">
        <ele>563</ele>
        <time>2011-12-11T09:34:03Z</time>
      </trkpt>
      <trkpt lat="45.8436" lon="4.80075">
        <ele>563</ele>
        <time>2011-12-11T09:34:09Z</time>
      </trkpt>
      <trkpt lat="45.84357" lon="4.80068">
        <ele>563</ele>
        <time>2011-12-11T09:34:15Z</time>
      </trkpt>
      <trkpt lat="45.84356" lon="4.80063">
        <ele>563</ele>
        <time>2011-12-11T09:34:18Z</time>
      </trkpt>
      <trkpt lat="45.84351" lon="4.80052">
        <ele>564</ele>
        <time>2011-12-11T09:34:26Z</time>
      </trkpt>
      <trkpt lat="45.84349" lon="4.80044">
        <ele>564</ele>
        <time>2011-12-11T09:34:32Z</time>
      </trkpt>
      <trkpt lat="45.84348" lon="4.80043">
        <ele>564</ele>
        <time>2011-12-11T09:34:33Z</time>
      </trkpt>
      <trkpt lat="45.84346" lon="4.8003">
        <ele>565</ele>
        <time>2011-12-11T09:34:42Z</time>
      </trkpt>
      <trkpt lat="45.84342" lon="4.8002">
        <ele>566</ele>
        <time>2011-12-11T09:34:50Z</time>
      </trkpt>
      <trkpt lat="45.84341" lon="4.80019">
        <ele>566</ele>
        <time>2011-12-11T09:34:52Z</time>
      </trkpt>
      <trkpt lat="45.84337" lon="4.80007">
        <ele>568</ele>
        <time>2011-12-11T09:35:02Z</time>
      </trkpt>
      <trkpt lat="45.84332" lon="4.79999">
        <ele>570</ele>
        <time>2011-12-11T09:35:09Z</time>
      </trkpt>
      <trkpt lat="45.84331" lon="4.79996">
        <ele>570</ele>
        <time>2011-12-11T09:35:11Z</time>
      </trkpt>
      <trkpt lat="45.84324" lon="4.79984">
        <ele>571</ele>
        <time>2011-12-11T09:35:21Z</time>
      </trkpt>
      <trkpt lat="45.84321" lon="4.79979">
        <ele>571</ele>
        <time>2011-12-11T09:35:25Z</time>
      </trkpt>
      <trkpt lat="45.84319" lon="4.79975">
        <ele>572</ele>
        <time>2011-12-11T09:35:28Z</time>
      </trkpt>
      <trkpt lat="45.84312" lon="4.79962">
        <ele>572</ele>
        <time>2011-12-11T09:35:38Z</time>
      </trkpt>
      <trkpt lat="45.8431" lon="4.79957">
        <ele>572</ele>
        <time>2011-12-11T09:35:41Z</time>
      </trkpt>
      <trkpt lat="45.84305" lon="4.79949">
        <ele>573</ele>
        <time>2011-12-11T09:35:48Z</time>
      </trkpt>
      <trkpt lat="45.843" lon="4.79939">
        <ele>573</ele>
        <time>2011-12-11T09:35:56Z</time>
      </trkpt>
      <trkpt lat="45.84298" lon="4.79937">
        <ele>573</ele>
        <time>2011-12-11T09:35:58Z</time>
      </trkpt>
      <trkpt lat="45.84292" lon="4.79929">
        <ele>573</ele>
        <time>2011-12-11T09:36:05Z</time>
      </trkpt>
      <trkpt lat="45.84284" lon="4.7992">
        <ele>574</ele>
        <time>2011-12-11T09:36:14Z</time>
      </trkpt>
      <trkpt lat="45.84275" lon="4.79911">
        <ele>578</ele>
        <time>2011-12-11T09:36:23Z</time>
      </trkpt>
      <trkpt lat="45.84269" lon="4.79904">
        <ele>578</ele>
        <time>2011-12-11T09:36:29Z</time>
      </trkpt>
      <trkpt lat="45.84266" lon="4.799">
        <ele>578</ele>
        <time>2011-12-11T09:36:33Z</time>
      </trkpt>
      <trkpt lat="45.84256" lon="4.79886">
        <ele>579</ele>
        <time>2011-12-11T09:36:44Z</time>
      </trkpt>
      <trkpt lat="45.84246" lon="4.79872">
        <ele>585</ele>
        <time>2011-12-11T09:36:55Z</time>
      </trkpt>
      <trkpt lat="45.84243" lon="4.79867">
        <ele>586</ele>
        <time>2011-12-11T09:36:59Z</time>
      </trkpt>
      <trkpt lat="45.84237" lon="4.7986">
        <ele>586</ele>
        <time>2011-12-11T09:37:05Z</time>
      </trkpt>
      <trkpt lat="45.84231" lon="4.7985">
        <ele>587</ele>
        <time>2011-12-11T09:37:13Z</time>
      </trkpt>
      <trkpt lat="45.8423" lon="4.79847">
        <ele>587</ele>
        <time>2011-12-11T09:37:15Z</time>
      </trkpt>
      <trkpt lat="45.8423" lon="4.7984">
        <ele>588</ele>
        <time>2011-12-11T09:37:21Z</time>
      </trkpt>
      <trkpt lat="45.84227" lon="4.79828">
        <ele>591</ele>
        <time>2011-12-11T09:37:30Z</time>
      </trkpt>
      <trkpt lat="45.84226" lon="4.79822">
        <ele>591</ele>
        <time>2011-12-11T09:37:35Z</time>
      </trkpt>
      <trkpt lat="45.84224" lon="4.79817">
        <ele>591</ele>
        <time>2011-12-11T09:37:39Z</time>
      </trkpt>
      <trkpt lat="45.84222" lon="4.79805">
        <ele>591</ele>
        <time>2011-12-11T09:37:47Z</time>
      </trkpt>
      <trkpt lat="45.84222" lon="4.79803">
        <ele>591</ele>
        <time>2011-12-11T09:37:49Z</time>
      </trkpt>
      <trkpt lat="45.8422" lon="4.79801">
        <ele>591</ele>
        <time>2011-12-11T09:37:52Z</time>
      </trkpt>
      <trkpt lat="45.84218" lon="4.79799">
        <ele>591</ele>
        <time>2011-12-11T09:37:54Z</time>
      </trkpt>
      <trkpt lat="45.84213" lon="4.79796">
        <ele>592</ele>
        <time>2011-12-11T09:37:59Z</time>
      </trkpt>
      <trkpt lat="45.84211" lon="4.79796">
        <ele>592</ele>
        <time>2011-12-11T09:38:07Z</time>
      </trkpt>
      <trkpt lat="45.84211" lon="4.79795">
        <ele>592</ele>
        <time>2011-12-11T09:38:15Z</time>
      </trkpt>
      <trkpt lat="45.8421" lon="4.79798">
        <ele>592</ele>
        <time>2011-12-11T09:39:28Z</time>
      </trkpt>
      <trkpt lat="45.84211" lon="4.79796">
        <ele>592</ele>
        <time>2011-12-11T09:39:34Z</time>
      </trkpt>
      <trkpt lat="45.84212" lon="4.79795">
        <ele>592</ele>
        <time>2011-12-11T09:40:14Z</time>
      </trkpt>
      <trkpt lat="45.84212" lon="4.79795">
        <ele>592</ele>
        <time>2011-12-11T09:40:18Z</time>
      </trkpt>
      <trkpt lat="45.84211" lon="4.79796">
        <ele>592</ele>
        <time>2011-12-11T09:40:24Z</time>
      </trkpt>
      <trkpt lat="45.84213" lon="4.79794">
        <ele>592</ele>
        <time>2011-12-11T09:40:47Z</time>
      </trkpt>
      <trkpt lat="45.84212" lon="4.79796">
        <ele>592</ele>
        <time>2011-12-11T09:40:57Z</time>
      </trkpt>
      <trkpt lat="45.84216" lon="4.79798">
        <ele>591</ele>
        <time>2011-12-11T09:41:14Z</time>
      </trkpt>
      <trkpt lat="45.84217" lon="4.79795">
        <ele>591</ele>
        <time>2011-12-11T09:41:35Z</time>
      </trkpt>
      <trkpt lat="45.84218" lon="4.79797">
        <ele>591</ele>
        <time>2011-12-11T09:41:36Z</time>
      </trkpt>
      <trkpt lat="45.84221" lon="4.79802">
        <ele>591</ele>
        <time>2011-12-11T09:41:38Z</time>
      </trkpt>
      <trkpt lat="45.84228" lon="4.79813">
        <ele>591</ele>
        <time>2011-12-11T09:41:42Z</time>
      </trkpt>
      <trkpt lat="45.84231" lon="4.79816">
        <ele>591</ele>
        <time>2011-12-11T09:41:43Z</time>
      </trkpt>
      <trkpt lat="45.84244" lon="4.79829">
        <ele>590</ele>
        <time>2011-12-11T09:41:47Z</time>
      </trkpt>
      <trkpt lat="45.8425" lon="4.79835">
        <ele>589</ele>
        <time>2011-12-11T09:41:49Z</time>
      </trkpt>
      <trkpt lat="45.84261" lon="4.79848">
        <ele>583</ele>
        <time>2011-12-11T09:41:53Z</time>
      </trkpt>
      <trkpt lat="45.84265" lon="4.79855">
        <ele>581</ele>
        <time>2011-12-11T09:41:55Z</time>
      </trkpt>
      <trkpt lat="45.84273" lon="4.7987">
        <ele>579</ele>
        <time>2011-12-11T09:42:00Z</time>
      </trkpt>
      <trkpt lat="45.84275" lon="4.79872">
        <ele>579</ele>
        <time>2011-12-11T09:42:01Z</time>
      </trkpt>
      <trkpt lat="45.84286" lon="4.79886">
        <ele>577</ele>
        <time>2011-12-11T09:42:08Z</time>
      </trkpt>
      <trkpt lat="45.84287" lon="4.79888">
        <ele>577</ele>
        <time>2011-12-11T09:42:09Z</time>
      </trkpt>
      <trkpt lat="45.84295" lon="4.79898">
        <ele>576</ele>
        <time>2011-12-11T09:42:14Z</time>
      </trkpt>
      <trkpt lat="45.84302" lon="4.79906">
        <ele>576</ele>
        <time>2011-12-11T09:42:18Z</time>
      </trkpt>
      <trkpt lat="45.84307" lon="4.79912">
        <ele>575</ele>
        <time>2011-12-11T09:42:21Z</time>
      </trkpt>
      <trkpt lat="45.84317" lon="4.79924">
        <ele>573</ele>
        <time>2011-12-11T09:42:27Z</time>
      </trkpt>
      <trkpt lat="45.84321" lon="4.79928">
        <ele>572</ele>
        <time>2011-12-11T09:42:29Z</time>
      </trkpt>
      <trkpt lat="45.84328" lon="4.79937">
        <ele>572</ele>
        <time>2011-12-11T09:42:34Z</time>
      </trkpt>
      <trkpt lat="45.8433" lon="4.79936">
        <ele>572</ele>
        <time>2011-12-11T09:42:36Z</time>
      </trkpt>
      <trkpt lat="45.84331" lon="4.79935">
        <ele>572</ele>
        <time>2011-12-11T09:42:37Z</time>
      </trkpt>
      <trkpt lat="45.84332" lon="4.79933">
        <ele>572</ele>
        <time>2011-12-11T09:42:38Z</time>
      </trkpt>
      <trkpt lat="45.84335" lon="4.7993">
        <ele>569</ele>
        <time>2011-12-11T09:42:40Z</time>
      </trkpt>
      <trkpt lat="45.84341" lon="4.79926">
        <ele>569</ele>
        <time>2011-12-11T09:42:43Z</time>
      </trkpt>
      <trkpt lat="45.84344" lon="4.79925">
        <ele>569</ele>
        <time>2011-12-11T09:42:45Z</time>
      </trkpt>
      <trkpt lat="45.84347" lon="4.79926">
        <ele>568</ele>
        <time>2011-12-11T09:42:47Z</time>
      </trkpt>
      <trkpt lat="45.84349" lon="4.79926">
        <ele>568</ele>
        <time>2011-12-11T09:42:49Z</time>
      </trkpt>
      <trkpt lat="45.8435" lon="4.79927">
        <ele>568</ele>
        <time>2011-12-11T09:42:50Z</time>
      </trkpt>
      <trkpt lat="45.84353" lon="4.7993">
        <ele>567</ele>
        <time>2011-12-11T09:42:52Z</time>
      </trkpt>
      <trkpt lat="45.8436" lon="4.79939">
        <ele>566</ele>
        <time>2011-12-11T09:42:57Z</time>
      </trkpt>
      <trkpt lat="45.84362" lon="4.79939">
        <ele>565</ele>
        <time>2011-12-11T09:42:59Z</time>
      </trkpt>
      <trkpt lat="45.84365" lon="4.79942">
        <ele>565</ele>
        <time>2011-12-11T09:43:01Z</time>
      </trkpt>
      <trkpt lat="45.84373" lon="4.79948">
        <ele>564</ele>
        <time>2011-12-11T09:43:07Z</time>
      </trkpt>
      <trkpt lat="45.84378" lon="4.79951">
        <ele>564</ele>
        <time>2011-12-11T09:43:10Z</time>
      </trkpt>
      <trkpt lat="45.8438" lon="4.79953">
        <ele>564</ele>
        <time>2011-12-11T09:43:11Z</time>
      </trkpt>
      <trkpt lat="45.84385" lon="4.79966">
        <ele>564</ele>
        <time>2011-12-11T09:43:16Z</time>
      </trkpt>
      <trkpt lat="45.84389" lon="4.7997">
        <ele>563</ele>
        <time>2011-12-11T09:43:18Z</time>
      </trkpt>
      <trkpt lat="45.84393" lon="4.79974">
        <ele>563</ele>
        <time>2011-12-11T09:43:20Z</time>
      </trkpt>
      <trkpt lat="45.84401" lon="4.79982">
        <ele>563</ele>
        <time>2011-12-11T09:43:25Z</time>
      </trkpt>
      <trkpt lat="45.84405" lon="4.79988">
        <ele>562</ele>
        <time>2011-12-11T09:43:28Z</time>
      </trkpt>
      <trkpt lat="45.84409" lon="4.79993">
        <ele>562</ele>
        <time>2011-12-11T09:43:30Z</time>
      </trkpt>
      <trkpt lat="45.84415" lon="4.80002">
        <ele>561</ele>
        <time>2011-12-11T09:43:34Z</time>
      </trkpt>
      <trkpt lat="45.84418" lon="4.80007">
        <ele>559</ele>
        <time>2011-12-11T09:43:36Z</time>
      </trkpt>
      <trkpt lat="45.84418" lon="4.80014">
        <ele>557</ele>
        <time>2011-12-11T09:43:38Z</time>
      </trkpt>
      <trkpt lat="45.84419" lon="4.80016">
        <ele>557</ele>
        <time>2011-12-11T09:43:39Z</time>
      </trkpt>
      <trkpt lat="45.8442" lon="4.80019">
        <ele>556</ele>
        <time>2011-12-11T09:43:44Z</time>
      </trkpt>
      <trkpt lat="45.84426" lon="4.80031">
        <ele>555</ele>
        <time>2011-12-11T09:43:49Z</time>
      </trkpt>
      <trkpt lat="45.8443" lon="4.80036">
        <ele>554</ele>
        <time>2011-12-11T09:43:52Z</time>
      </trkpt>
      <trkpt lat="45.84431" lon="4.80038">
        <ele>554</ele>
        <time>2011-12-11T09:43:54Z</time>
      </trkpt>
      <trkpt lat="45.84434" lon="4.8004">
        <ele>554</ele>
        <time>2011-12-11T09:43:57Z</time>
      </trkpt>
      <trkpt lat="45.84435" lon="4.80039">
        <ele>554</ele>
        <time>2011-12-11T09:43:59Z</time>
      </trkpt>
      <trkpt lat="45.84436" lon="4.80038">
        <ele>554</ele>
        <time>2011-12-11T09:44:00Z</time>
      </trkpt>
      <trkpt lat="45.8444" lon="4.80044">
        <ele>554</ele>
        <time>2011-12-11T09:44:03Z</time>
      </trkpt>
      <trkpt lat="45.84446" lon="4.80053">
        <ele>553</ele>
        <time>2011-12-11T09:44:08Z</time>
      </trkpt>
      <trkpt lat="45.84449" lon="4.80057">
        <ele>553</ele>
        <time>2011-12-11T09:44:12Z</time>
      </trkpt>
      <trkpt lat="45.84451" lon="4.8006">
        <ele>553</ele>
        <time>2011-12-11T09:44:13Z</time>
      </trkpt>
      <trkpt lat="45.84452" lon="4.80063">
        <ele>553</ele>
        <time>2011-12-11T09:44:14Z</time>
      </trkpt>
      <trkpt lat="45.84455" lon="4.80066">
        <ele>553</ele>
        <time>2011-12-11T09:44:16Z</time>
      </trkpt>
      <trkpt lat="45.84459" lon="4.8007">
        <ele>553</ele>
        <time>2011-12-11T09:44:19Z</time>
      </trkpt>
      <trkpt lat="45.84462" lon="4.80073">
        <ele>553</ele>
        <time>2011-12-11T09:44:21Z</time>
      </trkpt>
      <trkpt lat="45.84463" lon="4.80075">
        <ele>553</ele>
        <time>2011-12-11T09:44:22Z</time>
      </trkpt>
      <trkpt lat="45.84468" lon="4.80078">
        <ele>552</ele>
        <time>2011-12-11T09:44:26Z</time>
      </trkpt>
      <trkpt lat="45.84474" lon="4.80085">
        <ele>554</ele>
        <time>2011-12-11T09:44:29Z</time>
      </trkpt>
      <trkpt lat="45.84477" lon="4.80086">
        <ele>554</ele>
        <time>2011-12-11T09:44:31Z</time>
      </trkpt>
      <trkpt lat="45.84478" lon="4.80086">
        <ele>554</ele>
        <time>2011-12-11T09:44:32Z</time>
      </trkpt>
      <trkpt lat="45.84482" lon="4.80081">
        <ele>551</ele>
        <time>2011-12-11T09:44:35Z</time>
      </trkpt>
      <trkpt lat="45.84483" lon="4.80078">
        <ele>551</ele>
        <time>2011-12-11T09:44:37Z</time>
      </trkpt>
      <trkpt lat="45.84484" lon="4.80075">
        <ele>551</ele>
        <time>2011-12-11T09:44:39Z</time>
      </trkpt>
      <trkpt lat="45.84484" lon="4.80071">
        <ele>551</ele>
        <time>2011-12-11T09:44:41Z</time>
      </trkpt>
      <trkpt lat="45.84484" lon="4.80064">
        <ele>551</ele>
        <time>2011-12-11T09:44:44Z</time>
      </trkpt>
      <trkpt lat="45.84482" lon="4.80054">
        <ele>550</ele>
        <time>2011-12-11T09:44:48Z</time>
      </trkpt>
      <trkpt lat="45.84481" lon="4.80052">
        <ele>550</ele>
        <time>2011-12-11T09:44:49Z</time>
      </trkpt>
      <trkpt lat="45.84476" lon="4.80041">
        <ele>549</ele>
        <time>2011-12-11T09:44:54Z</time>
      </trkpt>
      <trkpt lat="45.84472" lon="4.80029">
        <ele>549</ele>
        <time>2011-12-11T09:44:59Z</time>
      </trkpt>
      <trkpt lat="45.84471" lon="4.80026">
        <ele>549</ele>
        <time>2011-12-11T09:45:00Z</time>
      </trkpt>
      <trkpt lat="45.84468" lon="4.80017">
        <ele>548</ele>
        <time>2011-12-11T09:45:05Z</time>
      </trkpt>
      <trkpt lat="45.84466" lon="4.80012">
        <ele>548</ele>
        <time>2011-12-11T09:45:07Z</time>
      </trkpt>
      <trkpt lat="45.84463" lon="4.80005">
        <ele>549</ele>
        <time>2011-12-11T09:45:10Z</time>
      </trkpt>
      <trkpt lat="45.84463" lon="4.79999">
        <ele>542</ele>
        <time>2011-12-11T09:45:14Z</time>
      </trkpt>
      <trkpt lat="45.84462" lon="4.79997">
        <ele>542</ele>
        <time>2011-12-11T09:45:15Z</time>
      </trkpt>
      <trkpt lat="45.84461" lon="4.7999">
        <ele>542</ele>
        <time>2011-12-11T09:45:19Z</time>
      </trkpt>
      <trkpt lat="45.84459" lon="4.79988">
        <ele>542</ele>
        <time>2011-12-11T09:45:20Z</time>
      </trkpt>
      <trkpt lat="45.84456" lon="4.79979">
        <ele>543</ele>
        <time>2011-12-11T09:45:24Z</time>
      </trkpt>
      <trkpt lat="45.84456" lon="4.79978">
        <ele>543</ele>
        <time>2011-12-11T09:45:25Z</time>
      </trkpt>
      <trkpt lat="45.84456" lon="4.79976">
        <ele>542</ele>
        <time>2011-12-11T09:45:26Z</time>
      </trkpt>
      <trkpt lat="45.84459" lon="4.79976">
        <ele>542</ele>
        <time>2011-12-11T09:45:28Z</time>
      </trkpt>
      <trkpt lat="45.8446" lon="4.79976">
        <ele>542</ele>
        <time>2011-12-11T09:45:29Z</time>
      </trkpt>
      <trkpt lat="45.84463" lon="4.79969">
        <ele>541</ele>
        <time>2011-12-11T09:45:35Z</time>
      </trkpt>
      <trkpt lat="45.84463" lon="4.79958">
        <ele>540</ele>
        <time>2011-12-11T09:45:40Z</time>
      </trkpt>
      <trkpt lat="45.84464" lon="4.79956">
        <ele>539</ele>
        <time>2011-12-11T09:45:41Z</time>
      </trkpt>
      <trkpt lat="45.84465" lon="4.79954">
        <ele>539</ele>
        <time>2011-12-11T09:45:42Z</time>
      </trkpt>
      <trkpt lat="45.84467" lon="4.79951">
        <ele>538</ele>
        <time>2011-12-11T09:45:47Z</time>
      </trkpt>
      <trkpt lat="45.84468" lon="4.79951">
        <ele>538</ele>
        <time>2011-12-11T09:45:56Z</time>
      </trkpt>
      <trkpt lat="45.8447" lon="4.79955">
        <ele>538</ele>
        <time>2011-12-11T09:47:01Z</time>
      </trkpt>
      <trkpt lat="45.84472" lon="4.79955">
        <ele>538</ele>
        <time>2011-12-11T09:47:04Z</time>
      </trkpt>
      <trkpt lat="45.84477" lon="4.79964">
        <ele>538</ele>
        <time>2011-12-11T09:47:08Z</time>
      </trkpt>
      <trkpt lat="45.84481" lon="4.79973">
        <ele>538</ele>
        <time>2011-12-11T09:47:11Z</time>
      </trkpt>
      <trkpt lat="45.84482" lon="4.79975">
        <ele>538</ele>
        <time>2011-12-11T09:47:12Z</time>
      </trkpt>
      <trkpt lat="45.84489" lon="4.79986">
        <ele>537</ele>
        <time>2011-12-11T09:47:16Z</time>
      </trkpt>
      <trkpt lat="45.84492" lon="4.79993">
        <ele>535</ele>
        <time>2011-12-11T09:47:18Z</time>
      </trkpt>
      <trkpt lat="45.84496" lon="4.79997">
        <ele>534</ele>
        <time>2011-12-11T09:47:20Z</time>
      </trkpt>
      <trkpt lat="45.84509" lon="4.80003">
        <ele>532</ele>
        <time>2011-12-11T09:47:25Z</time>
      </trkpt>
      <trkpt lat="45.84511" lon="4.80004">
        <ele>531</ele>
        <time>2011-12-11T09:47:26Z</time>
      </trkpt>
      <trkpt lat="45.84519" lon="4.80012">
        <ele>530</ele>
        <time>2011-12-11T09:47:30Z</time>
      </trkpt>
      <trkpt lat="45.84524" lon="4.80024">
        <ele>530</ele>
        <time>2011-12-11T09:47:34Z</time>
      </trkpt>
      <trkpt lat="45.84526" lon="4.80025">
        <ele>530</ele>
        <time>2011-12-11T09:47:35Z</time>
      </trkpt>
      <trkpt lat="45.84533" lon="4.80032">
        <ele>530</ele>
        <time>2011-12-11T09:47:39Z</time>
      </trkpt>
      <trkpt lat="45.84539" lon="4.80039">
        <ele>529</ele>
        <time>2011-12-11T09:47:42Z</time>
      </trkpt>
      <trkpt lat="45.84542" lon="4.80042">
        <ele>529</ele>
        <time>2011-12-11T09:47:43Z</time>
      </trkpt>
      <trkpt lat="45.84558" lon="4.80049">
        <ele>528</ele>
        <time>2011-12-11T09:47:50Z</time>
      </trkpt>
      <trkpt lat="45.84566" lon="4.80053">
        <ele>527</ele>
        <time>2011-12-11T09:47:54Z</time>
      </trkpt>
      <trkpt lat="45.84568" lon="4.80056">
        <ele>527</ele>
        <time>2011-12-11T09:47:55Z</time>
      </trkpt>
      <trkpt lat="45.84575" lon="4.80061">
        <ele>527</ele>
        <time>2011-12-11T09:47:58Z</time>
      </trkpt>
      <trkpt lat="45.84578" lon="4.80061">
        <ele>527</ele>
        <time>2011-12-11T09:48:00Z</time>
      </trkpt>
      <trkpt lat="45.8459" lon="4.8006">
        <ele>512</ele>
        <time>2011-12-11T09:48:05Z</time>
      </trkpt>
      <trkpt lat="45.84593" lon="4.80062">
        <ele>512</ele>
        <time>2011-12-11T09:48:06Z</time>
      </trkpt>
      <trkpt lat="45.84599" lon="4.80071">
        <ele>513</ele>
        <time>2011-12-11T09:48:09Z</time>
      </trkpt>
      <trkpt lat="45.84608" lon="4.80077">
        <ele>511</ele>
        <time>2011-12-11T09:48:12Z</time>
      </trkpt>
      <trkpt lat="45.84611" lon="4.80079">
        <ele>510</ele>
        <time>2011-12-11T09:48:13Z</time>
      </trkpt>
      <trkpt lat="45.84622" lon="4.80093">
        <ele>518</ele>
        <time>2011-12-11T09:48:18Z</time>
      </trkpt>
      <trkpt lat="45.8463" lon="4.80113">
        <ele>518</ele>
        <time>2011-12-11T09:48:24Z</time>
      </trkpt>
      <trkpt lat="45.84634" lon="4.80119">
        <ele>518</ele>
        <time>2011-12-11T09:48:26Z</time>
      </trkpt>
      <trkpt lat="45.84639" lon="4.80126">
        <ele>518</ele>
        <time>2011-12-11T09:48:29Z</time>
      </trkpt>
      <trkpt lat="45.84643" lon="4.80134">
        <ele>518</ele>
        <time>2011-12-11T09:48:32Z</time>
      </trkpt>
      <trkpt lat="45.84648" lon="4.80139">
        <ele>518</ele>
        <time>2011-12-11T09:48:34Z</time>
      </trkpt>
      <trkpt lat="45.84656" lon="4.8015">
        <ele>517</ele>
        <time>2011-12-11T09:48:38Z</time>
      </trkpt>
      <trkpt lat="45.84663" lon="4.80157">
        <ele>516</ele>
        <time>2011-12-11T09:48:41Z</time>
      </trkpt>
      <trkpt lat="45.84666" lon="4.80158">
        <ele>516</ele>
        <time>2011-12-11T09:48:42Z</time>
      </trkpt>
      <trkpt lat="45.84679" lon="4.80173">
        <ele>509</ele>
        <time>2011-12-11T09:48:47Z</time>
      </trkpt>
      <trkpt lat="45.84687" lon="4.80186">
        <ele>506</ele>
        <time>2011-12-11T09:48:52Z</time>
      </trkpt>
      <trkpt lat="45.84693" lon="4.80196">
        <ele>505</ele>
        <time>2011-12-11T09:48:56Z</time>
      </trkpt>
      <trkpt lat="45.84695" lon="4.80198">
        <ele>505</ele>
        <time>2011-12-11T09:48:57Z</time>
      </trkpt>
      <trkpt lat="45.84709" lon="4.80213">
        <ele>503</ele>
        <time>2011-12-11T09:49:03Z</time>
      </trkpt>
      <trkpt lat="45.84718" lon="4.80225">
        <ele>502</ele>
        <time>2011-12-11T09:49:08Z</time>
      </trkpt>
      <trkpt lat="45.84722" lon="4.8023">
        <ele>501</ele>
        <time>2011-12-11T09:49:10Z</time>
      </trkpt>
      <trkpt lat="45.84727" lon="4.80236">
        <ele>499</ele>
        <time>2011-12-11T09:49:13Z</time>
      </trkpt>
      <trkpt lat="45.84735" lon="4.80248">
        <ele>497</ele>
        <time>2011-12-11T09:49:17Z</time>
      </trkpt>
      <trkpt lat="45.84736" lon="4.80251">
        <ele>503</ele>
        <time>2011-12-11T09:49:18Z</time>
      </trkpt>
      <trkpt lat="45.84744" lon="4.80262">
        <ele>502</ele>
        <time>2011-12-11T09:49:22Z</time>
      </trkpt>
      <trkpt lat="45.8475" lon="4.80266">
        <ele>503</ele>
        <time>2011-12-11T09:49:24Z</time>
      </trkpt>
      <trkpt lat="45.84755" lon="4.80271">
        <ele>488</ele>
        <time>2011-12-11T09:49:26Z</time>
      </trkpt>
      <trkpt lat="45.8476" lon="4.80276">
        <ele>488</ele>
        <time>2011-12-11T09:49:28Z</time>
      </trkpt>
      <trkpt lat="45.84765" lon="4.80282">
        <ele>488</ele>
        <time>2011-12-11T09:49:30Z</time>
      </trkpt>
      <trkpt lat="45.84771" lon="4.80288">
        <ele>487</ele>
        <time>2011-12-11T09:49:33Z</time>
      </trkpt>
      <trkpt lat="45.84782" lon="4.80302">
        <ele>487</ele>
        <time>2011-12-11T09:49:38Z</time>
      </trkpt>
      <trkpt lat="45.84783" lon="4.80305">
        <ele>487</ele>
        <time>2011-12-11T09:49:39Z</time>
      </trkpt>
      <trkpt lat="45.84795" lon="4.80318">
        <ele>486</ele>
        <time>2011-12-11T09:49:44Z</time>
      </trkpt>
      <trkpt lat="45.84796" lon="4.80321">
        <ele>485</ele>
        <time>2011-12-11T09:49:45Z</time>
      </trkpt>
      <trkpt lat="45.84804" lon="4.80333">
        <ele>484</ele>
        <time>2011-12-11T09:49:49Z</time>
      </trkpt>
      <trkpt lat="45.84809" lon="4.80339">
        <ele>493</ele>
        <time>2011-12-11T09:49:51Z</time>
      </trkpt>
      <trkpt lat="45.84815" lon="4.80349">
        <ele>492</ele>
        <time>2011-12-11T09:49:54Z</time>
      </trkpt>
      <trkpt lat="45.84821" lon="4.80362">
        <ele>494</ele>
        <time>2011-12-11T09:49:58Z</time>
      </trkpt>
      <trkpt lat="45.84822" lon="4.80365">
        <ele>495</ele>
        <time>2011-12-11T09:49:59Z</time>
      </trkpt>
      <trkpt lat="45.84833" lon="4.80384">
        <ele>498</ele>
        <time>2011-12-11T09:50:04Z</time>
      </trkpt>
      <trkpt lat="45.84847" lon="4.80403">
        <ele>483</ele>
        <time>2011-12-11T09:50:10Z</time>
      </trkpt>
      <trkpt lat="45.8485" lon="4.80405">
        <ele>482</ele>
        <time>2011-12-11T09:50:11Z</time>
      </trkpt>
      <trkpt lat="45.84864" lon="4.80417">
        <ele>488</ele>
        <time>2011-12-11T09:50:16Z</time>
      </trkpt>
      <trkpt lat="45.84866" lon="4.8042">
        <ele>488</ele>
        <time>2011-12-11T09:50:17Z</time>
      </trkpt>
      <trkpt lat="45.84874" lon="4.80434">
        <ele>486</ele>
        <time>2011-12-11T09:50:22Z</time>
      </trkpt>
      <trkpt lat="45.84878" lon="4.80436">
        <ele>485</ele>
        <time>2011-12-11T09:50:23Z</time>
      </trkpt>
      <trkpt lat="45.84884" lon="4.80447">
        <ele>485</ele>
        <time>2011-12-11T09:50:27Z</time>
      </trkpt>
      <trkpt lat="45.84892" lon="4.80455">
        <ele>485</ele>
        <time>2011-12-11T09:50:30Z</time>
      </trkpt>
      <trkpt lat="45.84895" lon="4.80462">
        <ele>485</ele>
        <time>2011-12-11T09:50:32Z</time>
      </trkpt>
      <trkpt lat="45.84904" lon="4.80472">
        <ele>485</ele>
        <time>2011-12-11T09:50:37Z</time>
      </trkpt>
      <trkpt lat="45.84908" lon="4.80476">
        <ele>485</ele>
        <time>2011-12-11T09:50:39Z</time>
      </trkpt>
      <trkpt lat="45.84914" lon="4.8048">
        <ele>485</ele>
        <time>2011-12-11T09:50:41Z</time>
      </trkpt>
      <trkpt lat="45.84924" lon="4.80493">
        <ele>475</ele>
        <time>2011-12-11T09:50:46Z</time>
      </trkpt>
      <trkpt lat="45.84931" lon="4.8051">
        <ele>478</ele>
        <time>2011-12-11T09:50:51Z</time>
      </trkpt>
      <trkpt lat="45.84937" lon="4.80518">
        <ele>476</ele>
        <time>2011-12-11T09:50:53Z</time>
      </trkpt>
      <trkpt lat="45.84946" lon="4.80528">
        <ele>474</ele>
        <time>2011-12-11T09:50:57Z</time>
      </trkpt>
      <trkpt lat="45.84951" lon="4.80526">
        <ele>473</ele>
        <time>2011-12-11T09:51:01Z</time>
      </trkpt>
      <trkpt lat="45.84952" lon="4.80523">
        <ele>472</ele>
        <time>2011-12-11T09:51:05Z</time>
      </trkpt>
      <trkpt lat="45.84952" lon="4.80524">
        <ele>472</ele>
        <time>2011-12-11T09:51:07Z</time>
      </trkpt>
      <trkpt lat="45.84951" lon="4.80524">
        <ele>472</ele>
        <time>2011-12-11T09:52:18Z</time>
      </trkpt>
      <trkpt lat="45.8495" lon="4.80517">
        <ele>472</ele>
        <time>2011-12-11T09:52:21Z</time>
      </trkpt>
      <trkpt lat="45.84949" lon="4.80513">
        <ele>473</ele>
        <time>2011-12-11T09:52:23Z</time>
      </trkpt>
      <trkpt lat="45.84944" lon="4.80504">
        <ele>474</ele>
        <time>2011-12-11T09:52:28Z</time>
      </trkpt>
      <trkpt lat="45.84941" lon="4.80495">
        <ele>466</ele>
        <time>2011-12-11T09:52:31Z</time>
      </trkpt>
      <trkpt lat="45.84939" lon="4.80485">
        <ele>465</ele>
        <time>2011-12-11T09:52:34Z</time>
      </trkpt>
      <trkpt lat="45.84934" lon="4.80469">
        <ele>463</ele>
        <time>2011-12-11T09:52:38Z</time>
      </trkpt>
      <trkpt lat="45.84925" lon="4.80443">
        <ele>460</ele>
        <time>2011-12-11T09:52:44Z</time>
      </trkpt>
      <trkpt lat="45.84916" lon="4.80424">
        <ele>469</ele>
        <time>2011-12-11T09:52:50Z</time>
      </trkpt>
      <trkpt lat="45.84915" lon="4.80421">
        <ele>466</ele>
        <time>2011-12-11T09:52:51Z</time>
      </trkpt>
      <trkpt lat="45.84912" lon="4.80408">
        <ele>464</ele>
        <time>2011-12-11T09:52:55Z</time>
      </trkpt>
      <trkpt lat="45.84913" lon="4.80404">
        <ele>465</ele>
        <time>2011-12-11T09:52:57Z</time>
      </trkpt>
      <trkpt lat="45.84916" lon="4.80408">
        <ele>464</ele>
        <time>2011-12-11T09:52:59Z</time>
      </trkpt>
      <trkpt lat="45.84917" lon="4.80411">
        <ele>458</ele>
        <time>2011-12-11T09:53:00Z</time>
      </trkpt>
      <trkpt lat="45.84919" lon="4.80415">
        <ele>459</ele>
        <time>2011-12-11T09:53:01Z</time>
      </trkpt>
      <trkpt lat="45.84923" lon="4.80422">
        <ele>460</ele>
        <time>2011-12-11T09:53:03Z</time>
      </trkpt>
      <trkpt lat="45.84928" lon="4.80434">
        <ele>459</ele>
        <time>2011-12-11T09:53:08Z</time>
      </trkpt>
      <trkpt lat="45.84929" lon="4.80435">
        <ele>459</ele>
        <time>2011-12-11T09:53:13Z</time>
      </trkpt>
      <trkpt lat="45.8494" lon="4.80435">
        <ele>457</ele>
        <time>2011-12-11T09:54:10Z</time>
      </trkpt>
      <trkpt lat="45.84941" lon="4.80439">
        <ele>457</ele>
        <time>2011-12-11T09:54:11Z</time>
      </trkpt>
      <trkpt lat="45.84942" lon="4.80444">
        <ele>458</ele>
        <time>2011-12-11T09:54:13Z</time>
      </trkpt>
      <trkpt lat="45.84943" lon="4.80449">
        <ele>458</ele>
        <time>2011-12-11T09:54:15Z</time>
      </trkpt>
      <trkpt lat="45.8495" lon="4.80462">
        <ele>458</ele>
        <time>2011-12-11T09:54:19Z</time>
      </trkpt>
      <trkpt lat="45.84953" lon="4.80466">
        <ele>458</ele>
        <time>2011-12-11T09:54:21Z</time>
      </trkpt>
      <trkpt lat="45.84956" lon="4.80471">
        <ele>458</ele>
        <time>2011-12-11T09:54:23Z</time>
      </trkpt>
      <trkpt lat="45.84964" lon="4.80484">
        <ele>457</ele>
        <time>2011-12-11T09:54:28Z</time>
      </trkpt>
      <trkpt lat="45.84965" lon="4.80487">
        <ele>457</ele>
        <time>2011-12-11T09:54:29Z</time>
      </trkpt>
      <trkpt lat="45.84969" lon="4.8049">
        <ele>456</ele>
        <time>2011-12-11T09:54:31Z</time>
      </trkpt>
      <trkpt lat="45.84971" lon="4.80494">
        <ele>456</ele>
        <time>2011-12-11T09:54:33Z</time>
      </trkpt>
      <trkpt lat="45.84974" lon="4.80498">
        <ele>455</ele>
        <time>2011-12-11T09:54:35Z</time>
      </trkpt>
      <trkpt lat="45.8498" lon="4.80506">
        <ele>461</ele>
        <time>2011-12-11T09:54:38Z</time>
      </trkpt>
      <trkpt lat="45.84983" lon="4.80516">
        <ele>462</ele>
        <time>2011-12-11T09:54:42Z</time>
      </trkpt>
      <trkpt lat="45.84983" lon="4.8052">
        <ele>463</ele>
        <time>2011-12-11T09:54:44Z</time>
      </trkpt>
      <trkpt lat="45.84985" lon="4.80529">
        <ele>465</ele>
        <time>2011-12-11T09:54:47Z</time>
      </trkpt>
      <trkpt lat="45.84986" lon="4.80532">
        <ele>465</ele>
        <time>2011-12-11T09:54:48Z</time>
      </trkpt>
      <trkpt lat="45.84995" lon="4.80547">
        <ele>466</ele>
        <time>2011-12-11T09:54:53Z</time>
      </trkpt>
      <trkpt lat="45.84998" lon="4.80551">
        <ele>466</ele>
        <time>2011-12-11T09:54:54Z</time>
      </trkpt>
      <trkpt lat="45.85" lon="4.80554">
        <ele>466</ele>
        <time>2011-12-11T09:54:55Z</time>
      </trkpt>
      <trkpt lat="45.85003" lon="4.80557">
        <ele>445</ele>
        <time>2011-12-11T09:54:56Z</time>
      </trkpt>
      <trkpt lat="45.85007" lon="4.80562">
        <ele>446</ele>
        <time>2011-12-11T09:54:58Z</time>
      </trkpt>
      <trkpt lat="45.85013" lon="4.80572">
        <ele>447</ele>
        <time>2011-12-11T09:55:02Z</time>
      </trkpt>
      <trkpt lat="45.85014" lon="4.80577">
        <ele>448</ele>
        <time>2011-12-11T09:55:04Z</time>
      </trkpt>
      <trkpt lat="45.85015" lon="4.8058">
        <ele>448</ele>
        <time>2011-12-11T09:55:05Z</time>
      </trkpt>
      <trkpt lat="45.8502" lon="4.80587">
        <ele>453</ele>
        <time>2011-12-11T09:55:07Z</time>
      </trkpt>
      <trkpt lat="45.85023" lon="4.80591">
        <ele>452</ele>
        <time>2011-12-11T09:55:08Z</time>
      </trkpt>
      <trkpt lat="45.85026" lon="4.80594">
        <ele>451</ele>
        <time>2011-12-11T09:55:09Z</time>
      </trkpt>
      <trkpt lat="45.85034" lon="4.80607">
        <ele>449</ele>
        <time>2011-12-11T09:55:13Z</time>
      </trkpt>
      <trkpt lat="45.85035" lon="4.8061">
        <ele>449</ele>
        <time>2011-12-11T09:55:14Z</time>
      </trkpt>
      <trkpt lat="45.85039" lon="4.80616">
        <ele>448</ele>
        <time>2011-12-11T09:55:16Z</time>
      </trkpt>
      <trkpt lat="45.85044" lon="4.80624">
        <ele>447</ele>
        <time>2011-12-11T09:55:19Z</time>
      </trkpt>
      <trkpt lat="45.85053" lon="4.80637">
        <ele>446</ele>
        <time>2011-12-11T09:55:24Z</time>
      </trkpt>
      <trkpt lat="45.85058" lon="4.80644">
        <ele>445</ele>
        <time>2011-12-11T09:55:26Z</time>
      </trkpt>
      <trkpt lat="45.85066" lon="4.80659">
        <ele>442</ele>
        <time>2011-12-11T09:55:31Z</time>
      </trkpt>
      <trkpt lat="45.85068" lon="4.80663">
        <ele>441</ele>
        <time>2011-12-11T09:55:32Z</time>
      </trkpt>
      <trkpt lat="45.85077" lon="4.80679">
        <ele>446</ele>
        <time>2011-12-11T09:55:37Z</time>
      </trkpt>
      <trkpt lat="45.8508" lon="4.80693">
        <ele>453</ele>
        <time>2011-12-11T09:55:41Z</time>
      </trkpt>
      <trkpt lat="45.85083" lon="4.80707">
        <ele>433</ele>
        <time>2011-12-11T09:55:45Z</time>
      </trkpt>
      <trkpt lat="45.85087" lon="4.80709">
        <ele>433</ele>
        <time>2011-12-11T09:55:46Z</time>
      </trkpt>
      <trkpt lat="45.85096" lon="4.80723">
        <ele>436</ele>
        <time>2011-12-11T09:55:51Z</time>
      </trkpt>
      <trkpt lat="45.85098" lon="4.80728">
        <ele>437</ele>
        <time>2011-12-11T09:55:53Z</time>
      </trkpt>
      <trkpt lat="45.85108" lon="4.80739">
        <ele>436</ele>
        <time>2011-12-11T09:55:57Z</time>
      </trkpt>
      <trkpt lat="45.85114" lon="4.8075">
        <ele>446</ele>
        <time>2011-12-11T09:56:01Z</time>
      </trkpt>
      <trkpt lat="45.85118" lon="4.80756">
        <ele>445</ele>
        <time>2011-12-11T09:56:03Z</time>
      </trkpt>
      <trkpt lat="45.85128" lon="4.80768">
        <ele>443</ele>
        <time>2011-12-11T09:56:08Z</time>
      </trkpt>
      <trkpt lat="45.85137" lon="4.80781">
        <ele>442</ele>
        <time>2011-12-11T09:56:13Z</time>
      </trkpt>
      <trkpt lat="45.85144" lon="4.80787">
        <ele>441</ele>
        <time>2011-12-11T09:56:16Z</time>
      </trkpt>
      <trkpt lat="45.85146" lon="4.80789">
        <ele>441</ele>
        <time>2011-12-11T09:56:17Z</time>
      </trkpt>
      <trkpt lat="45.85151" lon="4.80793">
        <ele>441</ele>
        <time>2011-12-11T09:56:19Z</time>
      </trkpt>
      <trkpt lat="45.85157" lon="4.80802">
        <ele>441</ele>
        <time>2011-12-11T09:56:22Z</time>
      </trkpt>
      <trkpt lat="45.85164" lon="4.80813">
        <ele>440</ele>
        <time>2011-12-11T09:56:26Z</time>
      </trkpt>
      <trkpt lat="45.8517" lon="4.80824">
        <ele>426</ele>
        <time>2011-12-11T09:56:30Z</time>
      </trkpt>
      <trkpt lat="45.85171" lon="4.80827">
        <ele>428</ele>
        <time>2011-12-11T09:56:31Z</time>
      </trkpt>
      <trkpt lat="45.85181" lon="4.80841">
        <ele>431</ele>
        <time>2011-12-11T09:56:36Z</time>
      </trkpt>
      <trkpt lat="45.85183" lon="4.80843">
        <ele>431</ele>
        <time>2011-12-11T09:56:37Z</time>
      </trkpt>
      <trkpt lat="45.85194" lon="4.80852">
        <ele>429</ele>
        <time>2011-12-11T09:56:42Z</time>
      </trkpt>
      <trkpt lat="45.85199" lon="4.80856">
        <ele>428</ele>
        <time>2011-12-11T09:56:44Z</time>
      </trkpt>
      <trkpt lat="45.85204" lon="4.80859">
        <ele>427</ele>
        <time>2011-12-11T09:56:46Z</time>
      </trkpt>
      <trkpt lat="45.85218" lon="4.80865">
        <ele>424</ele>
        <time>2011-12-11T09:56:51Z</time>
      </trkpt>
      <trkpt lat="45.8522" lon="4.80866">
        <ele>424</ele>
        <time>2011-12-11T09:56:52Z</time>
      </trkpt>
      <trkpt lat="45.8523" lon="4.80876">
        <ele>424</ele>
        <time>2011-12-11T09:56:57Z</time>
      </trkpt>
      <trkpt lat="45.85231" lon="4.80879">
        <ele>424</ele>
        <time>2011-12-11T09:56:58Z</time>
      </trkpt>
      <trkpt lat="45.85233" lon="4.80883">
        <ele>424</ele>
        <time>2011-12-11T09:57:00Z</time>
      </trkpt>
      <trkpt lat="45.85237" lon="4.80888">
        <ele>424</ele>
        <time>2011-12-11T09:57:03Z</time>
      </trkpt>
      <trkpt lat="45.85242" lon="4.80891">
        <ele>424</ele>
        <time>2011-12-11T09:57:07Z</time>
      </trkpt>
      <trkpt lat="45.85243" lon="4.80892">
        <ele>424</ele>
        <time>2011-12-11T09:57:08Z</time>
      </trkpt>
      <trkpt lat="45.85245" lon="4.80895">
        <ele>423</ele>
        <time>2011-12-11T09:57:11Z</time>
      </trkpt>
      <trkpt lat="45.85248" lon="4.80897">
        <ele>423</ele>
        <time>2011-12-11T09:57:14Z</time>
      </trkpt>
      <trkpt lat="45.85249" lon="4.80898">
        <ele>423</ele>
        <time>2011-12-11T09:57:15Z</time>
      </trkpt>
      <trkpt lat="45.8525" lon="4.80901">
        <ele>408</ele>
        <time>2011-12-11T09:57:17Z</time>
      </trkpt>
      <trkpt lat="45.85252" lon="4.80904">
        <ele>410</ele>
        <time>2011-12-11T09:57:20Z</time>
      </trkpt>
      <trkpt lat="45.8526" lon="4.80912">
        <ele>410</ele>
        <time>2011-12-11T09:57:26Z</time>
      </trkpt>
      <trkpt lat="45.85263" lon="4.80915">
        <ele>409</ele>
        <time>2011-12-11T09:57:28Z</time>
      </trkpt>
      <trkpt lat="45.85269" lon="4.80922">
        <ele>416</ele>
        <time>2011-12-11T09:57:31Z</time>
      </trkpt>
      <trkpt lat="45.85276" lon="4.80932">
        <ele>416</ele>
        <time>2011-12-11T09:57:36Z</time>
      </trkpt>
      <trkpt lat="45.85277" lon="4.80935">
        <ele>415</ele>
        <time>2011-12-11T09:57:38Z</time>
      </trkpt>
      <trkpt lat="45.85283" lon="4.80938">
        <ele>415</ele>
        <time>2011-12-11T09:57:41Z</time>
      </trkpt>
      <trkpt lat="45.85296" lon="4.80943">
        <ele>412</ele>
        <time>2011-12-11T09:57:45Z</time>
      </trkpt>
      <trkpt lat="45.85307" lon="4.80949">
        <ele>410</ele>
        <time>2011-12-11T09:57:50Z</time>
      </trkpt>
      <trkpt lat="45.85314" lon="4.8095">
        <ele>409</ele>
        <time>2011-12-11T09:57:53Z</time>
      </trkpt>
      <trkpt lat="45.85326" lon="4.80951">
        <ele>408</ele>
        <time>2011-12-11T09:57:57Z</time>
      </trkpt>
      <trkpt lat="45.85334" lon="4.80954">
        <ele>387</ele>
        <time>2011-12-11T09:58:00Z</time>
      </trkpt>
      <trkpt lat="45.85338" lon="4.80955">
        <ele>387</ele>
        <time>2011-12-11T09:58:02Z</time>
      </trkpt>
      <trkpt lat="45.85346" lon="4.80954">
        <ele>386</ele>
        <time>2011-12-11T09:58:06Z</time>
      </trkpt>
      <trkpt lat="45.85348" lon="4.80953">
        <ele>386</ele>
        <time>2011-12-11T09:58:07Z</time>
      </trkpt>
      <trkpt lat="45.85352" lon="4.80949">
        <ele>385</ele>
        <time>2011-12-11T09:58:10Z</time>
      </trkpt>
      <trkpt lat="45.85354" lon="4.80952">
        <ele>385</ele>
        <time>2011-12-11T09:58:12Z</time>
      </trkpt>
      <trkpt lat="45.85356" lon="4.80955">
        <ele>385</ele>
        <time>2011-12-11T09:58:14Z</time>
      </trkpt>
      <trkpt lat="45.85358" lon="4.80957">
        <ele>385</ele>
        <time>2011-12-11T09:58:17Z</time>
      </trkpt>
      <trkpt lat="45.85359" lon="4.80963">
        <ele>386</ele>
        <time>2011-12-11T09:58:20Z</time>
      </trkpt>
      <trkpt lat="45.8536" lon="4.80963">
        <ele>386</ele>
        <time>2011-12-11T09:58:21Z</time>
      </trkpt>
      <trkpt lat="45.85364" lon="4.80968">
        <ele>386</ele>
        <time>2011-12-11T09:58:24Z</time>
      </trkpt>
      <trkpt lat="45.85365" lon="4.8097">
        <ele>386</ele>
        <time>2011-12-11T09:58:25Z</time>
      </trkpt>
      <trkpt lat="45.85371" lon="4.80983">
        <ele>386</ele>
        <time>2011-12-11T09:58:30Z</time>
      </trkpt>
      <trkpt lat="45.85374" lon="4.80989">
        <ele>386</ele>
        <time>2011-12-11T09:58:32Z</time>
      </trkpt>
      <trkpt lat="45.85379" lon="4.80997">
        <ele>385</ele>
        <time>2011-12-11T09:58:35Z</time>
      </trkpt>
      <trkpt lat="45.85385" lon="4.81008">
        <ele>397</ele>
        <time>2011-12-11T09:58:39Z</time>
      </trkpt>
      <trkpt lat="45.85386" lon="4.8101">
        <ele>397</ele>
        <time>2011-12-11T09:58:40Z</time>
      </trkpt>
      <trkpt lat="45.85388" lon="4.81012">
        <ele>397</ele>
        <time>2011-12-11T09:58:41Z</time>
      </trkpt>
      <trkpt lat="45.85395" lon="4.81017">
        <ele>395</ele>
        <time>2011-12-11T09:58:44Z</time>
      </trkpt>
      <trkpt lat="45.85404" lon="4.81023">
        <ele>395</ele>
        <time>2011-12-11T09:58:47Z</time>
      </trkpt>
      <trkpt lat="45.85407" lon="4.81027">
        <ele>396</ele>
        <time>2011-12-11T09:58:49Z</time>
      </trkpt>
      <trkpt lat="45.85421" lon="4.81036">
        <ele>379</ele>
        <time>2011-12-11T09:58:53Z</time>
      </trkpt>
      <trkpt lat="45.85427" lon="4.81039">
        <ele>379</ele>
        <time>2011-12-11T09:58:55Z</time>
      </trkpt>
      <trkpt lat="45.85439" lon="4.81048">
        <ele>379</ele>
        <time>2011-12-11T09:59:00Z</time>
      </trkpt>
      <trkpt lat="45.85442" lon="4.81051">
        <ele>379</ele>
        <time>2011-12-11T09:59:02Z</time>
      </trkpt>
      <trkpt lat="45.85448" lon="4.81056">
        <ele>379</ele>
        <time>2011-12-11T09:59:05Z</time>
      </trkpt>
      <trkpt lat="45.85452" lon="4.81062">
        <ele>379</ele>
        <time>2011-12-11T09:59:08Z</time>
      </trkpt>
      <trkpt lat="45.85455" lon="4.81067">
        <ele>379</ele>
        <time>2011-12-11T09:59:10Z</time>
      </trkpt>
      <trkpt lat="45.85463" lon="4.81076">
        <ele>378</ele>
        <time>2011-12-11T09:59:14Z</time>
      </trkpt>
      <trkpt lat="45.8547" lon="4.81084">
        <ele>393</ele>
        <time>2011-12-11T09:59:18Z</time>
      </trkpt>
      <trkpt lat="45.85472" lon="4.81089">
        <ele>393</ele>
        <time>2011-12-11T09:59:20Z</time>
      </trkpt>
      <trkpt lat="45.85486" lon="4.81102">
        <ele>391</ele>
        <time>2011-12-11T09:59:25Z</time>
      </trkpt>
      <trkpt lat="45.85499" lon="4.81113">
        <ele>393</ele>
        <time>2011-12-11T09:59:30Z</time>
      </trkpt>
      <trkpt lat="45.85503" lon="4.81119">
        <ele>377</ele>
        <time>2011-12-11T09:59:32Z</time>
      </trkpt>
      <trkpt lat="45.85507" lon="4.81124">
        <ele>378</ele>
        <time>2011-12-11T09:59:35Z</time>
      </trkpt>
      <trkpt lat="45.8552" lon="4.81131">
        <ele>378</ele>
        <time>2011-12-11T09:59:40Z</time>
      </trkpt>
      <trkpt lat="45.85521" lon="4.81133">
        <ele>378</ele>
        <time>2011-12-11T09:59:41Z</time>
      </trkpt>
      <trkpt lat="45.85536" lon="4.81145">
        <ele>377</ele>
        <time>2011-12-11T09:59:47Z</time>
      </trkpt>
      <trkpt lat="45.85546" lon="4.81156">
        <ele>377</ele>
        <time>2011-12-11T09:59:53Z</time>
      </trkpt>
      <trkpt lat="45.85552" lon="4.81161">
        <ele>376</ele>
        <time>2011-12-11T09:59:58Z</time>
      </trkpt>
      <trkpt lat="45.8557" lon="4.81168">
        <ele>387</ele>
        <time>2011-12-11T10:00:02Z</time>
      </trkpt>
      <trkpt lat="45.85586" lon="4.81176">
        <ele>376</ele>
        <time>2011-12-11T10:00:07Z</time>
      </trkpt>
      <trkpt lat="45.85589" lon="4.81177">
        <ele>377</ele>
        <time>2011-12-11T10:00:08Z</time>
      </trkpt>
      <trkpt lat="45.85603" lon="4.81182">
        <ele>378</ele>
        <time>2011-12-11T10:00:13Z</time>
      </trkpt>
      <trkpt lat="45.85609" lon="4.81183">
        <ele>378</ele>
        <time>2011-12-11T10:00:15Z</time>
      </trkpt>
      <trkpt lat="45.85617" lon="4.81187">
        <ele>378</ele>
        <time>2011-12-11T10:00:18Z</time>
      </trkpt>
      <trkpt lat="45.85627" lon="4.81191">
        <ele>377</ele>
        <time>2011-12-11T10:00:21Z</time>
      </trkpt>
      <trkpt lat="45.85631" lon="4.81192">
        <ele>376</ele>
        <time>2011-12-11T10:00:23Z</time>
      </trkpt>
      <trkpt lat="45.85646" lon="4.81197">
        <ele>375</ele>
        <time>2011-12-11T10:00:29Z</time>
      </trkpt>
      <trkpt lat="45.85661" lon="4.81204">
        <ele>375</ele>
        <time>2011-12-11T10:00:34Z</time>
      </trkpt>
      <trkpt lat="45.85663" lon="4.81206">
        <ele>376</ele>
        <time>2011-12-11T10:00:35Z</time>
      </trkpt>
      <trkpt lat="45.85674" lon="4.8121">
        <ele>366</ele>
        <time>2011-12-11T10:00:39Z</time>
      </trkpt>
      <trkpt lat="45.85683" lon="4.81212">
        <ele>366</ele>
        <time>2011-12-11T10:00:43Z</time>
      </trkpt>
      <trkpt lat="45.85685" lon="4.81212">
        <ele>366</ele>
        <time>2011-12-11T10:00:44Z</time>
      </trkpt>
      <trkpt lat="45.85695" lon="4.81214">
        <ele>366</ele>
        <time>2011-12-11T10:00:48Z</time>
      </trkpt>
      <trkpt lat="45.85702" lon="4.81213">
        <ele>365</ele>
        <time>2011-12-11T10:00:52Z</time>
      </trkpt>
      <trkpt lat="45.85703" lon="4.81212">
        <ele>365</ele>
        <time>2011-12-11T10:00:53Z</time>
      </trkpt>
      <trkpt lat="45.85705" lon="4.81211">
        <ele>364</ele>
        <time>2011-12-11T10:00:56Z</time>
      </trkpt>
      <trkpt lat="45.85705" lon="4.81211">
        <ele>364</ele>
        <time>2011-12-11T10:00:57Z</time>
      </trkpt>
      <trkpt lat="45.85705" lon="4.81209">
        <ele>364</ele>
        <time>2011-12-11T10:00:58Z</time>
      </trkpt>
      <trkpt lat="45.85705" lon="4.81209">
        <ele>364</ele>
        <time>2011-12-11T10:01:02Z</time>
      </trkpt>
      <trkpt lat="45.85706" lon="4.81209">
        <ele>364</ele>
        <time>2011-12-11T10:01:04Z</time>
      </trkpt>
      <trkpt lat="45.85707" lon="4.81214">
        <ele>365</ele>
        <time>2011-12-11T10:01:07Z</time>
      </trkpt>
      <trkpt lat="45.85712" lon="4.81217">
        <ele>365</ele>
        <time>2011-12-11T10:01:16Z</time>
      </trkpt>
      <trkpt lat="45.85713" lon="4.81217">
        <ele>365</ele>
        <time>2011-12-11T10:01:17Z</time>
      </trkpt>
      <trkpt lat="45.85723" lon="4.81219">
        <ele>365</ele>
        <time>2011-12-11T10:01:21Z</time>
      </trkpt>
      <trkpt lat="45.8573" lon="4.81216">
        <ele>364</ele>
        <time>2011-12-11T10:01:26Z</time>
      </trkpt>
      <trkpt lat="45.8573" lon="4.81216">
        <ele>364</ele>
        <time>2011-12-11T10:01:27Z</time>
      </trkpt>
      <trkpt lat="45.85733" lon="4.81214">
        <ele>363</ele>
        <time>2011-12-11T10:01:30Z</time>
      </trkpt>
      <trkpt lat="45.85735" lon="4.81215">
        <ele>363</ele>
        <time>2011-12-11T10:01:35Z</time>
      </trkpt>
      <trkpt lat="45.85734" lon="4.81218">
        <ele>364</ele>
        <time>2011-12-11T10:01:38Z</time>
      </trkpt>
      <trkpt lat="45.85734" lon="4.81218">
        <ele>364</ele>
        <time>2011-12-11T10:01:39Z</time>
      </trkpt>
      <trkpt lat="45.85738" lon="4.81221">
        <ele>365</ele>
        <time>2011-12-11T10:01:44Z</time>
      </trkpt>
      <trkpt lat="45.8574" lon="4.81223">
        <ele>365</ele>
        <time>2011-12-11T10:01:48Z</time>
      </trkpt>
      <trkpt lat="45.85741" lon="4.81223">
        <ele>365</ele>
        <time>2011-12-11T10:01:49Z</time>
      </trkpt>
      <trkpt lat="45.85743" lon="4.81224">
        <ele>365</ele>
        <time>2011-12-11T10:01:55Z</time>
      </trkpt>
      <trkpt lat="45.85748" lon="4.81227">
        <ele>366</ele>
        <time>2011-12-11T10:01:58Z</time>
      </trkpt>
      <trkpt lat="45.85749" lon="4.81228">
        <ele>366</ele>
        <time>2011-12-11T10:01:59Z</time>
      </trkpt>
      <trkpt lat="45.85757" lon="4.81234">
        <ele>362</ele>
        <time>2011-12-11T10:02:04Z</time>
      </trkpt>
      <trkpt lat="45.85764" lon="4.81239">
        <ele>362</ele>
        <time>2011-12-11T10:02:11Z</time>
      </trkpt>
      <trkpt lat="45.85762" lon="4.81241">
        <ele>363</ele>
        <time>2011-12-11T10:02:14Z</time>
      </trkpt>
      <trkpt lat="45.85762" lon="4.81243">
        <ele>364</ele>
        <time>2011-12-11T10:02:16Z</time>
      </trkpt>
      <trkpt lat="45.85766" lon="4.81245">
        <ele>363</ele>
        <time>2011-12-11T10:02:19Z</time>
      </trkpt>
      <trkpt lat="45.85768" lon="4.81244">
        <ele>362</ele>
        <time>2011-12-11T10:02:21Z</time>
      </trkpt>
      <trkpt lat="45.8577" lon="4.81247">
        <ele>362</ele>
        <time>2011-12-11T10:02:24Z</time>
      </trkpt>
      <trkpt lat="45.85772" lon="4.81249">
        <ele>361</ele>
        <time>2011-12-11T10:02:28Z</time>
      </trkpt>
      <trkpt lat="45.8577" lon="4.81252">
        <ele>375</ele>
        <time>2011-12-11T10:02:34Z</time>
      </trkpt>
      <trkpt lat="45.85773" lon="4.81256">
        <ele>375</ele>
        <time>2011-12-11T10:02:40Z</time>
      </trkpt>
      <trkpt lat="45.85774" lon="4.81257">
        <ele>375</ele>
        <time>2011-12-11T10:02:42Z</time>
      </trkpt>
      <trkpt lat="45.85775" lon="4.81258">
        <ele>375</ele>
        <time>2011-12-11T10:02:43Z</time>
      </trkpt>
      <trkpt lat="45.85777" lon="4.81259">
        <ele>375</ele>
        <time>2011-12-11T10:02:45Z</time>
      </trkpt>
      <trkpt lat="45.85777" lon="4.81261">
        <ele>375</ele>
        <time>2011-12-11T10:02:49Z</time>
      </trkpt>
      <trkpt lat="45.8578" lon="4.81264">
        <ele>376</ele>
        <time>2011-12-11T10:02:53Z</time>
      </trkpt>
      <trkpt lat="45.8578" lon="4.81264">
        <ele>376</ele>
        <time>2011-12-11T10:02:54Z</time>
      </trkpt>
      <trkpt lat="45.85786" lon="4.81264">
        <ele>375</ele>
        <time>2011-12-11T10:03:01Z</time>
      </trkpt>
      <trkpt lat="45.8579" lon="4.81268">
        <ele>375</ele>
        <time>2011-12-11T10:03:06Z</time>
      </trkpt>
      <trkpt lat="45.85793" lon="4.8127">
        <ele>375</ele>
        <time>2011-12-11T10:03:12Z</time>
      </trkpt>
      <trkpt lat="45.85794" lon="4.81271">
        <ele>375</ele>
        <time>2011-12-11T10:03:17Z</time>
      </trkpt>
      <trkpt lat="45.85797" lon="4.81275">
        <ele>376</ele>
        <time>2011-12-11T10:03:24Z</time>
      </trkpt>
      <trkpt lat="45.85797" lon="4.8128">
        <ele>376</ele>
        <time>2011-12-11T10:03:30Z</time>
      </trkpt>
      <trkpt lat="45.85797" lon="4.81286">
        <ele>377</ele>
        <time>2011-12-11T10:03:37Z</time>
      </trkpt>
      <trkpt lat="45.85794" lon="4.81287">
        <ele>378</ele>
        <time>2011-12-11T10:03:42Z</time>
      </trkpt>
      <trkpt lat="45.85798" lon="4.8129">
        <ele>378</ele>
        <time>2011-12-11T10:03:48Z</time>
      </trkpt>
      <trkpt lat="45.85799" lon="4.81292">
        <ele>378</ele>
        <time>2011-12-11T10:03:50Z</time>
      </trkpt>
      <trkpt lat="45.85802" lon="4.81293">
        <ele>378</ele>
        <time>2011-12-11T10:03:54Z</time>
      </trkpt>
      <trkpt lat="45.85803" lon="4.81293">
        <ele>378</ele>
        <time>2011-12-11T10:03:55Z</time>
      </trkpt>
      <trkpt lat="45.85806" lon="4.81293">
        <ele>378</ele>
        <time>2011-12-11T10:03:59Z</time>
      </trkpt>
      <trkpt lat="45.85811" lon="4.81292">
        <ele>377</ele>
        <time>2011-12-11T10:04:02Z</time>
      </trkpt>
      <trkpt lat="45.85815" lon="4.81294">
        <ele>377</ele>
        <time>2011-12-11T10:04:05Z</time>
      </trkpt>
      <trkpt lat="45.85818" lon="4.81293">
        <ele>377</ele>
        <time>2011-12-11T10:04:11Z</time>
      </trkpt>
      <trkpt lat="45.85819" lon="4.81294">
        <ele>377</ele>
        <time>2011-12-11T10:04:15Z</time>
      </trkpt>
      <trkpt lat="45.85821" lon="4.81295">
        <ele>377</ele>
        <time>2011-12-11T10:04:17Z</time>
      </trkpt>
      <trkpt lat="45.85823" lon="4.81296">
        <ele>377</ele>
        <time>2011-12-11T10:04:19Z</time>
      </trkpt>
      <trkpt lat="45.85829" lon="4.81292">
        <ele>376</ele>
        <time>2011-12-11T10:04:23Z</time>
      </trkpt>
      <trkpt lat="45.8583" lon="4.81291">
        <ele>376</ele>
        <time>2011-12-11T10:04:24Z</time>
      </trkpt>
      <trkpt lat="45.85837" lon="4.8129">
        <ele>365</ele>
        <time>2011-12-11T10:04:28Z</time>
      </trkpt>
      <trkpt lat="45.85845" lon="4.81294">
        <ele>365</ele>
        <time>2011-12-11T10:04:33Z</time>
      </trkpt>
      <trkpt lat="45.85846" lon="4.81296">
        <ele>366</ele>
        <time>2011-12-11T10:04:34Z</time>
      </trkpt>
      <trkpt lat="45.85852" lon="4.81301">
        <ele>366</ele>
        <time>2011-12-11T10:04:39Z</time>
      </trkpt>
      <trkpt lat="45.85852" lon="4.81312">
        <ele>368</ele>
        <time>2011-12-11T10:04:44Z</time>
      </trkpt>
      <trkpt lat="45.85854" lon="4.81316">
        <ele>369</ele>
        <time>2011-12-11T10:04:46Z</time>
      </trkpt>
      <trkpt lat="45.85856" lon="4.81317">
        <ele>369</ele>
        <time>2011-12-11T10:04:47Z</time>
      </trkpt>
      <trkpt lat="45.8586" lon="4.8132">
        <ele>368</ele>
        <time>2011-12-11T10:04:49Z</time>
      </trkpt>
      <trkpt lat="45.8587" lon="4.81328">
        <ele>367</ele>
        <time>2011-12-11T10:04:55Z</time>
      </trkpt>
      <trkpt lat="45.85871" lon="4.81327">
        <ele>367</ele>
        <time>2011-12-11T10:04:56Z</time>
      </trkpt>
      <trkpt lat="45.85873" lon="4.81328">
        <ele>366</ele>
        <time>2011-12-11T10:04:59Z</time>
      </trkpt>
      <trkpt lat="45.85875" lon="4.81328">
        <ele>366</ele>
        <time>2011-12-11T10:05:01Z</time>
      </trkpt>
      <trkpt lat="45.85878" lon="4.81331">
        <ele>365</ele>
        <time>2011-12-11T10:05:08Z</time>
      </trkpt>
      <trkpt lat="45.85878" lon="4.81332">
        <ele>365</ele>
        <time>2011-12-11T10:05:21Z</time>
      </trkpt>
      <trkpt lat="45.85879" lon="4.8133">
        <ele>365</ele>
        <time>2011-12-11T10:05:26Z</time>
      </trkpt>
      <trkpt lat="45.85878" lon="4.81334">
        <ele>374</ele>
        <time>2011-12-11T10:05:43Z</time>
      </trkpt>
      <trkpt lat="45.85879" lon="4.81335">
        <ele>374</ele>
        <time>2011-12-11T10:05:44Z</time>
      </trkpt>
      <trkpt lat="45.85885" lon="4.81338">
        <ele>373</ele>
        <time>2011-12-11T10:05:47Z</time>
      </trkpt>
      <trkpt lat="45.85889" lon="4.81342">
        <ele>372</ele>
        <time>2011-12-11T10:05:49Z</time>
      </trkpt>
      <trkpt lat="45.85899" lon="4.81357">
        <ele>371</ele>
        <time>2011-12-11T10:05:55Z</time>
      </trkpt>
      <trkpt lat="45.8591" lon="4.81365">
        <ele>371</ele>
        <time>2011-12-11T10:06:00Z</time>
      </trkpt>
      <trkpt lat="45.85917" lon="4.81369">
        <ele>358</ele>
        <time>2011-12-11T10:06:03Z</time>
      </trkpt>
      <trkpt lat="45.85922" lon="4.81372">
        <ele>358</ele>
        <time>2011-12-11T10:06:05Z</time>
      </trkpt>
      <trkpt lat="45.85934" lon="4.8138">
        <ele>358</ele>
        <time>2011-12-11T10:06:10Z</time>
      </trkpt>
      <trkpt lat="45.85946" lon="4.81389">
        <ele>357</ele>
        <time>2011-12-11T10:06:15Z</time>
      </trkpt>
      <trkpt lat="45.85951" lon="4.81391">
        <ele>357</ele>
        <time>2011-12-11T10:06:17Z</time>
      </trkpt>
      <trkpt lat="45.85964" lon="4.81401">
        <ele>356</ele>
        <time>2011-12-11T10:06:23Z</time>
      </trkpt>
      <trkpt lat="45.85969" lon="4.81404">
        <ele>356</ele>
        <time>2011-12-11T10:06:25Z</time>
      </trkpt>
      <trkpt lat="45.85976" lon="4.81409">
        <ele>355</ele>
        <time>2011-12-11T10:06:28Z</time>
      </trkpt>
      <trkpt lat="45.85981" lon="4.8141">
        <ele>355</ele>
        <time>2011-12-11T10:06:32Z</time>
      </trkpt>
      <trkpt lat="45.85986" lon="4.81412">
        <ele>355</ele>
        <time>2011-12-11T10:06:35Z</time>
      </trkpt>
      <trkpt lat="45.85991" lon="4.81417">
        <ele>355</ele>
        <time>2011-12-11T10:06:37Z</time>
      </trkpt>
      <trkpt lat="45.86002" lon="4.81424">
        <ele>352</ele>
        <time>2011-12-11T10:06:41Z</time>
      </trkpt>
      <trkpt lat="45.86008" lon="4.81428">
        <ele>351</ele>
        <time>2011-12-11T10:06:43Z</time>
      </trkpt>
      <trkpt lat="45.86021" lon="4.81434">
        <ele>348</ele>
        <time>2011-12-11T10:06:48Z</time>
      </trkpt>
      <trkpt lat="45.86034" lon="4.81438">
        <ele>347</ele>
        <time>2011-12-11T10:06:53Z</time>
      </trkpt>
      <trkpt lat="45.8604" lon="4.81438">
        <ele>346</ele>
        <time>2011-12-11T10:06:55Z</time>
      </trkpt>
      <trkpt lat="45.86052" lon="4.81436">
        <ele>345</ele>
        <time>2011-12-11T10:06:59Z</time>
      </trkpt>
      <trkpt lat="45.86058" lon="4.81437">
        <ele>345</ele>
        <time>2011-12-11T10:07:01Z</time>
      </trkpt>
      <trkpt lat="45.86063" lon="4.81438">
        <ele>344</ele>
        <time>2011-12-11T10:07:03Z</time>
      </trkpt>
      <trkpt lat="45.86076" lon="4.81442">
        <ele>344</ele>
        <time>2011-12-11T10:07:08Z</time>
      </trkpt>
      <trkpt lat="45.86078" lon="4.81444">
        <ele>344</ele>
        <time>2011-12-11T10:07:09Z</time>
      </trkpt>
      <trkpt lat="45.86094" lon="4.81451">
        <ele>340</ele>
        <time>2011-12-11T10:07:16Z</time>
      </trkpt>
      <trkpt lat="45.86108" lon="4.81457">
        <ele>340</ele>
        <time>2011-12-11T10:07:22Z</time>
      </trkpt>
      <trkpt lat="45.86113" lon="4.81459">
        <ele>340</ele>
        <time>2011-12-11T10:07:24Z</time>
      </trkpt>
      <trkpt lat="45.86124" lon="4.81463">
        <ele>341</ele>
        <time>2011-12-11T10:07:28Z</time>
      </trkpt>
      <trkpt lat="45.86133" lon="4.81466">
        <ele>341</ele>
        <time>2011-12-11T10:07:31Z</time>
      </trkpt>
      <trkpt lat="45.86143" lon="4.81469">
        <ele>341</ele>
        <time>2011-12-11T10:07:35Z</time>
      </trkpt>
      <trkpt lat="45.86153" lon="4.81475">
        <ele>342</ele>
        <time>2011-12-11T10:07:38Z</time>
      </trkpt>
      <trkpt lat="45.86157" lon="4.81477">
        <ele>343</ele>
        <time>2011-12-11T10:07:41Z</time>
      </trkpt>
      <trkpt lat="45.86171" lon="4.81484">
        <ele>343</ele>
        <time>2011-12-11T10:07:47Z</time>
      </trkpt>
      <trkpt lat="45.86189" lon="4.81492">
        <ele>342</ele>
        <time>2011-12-11T10:07:54Z</time>
      </trkpt>
      <trkpt lat="45.86194" lon="4.81494">
        <ele>342</ele>
        <time>2011-12-11T10:07:56Z</time>
      </trkpt>
      <trkpt lat="45.86207" lon="4.815">
        <ele>341</ele>
        <time>2011-12-11T10:08:01Z</time>
      </trkpt>
      <trkpt lat="45.8621" lon="4.81502">
        <ele>346</ele>
        <time>2011-12-11T10:08:02Z</time>
      </trkpt>
      <trkpt lat="45.86226" lon="4.81511">
        <ele>346</ele>
        <time>2011-12-11T10:08:08Z</time>
      </trkpt>
      <trkpt lat="45.86243" lon="4.81517">
        <ele>347</ele>
        <time>2011-12-11T10:08:14Z</time>
      </trkpt>
      <trkpt lat="45.86245" lon="4.81518">
        <ele>347</ele>
        <time>2011-12-11T10:08:15Z</time>
      </trkpt>
      <trkpt lat="45.86259" lon="4.81521">
        <ele>346</ele>
        <time>2011-12-11T10:08:20Z</time>
      </trkpt>
      <trkpt lat="45.86265" lon="4.81524">
        <ele>346</ele>
        <time>2011-12-11T10:08:22Z</time>
      </trkpt>
      <trkpt lat="45.86276" lon="4.8153">
        <ele>345</ele>
        <time>2011-12-11T10:08:26Z</time>
      </trkpt>
      <trkpt lat="45.86285" lon="4.81534">
        <ele>344</ele>
        <time>2011-12-11T10:08:29Z</time>
      </trkpt>
      <trkpt lat="45.86292" lon="4.81537">
        <ele>344</ele>
        <time>2011-12-11T10:08:32Z</time>
      </trkpt>
      <trkpt lat="45.86303" lon="4.81541">
        <ele>344</ele>
        <time>2011-12-11T10:08:36Z</time>
      </trkpt>
      <trkpt lat="45.86311" lon="4.81545">
        <ele>344</ele>
        <time>2011-12-11T10:08:38Z</time>
      </trkpt>
      <trkpt lat="45.86322" lon="4.81552">
        <ele>344</ele>
        <time>2011-12-11T10:08:43Z</time>
      </trkpt>
      <trkpt lat="45.86325" lon="4.81554">
        <ele>344</ele>
        <time>2011-12-11T10:08:44Z</time>
      </trkpt>
      <trkpt lat="45.8633" lon="4.8156">
        <ele>344</ele>
        <time>2011-12-11T10:08:47Z</time>
      </trkpt>
      <trkpt lat="45.86332" lon="4.81561">
        <ele>344</ele>
        <time>2011-12-11T10:08:48Z</time>
      </trkpt>
      <trkpt lat="45.86339" lon="4.81564">
        <ele>339</ele>
        <time>2011-12-11T10:08:53Z</time>
      </trkpt>
      <trkpt lat="45.86341" lon="4.81565">
        <ele>339</ele>
        <time>2011-12-11T10:08:54Z</time>
      </trkpt>
      <trkpt lat="45.86344" lon="4.81567">
        <ele>339</ele>
        <time>2011-12-11T10:08:57Z</time>
      </trkpt>
      <trkpt lat="45.86351" lon="4.81573">
        <ele>338</ele>
        <time>2011-12-11T10:09:00Z</time>
      </trkpt>
      <trkpt lat="45.86355" lon="4.81579">
        <ele>338</ele>
        <time>2011-12-11T10:09:02Z</time>
      </trkpt>
      <trkpt lat="45.86355" lon="4.81579">
        <ele>338</ele>
        <time>2011-12-11T10:09:03Z</time>
      </trkpt>
      <trkpt lat="45.86361" lon="4.81592">
        <ele>337</ele>
        <time>2011-12-11T10:09:08Z</time>
      </trkpt>
      <trkpt lat="45.86365" lon="4.81601">
        <ele>335</ele>
        <time>2011-12-11T10:09:11Z</time>
      </trkpt>
      <trkpt lat="45.86366" lon="4.81607">
        <ele>335</ele>
        <time>2011-12-11T10:09:13Z</time>
      </trkpt>
      <trkpt lat="45.86368" lon="4.81616">
        <ele>334</ele>
        <time>2011-12-11T10:09:16Z</time>
      </trkpt>
      <trkpt lat="45.8637" lon="4.81618">
        <ele>333</ele>
        <time>2011-12-11T10:09:17Z</time>
      </trkpt>
      <trkpt lat="45.86374" lon="4.81623">
        <ele>333</ele>
        <time>2011-12-11T10:09:19Z</time>
      </trkpt>
      <trkpt lat="45.86379" lon="4.81625">
        <ele>333</ele>
        <time>2011-12-11T10:09:22Z</time>
      </trkpt>
      <trkpt lat="45.86393" lon="4.81624">
        <ele>332</ele>
        <time>2011-12-11T10:09:27Z</time>
      </trkpt>
      <trkpt lat="45.86402" lon="4.81621">
        <ele>332</ele>
        <time>2011-12-11T10:09:29Z</time>
      </trkpt>
      <trkpt lat="45.86409" lon="4.81615">
        <ele>332</ele>
        <time>2011-12-11T10:09:33Z</time>
      </trkpt>
      <trkpt lat="45.86412" lon="4.8161">
        <ele>332</ele>
        <time>2011-12-11T10:09:34Z</time>
      </trkpt>
      <trkpt lat="45.86417" lon="4.81596">
        <ele>326</ele>
        <time>2011-12-11T10:09:38Z</time>
      </trkpt>
      <trkpt lat="45.8642" lon="4.81583">
        <ele>330</ele>
        <time>2011-12-11T10:09:42Z</time>
      </trkpt>
      <trkpt lat="45.8642" lon="4.81581">
        <ele>329</ele>
        <time>2011-12-11T10:09:43Z</time>
      </trkpt>
      <trkpt lat="45.8642" lon="4.81568">
        <ele>322</ele>
        <time>2011-12-11T10:09:48Z</time>
      </trkpt>
      <trkpt lat="45.8642" lon="4.81565">
        <ele>321</ele>
        <time>2011-12-11T10:09:50Z</time>
      </trkpt>
      <trkpt lat="45.86418" lon="4.8156">
        <ele>319</ele>
        <time>2011-12-11T10:09:54Z</time>
      </trkpt>
      <trkpt lat="45.86415" lon="4.81558">
        <ele>331</ele>
        <time>2011-12-11T10:10:04Z</time>
      </trkpt>
      <trkpt lat="45.86417" lon="4.81561">
        <ele>331</ele>
        <time>2011-12-11T10:10:06Z</time>
      </trkpt>
      <trkpt lat="45.86419" lon="4.81566">
        <ele>321</ele>
        <time>2011-12-11T10:10:08Z</time>
      </trkpt>
      <trkpt lat="45.86425" lon="4.81587">
        <ele>327</ele>
        <time>2011-12-11T10:10:14Z</time>
      </trkpt>
      <trkpt lat="45.86428" lon="4.81594">
        <ele>325</ele>
        <time>2011-12-11T10:10:16Z</time>
      </trkpt>
      <trkpt lat="45.86433" lon="4.81605">
        <ele>322</ele>
        <time>2011-12-11T10:10:19Z</time>
      </trkpt>
      <trkpt lat="45.86433" lon="4.81609">
        <ele>321</ele>
        <time>2011-12-11T10:10:21Z</time>
      </trkpt>
      <trkpt lat="45.86435" lon="4.81624">
        <ele>320</ele>
        <time>2011-12-11T10:10:24Z</time>
      </trkpt>
      <trkpt lat="45.86434" lon="4.8164">
        <ele>320</ele>
        <time>2011-12-11T10:10:28Z</time>
      </trkpt>
      <trkpt lat="45.86432" lon="4.81659">
        <ele>321</ele>
        <time>2011-12-11T10:10:33Z</time>
      </trkpt>
      <trkpt lat="45.86432" lon="4.81668">
        <ele>319</ele>
        <time>2011-12-11T10:10:36Z</time>
      </trkpt>
      <trkpt lat="45.86432" lon="4.81675">
        <ele>319</ele>
        <time>2011-12-11T10:10:38Z</time>
      </trkpt>
      <trkpt lat="45.86429" lon="4.81695">
        <ele>316</ele>
        <time>2011-12-11T10:10:44Z</time>
      </trkpt>
      <trkpt lat="45.86426" lon="4.81707">
        <ele>314</ele>
        <time>2011-12-11T10:10:48Z</time>
      </trkpt>
      <trkpt lat="45.86425" lon="4.81718">
        <ele>313</ele>
        <time>2011-12-11T10:10:51Z</time>
      </trkpt>
      <trkpt lat="45.86424" lon="4.81729">
        <ele>312</ele>
        <time>2011-12-11T10:10:54Z</time>
      </trkpt>
      <trkpt lat="45.86421" lon="4.81748">
        <ele>312</ele>
        <time>2011-12-11T10:10:58Z</time>
      </trkpt>
      <trkpt lat="45.8642" lon="4.81755">
        <ele>310</ele>
        <time>2011-12-11T10:11:01Z</time>
      </trkpt>
      <trkpt lat="45.86418" lon="4.81772">
        <ele>306</ele>
        <time>2011-12-11T10:11:06Z</time>
      </trkpt>
      <trkpt lat="45.86419" lon="4.81775">
        <ele>306</ele>
        <time>2011-12-11T10:11:07Z</time>
      </trkpt>
      <trkpt lat="45.86418" lon="4.81777">
        <ele>306</ele>
        <time>2011-12-11T10:11:08Z</time>
      </trkpt>
      <trkpt lat="45.86418" lon="4.81778">
        <ele>305</ele>
        <time>2011-12-11T10:11:11Z</time>
      </trkpt>
      <trkpt lat="45.86418" lon="4.81786">
        <ele>304</ele>
        <time>2011-12-11T10:11:16Z</time>
      </trkpt>
      <trkpt lat="45.86417" lon="4.81788">
        <ele>304</ele>
        <time>2011-12-11T10:11:17Z</time>
      </trkpt>
      <trkpt lat="45.86415" lon="4.81792">
        <ele>304</ele>
        <time>2011-12-11T10:11:21Z</time>
      </trkpt>
      <trkpt lat="45.86412" lon="4.81796">
        <ele>303</ele>
        <time>2011-12-11T10:11:26Z</time>
      </trkpt>
      <trkpt lat="45.86411" lon="4.81797">
        <ele>303</ele>
        <time>2011-12-11T10:11:28Z</time>
      </trkpt>
      <trkpt lat="45.8641" lon="4.81799">
        <ele>303</ele>
        <time>2011-12-11T10:11:30Z</time>
      </trkpt>
      <trkpt lat="45.86406" lon="4.81807">
        <ele>302</ele>
        <time>2011-12-11T10:11:38Z</time>
      </trkpt>
      <trkpt lat="45.86403" lon="4.81812">
        <ele>302</ele>
        <time>2011-12-11T10:11:45Z</time>
      </trkpt>
      <trkpt lat="45.864" lon="4.81817">
        <ele>301</ele>
        <time>2011-12-11T10:11:52Z</time>
      </trkpt>
      <trkpt lat="45.864" lon="4.81817">
        <ele>301</ele>
        <time>2011-12-11T10:11:53Z</time>
      </trkpt>
      <trkpt lat="45.86396" lon="4.81823">
        <ele>301</ele>
        <time>2011-12-11T10:12:00Z</time>
      </trkpt>
      <trkpt lat="45.86393" lon="4.81828">
        <ele>301</ele>
        <time>2011-12-11T10:12:06Z</time>
      </trkpt>
      <trkpt lat="45.86391" lon="4.81834">
        <ele>295</ele>
        <time>2011-12-11T10:12:13Z</time>
      </trkpt>
      <trkpt lat="45.86389" lon="4.81839">
        <ele>295</ele>
        <time>2011-12-11T10:12:17Z</time>
      </trkpt>
      <trkpt lat="45.86387" lon="4.81842">
        <ele>295</ele>
        <time>2011-12-11T10:12:20Z</time>
      </trkpt>
      <trkpt lat="45.86385" lon="4.81847">
        <ele>295</ele>
        <time>2011-12-11T10:12:25Z</time>
      </trkpt>
      <trkpt lat="45.86385" lon="4.8185">
        <ele>295</ele>
        <time>2011-12-11T10:12:26Z</time>
      </trkpt>
      <trkpt lat="45.86381" lon="4.81858">
        <ele>294</ele>
        <time>2011-12-11T10:12:32Z</time>
      </trkpt>
      <trkpt lat="45.86379" lon="4.8186">
        <ele>294</ele>
        <time>2011-12-11T10:12:34Z</time>
      </trkpt>
      <trkpt lat="45.86379" lon="4.8186">
        <ele>294</ele>
        <time>2011-12-11T10:12:35Z</time>
      </trkpt>
      <trkpt lat="45.86373" lon="4.81862">
        <ele>294</ele>
        <time>2011-12-11T10:12:38Z</time>
      </trkpt>
      <trkpt lat="45.86372" lon="4.8186">
        <ele>294</ele>
        <time>2011-12-11T10:12:39Z</time>
      </trkpt>
      <trkpt lat="45.86368" lon="4.81855">
        <ele>294</ele>
        <time>2011-12-11T10:12:42Z</time>
      </trkpt>
      <trkpt lat="45.86365" lon="4.81851">
        <ele>294</ele>
        <time>2011-12-11T10:12:44Z</time>
      </trkpt>
      <trkpt lat="45.86362" lon="4.81847">
        <ele>294</ele>
        <time>2011-12-11T10:12:46Z</time>
      </trkpt>
      <trkpt lat="45.86359" lon="4.81842">
        <ele>294</ele>
        <time>2011-12-11T10:12:48Z</time>
      </trkpt>
      <trkpt lat="45.86348" lon="4.81831">
        <ele>298</ele>
        <time>2011-12-11T10:12:54Z</time>
      </trkpt>
      <trkpt lat="45.86347" lon="4.81828">
        <ele>298</ele>
        <time>2011-12-11T10:12:55Z</time>
      </trkpt>
      <trkpt lat="45.86342" lon="4.81819">
        <ele>298</ele>
        <time>2011-12-11T10:12:59Z</time>
      </trkpt>
      <trkpt lat="45.86338" lon="4.81814">
        <ele>299</ele>
        <time>2011-12-11T10:13:02Z</time>
      </trkpt>
      <trkpt lat="45.86336" lon="4.81812">
        <ele>299</ele>
        <time>2011-12-11T10:13:03Z</time>
      </trkpt>
      <trkpt lat="45.86327" lon="4.81802">
        <ele>300</ele>
        <time>2011-12-11T10:13:09Z</time>
      </trkpt>
      <trkpt lat="45.86322" lon="4.81794">
        <ele>301</ele>
        <time>2011-12-11T10:13:14Z</time>
      </trkpt>
      <trkpt lat="45.8632" lon="4.81793">
        <ele>301</ele>
        <time>2011-12-11T10:13:15Z</time>
      </trkpt>
      <trkpt lat="45.86312" lon="4.81784">
        <ele>302</ele>
        <time>2011-12-11T10:13:21Z</time>
      </trkpt>
      <trkpt lat="45.86306" lon="4.81776">
        <ele>302</ele>
        <time>2011-12-11T10:13:24Z</time>
      </trkpt>
      <trkpt lat="45.863" lon="4.8177">
        <ele>302</ele>
        <time>2011-12-11T10:13:28Z</time>
      </trkpt>
      <trkpt lat="45.86294" lon="4.81761">
        <ele>302</ele>
        <time>2011-12-11T10:13:33Z</time>
      </trkpt>
      <trkpt lat="45.86291" lon="4.81756">
        <ele>302</ele>
        <time>2011-12-11T10:13:34Z</time>
      </trkpt>
      <trkpt lat="45.86282" lon="4.81746">
        <ele>309</ele>
        <time>2011-12-11T10:13:41Z</time>
      </trkpt>
      <trkpt lat="45.86277" lon="4.81742">
        <ele>308</ele>
        <time>2011-12-11T10:13:44Z</time>
      </trkpt>
      <trkpt lat="45.86275" lon="4.81738">
        <ele>308</ele>
        <time>2011-12-11T10:13:46Z</time>
      </trkpt>
      <trkpt lat="45.86267" lon="4.81732">
        <ele>308</ele>
        <time>2011-12-11T10:13:51Z</time>
      </trkpt>
      <trkpt lat="45.86262" lon="4.81726">
        <ele>309</ele>
        <time>2011-12-11T10:13:54Z</time>
      </trkpt>
      <trkpt lat="45.86259" lon="4.81722">
        <ele>309</ele>
        <time>2011-12-11T10:13:56Z</time>
      </trkpt>
      <trkpt lat="45.8625" lon="4.81713">
        <ele>310</ele>
        <time>2011-12-11T10:14:02Z</time>
      </trkpt>
      <trkpt lat="45.86246" lon="4.8171">
        <ele>310</ele>
        <time>2011-12-11T10:14:04Z</time>
      </trkpt>
      <trkpt lat="45.86241" lon="4.81705">
        <ele>311</ele>
        <time>2011-12-11T10:14:08Z</time>
      </trkpt>
      <trkpt lat="45.8624" lon="4.81704">
        <ele>311</ele>
        <time>2011-12-11T10:14:09Z</time>
      </trkpt>
      <trkpt lat="45.86237" lon="4.81702">
        <ele>311</ele>
        <time>2011-12-11T10:14:12Z</time>
      </trkpt>
      <trkpt lat="45.86232" lon="4.81696">
        <ele>312</ele>
        <time>2011-12-11T10:14:18Z</time>
      </trkpt>
      <trkpt lat="45.86231" lon="4.81695">
        <ele>312</ele>
        <time>2011-12-11T10:14:19Z</time>
      </trkpt>
      <trkpt lat="45.86227" lon="4.81691">
        <ele>312</ele>
        <time>2011-12-11T10:14:21Z</time>
      </trkpt>
      <trkpt lat="45.86225" lon="4.81688">
        <ele>312</ele>
        <time>2011-12-11T10:14:23Z</time>
      </trkpt>
      <trkpt lat="45.86219" lon="4.81681">
        <ele>313</ele>
        <time>2011-12-11T10:14:28Z</time>
      </trkpt>
      <trkpt lat="45.86216" lon="4.81679">
        <ele>313</ele>
        <time>2011-12-11T10:14:30Z</time>
      </trkpt>
      <trkpt lat="45.86209" lon="4.81669">
        <ele>313</ele>
        <time>2011-12-11T10:14:37Z</time>
      </trkpt>
      <trkpt lat="45.86202" lon="4.81664">
        <ele>321</ele>
        <time>2011-12-11T10:14:43Z</time>
      </trkpt>
      <trkpt lat="45.86201" lon="4.81662">
        <ele>321</ele>
        <time>2011-12-11T10:14:44Z</time>
      </trkpt>
      <trkpt lat="45.862" lon="4.8166">
        <ele>321</ele>
        <time>2011-12-11T10:14:45Z</time>
      </trkpt>
      <trkpt lat="45.86195" lon="4.81659">
        <ele>321</ele>
        <time>2011-12-11T10:14:49Z</time>
      </trkpt>
      <trkpt lat="45.86194" lon="4.81658">
        <ele>320</ele>
        <time>2011-12-11T10:14:50Z</time>
      </trkpt>
      <trkpt lat="45.86187" lon="4.8165">
        <ele>321</ele>
        <time>2011-12-11T10:14:56Z</time>
      </trkpt>
      <trkpt lat="45.86184" lon="4.81648">
        <ele>320</ele>
        <time>2011-12-11T10:14:58Z</time>
      </trkpt>
      <trkpt lat="45.86176" lon="4.81643">
        <ele>321</ele>
        <time>2011-12-11T10:15:04Z</time>
      </trkpt>
      <trkpt lat="45.86167" lon="4.81637">
        <ele>322</ele>
        <time>2011-12-11T10:15:11Z</time>
      </trkpt>
      <trkpt lat="45.86161" lon="4.81633">
        <ele>321</ele>
        <time>2011-12-11T10:15:17Z</time>
      </trkpt>
      <trkpt lat="45.86154" lon="4.81628">
        <ele>322</ele>
        <time>2011-12-11T10:15:23Z</time>
      </trkpt>
      <trkpt lat="45.8615" lon="4.81626">
        <ele>323</ele>
        <time>2011-12-11T10:15:26Z</time>
      </trkpt>
      <trkpt lat="45.86147" lon="4.81624">
        <ele>323</ele>
        <time>2011-12-11T10:15:28Z</time>
      </trkpt>
      <trkpt lat="45.86146" lon="4.81624">
        <ele>323</ele>
        <time>2011-12-11T10:15:29Z</time>
      </trkpt>
      <trkpt lat="45.86142" lon="4.81621">
        <ele>323</ele>
        <time>2011-12-11T10:15:32Z</time>
      </trkpt>
      <trkpt lat="45.86139" lon="4.81619">
        <ele>323</ele>
        <time>2011-12-11T10:15:35Z</time>
      </trkpt>
      <trkpt lat="45.86134" lon="4.81614">
        <ele>324</ele>
        <time>2011-12-11T10:15:40Z</time>
      </trkpt>
      <trkpt lat="45.86133" lon="4.81614">
        <ele>324</ele>
        <time>2011-12-11T10:15:41Z</time>
      </trkpt>
      <trkpt lat="45.86131" lon="4.81613">
        <ele>324</ele>
        <time>2011-12-11T10:15:42Z</time>
      </trkpt>
      <trkpt lat="45.86123" lon="4.81606">
        <ele>324</ele>
        <time>2011-12-11T10:15:50Z</time>
      </trkpt>
      <trkpt lat="45.86117" lon="4.81603">
        <ele>324</ele>
        <time>2011-12-11T10:15:56Z</time>
      </trkpt>
      <trkpt lat="45.86115" lon="4.81602">
        <ele>324</ele>
        <time>2011-12-11T10:15:58Z</time>
      </trkpt>
      <trkpt lat="45.86104" lon="4.81596">
        <ele>324</ele>
        <time>2011-12-11T10:16:08Z</time>
      </trkpt>
      <trkpt lat="45.86099" lon="4.81592">
        <ele>324</ele>
        <time>2011-12-11T10:16:13Z</time>
      </trkpt>
      <trkpt lat="45.86098" lon="4.81591">
        <ele>324</ele>
        <time>2011-12-11T10:16:16Z</time>
      </trkpt>
      <trkpt lat="45.86096" lon="4.81589">
        <ele>324</ele>
        <time>2011-12-11T10:16:17Z</time>
      </trkpt>
      <trkpt lat="45.86091" lon="4.81585">
        <ele>325</ele>
        <time>2011-12-11T10:16:22Z</time>
      </trkpt>
      <trkpt lat="45.8609" lon="4.81585">
        <ele>325</ele>
        <time>2011-12-11T10:16:24Z</time>
      </trkpt>
      <trkpt lat="45.86085" lon="4.81581">
        <ele>326</ele>
        <time>2011-12-11T10:16:28Z</time>
      </trkpt>
      <trkpt lat="45.86084" lon="4.81579">
        <ele>327</ele>
        <time>2011-12-11T10:16:29Z</time>
      </trkpt>
      <trkpt lat="45.86082" lon="4.81578">
        <ele>328</ele>
        <time>2011-12-11T10:16:31Z</time>
      </trkpt>
      <trkpt lat="45.86073" lon="4.81572">
        <ele>331</ele>
        <time>2011-12-11T10:16:39Z</time>
      </trkpt>
      <trkpt lat="45.86068" lon="4.81567">
        <ele>333</ele>
        <time>2011-12-11T10:16:45Z</time>
      </trkpt>
      <trkpt lat="45.86066" lon="4.81565">
        <ele>333</ele>
        <time>2011-12-11T10:16:46Z</time>
      </trkpt>
      <trkpt lat="45.86064" lon="4.81564">
        <ele>334</ele>
        <time>2011-12-11T10:16:48Z</time>
      </trkpt>
      <trkpt lat="45.86062" lon="4.81562">
        <ele>334</ele>
        <time>2011-12-11T10:16:51Z</time>
      </trkpt>
      <trkpt lat="45.86061" lon="4.81561">
        <ele>334</ele>
        <time>2011-12-11T10:16:52Z</time>
      </trkpt>
      <trkpt lat="45.86055" lon="4.81559">
        <ele>335</ele>
        <time>2011-12-11T10:16:57Z</time>
      </trkpt>
      <trkpt lat="45.86054" lon="4.81557">
        <ele>336</ele>
        <time>2011-12-11T10:16:58Z</time>
      </trkpt>
      <trkpt lat="45.8605" lon="4.81555">
        <ele>336</ele>
        <time>2011-12-11T10:17:01Z</time>
      </trkpt>
      <trkpt lat="45.86045" lon="4.81553">
        <ele>337</ele>
        <time>2011-12-11T10:17:06Z</time>
      </trkpt>
      <trkpt lat="45.86038" lon="4.81547">
        <ele>337</ele>
        <time>2011-12-11T10:17:12Z</time>
      </trkpt>
      <trkpt lat="45.86034" lon="4.81543">
        <ele>338</ele>
        <time>2011-12-11T10:17:17Z</time>
      </trkpt>
      <trkpt lat="45.86033" lon="4.81542">
        <ele>338</ele>
        <time>2011-12-11T10:17:18Z</time>
      </trkpt>
      <trkpt lat="45.86026" lon="4.81537">
        <ele>338</ele>
        <time>2011-12-11T10:17:24Z</time>
      </trkpt>
      <trkpt lat="45.86018" lon="4.81535">
        <ele>339</ele>
        <time>2011-12-11T10:17:30Z</time>
      </trkpt>
      <trkpt lat="45.86016" lon="4.81535">
        <ele>339</ele>
        <time>2011-12-11T10:17:31Z</time>
      </trkpt>
      <trkpt lat="45.86009" lon="4.81536">
        <ele>339</ele>
        <time>2011-12-11T10:17:37Z</time>
      </trkpt>
      <trkpt lat="45.86005" lon="4.8154">
        <ele>339</ele>
        <time>2011-12-11T10:17:41Z</time>
      </trkpt>
      <trkpt lat="45.86004" lon="4.8154">
        <ele>339</ele>
        <time>2011-12-11T10:17:44Z</time>
      </trkpt>
      <trkpt lat="45.86003" lon="4.81545">
        <ele>339</ele>
        <time>2011-12-11T10:17:54Z</time>
      </trkpt>
      <trkpt lat="45.86002" lon="4.81547">
        <ele>339</ele>
        <time>2011-12-11T10:17:55Z</time>
      </trkpt>
      <trkpt lat="45.86002" lon="4.81547">
        <ele>339</ele>
        <time>2011-12-11T10:17:56Z</time>
      </trkpt>
      <trkpt lat="45.85998" lon="4.81553">
        <ele>345</ele>
        <time>2011-12-11T10:18:00Z</time>
      </trkpt>
      <trkpt lat="45.85998" lon="4.81558">
        <ele>345</ele>
        <time>2011-12-11T10:18:09Z</time>
      </trkpt>
      <trkpt lat="45.86001" lon="4.81561">
        <ele>339</ele>
        <time>2011-12-11T10:18:11Z</time>
      </trkpt>
      <trkpt lat="45.86002" lon="4.8157">
        <ele>339</ele>
        <time>2011-12-11T10:18:17Z</time>
      </trkpt>
      <trkpt lat="45.86004" lon="4.8158">
        <ele>339</ele>
        <time>2011-12-11T10:18:22Z</time>
      </trkpt>
      <trkpt lat="45.8601" lon="4.81588">
        <ele>338</ele>
        <time>2011-12-11T10:18:28Z</time>
      </trkpt>
      <trkpt lat="45.86012" lon="4.8159">
        <ele>338</ele>
        <time>2011-12-11T10:18:31Z</time>
      </trkpt>
      <trkpt lat="45.86009" lon="4.81605">
        <ele>338</ele>
        <time>2011-12-11T10:18:44Z</time>
      </trkpt>
      <trkpt lat="45.8601" lon="4.81607">
        <ele>338</ele>
        <time>2011-12-11T10:18:46Z</time>
      </trkpt>
      <trkpt lat="45.86009" lon="4.81609">
        <ele>338</ele>
        <time>2011-12-11T10:18:48Z</time>
      </trkpt>
      <trkpt lat="45.86002" lon="4.81608">
        <ele>339</ele>
        <time>2011-12-11T10:18:54Z</time>
      </trkpt>
      <trkpt lat="45.86" lon="4.81611">
        <ele>349</ele>
        <time>2011-12-11T10:18:58Z</time>
      </trkpt>
      <trkpt lat="45.85999" lon="4.81611">
        <ele>349</ele>
        <time>2011-12-11T10:18:59Z</time>
      </trkpt>
      <trkpt lat="45.85995" lon="4.81611">
        <ele>349</ele>
        <time>2011-12-11T10:19:02Z</time>
      </trkpt>
      <trkpt lat="45.85994" lon="4.81611">
        <ele>349</ele>
        <time>2011-12-11T10:19:03Z</time>
      </trkpt>
      <trkpt lat="45.85992" lon="4.81614">
        <ele>350</ele>
        <time>2011-12-11T10:19:07Z</time>
      </trkpt>
      <trkpt lat="45.85988" lon="4.81618">
        <ele>350</ele>
        <time>2011-12-11T10:19:14Z</time>
      </trkpt>
      <trkpt lat="45.85988" lon="4.81623">
        <ele>351</ele>
        <time>2011-12-11T10:19:19Z</time>
      </trkpt>
      <trkpt lat="45.85989" lon="4.81625">
        <ele>351</ele>
        <time>2011-12-11T10:19:22Z</time>
      </trkpt>
      <trkpt lat="45.85987" lon="4.81625">
        <ele>351</ele>
        <time>2011-12-11T10:19:24Z</time>
      </trkpt>
      <trkpt lat="45.85984" lon="4.81626">
        <ele>351</ele>
        <time>2011-12-11T10:19:27Z</time>
      </trkpt>
      <trkpt lat="45.85984" lon="4.81626">
        <ele>352</ele>
        <time>2011-12-11T10:19:28Z</time>
      </trkpt>
      <trkpt lat="45.85979" lon="4.81629">
        <ele>352</ele>
        <time>2011-12-11T10:19:33Z</time>
      </trkpt>
      <trkpt lat="45.85975" lon="4.81634">
        <ele>353</ele>
        <time>2011-12-11T10:19:41Z</time>
      </trkpt>
      <trkpt lat="45.85973" lon="4.81637">
        <ele>353</ele>
        <time>2011-12-11T10:19:46Z</time>
      </trkpt>
      <trkpt lat="45.85972" lon="4.81638">
        <ele>353</ele>
        <time>2011-12-11T10:19:49Z</time>
      </trkpt>
      <trkpt lat="45.85971" lon="4.81646">
        <ele>354</ele>
        <time>2011-12-11T10:19:56Z</time>
      </trkpt>
      <trkpt lat="45.85969" lon="4.8165">
        <ele>354</ele>
        <time>2011-12-11T10:20:06Z</time>
      </trkpt>
      <trkpt lat="45.85968" lon="4.81651">
        <ele>354</ele>
        <time>2011-12-11T10:20:08Z</time>
      </trkpt>
      <trkpt lat="45.85963" lon="4.81652">
        <ele>355</ele>
        <time>2011-12-11T10:20:13Z</time>
      </trkpt>
      <trkpt lat="45.85961" lon="4.81652">
        <ele>355</ele>
        <time>2011-12-11T10:20:14Z</time>
      </trkpt>
      <trkpt lat="45.85959" lon="4.81653">
        <ele>355</ele>
        <time>2011-12-11T10:20:16Z</time>
      </trkpt>
      <trkpt lat="45.85955" lon="4.8165">
        <ele>356</ele>
        <time>2011-12-11T10:20:18Z</time>
      </trkpt>
      <trkpt lat="45.85944" lon="4.81646">
        <ele>357</ele>
        <time>2011-12-11T10:20:25Z</time>
      </trkpt>
      <trkpt lat="45.85942" lon="4.81645">
        <ele>357</ele>
        <time>2011-12-11T10:20:26Z</time>
      </trkpt>
      <trkpt lat="45.85941" lon="4.81645">
        <ele>357</ele>
        <time>2011-12-11T10:20:27Z</time>
      </trkpt>
      <trkpt lat="45.85937" lon="4.81646">
        <ele>358</ele>
        <time>2011-12-11T10:20:32Z</time>
      </trkpt>
      <trkpt lat="45.85931" lon="4.81646">
        <ele>359</ele>
        <time>2011-12-11T10:20:38Z</time>
      </trkpt>
      <trkpt lat="45.8593" lon="4.81646">
        <ele>359</ele>
        <time>2011-12-11T10:20:39Z</time>
      </trkpt>
      <trkpt lat="45.85929" lon="4.81647">
        <ele>359</ele>
        <time>2011-12-11T10:20:42Z</time>
      </trkpt>
      <trkpt lat="45.85927" lon="4.81647">
        <ele>359</ele>
        <time>2011-12-11T10:20:45Z</time>
      </trkpt>
      <trkpt lat="45.85924" lon="4.81651">
        <ele>361</ele>
        <time>2011-12-11T10:20:55Z</time>
      </trkpt>
      <trkpt lat="45.85923" lon="4.81652">
        <ele>361</ele>
        <time>2011-12-11T10:20:58Z</time>
      </trkpt>
      <trkpt lat="45.85918" lon="4.81652">
        <ele>362</ele>
        <time>2011-12-11T10:21:04Z</time>
      </trkpt>
      <trkpt lat="45.85913" lon="4.8165">
        <ele>367</ele>
        <time>2011-12-11T10:21:07Z</time>
      </trkpt>
      <trkpt lat="45.85911" lon="4.8165">
        <ele>367</ele>
        <time>2011-12-11T10:21:09Z</time>
      </trkpt>
      <trkpt lat="45.85907" lon="4.8165">
        <ele>367</ele>
        <time>2011-12-11T10:21:15Z</time>
      </trkpt>
      <trkpt lat="45.85906" lon="4.81652">
        <ele>367</ele>
        <time>2011-12-11T10:21:17Z</time>
      </trkpt>
      <trkpt lat="45.85905" lon="4.81658">
        <ele>367</ele>
        <time>2011-12-11T10:21:21Z</time>
      </trkpt>
      <trkpt lat="45.85905" lon="4.8166">
        <ele>367</ele>
        <time>2011-12-11T10:21:22Z</time>
      </trkpt>
      <trkpt lat="45.85902" lon="4.81666">
        <ele>368</ele>
        <time>2011-12-11T10:21:27Z</time>
      </trkpt>
      <trkpt lat="45.859" lon="4.81667">
        <ele>374</ele>
        <time>2011-12-11T10:21:29Z</time>
      </trkpt>
      <trkpt lat="45.85897" lon="4.81669">
        <ele>375</ele>
        <time>2011-12-11T10:21:32Z</time>
      </trkpt>
      <trkpt lat="45.85896" lon="4.81675">
        <ele>376</ele>
        <time>2011-12-11T10:21:36Z</time>
      </trkpt>
      <trkpt lat="45.85896" lon="4.81679">
        <ele>376</ele>
        <time>2011-12-11T10:21:40Z</time>
      </trkpt>
      <trkpt lat="45.85896" lon="4.8169">
        <ele>377</ele>
        <time>2011-12-11T10:21:51Z</time>
      </trkpt>
      <trkpt lat="45.85895" lon="4.81691">
        <ele>378</ele>
        <time>2011-12-11T10:21:52Z</time>
      </trkpt>
      <trkpt lat="45.85893" lon="4.81696">
        <ele>378</ele>
        <time>2011-12-11T10:21:56Z</time>
      </trkpt>
      <trkpt lat="45.85891" lon="4.81696">
        <ele>379</ele>
        <time>2011-12-11T10:21:58Z</time>
      </trkpt>
      <trkpt lat="45.8589" lon="4.81698">
        <ele>379</ele>
        <time>2011-12-11T10:21:59Z</time>
      </trkpt>
      <trkpt lat="45.8589" lon="4.81701">
        <ele>379</ele>
        <time>2011-12-11T10:22:00Z</time>
      </trkpt>
      <trkpt lat="45.8589" lon="4.81702">
        <ele>379</ele>
        <time>2011-12-11T10:22:02Z</time>
      </trkpt>
      <trkpt lat="45.85888" lon="4.81703">
        <ele>380</ele>
        <time>2011-12-11T10:22:05Z</time>
      </trkpt>
      <trkpt lat="45.85884" lon="4.81706">
        <ele>380</ele>
        <time>2011-12-11T10:22:11Z</time>
      </trkpt>
      <trkpt lat="45.85884" lon="4.81707">
        <ele>380</ele>
        <time>2011-12-11T10:22:12Z</time>
      </trkpt>
      <trkpt lat="45.85886" lon="4.81711">
        <ele>380</ele>
        <time>2011-12-11T10:22:15Z</time>
      </trkpt>
      <trkpt lat="45.85886" lon="4.81722">
        <ele>381</ele>
        <time>2011-12-11T10:22:20Z</time>
      </trkpt>
      <trkpt lat="45.85889" lon="4.81729">
        <ele>382</ele>
        <time>2011-12-11T10:22:24Z</time>
      </trkpt>
      <trkpt lat="45.85888" lon="4.81733">
        <ele>382</ele>
        <time>2011-12-11T10:22:26Z</time>
      </trkpt>
      <trkpt lat="45.85886" lon="4.81737">
        <ele>382</ele>
        <time>2011-12-11T10:22:28Z</time>
      </trkpt>
      <trkpt lat="45.85883" lon="4.81744">
        <ele>383</ele>
        <time>2011-12-11T10:22:32Z</time>
      </trkpt>
      <trkpt lat="45.85884" lon="4.81748">
        <ele>383</ele>
        <time>2011-12-11T10:22:36Z</time>
      </trkpt>
      <trkpt lat="45.85883" lon="4.81747">
        <ele>383</ele>
        <time>2011-12-11T10:22:38Z</time>
      </trkpt>
      <trkpt lat="45.85878" lon="4.81752">
        <ele>391</ele>
        <time>2011-12-11T10:23:10Z</time>
      </trkpt>
      <trkpt lat="45.85878" lon="4.81756">
        <ele>391</ele>
        <time>2011-12-11T10:23:27Z</time>
      </trkpt>
      <trkpt lat="45.85881" lon="4.81758">
        <ele>390</ele>
        <time>2011-12-11T10:23:31Z</time>
      </trkpt>
      <trkpt lat="45.85881" lon="4.81752">
        <ele>390</ele>
        <time>2011-12-11T10:24:08Z</time>
      </trkpt>
      <trkpt lat="45.85884" lon="4.81756">
        <ele>390</ele>
        <time>2011-12-11T10:24:13Z</time>
      </trkpt>
      <trkpt lat="45.85886" lon="4.81757">
        <ele>390</ele>
        <time>2011-12-11T10:24:15Z</time>
      </trkpt>
      <trkpt lat="45.85891" lon="4.81761">
        <ele>389</ele>
        <time>2011-12-11T10:24:18Z</time>
      </trkpt>
      <trkpt lat="45.85897" lon="4.81765">
        <ele>389</ele>
        <time>2011-12-11T10:24:20Z</time>
      </trkpt>
      <trkpt lat="45.85897" lon="4.81765">
        <ele>389</ele>
        <time>2011-12-11T10:24:21Z</time>
      </trkpt>
      <trkpt lat="45.85908" lon="4.8177">
        <ele>388</ele>
        <time>2011-12-11T10:24:25Z</time>
      </trkpt>
      <trkpt lat="45.85917" lon="4.81777">
        <ele>389</ele>
        <time>2011-12-11T10:24:30Z</time>
      </trkpt>
      <trkpt lat="45.85926" lon="4.81788">
        <ele>379</ele>
        <time>2011-12-11T10:24:36Z</time>
      </trkpt>
      <trkpt lat="45.85933" lon="4.81794">
        <ele>379</ele>
        <time>2011-12-11T10:24:40Z</time>
      </trkpt>
      <trkpt lat="45.85936" lon="4.81797">
        <ele>379</ele>
        <time>2011-12-11T10:24:42Z</time>
      </trkpt>
      <trkpt lat="45.85944" lon="4.81804">
        <ele>379</ele>
        <time>2011-12-11T10:24:47Z</time>
      </trkpt>
      <trkpt lat="45.85945" lon="4.81806">
        <ele>378</ele>
        <time>2011-12-11T10:24:48Z</time>
      </trkpt>
      <trkpt lat="45.85949" lon="4.81809">
        <ele>378</ele>
        <time>2011-12-11T10:24:50Z</time>
      </trkpt>
      <trkpt lat="45.85954" lon="4.81813">
        <ele>378</ele>
        <time>2011-12-11T10:24:52Z</time>
      </trkpt>
      <trkpt lat="45.85965" lon="4.81821">
        <ele>376</ele>
        <time>2011-12-11T10:24:58Z</time>
      </trkpt>
      <trkpt lat="45.85967" lon="4.81822">
        <ele>376</ele>
        <time>2011-12-11T10:24:59Z</time>
      </trkpt>
      <trkpt lat="45.85973" lon="4.81829">
        <ele>375</ele>
        <time>2011-12-11T10:25:04Z</time>
      </trkpt>
      <trkpt lat="45.85984" lon="4.81838">
        <ele>375</ele>
        <time>2011-12-11T10:25:10Z</time>
      </trkpt>
      <trkpt lat="45.85996" lon="4.81847">
        <ele>374</ele>
        <time>2011-12-11T10:25:16Z</time>
      </trkpt>
      <trkpt lat="45.86002" lon="4.8185">
        <ele>367</ele>
        <time>2011-12-11T10:25:19Z</time>
      </trkpt>
      <trkpt lat="45.86009" lon="4.81856">
        <ele>366</ele>
        <time>2011-12-11T10:25:22Z</time>
      </trkpt>
      <trkpt lat="45.8602" lon="4.81861">
        <ele>366</ele>
        <time>2011-12-11T10:25:27Z</time>
      </trkpt>
      <trkpt lat="45.86022" lon="4.81863">
        <ele>366</ele>
        <time>2011-12-11T10:25:28Z</time>
      </trkpt>
      <trkpt lat="45.86039" lon="4.81872">
        <ele>365</ele>
        <time>2011-12-11T10:25:35Z</time>
      </trkpt>
      <trkpt lat="45.86053" lon="4.81878">
        <ele>364</ele>
        <time>2011-12-11T10:25:41Z</time>
      </trkpt>
      <trkpt lat="45.86057" lon="4.8188">
        <ele>363</ele>
        <time>2011-12-11T10:25:43Z</time>
      </trkpt>
      <trkpt lat="45.86066" lon="4.81884">
        <ele>363</ele>
        <time>2011-12-11T10:25:47Z</time>
      </trkpt>
      <trkpt lat="45.86075" lon="4.81889">
        <ele>362</ele>
        <time>2011-12-11T10:25:51Z</time>
      </trkpt>
      <trkpt lat="45.86079" lon="4.81891">
        <ele>362</ele>
        <time>2011-12-11T10:25:53Z</time>
      </trkpt>
      <trkpt lat="45.86093" lon="4.819">
        <ele>353</ele>
        <time>2011-12-11T10:25:59Z</time>
      </trkpt>
      <trkpt lat="45.86095" lon="4.81902">
        <ele>353</ele>
        <time>2011-12-11T10:26:00Z</time>
      </trkpt>
      <trkpt lat="45.86107" lon="4.81909">
        <ele>351</ele>
        <time>2011-12-11T10:26:06Z</time>
      </trkpt>
      <trkpt lat="45.86111" lon="4.81912">
        <ele>350</ele>
        <time>2011-12-11T10:26:08Z</time>
      </trkpt>
      <trkpt lat="45.86121" lon="4.81917">
        <ele>353</ele>
        <time>2011-12-11T10:26:12Z</time>
      </trkpt>
      <trkpt lat="45.86129" lon="4.81924">
        <ele>351</ele>
        <time>2011-12-11T10:26:17Z</time>
      </trkpt>
      <trkpt lat="45.86139" lon="4.81932">
        <ele>349</ele>
        <time>2011-12-11T10:26:23Z</time>
      </trkpt>
      <trkpt lat="45.86145" lon="4.81939">
        <ele>349</ele>
        <time>2011-12-11T10:26:27Z</time>
      </trkpt>
      <trkpt lat="45.86148" lon="4.81942">
        <ele>349</ele>
        <time>2011-12-11T10:26:29Z</time>
      </trkpt>
      <trkpt lat="45.86155" lon="4.81955">
        <ele>349</ele>
        <time>2011-12-11T10:26:35Z</time>
      </trkpt>
      <trkpt lat="45.86158" lon="4.81961">
        <ele>349</ele>
        <time>2011-12-11T10:26:37Z</time>
      </trkpt>
      <trkpt lat="45.8616" lon="4.81968">
        <ele>349</ele>
        <time>2011-12-11T10:26:40Z</time>
      </trkpt>
      <trkpt lat="45.86165" lon="4.81985">
        <ele>348</ele>
        <time>2011-12-11T10:26:46Z</time>
      </trkpt>
      <trkpt lat="45.86171" lon="4.81999">
        <ele>342</ele>
        <time>2011-12-11T10:26:51Z</time>
      </trkpt>
      <trkpt lat="45.86175" lon="4.82008">
        <ele>342</ele>
        <time>2011-12-11T10:26:54Z</time>
      </trkpt>
      <trkpt lat="45.86181" lon="4.82017">
        <ele>341</ele>
        <time>2011-12-11T10:26:58Z</time>
      </trkpt>
      <trkpt lat="45.8619" lon="4.82024">
        <ele>340</ele>
        <time>2011-12-11T10:27:02Z</time>
      </trkpt>
      <trkpt lat="45.86196" lon="4.82028">
        <ele>339</ele>
        <time>2011-12-11T10:27:05Z</time>
      </trkpt>
      <trkpt lat="45.86207" lon="4.82035">
        <ele>338</ele>
        <time>2011-12-11T10:27:11Z</time>
      </trkpt>
      <trkpt lat="45.8621" lon="4.82036">
        <ele>338</ele>
        <time>2011-12-11T10:27:12Z</time>
      </trkpt>
      <trkpt lat="45.86223" lon="4.82044">
        <ele>337</ele>
        <time>2011-12-11T10:27:18Z</time>
      </trkpt>
      <trkpt lat="45.86225" lon="4.82045">
        <ele>337</ele>
        <time>2011-12-11T10:27:19Z</time>
      </trkpt>
      <trkpt lat="45.86233" lon="4.8205">
        <ele>337</ele>
        <time>2011-12-11T10:27:23Z</time>
      </trkpt>
      <trkpt lat="45.86243" lon="4.82056">
        <ele>337</ele>
        <time>2011-12-11T10:27:28Z</time>
      </trkpt>
      <trkpt lat="45.86245" lon="4.82058">
        <ele>337</ele>
        <time>2011-12-11T10:27:29Z</time>
      </trkpt>
      <trkpt lat="45.86255" lon="4.82065">
        <ele>328</ele>
        <time>2011-12-11T10:27:34Z</time>
      </trkpt>
      <trkpt lat="45.86259" lon="4.82068">
        <ele>328</ele>
        <time>2011-12-11T10:27:36Z</time>
      </trkpt>
      <trkpt lat="45.86265" lon="4.82072">
        <ele>328</ele>
        <time>2011-12-11T10:27:39Z</time>
      </trkpt>
      <trkpt lat="45.86276" lon="4.8208">
        <ele>326</ele>
        <time>2011-12-11T10:27:44Z</time>
      </trkpt>
      <trkpt lat="45.8628" lon="4.82083">
        <ele>325</ele>
        <time>2011-12-11T10:27:46Z</time>
      </trkpt>
      <trkpt lat="45.86292" lon="4.82092">
        <ele>329</ele>
        <time>2011-12-11T10:27:52Z</time>
      </trkpt>
      <trkpt lat="45.86303" lon="4.821">
        <ele>327</ele>
        <time>2011-12-11T10:27:57Z</time>
      </trkpt>
      <trkpt lat="45.86309" lon="4.82104">
        <ele>327</ele>
        <time>2011-12-11T10:27:59Z</time>
      </trkpt>
      <trkpt lat="45.86315" lon="4.82111">
        <ele>327</ele>
        <time>2011-12-11T10:28:02Z</time>
      </trkpt>
      <trkpt lat="45.86324" lon="4.82123">
        <ele>327</ele>
        <time>2011-12-11T10:28:07Z</time>
      </trkpt>
      <trkpt lat="45.86329" lon="4.82137">
        <ele>327</ele>
        <time>2011-12-11T10:28:13Z</time>
      </trkpt>
      <trkpt lat="45.86332" lon="4.82142">
        <ele>327</ele>
        <time>2011-12-11T10:28:17Z</time>
      </trkpt>
      <trkpt lat="45.86335" lon="4.82148">
        <ele>318</ele>
        <time>2011-12-11T10:28:19Z</time>
      </trkpt>
      <trkpt lat="45.86336" lon="4.8215">
        <ele>318</ele>
        <time>2011-12-11T10:28:20Z</time>
      </trkpt>
      <trkpt lat="45.86338" lon="4.82159">
        <ele>320</ele>
        <time>2011-12-11T10:28:24Z</time>
      </trkpt>
      <trkpt lat="45.86338" lon="4.8216">
        <ele>320</ele>
        <time>2011-12-11T10:28:25Z</time>
      </trkpt>
      <trkpt lat="45.86337" lon="4.82161">
        <ele>321</ele>
        <time>2011-12-11T10:28:26Z</time>
      </trkpt>
      <trkpt lat="45.86337" lon="4.82162">
        <ele>321</ele>
        <time>2011-12-11T10:28:28Z</time>
      </trkpt>
      <trkpt lat="45.86337" lon="4.8216">
        <ele>321</ele>
        <time>2011-12-11T10:28:33Z</time>
      </trkpt>
      <trkpt lat="45.86334" lon="4.82157">
        <ele>320</ele>
        <time>2011-12-11T10:28:36Z</time>
      </trkpt>
      <trkpt lat="45.8633" lon="4.82156">
        <ele>326</ele>
        <time>2011-12-11T10:28:39Z</time>
      </trkpt>
      <trkpt lat="45.86326" lon="4.82159">
        <ele>326</ele>
        <time>2011-12-11T10:28:43Z</time>
      </trkpt>
      <trkpt lat="45.86322" lon="4.82161">
        <ele>327</ele>
        <time>2011-12-11T10:28:47Z</time>
      </trkpt>
      <trkpt lat="45.86317" lon="4.82164">
        <ele>327</ele>
        <time>2011-12-11T10:28:54Z</time>
      </trkpt>
      <trkpt lat="45.86313" lon="4.82164">
        <ele>328</ele>
        <time>2011-12-11T10:28:59Z</time>
      </trkpt>
      <trkpt lat="45.86313" lon="4.82164">
        <ele>328</ele>
        <time>2011-12-11T10:29:00Z</time>
      </trkpt>
      <trkpt lat="45.86305" lon="4.82168">
        <ele>331</ele>
        <time>2011-12-11T10:29:06Z</time>
      </trkpt>
      <trkpt lat="45.86301" lon="4.82167">
        <ele>331</ele>
        <time>2011-12-11T10:29:12Z</time>
      </trkpt>
      <trkpt lat="45.86297" lon="4.8216">
        <ele>330</ele>
        <time>2011-12-11T10:29:21Z</time>
      </trkpt>
      <trkpt lat="45.86297" lon="4.82158">
        <ele>330</ele>
        <time>2011-12-11T10:29:24Z</time>
      </trkpt>
      <trkpt lat="45.86295" lon="4.82153">
        <ele>330</ele>
        <time>2011-12-11T10:29:28Z</time>
      </trkpt>
      <trkpt lat="45.86292" lon="4.82147">
        <ele>331</ele>
        <time>2011-12-11T10:29:34Z</time>
      </trkpt>
      <trkpt lat="45.8629" lon="4.82145">
        <ele>331</ele>
        <time>2011-12-11T10:29:36Z</time>
      </trkpt>
      <trkpt lat="45.86285" lon="4.82144">
        <ele>332</ele>
        <time>2011-12-11T10:29:41Z</time>
      </trkpt>
      <trkpt lat="45.86284" lon="4.82143">
        <ele>332</ele>
        <time>2011-12-11T10:29:42Z</time>
      </trkpt>
      <trkpt lat="45.86282" lon="4.82143">
        <ele>332</ele>
        <time>2011-12-11T10:29:44Z</time>
      </trkpt>
      <trkpt lat="45.86279" lon="4.82142">
        <ele>332</ele>
        <time>2011-12-11T10:29:47Z</time>
      </trkpt>
      <trkpt lat="45.86271" lon="4.82143">
        <ele>333</ele>
        <time>2011-12-11T10:29:54Z</time>
      </trkpt>
      <trkpt lat="45.86268" lon="4.82143">
        <ele>334</ele>
        <time>2011-12-11T10:29:58Z</time>
      </trkpt>
      <trkpt lat="45.86266" lon="4.82143">
        <ele>334</ele>
        <time>2011-12-11T10:30:01Z</time>
      </trkpt>
      <trkpt lat="45.86265" lon="4.82143">
        <ele>334</ele>
        <time>2011-12-11T10:30:02Z</time>
      </trkpt>
      <trkpt lat="45.86261" lon="4.82142">
        <ele>334</ele>
        <time>2011-12-11T10:30:05Z</time>
      </trkpt>
      <trkpt lat="45.86259" lon="4.82141">
        <ele>334</ele>
        <time>2011-12-11T10:30:09Z</time>
      </trkpt>
      <trkpt lat="45.86254" lon="4.82139">
        <ele>334</ele>
        <time>2011-12-11T10:30:16Z</time>
      </trkpt>
      <trkpt lat="45.86248" lon="4.82138">
        <ele>344</ele>
        <time>2011-12-11T10:30:22Z</time>
      </trkpt>
      <trkpt lat="45.86246" lon="4.82137">
        <ele>344</ele>
        <time>2011-12-11T10:30:24Z</time>
      </trkpt>
      <trkpt lat="45.86239" lon="4.82133">
        <ele>345</ele>
        <time>2011-12-11T10:30:31Z</time>
      </trkpt>
      <trkpt lat="45.86231" lon="4.8213">
        <ele>345</ele>
        <time>2011-12-11T10:30:40Z</time>
      </trkpt>
      <trkpt lat="45.8623" lon="4.8213">
        <ele>345</ele>
        <time>2011-12-11T10:30:41Z</time>
      </trkpt>
      <trkpt lat="45.8623" lon="4.82134">
        <ele>345</ele>
        <time>2011-12-11T10:30:45Z</time>
      </trkpt>
      <trkpt lat="45.86232" lon="4.82139">
        <ele>345</ele>
        <time>2011-12-11T10:30:49Z</time>
      </trkpt>
      <trkpt lat="45.86234" lon="4.8214">
        <ele>345</ele>
        <time>2011-12-11T10:30:52Z</time>
      </trkpt>
      <trkpt lat="45.86234" lon="4.82143">
        <ele>345</ele>
        <time>2011-12-11T10:30:54Z</time>
      </trkpt>
      <trkpt lat="45.86234" lon="4.82147">
        <ele>345</ele>
        <time>2011-12-11T10:30:58Z</time>
      </trkpt>
      <trkpt lat="45.86234" lon="4.82155">
        <ele>345</ele>
        <time>2011-12-11T10:31:03Z</time>
      </trkpt>
      <trkpt lat="45.86234" lon="4.8216">
        <ele>345</ele>
        <time>2011-12-11T10:31:05Z</time>
      </trkpt>
      <trkpt lat="45.86234" lon="4.82172">
        <ele>346</ele>
        <time>2011-12-11T10:31:09Z</time>
      </trkpt>
      <trkpt lat="45.86233" lon="4.82174">
        <ele>346</ele>
        <time>2011-12-11T10:31:10Z</time>
      </trkpt>
      <trkpt lat="45.86232" lon="4.82182">
        <ele>347</ele>
        <time>2011-12-11T10:31:13Z</time>
      </trkpt>
      <trkpt lat="45.86231" lon="4.82193">
        <ele>348</ele>
        <time>2011-12-11T10:31:17Z</time>
      </trkpt>
      <trkpt lat="45.86226" lon="4.82205">
        <ele>348</ele>
        <time>2011-12-11T10:31:22Z</time>
      </trkpt>
      <trkpt lat="45.86225" lon="4.82207">
        <ele>348</ele>
        <time>2011-12-11T10:31:23Z</time>
      </trkpt>
      <trkpt lat="45.86218" lon="4.82221">
        <ele>349</ele>
        <time>2011-12-11T10:31:29Z</time>
      </trkpt>
      <trkpt lat="45.86213" lon="4.82229">
        <ele>349</ele>
        <time>2011-12-11T10:31:33Z</time>
      </trkpt>
      <trkpt lat="45.86209" lon="4.82234">
        <ele>350</ele>
        <time>2011-12-11T10:31:36Z</time>
      </trkpt>
      <trkpt lat="45.86201" lon="4.82244">
        <ele>351</ele>
        <time>2011-12-11T10:31:42Z</time>
      </trkpt>
      <trkpt lat="45.862" lon="4.82247">
        <ele>351</ele>
        <time>2011-12-11T10:31:43Z</time>
      </trkpt>
      <trkpt lat="45.86195" lon="4.82265">
        <ele>351</ele>
        <time>2011-12-11T10:31:50Z</time>
      </trkpt>
      <trkpt lat="45.86193" lon="4.82273">
        <ele>351</ele>
        <time>2011-12-11T10:31:53Z</time>
      </trkpt>
      <trkpt lat="45.86193" lon="4.82283">
        <ele>351</ele>
        <time>2011-12-11T10:31:56Z</time>
      </trkpt>
      <trkpt lat="45.86193" lon="4.82301">
        <ele>351</ele>
        <time>2011-12-11T10:32:02Z</time>
      </trkpt>
      <trkpt lat="45.86194" lon="4.82322">
        <ele>352</ele>
        <time>2011-12-11T10:32:09Z</time>
      </trkpt>
      <trkpt lat="45.86194" lon="4.82328">
        <ele>352</ele>
        <time>2011-12-11T10:32:11Z</time>
      </trkpt>
      <trkpt lat="45.86195" lon="4.8234">
        <ele>352</ele>
        <time>2011-12-11T10:32:15Z</time>
      </trkpt>
      <trkpt lat="45.862" lon="4.82354">
        <ele>351</ele>
        <time>2011-12-11T10:32:21Z</time>
      </trkpt>
      <trkpt lat="45.86202" lon="4.82367">
        <ele>351</ele>
        <time>2011-12-11T10:32:27Z</time>
      </trkpt>
      <trkpt lat="45.86203" lon="4.82375">
        <ele>350</ele>
        <time>2011-12-11T10:32:32Z</time>
      </trkpt>
      <trkpt lat="45.86203" lon="4.82377">
        <ele>350</ele>
        <time>2011-12-11T10:32:33Z</time>
      </trkpt>
      <trkpt lat="45.86205" lon="4.8238">
        <ele>350</ele>
        <time>2011-12-11T10:32:35Z</time>
      </trkpt>
      <trkpt lat="45.86206" lon="4.82385">
        <ele>350</ele>
        <time>2011-12-11T10:32:38Z</time>
      </trkpt>
      <trkpt lat="45.86208" lon="4.82391">
        <ele>350</ele>
        <time>2011-12-11T10:32:41Z</time>
      </trkpt>
      <trkpt lat="45.86209" lon="4.82397">
        <ele>350</ele>
        <time>2011-12-11T10:32:43Z</time>
      </trkpt>
      <trkpt lat="45.86211" lon="4.82406">
        <ele>350</ele>
        <time>2011-12-11T10:32:47Z</time>
      </trkpt>
      <trkpt lat="45.86212" lon="4.82409">
        <ele>350</ele>
        <time>2011-12-11T10:32:48Z</time>
      </trkpt>
      <trkpt lat="45.86213" lon="4.82418">
        <ele>347</ele>
        <time>2011-12-11T10:32:52Z</time>
      </trkpt>
      <trkpt lat="45.86213" lon="4.82418">
        <ele>347</ele>
        <time>2011-12-11T10:32:53Z</time>
      </trkpt>
      <trkpt lat="45.86214" lon="4.8242">
        <ele>347</ele>
        <time>2011-12-11T10:32:58Z</time>
      </trkpt>
      <trkpt lat="45.86216" lon="4.82426">
        <ele>347</ele>
        <time>2011-12-11T10:33:14Z</time>
      </trkpt>
      <trkpt lat="45.86218" lon="4.82429">
        <ele>347</ele>
        <time>2011-12-11T10:33:18Z</time>
      </trkpt>
      <trkpt lat="45.86221" lon="4.82429">
        <ele>346</ele>
        <time>2011-12-11T10:33:20Z</time>
      </trkpt>
      <trkpt lat="45.86223" lon="4.82428">
        <ele>346</ele>
        <time>2011-12-11T10:33:22Z</time>
      </trkpt>
      <trkpt lat="45.86227" lon="4.82428">
        <ele>346</ele>
        <time>2011-12-11T10:33:25Z</time>
      </trkpt>
      <trkpt lat="45.86237" lon="4.82423">
        <ele>345</ele>
        <time>2011-12-11T10:33:32Z</time>
      </trkpt>
      <trkpt lat="45.86239" lon="4.82423">
        <ele>345</ele>
        <time>2011-12-11T10:33:33Z</time>
      </trkpt>
      <trkpt lat="45.86249" lon="4.82419">
        <ele>344</ele>
        <time>2011-12-11T10:33:37Z</time>
      </trkpt>
      <trkpt lat="45.86257" lon="4.82415">
        <ele>342</ele>
        <time>2011-12-11T10:33:40Z</time>
      </trkpt>
      <trkpt lat="45.8626" lon="4.82413">
        <ele>342</ele>
        <time>2011-12-11T10:33:41Z</time>
      </trkpt>
      <trkpt lat="45.86273" lon="4.82405">
        <ele>339</ele>
        <time>2011-12-11T10:33:46Z</time>
      </trkpt>
      <trkpt lat="45.86275" lon="4.82403">
        <ele>339</ele>
        <time>2011-12-11T10:33:47Z</time>
      </trkpt>
      <trkpt lat="45.86282" lon="4.82395">
        <ele>338</ele>
        <time>2011-12-11T10:33:51Z</time>
      </trkpt>
      <trkpt lat="45.8629" lon="4.82386">
        <ele>337</ele>
        <time>2011-12-11T10:33:56Z</time>
      </trkpt>
      <trkpt lat="45.86292" lon="4.82384">
        <ele>337</ele>
        <time>2011-12-11T10:33:57Z</time>
      </trkpt>
      <trkpt lat="45.86301" lon="4.82383">
        <ele>336</ele>
        <time>2011-12-11T10:34:03Z</time>
      </trkpt>
      <trkpt lat="45.86306" lon="4.82389">
        <ele>335</ele>
        <time>2011-12-11T10:34:07Z</time>
      </trkpt>
      <trkpt lat="45.86307" lon="4.82394">
        <ele>335</ele>
        <time>2011-12-11T10:34:09Z</time>
      </trkpt>
      <trkpt lat="45.86305" lon="4.8241">
        <ele>335</ele>
        <time>2011-12-11T10:34:15Z</time>
      </trkpt>
      <trkpt lat="45.86304" lon="4.82416">
        <ele>335</ele>
        <time>2011-12-11T10:34:17Z</time>
      </trkpt>
      <trkpt lat="45.86303" lon="4.82426">
        <ele>333</ele>
        <time>2011-12-11T10:34:21Z</time>
      </trkpt>
      <trkpt lat="45.863" lon="4.82439">
        <ele>333</ele>
        <time>2011-12-11T10:34:26Z</time>
      </trkpt>
      <trkpt lat="45.863" lon="4.82441">
        <ele>333</ele>
        <time>2011-12-11T10:34:27Z</time>
      </trkpt>
      <trkpt lat="45.86296" lon="4.82452">
        <ele>333</ele>
        <time>2011-12-11T10:34:31Z</time>
      </trkpt>
      <trkpt lat="45.86292" lon="4.82466">
        <ele>333</ele>
        <time>2011-12-11T10:34:37Z</time>
      </trkpt>
      <trkpt lat="45.86284" lon="4.82481">
        <ele>333</ele>
        <time>2011-12-11T10:34:44Z</time>
      </trkpt>
      <trkpt lat="45.8628" lon="4.82487">
        <ele>334</ele>
        <time>2011-12-11T10:34:47Z</time>
      </trkpt>
      <trkpt lat="45.86276" lon="4.82495">
        <ele>334</ele>
        <time>2011-12-11T10:34:50Z</time>
      </trkpt>
      <trkpt lat="45.86269" lon="4.82508">
        <ele>327</ele>
        <time>2011-12-11T10:34:56Z</time>
      </trkpt>
      <trkpt lat="45.86261" lon="4.82522">
        <ele>326</ele>
        <time>2011-12-11T10:35:02Z</time>
      </trkpt>
      <trkpt lat="45.86258" lon="4.82529">
        <ele>325</ele>
        <time>2011-12-11T10:35:05Z</time>
      </trkpt>
      <trkpt lat="45.86253" lon="4.82535">
        <ele>323</ele>
        <time>2011-12-11T10:35:08Z</time>
      </trkpt>
      <trkpt lat="45.86244" lon="4.82547">
        <ele>329</ele>
        <time>2011-12-11T10:35:13Z</time>
      </trkpt>
      <trkpt lat="45.86239" lon="4.82553">
        <ele>328</ele>
        <time>2011-12-11T10:35:16Z</time>
      </trkpt>
      <trkpt lat="45.86228" lon="4.82561">
        <ele>328</ele>
        <time>2011-12-11T10:35:21Z</time>
      </trkpt>
      <trkpt lat="45.86217" lon="4.82573">
        <ele>328</ele>
        <time>2011-12-11T10:35:27Z</time>
      </trkpt>
      <trkpt lat="45.86212" lon="4.82577">
        <ele>328</ele>
        <time>2011-12-11T10:35:29Z</time>
      </trkpt>
      <trkpt lat="45.86207" lon="4.82583">
        <ele>328</ele>
        <time>2011-12-11T10:35:32Z</time>
      </trkpt>
      <trkpt lat="45.86197" lon="4.82593">
        <ele>314</ele>
        <time>2011-12-11T10:35:37Z</time>
      </trkpt>
      <trkpt lat="45.86195" lon="4.82595">
        <ele>314</ele>
        <time>2011-12-11T10:35:38Z</time>
      </trkpt>
      <trkpt lat="45.86183" lon="4.8261">
        <ele>313</ele>
        <time>2011-12-11T10:35:44Z</time>
      </trkpt>
      <trkpt lat="45.86181" lon="4.82612">
        <ele>313</ele>
        <time>2011-12-11T10:35:45Z</time>
      </trkpt>
      <trkpt lat="45.86171" lon="4.82621">
        <ele>311</ele>
        <time>2011-12-11T10:35:50Z</time>
      </trkpt>
      <trkpt lat="45.86167" lon="4.82624">
        <ele>311</ele>
        <time>2011-12-11T10:35:52Z</time>
      </trkpt>
      <trkpt lat="45.86157" lon="4.82631">
        <ele>315</ele>
        <time>2011-12-11T10:35:57Z</time>
      </trkpt>
      <trkpt lat="45.86149" lon="4.82636">
        <ele>314</ele>
        <time>2011-12-11T10:36:01Z</time>
      </trkpt>
      <trkpt lat="45.86142" lon="4.82641">
        <ele>314</ele>
        <time>2011-12-11T10:36:04Z</time>
      </trkpt>
      <trkpt lat="45.86133" lon="4.82649">
        <ele>313</ele>
        <time>2011-12-11T10:36:09Z</time>
      </trkpt>
      <trkpt lat="45.86128" lon="4.82652">
        <ele>313</ele>
        <time>2011-12-11T10:36:11Z</time>
      </trkpt>
      <trkpt lat="45.86116" lon="4.82659">
        <ele>313</ele>
        <time>2011-12-11T10:36:17Z</time>
      </trkpt>
      <trkpt lat="45.86103" lon="4.82668">
        <ele>300</ele>
        <time>2011-12-11T10:36:23Z</time>
      </trkpt>
      <trkpt lat="45.86099" lon="4.82671">
        <ele>300</ele>
        <time>2011-12-11T10:36:25Z</time>
      </trkpt>
      <trkpt lat="45.86089" lon="4.82678">
        <ele>301</ele>
        <time>2011-12-11T10:36:30Z</time>
      </trkpt>
      <trkpt lat="45.86083" lon="4.82683">
        <ele>304</ele>
        <time>2011-12-11T10:36:33Z</time>
      </trkpt>
      <trkpt lat="45.86075" lon="4.8269">
        <ele>302</ele>
        <time>2011-12-11T10:36:37Z</time>
      </trkpt>
      <trkpt lat="45.86067" lon="4.82697">
        <ele>301</ele>
        <time>2011-12-11T10:36:41Z</time>
      </trkpt>
      <trkpt lat="45.86061" lon="4.82702">
        <ele>301</ele>
        <time>2011-12-11T10:36:44Z</time>
      </trkpt>
      <trkpt lat="45.8605" lon="4.82709">
        <ele>300</ele>
        <time>2011-12-11T10:36:50Z</time>
      </trkpt>
      <trkpt lat="45.8604" lon="4.82715">
        <ele>299</ele>
        <time>2011-12-11T10:36:55Z</time>
      </trkpt>
      <trkpt lat="45.86036" lon="4.82719">
        <ele>299</ele>
        <time>2011-12-11T10:36:57Z</time>
      </trkpt>
      <trkpt lat="45.86035" lon="4.82722">
        <ele>298</ele>
        <time>2011-12-11T10:36:59Z</time>
      </trkpt>
      <trkpt lat="45.86033" lon="4.82721">
        <ele>299</ele>
        <time>2011-12-11T10:37:00Z</time>
      </trkpt>
      <trkpt lat="45.86029" lon="4.82719">
        <ele>299</ele>
        <time>2011-12-11T10:37:02Z</time>
      </trkpt>
      <trkpt lat="45.8602" lon="4.82721">
        <ele>299</ele>
        <time>2011-12-11T10:37:06Z</time>
      </trkpt>
      <trkpt lat="45.86015" lon="4.82723">
        <ele>298</ele>
        <time>2011-12-11T10:37:08Z</time>
      </trkpt>
      <trkpt lat="45.86004" lon="4.82723">
        <ele>298</ele>
        <time>2011-12-11T10:37:13Z</time>
      </trkpt>
      <trkpt lat="45.85996" lon="4.82723">
        <ele>301</ele>
        <time>2011-12-11T10:37:16Z</time>
      </trkpt>
      <trkpt lat="45.85991" lon="4.82722">
        <ele>301</ele>
        <time>2011-12-11T10:37:18Z</time>
      </trkpt>
      <trkpt lat="45.8598" lon="4.8272">
        <ele>302</ele>
        <time>2011-12-11T10:37:23Z</time>
      </trkpt>
      <trkpt lat="45.85978" lon="4.8272">
        <ele>302</ele>
        <time>2011-12-11T10:37:24Z</time>
      </trkpt>
      <trkpt lat="45.85976" lon="4.82719">
        <ele>303</ele>
        <time>2011-12-11T10:37:25Z</time>
      </trkpt>
      <trkpt lat="45.85969" lon="4.82719">
        <ele>303</ele>
        <time>2011-12-11T10:37:28Z</time>
      </trkpt>
      <trkpt lat="45.85958" lon="4.82718">
        <ele>303</ele>
        <time>2011-12-11T10:37:33Z</time>
      </trkpt>
      <trkpt lat="45.85956" lon="4.82717">
        <ele>304</ele>
        <time>2011-12-11T10:37:34Z</time>
      </trkpt>
      <trkpt lat="45.85948" lon="4.82716">
        <ele>304</ele>
        <time>2011-12-11T10:37:38Z</time>
      </trkpt>
      <trkpt lat="45.85938" lon="4.82714">
        <ele>304</ele>
        <time>2011-12-11T10:37:43Z</time>
      </trkpt>
      <trkpt lat="45.85929" lon="4.82712">
        <ele>305</ele>
        <time>2011-12-11T10:37:47Z</time>
      </trkpt>
      <trkpt lat="45.85919" lon="4.82708">
        <ele>305</ele>
        <time>2011-12-11T10:37:52Z</time>
      </trkpt>
      <trkpt lat="45.85917" lon="4.82707">
        <ele>306</ele>
        <time>2011-12-11T10:37:53Z</time>
      </trkpt>
      <trkpt lat="45.85908" lon="4.82704">
        <ele>303</ele>
        <time>2011-12-11T10:37:58Z</time>
      </trkpt>
      <trkpt lat="45.85905" lon="4.82705">
        <ele>303</ele>
        <time>2011-12-11T10:37:59Z</time>
      </trkpt>
      <trkpt lat="45.85901" lon="4.82704">
        <ele>303</ele>
        <time>2011-12-11T10:38:01Z</time>
      </trkpt>
      <trkpt lat="45.85899" lon="4.82703">
        <ele>303</ele>
        <time>2011-12-11T10:38:02Z</time>
      </trkpt>
      <trkpt lat="45.85888" lon="4.82702">
        <ele>302</ele>
        <time>2011-12-11T10:38:07Z</time>
      </trkpt>
      <trkpt lat="45.85884" lon="4.827">
        <ele>302</ele>
        <time>2011-12-11T10:38:09Z</time>
      </trkpt>
      <trkpt lat="45.8588" lon="4.82697">
        <ele>302</ele>
        <time>2011-12-11T10:38:11Z</time>
      </trkpt>
      <trkpt lat="45.85878" lon="4.82696">
        <ele>302</ele>
        <time>2011-12-11T10:38:12Z</time>
      </trkpt>
      <trkpt lat="45.85868" lon="4.82687">
        <ele>302</ele>
        <time>2011-12-11T10:38:17Z</time>
      </trkpt>
      <trkpt lat="45.85867" lon="4.82685">
        <ele>302</ele>
        <time>2011-12-11T10:38:18Z</time>
      </trkpt>
      <trkpt lat="45.85859" lon="4.82676">
        <ele>303</ele>
        <time>2011-12-11T10:38:23Z</time>
      </trkpt>
      <trkpt lat="45.85852" lon="4.82667">
        <ele>303</ele>
        <time>2011-12-11T10:38:27Z</time>
      </trkpt>
      <trkpt lat="45.8585" lon="4.82664">
        <ele>311</ele>
        <time>2011-12-11T10:38:28Z</time>
      </trkpt>
      <trkpt lat="45.85843" lon="4.82653">
        <ele>311</ele>
        <time>2011-12-11T10:38:33Z</time>
      </trkpt>
      <trkpt lat="45.85839" lon="4.82644">
        <ele>312</ele>
        <time>2011-12-11T10:38:36Z</time>
      </trkpt>
      <trkpt lat="45.85836" lon="4.82636">
        <ele>314</ele>
        <time>2011-12-11T10:38:39Z</time>
      </trkpt>
      <trkpt lat="45.85831" lon="4.82621">
        <ele>305</ele>
        <time>2011-12-11T10:38:44Z</time>
      </trkpt>
      <trkpt lat="45.85827" lon="4.82607">
        <ele>307</ele>
        <time>2011-12-11T10:38:51Z</time>
      </trkpt>
      <trkpt lat="45.85826" lon="4.82605">
        <ele>307</ele>
        <time>2011-12-11T10:38:53Z</time>
      </trkpt>
      <trkpt lat="45.85824" lon="4.82602">
        <ele>308</ele>
        <time>2011-12-11T10:38:56Z</time>
      </trkpt>
      <trkpt lat="45.85824" lon="4.82601">
        <ele>308</ele>
        <time>2011-12-11T10:39:09Z</time>
      </trkpt>
      <trkpt lat="45.85824" lon="4.82596">
        <ele>309</ele>
        <time>2011-12-11T10:39:12Z</time>
      </trkpt>
      <trkpt lat="45.85824" lon="4.82583">
        <ele>315</ele>
        <time>2011-12-11T10:39:19Z</time>
      </trkpt>
      <trkpt lat="45.85823" lon="4.82574">
        <ele>315</ele>
        <time>2011-12-11T10:39:24Z</time>
      </trkpt>
      <trkpt lat="45.85823" lon="4.82573">
        <ele>315</ele>
        <time>2011-12-11T10:39:25Z</time>
      </trkpt>
      <trkpt lat="45.85821" lon="4.82557">
        <ele>315</ele>
        <time>2011-12-11T10:39:32Z</time>
      </trkpt>
      <trkpt lat="45.8582" lon="4.82547">
        <ele>315</ele>
        <time>2011-12-11T10:39:35Z</time>
      </trkpt>
      <trkpt lat="45.85818" lon="4.82538">
        <ele>316</ele>
        <time>2011-12-11T10:39:38Z</time>
      </trkpt>
      <trkpt lat="45.85815" lon="4.82522">
        <ele>317</ele>
        <time>2011-12-11T10:39:43Z</time>
      </trkpt>
      <trkpt lat="45.85814" lon="4.82518">
        <ele>318</ele>
        <time>2011-12-11T10:39:44Z</time>
      </trkpt>
      <trkpt lat="45.85808" lon="4.82496">
        <ele>325</ele>
        <time>2011-12-11T10:39:51Z</time>
      </trkpt>
      <trkpt lat="45.85802" lon="4.82478">
        <ele>325</ele>
        <time>2011-12-11T10:39:56Z</time>
      </trkpt>
      <trkpt lat="45.858" lon="4.82471">
        <ele>326</ele>
        <time>2011-12-11T10:39:58Z</time>
      </trkpt>
      <trkpt lat="45.85795" lon="4.82461">
        <ele>326</ele>
        <time>2011-12-11T10:40:02Z</time>
      </trkpt>
      <trkpt lat="45.85788" lon="4.82451">
        <ele>327</ele>
        <time>2011-12-11T10:40:06Z</time>
      </trkpt>
      <trkpt lat="45.85786" lon="4.82449">
        <ele>327</ele>
        <time>2011-12-11T10:40:07Z</time>
      </trkpt>
      <trkpt lat="45.85773" lon="4.82437">
        <ele>326</ele>
        <time>2011-12-11T10:40:13Z</time>
      </trkpt>
      <trkpt lat="45.85763" lon="4.82434">
        <ele>326</ele>
        <time>2011-12-11T10:40:18Z</time>
      </trkpt>
      <trkpt lat="45.85757" lon="4.82435">
        <ele>326</ele>
        <time>2011-12-11T10:40:21Z</time>
      </trkpt>
      <trkpt lat="45.85755" lon="4.82437">
        <ele>326</ele>
        <time>2011-12-11T10:40:23Z</time>
      </trkpt>
      <trkpt lat="45.85754" lon="4.82437">
        <ele>326</ele>
        <time>2011-12-11T10:40:24Z</time>
      </trkpt>
      <trkpt lat="45.85754" lon="4.82436">
        <ele>326</ele>
        <time>2011-12-11T10:40:25Z</time>
      </trkpt>
      <trkpt lat="45.8575" lon="4.82437">
        <ele>326</ele>
        <time>2011-12-11T10:40:29Z</time>
      </trkpt>
      <trkpt lat="45.85744" lon="4.82442">
        <ele>328</ele>
        <time>2011-12-11T10:40:35Z</time>
      </trkpt>
      <trkpt lat="45.85738" lon="4.82449">
        <ele>329</ele>
        <time>2011-12-11T10:40:39Z</time>
      </trkpt>
      <trkpt lat="45.85737" lon="4.82451">
        <ele>329</ele>
        <time>2011-12-11T10:40:40Z</time>
      </trkpt>
      <trkpt lat="45.85735" lon="4.82452">
        <ele>329</ele>
        <time>2011-12-11T10:40:42Z</time>
      </trkpt>
      <trkpt lat="45.85735" lon="4.82454">
        <ele>329</ele>
        <time>2011-12-11T10:40:43Z</time>
      </trkpt>
      <trkpt lat="45.85729" lon="4.82461">
        <ele>329</ele>
        <time>2011-12-11T10:40:47Z</time>
      </trkpt>
      <trkpt lat="45.85724" lon="4.82467">
        <ele>329</ele>
        <time>2011-12-11T10:40:52Z</time>
      </trkpt>
      <trkpt lat="45.85722" lon="4.8247">
        <ele>329</ele>
        <time>2011-12-11T10:40:54Z</time>
      </trkpt>
      <trkpt lat="45.85719" lon="4.82478">
        <ele>328</ele>
        <time>2011-12-11T10:40:58Z</time>
      </trkpt>
      <trkpt lat="45.85719" lon="4.82481">
        <ele>328</ele>
        <time>2011-12-11T10:41:00Z</time>
      </trkpt>
      <trkpt lat="45.85717" lon="4.82482">
        <ele>328</ele>
        <time>2011-12-11T10:41:02Z</time>
      </trkpt>
      <trkpt lat="45.85713" lon="4.82486">
        <ele>329</ele>
        <time>2011-12-11T10:41:06Z</time>
      </trkpt>
      <trkpt lat="45.85712" lon="4.82488">
        <ele>329</ele>
        <time>2011-12-11T10:41:07Z</time>
      </trkpt>
      <trkpt lat="45.85708" lon="4.82494">
        <ele>329</ele>
        <time>2011-12-11T10:41:11Z</time>
      </trkpt>
      <trkpt lat="45.857" lon="4.82503">
        <ele>323</ele>
        <time>2011-12-11T10:41:17Z</time>
      </trkpt>
      <trkpt lat="45.85698" lon="4.82505">
        <ele>324</ele>
        <time>2011-12-11T10:41:19Z</time>
      </trkpt>
      <trkpt lat="45.85692" lon="4.82511">
        <ele>324</ele>
        <time>2011-12-11T10:41:24Z</time>
      </trkpt>
      <trkpt lat="45.85688" lon="4.82513">
        <ele>325</ele>
        <time>2011-12-11T10:41:29Z</time>
      </trkpt>
      <trkpt lat="45.85683" lon="4.82513">
        <ele>326</ele>
        <time>2011-12-11T10:41:33Z</time>
      </trkpt>
      <trkpt lat="45.85683" lon="4.82514">
        <ele>326</ele>
        <time>2011-12-11T10:41:34Z</time>
      </trkpt>
      <trkpt lat="45.85681" lon="4.82513">
        <ele>327</ele>
        <time>2011-12-11T10:41:36Z</time>
      </trkpt>
      <trkpt lat="45.85677" lon="4.82516">
        <ele>327</ele>
        <time>2011-12-11T10:41:39Z</time>
      </trkpt>
      <trkpt lat="45.8567" lon="4.82525">
        <ele>326</ele>
        <time>2011-12-11T10:41:44Z</time>
      </trkpt>
      <trkpt lat="45.85664" lon="4.8253">
        <ele>335</ele>
        <time>2011-12-11T10:41:47Z</time>
      </trkpt>
      <trkpt lat="45.85662" lon="4.82531">
        <ele>335</ele>
        <time>2011-12-11T10:41:48Z</time>
      </trkpt>
      <trkpt lat="45.85655" lon="4.82536">
        <ele>335</ele>
        <time>2011-12-11T10:41:53Z</time>
      </trkpt>
      <trkpt lat="45.85654" lon="4.82538">
        <ele>334</ele>
        <time>2011-12-11T10:41:54Z</time>
      </trkpt>
      <trkpt lat="45.85649" lon="4.82539">
        <ele>335</ele>
        <time>2011-12-11T10:41:57Z</time>
      </trkpt>
      <trkpt lat="45.85646" lon="4.82542">
        <ele>334</ele>
        <time>2011-12-11T10:41:59Z</time>
      </trkpt>
      <trkpt lat="45.85639" lon="4.82548">
        <ele>334</ele>
        <time>2011-12-11T10:42:03Z</time>
      </trkpt>
      <trkpt lat="45.85633" lon="4.82553">
        <ele>335</ele>
        <time>2011-12-11T10:42:07Z</time>
      </trkpt>
      <trkpt lat="45.8563" lon="4.82554">
        <ele>335</ele>
        <time>2011-12-11T10:42:09Z</time>
      </trkpt>
      <trkpt lat="45.85626" lon="4.82557">
        <ele>335</ele>
        <time>2011-12-11T10:42:12Z</time>
      </trkpt>
      <trkpt lat="45.85625" lon="4.82558">
        <ele>335</ele>
        <time>2011-12-11T10:42:13Z</time>
      </trkpt>
      <trkpt lat="45.85619" lon="4.82562">
        <ele>335</ele>
        <time>2011-12-11T10:42:18Z</time>
      </trkpt>
      <trkpt lat="45.85617" lon="4.82563">
        <ele>335</ele>
        <time>2011-12-11T10:42:19Z</time>
      </trkpt>
      <trkpt lat="45.85614" lon="4.82565">
        <ele>336</ele>
        <time>2011-12-11T10:42:21Z</time>
      </trkpt>
      <trkpt lat="45.85609" lon="4.82568">
        <ele>336</ele>
        <time>2011-12-11T10:42:24Z</time>
      </trkpt>
      <trkpt lat="45.85608" lon="4.82569">
        <ele>336</ele>
        <time>2011-12-11T10:42:25Z</time>
      </trkpt>
      <trkpt lat="45.85597" lon="4.82581">
        <ele>336</ele>
        <time>2011-12-11T10:42:30Z</time>
      </trkpt>
      <trkpt lat="45.85587" lon="4.82592">
        <ele>332</ele>
        <time>2011-12-11T10:42:35Z</time>
      </trkpt>
      <trkpt lat="45.85581" lon="4.82599">
        <ele>335</ele>
        <time>2011-12-11T10:42:38Z</time>
      </trkpt>
      <trkpt lat="45.85575" lon="4.82605">
        <ele>335</ele>
        <time>2011-12-11T10:42:41Z</time>
      </trkpt>
      <trkpt lat="45.85572" lon="4.82607">
        <ele>335</ele>
        <time>2011-12-11T10:42:43Z</time>
      </trkpt>
      <trkpt lat="45.85568" lon="4.82611">
        <ele>334</ele>
        <time>2011-12-11T10:42:46Z</time>
      </trkpt>
      <trkpt lat="45.85564" lon="4.82614">
        <ele>334</ele>
        <time>2011-12-11T10:42:48Z</time>
      </trkpt>
      <trkpt lat="45.85558" lon="4.82618">
        <ele>334</ele>
        <time>2011-12-11T10:42:52Z</time>
      </trkpt>
      <trkpt lat="45.85553" lon="4.82619">
        <ele>334</ele>
        <time>2011-12-11T10:42:55Z</time>
      </trkpt>
      <trkpt lat="45.85547" lon="4.82622">
        <ele>334</ele>
        <time>2011-12-11T10:42:58Z</time>
      </trkpt>
      <trkpt lat="45.85546" lon="4.82623">
        <ele>334</ele>
        <time>2011-12-11T10:42:59Z</time>
      </trkpt>
      <trkpt lat="45.85535" lon="4.82633">
        <ele>334</ele>
        <time>2011-12-11T10:43:04Z</time>
      </trkpt>
      <trkpt lat="45.85533" lon="4.82636">
        <ele>333</ele>
        <time>2011-12-11T10:43:06Z</time>
      </trkpt>
      <trkpt lat="45.85533" lon="4.82634">
        <ele>334</ele>
        <time>2011-12-11T10:43:09Z</time>
      </trkpt>
      <trkpt lat="45.8553" lon="4.82635">
        <ele>334</ele>
        <time>2011-12-11T10:43:16Z</time>
      </trkpt>
      <trkpt lat="45.85529" lon="4.82636">
        <ele>334</ele>
        <time>2011-12-11T10:43:19Z</time>
      </trkpt>
      <trkpt lat="45.85524" lon="4.8264">
        <ele>333</ele>
        <time>2011-12-11T10:43:25Z</time>
      </trkpt>
      <trkpt lat="45.85516" lon="4.82653">
        <ele>332</ele>
        <time>2011-12-11T10:43:31Z</time>
      </trkpt>
      <trkpt lat="45.85504" lon="4.82663">
        <ele>331</ele>
        <time>2011-12-11T10:43:37Z</time>
      </trkpt>
      <trkpt lat="45.855" lon="4.82667">
        <ele>330</ele>
        <time>2011-12-11T10:43:39Z</time>
      </trkpt>
      <trkpt lat="45.85488" lon="4.82674">
        <ele>324</ele>
        <time>2011-12-11T10:43:44Z</time>
      </trkpt>
      <trkpt lat="45.85481" lon="4.82673">
        <ele>322</ele>
        <time>2011-12-11T10:43:47Z</time>
      </trkpt>
      <trkpt lat="45.85476" lon="4.82671">
        <ele>321</ele>
        <time>2011-12-11T10:43:49Z</time>
      </trkpt>
      <trkpt lat="45.85465" lon="4.82666">
        <ele>328</ele>
        <time>2011-12-11T10:43:55Z</time>
      </trkpt>
      <trkpt lat="45.85464" lon="4.82664">
        <ele>328</ele>
        <time>2011-12-11T10:43:56Z</time>
      </trkpt>
      <trkpt lat="45.85456" lon="4.82658">
        <ele>328</ele>
        <time>2011-12-11T10:44:01Z</time>
      </trkpt>
      <trkpt lat="45.85452" lon="4.8265">
        <ele>328</ele>
        <time>2011-12-11T10:44:06Z</time>
      </trkpt>
      <trkpt lat="45.85453" lon="4.82647">
        <ele>328</ele>
        <time>2011-12-11T10:44:09Z</time>
      </trkpt>
      <trkpt lat="45.85454" lon="4.82645">
        <ele>328</ele>
        <time>2011-12-11T10:44:10Z</time>
      </trkpt>
      <trkpt lat="45.85455" lon="4.82642">
        <ele>329</ele>
        <time>2011-12-11T10:44:12Z</time>
      </trkpt>
      <trkpt lat="45.85455" lon="4.82636">
        <ele>329</ele>
        <time>2011-12-11T10:44:16Z</time>
      </trkpt>
      <trkpt lat="45.85456" lon="4.82631">
        <ele>330</ele>
        <time>2011-12-11T10:44:21Z</time>
      </trkpt>
      <trkpt lat="45.85456" lon="4.8263">
        <ele>330</ele>
        <time>2011-12-11T10:44:22Z</time>
      </trkpt>
      <trkpt lat="45.85457" lon="4.82625">
        <ele>330</ele>
        <time>2011-12-11T10:44:26Z</time>
      </trkpt>
      <trkpt lat="45.85458" lon="4.82624">
        <ele>330</ele>
        <time>2011-12-11T10:44:27Z</time>
      </trkpt>
      <trkpt lat="45.85458" lon="4.82622">
        <ele>330</ele>
        <time>2011-12-11T10:44:29Z</time>
      </trkpt>
      <trkpt lat="45.8546" lon="4.82616">
        <ele>331</ele>
        <time>2011-12-11T10:44:33Z</time>
      </trkpt>
      <trkpt lat="45.85461" lon="4.82611">
        <ele>332</ele>
        <time>2011-12-11T10:44:38Z</time>
      </trkpt>
      <trkpt lat="45.85461" lon="4.8261">
        <ele>332</ele>
        <time>2011-12-11T10:44:39Z</time>
      </trkpt>
      <trkpt lat="45.8546" lon="4.82605">
        <ele>332</ele>
        <time>2011-12-11T10:44:43Z</time>
      </trkpt>
      <trkpt lat="45.85458" lon="4.82602">
        <ele>332</ele>
        <time>2011-12-11T10:44:46Z</time>
      </trkpt>
      <trkpt lat="45.85455" lon="4.826">
        <ele>332</ele>
        <time>2011-12-11T10:44:49Z</time>
      </trkpt>
      <trkpt lat="45.85449" lon="4.82594">
        <ele>331</ele>
        <time>2011-12-11T10:44:57Z</time>
      </trkpt>
      <trkpt lat="45.85449" lon="4.82591">
        <ele>331</ele>
        <time>2011-12-11T10:44:59Z</time>
      </trkpt>
      <trkpt lat="45.8545" lon="4.82589">
        <ele>331</ele>
        <time>2011-12-11T10:45:01Z</time>
      </trkpt>
      <trkpt lat="45.85451" lon="4.82584">
        <ele>332</ele>
        <time>2011-12-11T10:45:05Z</time>
      </trkpt>
      <trkpt lat="45.85453" lon="4.82579">
        <ele>339</ele>
        <time>2011-12-11T10:45:08Z</time>
      </trkpt>
      <trkpt lat="45.85453" lon="4.82575">
        <ele>339</ele>
        <time>2011-12-11T10:45:11Z</time>
      </trkpt>
      <trkpt lat="45.85454" lon="4.82571">
        <ele>339</ele>
        <time>2011-12-11T10:45:14Z</time>
      </trkpt>
      <trkpt lat="45.85455" lon="4.8257">
        <ele>340</ele>
        <time>2011-12-11T10:45:16Z</time>
      </trkpt>
      <trkpt lat="45.85455" lon="4.82569">
        <ele>340</ele>
        <time>2011-12-11T10:45:17Z</time>
      </trkpt>
      <trkpt lat="45.85457" lon="4.82562">
        <ele>340</ele>
        <time>2011-12-11T10:45:22Z</time>
      </trkpt>
      <trkpt lat="45.85458" lon="4.82554">
        <ele>341</ele>
        <time>2011-12-11T10:45:27Z</time>
      </trkpt>
      <trkpt lat="45.85458" lon="4.82552">
        <ele>341</ele>
        <time>2011-12-11T10:45:29Z</time>
      </trkpt>
      <trkpt lat="45.85461" lon="4.82544">
        <ele>342</ele>
        <time>2011-12-11T10:45:36Z</time>
      </trkpt>
      <trkpt lat="45.85462" lon="4.82539">
        <ele>342</ele>
        <time>2011-12-11T10:45:40Z</time>
      </trkpt>
      <trkpt lat="45.85463" lon="4.82536">
        <ele>342</ele>
        <time>2011-12-11T10:45:43Z</time>
      </trkpt>
      <trkpt lat="45.85465" lon="4.82531">
        <ele>343</ele>
        <time>2011-12-11T10:45:47Z</time>
      </trkpt>
      <trkpt lat="45.85466" lon="4.8253">
        <ele>343</ele>
        <time>2011-12-11T10:45:48Z</time>
      </trkpt>
      <trkpt lat="45.85466" lon="4.82526">
        <ele>343</ele>
        <time>2011-12-11T10:45:50Z</time>
      </trkpt>
      <trkpt lat="45.85466" lon="4.82518">
        <ele>344</ele>
        <time>2011-12-11T10:45:55Z</time>
      </trkpt>
      <trkpt lat="45.85467" lon="4.82516">
        <ele>344</ele>
        <time>2011-12-11T10:45:57Z</time>
      </trkpt>
      <trkpt lat="45.85468" lon="4.82507">
        <ele>345</ele>
        <time>2011-12-11T10:46:03Z</time>
      </trkpt>
      <trkpt lat="45.85468" lon="4.82504">
        <ele>345</ele>
        <time>2011-12-11T10:46:06Z</time>
      </trkpt>
      <trkpt lat="45.85469" lon="4.825">
        <ele>345</ele>
        <time>2011-12-11T10:46:09Z</time>
      </trkpt>
      <trkpt lat="45.85471" lon="4.82495">
        <ele>350</ele>
        <time>2011-12-11T10:46:13Z</time>
      </trkpt>
      <trkpt lat="45.85472" lon="4.82489">
        <ele>351</ele>
        <time>2011-12-11T10:46:17Z</time>
      </trkpt>
      <trkpt lat="45.85473" lon="4.82482">
        <ele>351</ele>
        <time>2011-12-11T10:46:23Z</time>
      </trkpt>
      <trkpt lat="45.85473" lon="4.8248">
        <ele>351</ele>
        <time>2011-12-11T10:46:25Z</time>
      </trkpt>
      <trkpt lat="45.85473" lon="4.82478">
        <ele>351</ele>
        <time>2011-12-11T10:46:26Z</time>
      </trkpt>
      <trkpt lat="45.85474" lon="4.82472">
        <ele>351</ele>
        <time>2011-12-11T10:46:31Z</time>
      </trkpt>
      <trkpt lat="45.85476" lon="4.82466">
        <ele>351</ele>
        <time>2011-12-11T10:46:35Z</time>
      </trkpt>
      <trkpt lat="45.85476" lon="4.82463">
        <ele>352</ele>
        <time>2011-12-11T10:46:37Z</time>
      </trkpt>
      <trkpt lat="45.85478" lon="4.8246">
        <ele>352</ele>
        <time>2011-12-11T10:46:40Z</time>
      </trkpt>
      <trkpt lat="45.85479" lon="4.82453">
        <ele>352</ele>
        <time>2011-12-11T10:46:45Z</time>
      </trkpt>
      <trkpt lat="45.8548" lon="4.82451">
        <ele>353</ele>
        <time>2011-12-11T10:46:47Z</time>
      </trkpt>
      <trkpt lat="45.85482" lon="4.82448">
        <ele>353</ele>
        <time>2011-12-11T10:46:50Z</time>
      </trkpt>
      <trkpt lat="45.85485" lon="4.82445">
        <ele>354</ele>
        <time>2011-12-11T10:46:53Z</time>
      </trkpt>
      <trkpt lat="45.85484" lon="4.82442">
        <ele>354</ele>
        <time>2011-12-11T10:46:55Z</time>
      </trkpt>
      <trkpt lat="45.85485" lon="4.82436">
        <ele>355</ele>
        <time>2011-12-11T10:46:59Z</time>
      </trkpt>
      <trkpt lat="45.85486" lon="4.82432">
        <ele>356</ele>
        <time>2011-12-11T10:47:01Z</time>
      </trkpt>
      <trkpt lat="45.85486" lon="4.82429">
        <ele>357</ele>
        <time>2011-12-11T10:47:03Z</time>
      </trkpt>
      <trkpt lat="45.85488" lon="4.8242">
        <ele>359</ele>
        <time>2011-12-11T10:47:09Z</time>
      </trkpt>
      <trkpt lat="45.85489" lon="4.82412">
        <ele>361</ele>
        <time>2011-12-11T10:47:14Z</time>
      </trkpt>
      <trkpt lat="45.8549" lon="4.82404">
        <ele>361</ele>
        <time>2011-12-11T10:47:20Z</time>
      </trkpt>
      <trkpt lat="45.85491" lon="4.82403">
        <ele>361</ele>
        <time>2011-12-11T10:47:21Z</time>
      </trkpt>
      <trkpt lat="45.85493" lon="4.82392">
        <ele>360</ele>
        <time>2011-12-11T10:47:28Z</time>
      </trkpt>
      <trkpt lat="45.85494" lon="4.82386">
        <ele>360</ele>
        <time>2011-12-11T10:47:32Z</time>
      </trkpt>
      <trkpt lat="45.85495" lon="4.82383">
        <ele>360</ele>
        <time>2011-12-11T10:47:34Z</time>
      </trkpt>
      <trkpt lat="45.85498" lon="4.82379">
        <ele>361</ele>
        <time>2011-12-11T10:47:38Z</time>
      </trkpt>
      <trkpt lat="45.85498" lon="4.82378">
        <ele>361</ele>
        <time>2011-12-11T10:47:39Z</time>
      </trkpt>
      <trkpt lat="45.85499" lon="4.82365">
        <ele>362</ele>
        <time>2011-12-11T10:47:46Z</time>
      </trkpt>
      <trkpt lat="45.85502" lon="4.82356">
        <ele>371</ele>
        <time>2011-12-11T10:47:52Z</time>
      </trkpt>
      <trkpt lat="45.85503" lon="4.82354">
        <ele>371</ele>
        <time>2011-12-11T10:47:54Z</time>
      </trkpt>
      <trkpt lat="45.85504" lon="4.82346">
        <ele>372</ele>
        <time>2011-12-11T10:47:59Z</time>
      </trkpt>
      <trkpt lat="45.85504" lon="4.82344">
        <ele>372</ele>
        <time>2011-12-11T10:48:00Z</time>
      </trkpt>
      <trkpt lat="45.85506" lon="4.82336">
        <ele>373</ele>
        <time>2011-12-11T10:48:07Z</time>
      </trkpt>
      <trkpt lat="45.85507" lon="4.82331">
        <ele>376</ele>
        <time>2011-12-11T10:48:11Z</time>
      </trkpt>
      <trkpt lat="45.85507" lon="4.82327">
        <ele>376</ele>
        <time>2011-12-11T10:48:13Z</time>
      </trkpt>
      <trkpt lat="45.85509" lon="4.8232">
        <ele>377</ele>
        <time>2011-12-11T10:48:18Z</time>
      </trkpt>
      <trkpt lat="45.85509" lon="4.82317">
        <ele>377</ele>
        <time>2011-12-11T10:48:20Z</time>
      </trkpt>
      <trkpt lat="45.85511" lon="4.82314">
        <ele>377</ele>
        <time>2011-12-11T10:48:23Z</time>
      </trkpt>
      <trkpt lat="45.85511" lon="4.82312">
        <ele>377</ele>
        <time>2011-12-11T10:48:24Z</time>
      </trkpt>
      <trkpt lat="45.85512" lon="4.82308">
        <ele>378</ele>
        <time>2011-12-11T10:48:26Z</time>
      </trkpt>
      <trkpt lat="45.85513" lon="4.82301">
        <ele>378</ele>
        <time>2011-12-11T10:48:30Z</time>
      </trkpt>
      <trkpt lat="45.85514" lon="4.82298">
        <ele>378</ele>
        <time>2011-12-11T10:48:32Z</time>
      </trkpt>
      <trkpt lat="45.85516" lon="4.82288">
        <ele>379</ele>
        <time>2011-12-11T10:48:38Z</time>
      </trkpt>
      <trkpt lat="45.85516" lon="4.82286">
        <ele>379</ele>
        <time>2011-12-11T10:48:39Z</time>
      </trkpt>
      <trkpt lat="45.85518" lon="4.82278">
        <ele>380</ele>
        <time>2011-12-11T10:48:44Z</time>
      </trkpt>
      <trkpt lat="45.85518" lon="4.82276">
        <ele>380</ele>
        <time>2011-12-11T10:48:45Z</time>
      </trkpt>
      <trkpt lat="45.85519" lon="4.82275">
        <ele>380</ele>
        <time>2011-12-11T10:48:46Z</time>
      </trkpt>
      <trkpt lat="45.85521" lon="4.8227">
        <ele>380</ele>
        <time>2011-12-11T10:48:50Z</time>
      </trkpt>
      <trkpt lat="45.85522" lon="4.8226">
        <ele>381</ele>
        <time>2011-12-11T10:48:56Z</time>
      </trkpt>
      <trkpt lat="45.85524" lon="4.82251">
        <ele>381</ele>
        <time>2011-12-11T10:49:02Z</time>
      </trkpt>
      <trkpt lat="45.85525" lon="4.8225">
        <ele>385</ele>
        <time>2011-12-11T10:49:03Z</time>
      </trkpt>
      <trkpt lat="45.85528" lon="4.82241">
        <ele>386</ele>
        <time>2011-12-11T10:49:09Z</time>
      </trkpt>
      <trkpt lat="45.8553" lon="4.82228">
        <ele>386</ele>
        <time>2011-12-11T10:49:17Z</time>
      </trkpt>
      <trkpt lat="45.8553" lon="4.82226">
        <ele>386</ele>
        <time>2011-12-11T10:49:18Z</time>
      </trkpt>
      <trkpt lat="45.85531" lon="4.82224">
        <ele>386</ele>
        <time>2011-12-11T10:49:19Z</time>
      </trkpt>
      <trkpt lat="45.85533" lon="4.82218">
        <ele>387</ele>
        <time>2011-12-11T10:49:23Z</time>
      </trkpt>
      <trkpt lat="45.85536" lon="4.82207">
        <ele>387</ele>
        <time>2011-12-11T10:49:30Z</time>
      </trkpt>
      <trkpt lat="45.85536" lon="4.82206">
        <ele>387</ele>
        <time>2011-12-11T10:49:31Z</time>
      </trkpt>
      <trkpt lat="45.85537" lon="4.82201">
        <ele>387</ele>
        <time>2011-12-11T10:49:34Z</time>
      </trkpt>
      <trkpt lat="45.85538" lon="4.82198">
        <ele>388</ele>
        <time>2011-12-11T10:49:36Z</time>
      </trkpt>
      <trkpt lat="45.8554" lon="4.82188">
        <ele>388</ele>
        <time>2011-12-11T10:49:43Z</time>
      </trkpt>
      <trkpt lat="45.85543" lon="4.8218">
        <ele>389</ele>
        <time>2011-12-11T10:50:15Z</time>
      </trkpt>
      <trkpt lat="45.85543" lon="4.8218">
        <ele>389</ele>
        <time>2011-12-11T10:50:16Z</time>
      </trkpt>
      <trkpt lat="45.85548" lon="4.82171">
        <ele>390</ele>
        <time>2011-12-11T10:50:24Z</time>
      </trkpt>
      <trkpt lat="45.85553" lon="4.82162">
        <ele>394</ele>
        <time>2011-12-11T10:50:31Z</time>
      </trkpt>
      <trkpt lat="45.85554" lon="4.82159">
        <ele>394</ele>
        <time>2011-12-11T10:50:33Z</time>
      </trkpt>
      <trkpt lat="45.85554" lon="4.82157">
        <ele>394</ele>
        <time>2011-12-11T10:50:35Z</time>
      </trkpt>
      <trkpt lat="45.85554" lon="4.82155">
        <ele>394</ele>
        <time>2011-12-11T10:50:38Z</time>
      </trkpt>
      <trkpt lat="45.85561" lon="4.82147">
        <ele>395</ele>
        <time>2011-12-11T10:50:45Z</time>
      </trkpt>
      <trkpt lat="45.85564" lon="4.82143">
        <ele>395</ele>
        <time>2011-12-11T10:50:49Z</time>
      </trkpt>
      <trkpt lat="45.85566" lon="4.8214">
        <ele>396</ele>
        <time>2011-12-11T10:50:51Z</time>
      </trkpt>
      <trkpt lat="45.85566" lon="4.82139">
        <ele>396</ele>
        <time>2011-12-11T10:50:52Z</time>
      </trkpt>
      <trkpt lat="45.85566" lon="4.82138">
        <ele>396</ele>
        <time>2011-12-11T10:50:53Z</time>
      </trkpt>
      <trkpt lat="45.85569" lon="4.82133">
        <ele>396</ele>
        <time>2011-12-11T10:50:57Z</time>
      </trkpt>
      <trkpt lat="45.85572" lon="4.82123">
        <ele>397</ele>
        <time>2011-12-11T10:51:03Z</time>
      </trkpt>
      <trkpt lat="45.85574" lon="4.82116">
        <ele>397</ele>
        <time>2011-12-11T10:51:08Z</time>
      </trkpt>
      <trkpt lat="45.85575" lon="4.82116">
        <ele>398</ele>
        <time>2011-12-11T10:51:09Z</time>
      </trkpt>
      <trkpt lat="45.85575" lon="4.82113">
        <ele>398</ele>
        <time>2011-12-11T10:51:11Z</time>
      </trkpt>
      <trkpt lat="45.85578" lon="4.82109">
        <ele>399</ele>
        <time>2011-12-11T10:51:14Z</time>
      </trkpt>
      <trkpt lat="45.85583" lon="4.82099">
        <ele>401</ele>
        <time>2011-12-11T10:51:21Z</time>
      </trkpt>
      <trkpt lat="45.85586" lon="4.82095">
        <ele>405</ele>
        <time>2011-12-11T10:51:24Z</time>
      </trkpt>
      <trkpt lat="45.85588" lon="4.82092">
        <ele>405</ele>
        <time>2011-12-11T10:51:26Z</time>
      </trkpt>
      <trkpt lat="45.85589" lon="4.82091">
        <ele>405</ele>
        <time>2011-12-11T10:51:27Z</time>
      </trkpt>
      <trkpt lat="45.8559" lon="4.82089">
        <ele>405</ele>
        <time>2011-12-11T10:51:28Z</time>
      </trkpt>
      <trkpt lat="45.85591" lon="4.82079">
        <ele>408</ele>
        <time>2011-12-11T10:51:34Z</time>
      </trkpt>
      <trkpt lat="45.8559" lon="4.8207">
        <ele>409</ele>
        <time>2011-12-11T10:51:40Z</time>
      </trkpt>
      <trkpt lat="45.8559" lon="4.82068">
        <ele>409</ele>
        <time>2011-12-11T10:51:41Z</time>
      </trkpt>
      <trkpt lat="45.85589" lon="4.82056">
        <ele>410</ele>
        <time>2011-12-11T10:51:48Z</time>
      </trkpt>
      <trkpt lat="45.85588" lon="4.82043">
        <ele>411</ele>
        <time>2011-12-11T10:51:55Z</time>
      </trkpt>
      <trkpt lat="45.85588" lon="4.82039">
        <ele>412</ele>
        <time>2011-12-11T10:51:57Z</time>
      </trkpt>
      <trkpt lat="45.85588" lon="4.82022">
        <ele>413</ele>
        <time>2011-12-11T10:52:05Z</time>
      </trkpt>
      <trkpt lat="45.85588" lon="4.82016">
        <ele>414</ele>
        <time>2011-12-11T10:52:07Z</time>
      </trkpt>
      <trkpt lat="45.85587" lon="4.82005">
        <ele>415</ele>
        <time>2011-12-11T10:52:10Z</time>
      </trkpt>
      <trkpt lat="45.85584" lon="4.81997">
        <ele>416</ele>
        <time>2011-12-11T10:52:13Z</time>
      </trkpt>
      <trkpt lat="45.8558" lon="4.81989">
        <ele>413</ele>
        <time>2011-12-11T10:52:16Z</time>
      </trkpt>
      <trkpt lat="45.85579" lon="4.81986">
        <ele>413</ele>
        <time>2011-12-11T10:52:17Z</time>
      </trkpt>
      <trkpt lat="45.85576" lon="4.81975">
        <ele>412</ele>
        <time>2011-12-11T10:52:21Z</time>
      </trkpt>
      <trkpt lat="45.85575" lon="4.81972">
        <ele>412</ele>
        <time>2011-12-11T10:52:22Z</time>
      </trkpt>
      <trkpt lat="45.85576" lon="4.81965">
        <ele>412</ele>
        <time>2011-12-11T10:52:25Z</time>
      </trkpt>
      <trkpt lat="45.85576" lon="4.8196">
        <ele>412</ele>
        <time>2011-12-11T10:52:27Z</time>
      </trkpt>
      <trkpt lat="45.85573" lon="4.81944">
        <ele>413</ele>
        <time>2011-12-11T10:52:33Z</time>
      </trkpt>
      <trkpt lat="45.85573" lon="4.81938">
        <ele>414</ele>
        <time>2011-12-11T10:52:35Z</time>
      </trkpt>
      <trkpt lat="45.85573" lon="4.81924">
        <ele>417</ele>
        <time>2011-12-11T10:52:40Z</time>
      </trkpt>
      <trkpt lat="45.85571" lon="4.81912">
        <ele>419</ele>
        <time>2011-12-11T10:52:44Z</time>
      </trkpt>
      <trkpt lat="45.8557" lon="4.81907">
        <ele>418</ele>
        <time>2011-12-11T10:52:46Z</time>
      </trkpt>
      <trkpt lat="45.85572" lon="4.81898">
        <ele>418</ele>
        <time>2011-12-11T10:52:50Z</time>
      </trkpt>
      <trkpt lat="45.8557" lon="4.81894">
        <ele>417</ele>
        <time>2011-12-11T10:52:51Z</time>
      </trkpt>
      <trkpt lat="45.8556" lon="4.81886">
        <ele>416</ele>
        <time>2011-12-11T10:53:44Z</time>
      </trkpt>
      <trkpt lat="45.8556" lon="4.81881">
        <ele>416</ele>
        <time>2011-12-11T10:53:46Z</time>
      </trkpt>
      <trkpt lat="45.8556" lon="4.81878">
        <ele>416</ele>
        <time>2011-12-11T10:53:47Z</time>
      </trkpt>
      <trkpt lat="45.85559" lon="4.81875">
        <ele>416</ele>
        <time>2011-12-11T10:53:48Z</time>
      </trkpt>
      <trkpt lat="45.85558" lon="4.81861">
        <ele>416</ele>
        <time>2011-12-11T10:53:52Z</time>
      </trkpt>
      <trkpt lat="45.85557" lon="4.81853">
        <ele>416</ele>
        <time>2011-12-11T10:53:54Z</time>
      </trkpt>
      <trkpt lat="45.85556" lon="4.81842">
        <ele>417</ele>
        <time>2011-12-11T10:53:57Z</time>
      </trkpt>
      <trkpt lat="45.85553" lon="4.81829">
        <ele>418</ele>
        <time>2011-12-11T10:54:01Z</time>
      </trkpt>
      <trkpt lat="45.85551" lon="4.81825">
        <ele>418</ele>
        <time>2011-12-11T10:54:02Z</time>
      </trkpt>
      <trkpt lat="45.85542" lon="4.81811">
        <ele>418</ele>
        <time>2011-12-11T10:54:07Z</time>
      </trkpt>
      <trkpt lat="45.85539" lon="4.81806">
        <ele>417</ele>
        <time>2011-12-11T10:54:09Z</time>
      </trkpt>
      <trkpt lat="45.85534" lon="4.818">
        <ele>417</ele>
        <time>2011-12-11T10:54:12Z</time>
      </trkpt>
      <trkpt lat="45.85525" lon="4.81791">
        <ele>417</ele>
        <time>2011-12-11T10:54:17Z</time>
      </trkpt>
      <trkpt lat="45.85524" lon="4.8179">
        <ele>417</ele>
        <time>2011-12-11T10:54:18Z</time>
      </trkpt>
      <trkpt lat="45.85521" lon="4.81784">
        <ele>417</ele>
        <time>2011-12-11T10:54:23Z</time>
      </trkpt>
      <trkpt lat="45.8552" lon="4.81783">
        <ele>417</ele>
        <time>2011-12-11T10:54:25Z</time>
      </trkpt>
      <trkpt lat="45.85516" lon="4.81779">
        <ele>417</ele>
        <time>2011-12-11T10:54:29Z</time>
      </trkpt>
      <trkpt lat="45.85513" lon="4.81777">
        <ele>417</ele>
        <time>2011-12-11T10:54:31Z</time>
      </trkpt>
      <trkpt lat="45.85509" lon="4.81772">
        <ele>417</ele>
        <time>2011-12-11T10:54:33Z</time>
      </trkpt>
      <trkpt lat="45.85507" lon="4.8177">
        <ele>417</ele>
        <time>2011-12-11T10:54:34Z</time>
      </trkpt>
      <trkpt lat="45.85492" lon="4.8176">
        <ele>416</ele>
        <time>2011-12-11T10:54:40Z</time>
      </trkpt>
      <trkpt lat="45.8549" lon="4.81758">
        <ele>416</ele>
        <time>2011-12-11T10:54:41Z</time>
      </trkpt>
      <trkpt lat="45.85478" lon="4.81755">
        <ele>415</ele>
        <time>2011-12-11T10:54:46Z</time>
      </trkpt>
      <trkpt lat="45.85473" lon="4.81754">
        <ele>415</ele>
        <time>2011-12-11T10:54:48Z</time>
      </trkpt>
      <trkpt lat="45.85463" lon="4.81752">
        <ele>414</ele>
        <time>2011-12-11T10:54:52Z</time>
      </trkpt>
      <trkpt lat="45.85453" lon="4.8175">
        <ele>414</ele>
        <time>2011-12-11T10:54:56Z</time>
      </trkpt>
      <trkpt lat="45.85451" lon="4.8175">
        <ele>421</ele>
        <time>2011-12-11T10:54:57Z</time>
      </trkpt>
      <trkpt lat="45.85433" lon="4.81747">
        <ele>420</ele>
        <time>2011-12-11T10:55:04Z</time>
      </trkpt>
      <trkpt lat="45.8542" lon="4.81744">
        <ele>419</ele>
        <time>2011-12-11T10:55:10Z</time>
      </trkpt>
      <trkpt lat="45.85414" lon="4.81741">
        <ele>420</ele>
        <time>2011-12-11T10:55:13Z</time>
      </trkpt>
      <trkpt lat="45.85407" lon="4.8174">
        <ele>420</ele>
        <time>2011-12-11T10:55:16Z</time>
      </trkpt>
      <trkpt lat="45.85399" lon="4.8174">
        <ele>421</ele>
        <time>2011-12-11T10:55:21Z</time>
      </trkpt>
      <trkpt lat="45.85399" lon="4.81736">
        <ele>421</ele>
        <time>2011-12-11T10:55:30Z</time>
      </trkpt>
      <trkpt lat="45.854" lon="4.81736">
        <ele>421</ele>
        <time>2011-12-11T10:55:31Z</time>
      </trkpt>
      <trkpt lat="45.85403" lon="4.81733">
        <ele>421</ele>
        <time>2011-12-11T10:55:34Z</time>
      </trkpt>
      <trkpt lat="45.85405" lon="4.81729">
        <ele>421</ele>
        <time>2011-12-11T10:55:37Z</time>
      </trkpt>
      <trkpt lat="45.85409" lon="4.8172">
        <ele>422</ele>
        <time>2011-12-11T10:55:43Z</time>
      </trkpt>
      <trkpt lat="45.8541" lon="4.81719">
        <ele>422</ele>
        <time>2011-12-11T10:55:44Z</time>
      </trkpt>
      <trkpt lat="45.85411" lon="4.81717">
        <ele>423</ele>
        <time>2011-12-11T10:55:46Z</time>
      </trkpt>
      <trkpt lat="45.85411" lon="4.81715">
        <ele>423</ele>
        <time>2011-12-11T10:55:47Z</time>
      </trkpt>
      <trkpt lat="45.85412" lon="4.81712">
        <ele>423</ele>
        <time>2011-12-11T10:55:49Z</time>
      </trkpt>
      <trkpt lat="45.85414" lon="4.81705">
        <ele>424</ele>
        <time>2011-12-11T10:55:54Z</time>
      </trkpt>
      <trkpt lat="45.85416" lon="4.81702">
        <ele>424</ele>
        <time>2011-12-11T10:55:56Z</time>
      </trkpt>
      <trkpt lat="45.85418" lon="4.81694">
        <ele>425</ele>
        <time>2011-12-11T10:56:01Z</time>
      </trkpt>
      <trkpt lat="45.85419" lon="4.81693">
        <ele>425</ele>
        <time>2011-12-11T10:56:02Z</time>
      </trkpt>
      <trkpt lat="45.85419" lon="4.81691">
        <ele>425</ele>
        <time>2011-12-11T10:56:03Z</time>
      </trkpt>
      <trkpt lat="45.85424" lon="4.8168">
        <ele>427</ele>
        <time>2011-12-11T10:56:11Z</time>
      </trkpt>
      <trkpt lat="45.85426" lon="4.81677">
        <ele>427</ele>
        <time>2011-12-11T10:56:13Z</time>
      </trkpt>
      <trkpt lat="45.85426" lon="4.81673">
        <ele>427</ele>
        <time>2011-12-11T10:56:17Z</time>
      </trkpt>
      <trkpt lat="45.85424" lon="4.8167">
        <ele>428</ele>
        <time>2011-12-11T10:56:20Z</time>
      </trkpt>
      <trkpt lat="45.85421" lon="4.81667">
        <ele>429</ele>
        <time>2011-12-11T10:56:24Z</time>
      </trkpt>
      <trkpt lat="45.85422" lon="4.8166">
        <ele>430</ele>
        <time>2011-12-11T10:56:28Z</time>
      </trkpt>
      <trkpt lat="45.85423" lon="4.81657">
        <ele>430</ele>
        <time>2011-12-11T10:56:30Z</time>
      </trkpt>
      <trkpt lat="45.85426" lon="4.81647">
        <ele>430</ele>
        <time>2011-12-11T10:56:36Z</time>
      </trkpt>
      <trkpt lat="45.85427" lon="4.81645">
        <ele>431</ele>
        <time>2011-12-11T10:56:38Z</time>
      </trkpt>
      <trkpt lat="45.85431" lon="4.81632">
        <ele>431</ele>
        <time>2011-12-11T10:56:45Z</time>
      </trkpt>
      <trkpt lat="45.85432" lon="4.81622">
        <ele>432</ele>
        <time>2011-12-11T10:56:51Z</time>
      </trkpt>
      <trkpt lat="45.85433" lon="4.8162">
        <ele>432</ele>
        <time>2011-12-11T10:56:52Z</time>
      </trkpt>
      <trkpt lat="45.85439" lon="4.81607">
        <ele>432</ele>
        <time>2011-12-11T10:56:58Z</time>
      </trkpt>
      <trkpt lat="45.85444" lon="4.81601">
        <ele>432</ele>
        <time>2011-12-11T10:57:01Z</time>
      </trkpt>
      <trkpt lat="45.85447" lon="4.81596">
        <ele>432</ele>
        <time>2011-12-11T10:57:03Z</time>
      </trkpt>
      <trkpt lat="45.85448" lon="4.81593">
        <ele>432</ele>
        <time>2011-12-11T10:57:04Z</time>
      </trkpt>
      <trkpt lat="45.85451" lon="4.81586">
        <ele>432</ele>
        <time>2011-12-11T10:57:07Z</time>
      </trkpt>
      <trkpt lat="45.85453" lon="4.81577">
        <ele>435</ele>
        <time>2011-12-11T10:57:11Z</time>
      </trkpt>
      <trkpt lat="45.85456" lon="4.81569">
        <ele>435</ele>
        <time>2011-12-11T10:57:16Z</time>
      </trkpt>
      <trkpt lat="45.85456" lon="4.81566">
        <ele>435</ele>
        <time>2011-12-11T10:57:17Z</time>
      </trkpt>
      <trkpt lat="45.85461" lon="4.81556">
        <ele>434</ele>
        <time>2011-12-11T10:57:21Z</time>
      </trkpt>
      <trkpt lat="45.85462" lon="4.81554">
        <ele>434</ele>
        <time>2011-12-11T10:57:22Z</time>
      </trkpt>
      <trkpt lat="45.8547" lon="4.81538">
        <ele>434</ele>
        <time>2011-12-11T10:57:28Z</time>
      </trkpt>
      <trkpt lat="45.85471" lon="4.8153">
        <ele>434</ele>
        <time>2011-12-11T10:57:31Z</time>
      </trkpt>
      <trkpt lat="45.85472" lon="4.8152">
        <ele>434</ele>
        <time>2011-12-11T10:57:35Z</time>
      </trkpt>
      <trkpt lat="45.85473" lon="4.81513">
        <ele>434</ele>
        <time>2011-12-11T10:57:38Z</time>
      </trkpt>
      <trkpt lat="45.85474" lon="4.81509">
        <ele>434</ele>
        <time>2011-12-11T10:57:40Z</time>
      </trkpt>
      <trkpt lat="45.85474" lon="4.81503">
        <ele>434</ele>
        <time>2011-12-11T10:57:43Z</time>
      </trkpt>
      <trkpt lat="45.85473" lon="4.815">
        <ele>435</ele>
        <time>2011-12-11T10:57:45Z</time>
      </trkpt>
      <trkpt lat="45.85473" lon="4.81497">
        <ele>435</ele>
        <time>2011-12-11T10:57:47Z</time>
      </trkpt>
      <trkpt lat="45.85473" lon="4.81488">
        <ele>436</ele>
        <time>2011-12-11T10:57:52Z</time>
      </trkpt>
      <trkpt lat="45.85473" lon="4.81476">
        <ele>436</ele>
        <time>2011-12-11T10:57:58Z</time>
      </trkpt>
      <trkpt lat="45.85471" lon="4.81462">
        <ele>436</ele>
        <time>2011-12-11T10:58:05Z</time>
      </trkpt>
      <trkpt lat="45.85471" lon="4.81451">
        <ele>436</ele>
        <time>2011-12-11T10:58:11Z</time>
      </trkpt>
      <trkpt lat="45.85471" lon="4.81449">
        <ele>436</ele>
        <time>2011-12-11T10:58:12Z</time>
      </trkpt>
      <trkpt lat="45.85471" lon="4.81448">
        <ele>436</ele>
        <time>2011-12-11T10:58:13Z</time>
      </trkpt>
      <trkpt lat="45.85471" lon="4.81443">
        <ele>436</ele>
        <time>2011-12-11T10:58:18Z</time>
      </trkpt>
      <trkpt lat="45.85471" lon="4.81442">
        <ele>436</ele>
        <time>2011-12-11T10:58:20Z</time>
      </trkpt>
      <trkpt lat="45.85469" lon="4.81437">
        <ele>436</ele>
        <time>2011-12-11T10:58:24Z</time>
      </trkpt>
      <trkpt lat="45.85468" lon="4.81426">
        <ele>436</ele>
        <time>2011-12-11T10:58:30Z</time>
      </trkpt>
      <trkpt lat="45.85468" lon="4.81425">
        <ele>436</ele>
        <time>2011-12-11T10:58:31Z</time>
      </trkpt>
      <trkpt lat="45.85467" lon="4.81417">
        <ele>436</ele>
        <time>2011-12-11T10:58:35Z</time>
      </trkpt>
      <trkpt lat="45.85466" lon="4.81401">
        <ele>439</ele>
        <time>2011-12-11T10:58:43Z</time>
      </trkpt>
      <trkpt lat="45.85465" lon="4.81399">
        <ele>440</ele>
        <time>2011-12-11T10:58:44Z</time>
      </trkpt>
      <trkpt lat="45.85463" lon="4.81388">
        <ele>440</ele>
        <time>2011-12-11T10:58:50Z</time>
      </trkpt>
      <trkpt lat="45.85463" lon="4.81376">
        <ele>441</ele>
        <time>2011-12-11T10:58:56Z</time>
      </trkpt>
      <trkpt lat="45.85463" lon="4.81372">
        <ele>441</ele>
        <time>2011-12-11T10:58:58Z</time>
      </trkpt>
      <trkpt lat="45.85463" lon="4.81367">
        <ele>441</ele>
        <time>2011-12-11T10:59:00Z</time>
      </trkpt>
      <trkpt lat="45.85464" lon="4.81362">
        <ele>441</ele>
        <time>2011-12-11T10:59:03Z</time>
      </trkpt>
      <trkpt lat="45.85465" lon="4.81347">
        <ele>441</ele>
        <time>2011-12-11T10:59:11Z</time>
      </trkpt>
      <trkpt lat="45.85466" lon="4.81345">
        <ele>441</ele>
        <time>2011-12-11T10:59:12Z</time>
      </trkpt>
      <trkpt lat="45.85469" lon="4.81335">
        <ele>441</ele>
        <time>2011-12-11T10:59:18Z</time>
      </trkpt>
      <trkpt lat="45.8547" lon="4.81334">
        <ele>441</ele>
        <time>2011-12-11T10:59:19Z</time>
      </trkpt>
      <trkpt lat="45.85477" lon="4.81326">
        <ele>442</ele>
        <time>2011-12-11T10:59:24Z</time>
      </trkpt>
      <trkpt lat="45.85477" lon="4.81324">
        <ele>441</ele>
        <time>2011-12-11T10:59:25Z</time>
      </trkpt>
      <trkpt lat="45.8548" lon="4.81318">
        <ele>441</ele>
        <time>2011-12-11T10:59:29Z</time>
      </trkpt>
      <trkpt lat="45.85484" lon="4.81312">
        <ele>441</ele>
        <time>2011-12-11T10:59:33Z</time>
      </trkpt>
      <trkpt lat="45.85487" lon="4.81308">
        <ele>441</ele>
        <time>2011-12-11T10:59:36Z</time>
      </trkpt>
      <trkpt lat="45.8549" lon="4.81304">
        <ele>441</ele>
        <time>2011-12-11T10:59:39Z</time>
      </trkpt>
      <trkpt lat="45.8549" lon="4.81302">
        <ele>441</ele>
        <time>2011-12-11T10:59:40Z</time>
      </trkpt>
      <trkpt lat="45.85492" lon="4.81292">
        <ele>441</ele>
        <time>2011-12-11T10:59:46Z</time>
      </trkpt>
      <trkpt lat="45.85491" lon="4.81292">
        <ele>441</ele>
        <time>2011-12-11T10:59:47Z</time>
      </trkpt>
      <trkpt lat="45.85486" lon="4.81291">
        <ele>441</ele>
        <time>2011-12-11T10:59:52Z</time>
      </trkpt>
      <trkpt lat="45.85485" lon="4.8129">
        <ele>441</ele>
        <time>2011-12-11T10:59:53Z</time>
      </trkpt>
      <trkpt lat="45.85485" lon="4.8129">
        <ele>441</ele>
        <time>2011-12-11T10:59:54Z</time>
      </trkpt>
      <trkpt lat="45.85482" lon="4.81289">
        <ele>441</ele>
        <time>2011-12-11T10:59:57Z</time>
      </trkpt>
      <trkpt lat="45.85481" lon="4.81289">
        <ele>441</ele>
        <time>2011-12-11T10:59:59Z</time>
      </trkpt>
      <trkpt lat="45.85478" lon="4.81287">
        <ele>442</ele>
        <time>2011-12-11T11:00:04Z</time>
      </trkpt>
      <trkpt lat="45.85469" lon="4.81284">
        <ele>442</ele>
        <time>2011-12-11T11:00:11Z</time>
      </trkpt>
      <trkpt lat="45.85465" lon="4.81282">
        <ele>443</ele>
        <time>2011-12-11T11:00:14Z</time>
      </trkpt>
      <trkpt lat="45.85463" lon="4.81281">
        <ele>443</ele>
        <time>2011-12-11T11:00:15Z</time>
      </trkpt>
      <trkpt lat="45.8546" lon="4.81279">
        <ele>443</ele>
        <time>2011-12-11T11:00:18Z</time>
      </trkpt>
      <trkpt lat="45.85456" lon="4.81274">
        <ele>444</ele>
        <time>2011-12-11T11:00:23Z</time>
      </trkpt>
      <trkpt lat="45.85452" lon="4.81273">
        <ele>444</ele>
        <time>2011-12-11T11:00:26Z</time>
      </trkpt>
      <trkpt lat="45.85448" lon="4.81274">
        <ele>445</ele>
        <time>2011-12-11T11:00:30Z</time>
      </trkpt>
      <trkpt lat="45.85446" lon="4.81274">
        <ele>445</ele>
        <time>2011-12-11T11:00:32Z</time>
      </trkpt>
      <trkpt lat="45.85445" lon="4.81275">
        <ele>445</ele>
        <time>2011-12-11T11:00:33Z</time>
      </trkpt>
      <trkpt lat="45.85441" lon="4.81276">
        <ele>446</ele>
        <time>2011-12-11T11:00:36Z</time>
      </trkpt>
      <trkpt lat="45.85437" lon="4.81276">
        <ele>446</ele>
        <time>2011-12-11T11:00:39Z</time>
      </trkpt>
      <trkpt lat="45.85433" lon="4.81275">
        <ele>447</ele>
        <time>2011-12-11T11:00:43Z</time>
      </trkpt>
      <trkpt lat="45.8543" lon="4.81276">
        <ele>447</ele>
        <time>2011-12-11T11:00:47Z</time>
      </trkpt>
      <trkpt lat="45.85428" lon="4.81275">
        <ele>447</ele>
        <time>2011-12-11T11:00:49Z</time>
      </trkpt>
      <trkpt lat="45.85427" lon="4.81274">
        <ele>447</ele>
        <time>2011-12-11T11:00:50Z</time>
      </trkpt>
      <trkpt lat="45.8542" lon="4.81268">
        <ele>449</ele>
        <time>2011-12-11T11:00:56Z</time>
      </trkpt>
      <trkpt lat="45.85413" lon="4.81266">
        <ele>456</ele>
        <time>2011-12-11T11:01:02Z</time>
      </trkpt>
      <trkpt lat="45.85412" lon="4.81265">
        <ele>456</ele>
        <time>2011-12-11T11:01:04Z</time>
      </trkpt>
      <trkpt lat="45.85406" lon="4.81262">
        <ele>456</ele>
        <time>2011-12-11T11:01:10Z</time>
      </trkpt>
      <trkpt lat="45.85404" lon="4.81262">
        <ele>456</ele>
        <time>2011-12-11T11:01:11Z</time>
      </trkpt>
      <trkpt lat="45.85399" lon="4.8126">
        <ele>457</ele>
        <time>2011-12-11T11:01:17Z</time>
      </trkpt>
      <trkpt lat="45.85395" lon="4.81259">
        <ele>457</ele>
        <time>2011-12-11T11:01:21Z</time>
      </trkpt>
      <trkpt lat="45.85393" lon="4.81258">
        <ele>457</ele>
        <time>2011-12-11T11:01:23Z</time>
      </trkpt>
      <trkpt lat="45.85386" lon="4.81253">
        <ele>458</ele>
        <time>2011-12-11T11:01:28Z</time>
      </trkpt>
      <trkpt lat="45.85383" lon="4.81251">
        <ele>459</ele>
        <time>2011-12-11T11:01:32Z</time>
      </trkpt>
      <trkpt lat="45.85379" lon="4.81249">
        <ele>455</ele>
        <time>2011-12-11T11:01:37Z</time>
      </trkpt>
      <trkpt lat="45.85378" lon="4.81249">
        <ele>455</ele>
        <time>2011-12-11T11:01:38Z</time>
      </trkpt>
      <trkpt lat="45.85376" lon="4.81248">
        <ele>455</ele>
        <time>2011-12-11T11:01:40Z</time>
      </trkpt>
      <trkpt lat="45.85371" lon="4.81245">
        <ele>455</ele>
        <time>2011-12-11T11:01:43Z</time>
      </trkpt>
      <trkpt lat="45.85369" lon="4.81245">
        <ele>456</ele>
        <time>2011-12-11T11:01:46Z</time>
      </trkpt>
      <trkpt lat="45.85365" lon="4.81236">
        <ele>456</ele>
        <time>2011-12-11T11:01:54Z</time>
      </trkpt>
      <trkpt lat="45.85363" lon="4.81234">
        <ele>456</ele>
        <time>2011-12-11T11:01:56Z</time>
      </trkpt>
      <trkpt lat="45.85354" lon="4.81226">
        <ele>456</ele>
        <time>2011-12-11T11:02:04Z</time>
      </trkpt>
      <trkpt lat="45.85348" lon="4.8122">
        <ele>456</ele>
        <time>2011-12-11T11:02:09Z</time>
      </trkpt>
      <trkpt lat="45.85345" lon="4.81218">
        <ele>456</ele>
        <time>2011-12-11T11:02:11Z</time>
      </trkpt>
      <trkpt lat="45.85337" lon="4.81213">
        <ele>456</ele>
        <time>2011-12-11T11:02:16Z</time>
      </trkpt>
      <trkpt lat="45.85334" lon="4.81211">
        <ele>456</ele>
        <time>2011-12-11T11:02:18Z</time>
      </trkpt>
      <trkpt lat="45.8533" lon="4.81209">
        <ele>464</ele>
        <time>2011-12-11T11:02:20Z</time>
      </trkpt>
      <trkpt lat="45.85323" lon="4.81204">
        <ele>464</ele>
        <time>2011-12-11T11:02:23Z</time>
      </trkpt>
      <trkpt lat="45.85319" lon="4.812">
        <ele>464</ele>
        <time>2011-12-11T11:02:25Z</time>
      </trkpt>
      <trkpt lat="45.85314" lon="4.81197">
        <ele>464</ele>
        <time>2011-12-11T11:02:27Z</time>
      </trkpt>
      <trkpt lat="45.85305" lon="4.81189">
        <ele>464</ele>
        <time>2011-12-11T11:02:32Z</time>
      </trkpt>
      <trkpt lat="45.85299" lon="4.81181">
        <ele>464</ele>
        <time>2011-12-11T11:02:37Z</time>
      </trkpt>
      <trkpt lat="45.85291" lon="4.81171">
        <ele>465</ele>
        <time>2011-12-11T11:02:42Z</time>
      </trkpt>
      <trkpt lat="45.85284" lon="4.81163">
        <ele>461</ele>
        <time>2011-12-11T11:02:45Z</time>
      </trkpt>
      <trkpt lat="45.85278" lon="4.81155">
        <ele>462</ele>
        <time>2011-12-11T11:02:49Z</time>
      </trkpt>
      <trkpt lat="45.8527" lon="4.81146">
        <ele>462</ele>
        <time>2011-12-11T11:02:54Z</time>
      </trkpt>
      <trkpt lat="45.85268" lon="4.81144">
        <ele>462</ele>
        <time>2011-12-11T11:02:55Z</time>
      </trkpt>
      <trkpt lat="45.85256" lon="4.81129">
        <ele>462</ele>
        <time>2011-12-11T11:03:00Z</time>
      </trkpt>
      <trkpt lat="45.85248" lon="4.81121">
        <ele>472</ele>
        <time>2011-12-11T11:03:05Z</time>
      </trkpt>
      <trkpt lat="45.85241" lon="4.81116">
        <ele>472</ele>
        <time>2011-12-11T11:03:09Z</time>
      </trkpt>
      <trkpt lat="45.85237" lon="4.81113">
        <ele>472</ele>
        <time>2011-12-11T11:03:11Z</time>
      </trkpt>
      <trkpt lat="45.85228" lon="4.81104">
        <ele>472</ele>
        <time>2011-12-11T11:03:17Z</time>
      </trkpt>
      <trkpt lat="45.85224" lon="4.81101">
        <ele>472</ele>
        <time>2011-12-11T11:03:20Z</time>
      </trkpt>
      <trkpt lat="45.85221" lon="4.81097">
        <ele>472</ele>
        <time>2011-12-11T11:03:22Z</time>
      </trkpt>
      <trkpt lat="45.85219" lon="4.81096">
        <ele>472</ele>
        <time>2011-12-11T11:03:23Z</time>
      </trkpt>
      <trkpt lat="45.85213" lon="4.81089">
        <ele>473</ele>
        <time>2011-12-11T11:03:28Z</time>
      </trkpt>
      <trkpt lat="45.85209" lon="4.81085">
        <ele>474</ele>
        <time>2011-12-11T11:03:30Z</time>
      </trkpt>
      <trkpt lat="45.85204" lon="4.81081">
        <ele>471</ele>
        <time>2011-12-11T11:03:33Z</time>
      </trkpt>
      <trkpt lat="45.85193" lon="4.81068">
        <ele>472</ele>
        <time>2011-12-11T11:03:40Z</time>
      </trkpt>
      <trkpt lat="45.85185" lon="4.81055">
        <ele>472</ele>
        <time>2011-12-11T11:03:46Z</time>
      </trkpt>
      <trkpt lat="45.85182" lon="4.81046">
        <ele>472</ele>
        <time>2011-12-11T11:03:49Z</time>
      </trkpt>
      <trkpt lat="45.85179" lon="4.81041">
        <ele>472</ele>
        <time>2011-12-11T11:03:51Z</time>
      </trkpt>
      <trkpt lat="45.85173" lon="4.8103">
        <ele>472</ele>
        <time>2011-12-11T11:03:56Z</time>
      </trkpt>
      <trkpt lat="45.8517" lon="4.81027">
        <ele>472</ele>
        <time>2011-12-11T11:03:58Z</time>
      </trkpt>
      <trkpt lat="45.85169" lon="4.81025">
        <ele>472</ele>
        <time>2011-12-11T11:03:59Z</time>
      </trkpt>
      <trkpt lat="45.85166" lon="4.81021">
        <ele>480</ele>
        <time>2011-12-11T11:04:01Z</time>
      </trkpt>
      <trkpt lat="45.8516" lon="4.81015">
        <ele>480</ele>
        <time>2011-12-11T11:04:05Z</time>
      </trkpt>
      <trkpt lat="45.85153" lon="4.81011">
        <ele>480</ele>
        <time>2011-12-11T11:04:09Z</time>
      </trkpt>
      <trkpt lat="45.85151" lon="4.81008">
        <ele>480</ele>
        <time>2011-12-11T11:04:10Z</time>
      </trkpt>
      <trkpt lat="45.85147" lon="4.81005">
        <ele>480</ele>
        <time>2011-12-11T11:04:12Z</time>
      </trkpt>
      <trkpt lat="45.85137" lon="4.80998">
        <ele>478</ele>
        <time>2011-12-11T11:04:16Z</time>
      </trkpt>
      <trkpt lat="45.8513" lon="4.80988">
        <ele>479</ele>
        <time>2011-12-11T11:04:21Z</time>
      </trkpt>
      <trkpt lat="45.85124" lon="4.8098">
        <ele>479</ele>
        <time>2011-12-11T11:04:25Z</time>
      </trkpt>
      <trkpt lat="45.85121" lon="4.80976">
        <ele>479</ele>
        <time>2011-12-11T11:04:27Z</time>
      </trkpt>
      <trkpt lat="45.8511" lon="4.80962">
        <ele>479</ele>
        <time>2011-12-11T11:04:33Z</time>
      </trkpt>
      <trkpt lat="45.85102" lon="4.80952">
        <ele>480</ele>
        <time>2011-12-11T11:04:38Z</time>
      </trkpt>
      <trkpt lat="45.85096" lon="4.80943">
        <ele>481</ele>
        <time>2011-12-11T11:04:43Z</time>
      </trkpt>
      <trkpt lat="45.85092" lon="4.80936">
        <ele>482</ele>
        <time>2011-12-11T11:04:46Z</time>
      </trkpt>
      <trkpt lat="45.85084" lon="4.80923">
        <ele>485</ele>
        <time>2011-12-11T11:04:52Z</time>
      </trkpt>
      <trkpt lat="45.85082" lon="4.80921">
        <ele>487</ele>
        <time>2011-12-11T11:04:53Z</time>
      </trkpt>
      <trkpt lat="45.85075" lon="4.80909">
        <ele>487</ele>
        <time>2011-12-11T11:04:59Z</time>
      </trkpt>
      <trkpt lat="45.85071" lon="4.80904">
        <ele>487</ele>
        <time>2011-12-11T11:05:02Z</time>
      </trkpt>
      <trkpt lat="45.85067" lon="4.80897">
        <ele>486</ele>
        <time>2011-12-11T11:05:05Z</time>
      </trkpt>
      <trkpt lat="45.85058" lon="4.80886">
        <ele>486</ele>
        <time>2011-12-11T11:05:11Z</time>
      </trkpt>
      <trkpt lat="45.85057" lon="4.80884">
        <ele>486</ele>
        <time>2011-12-11T11:05:12Z</time>
      </trkpt>
      <trkpt lat="45.85047" lon="4.80869">
        <ele>486</ele>
        <time>2011-12-11T11:05:20Z</time>
      </trkpt>
      <trkpt lat="45.85046" lon="4.80867">
        <ele>486</ele>
        <time>2011-12-11T11:05:21Z</time>
      </trkpt>
      <trkpt lat="45.85041" lon="4.80859">
        <ele>487</ele>
        <time>2011-12-11T11:05:24Z</time>
      </trkpt>
      <trkpt lat="45.85039" lon="4.80853">
        <ele>487</ele>
        <time>2011-12-11T11:05:26Z</time>
      </trkpt>
      <trkpt lat="45.85036" lon="4.80848">
        <ele>487</ele>
        <time>2011-12-11T11:05:28Z</time>
      </trkpt>
      <trkpt lat="45.85034" lon="4.80845">
        <ele>487</ele>
        <time>2011-12-11T11:05:29Z</time>
      </trkpt>
      <trkpt lat="45.8503" lon="4.80834">
        <ele>488</ele>
        <time>2011-12-11T11:05:33Z</time>
      </trkpt>
      <trkpt lat="45.85023" lon="4.80823">
        <ele>485</ele>
        <time>2011-12-11T11:05:37Z</time>
      </trkpt>
      <trkpt lat="45.85022" lon="4.80821">
        <ele>485</ele>
        <time>2011-12-11T11:05:38Z</time>
      </trkpt>
      <trkpt lat="45.85013" lon="4.80806">
        <ele>484</ele>
        <time>2011-12-11T11:05:44Z</time>
      </trkpt>
      <trkpt lat="45.85011" lon="4.80802">
        <ele>484</ele>
        <time>2011-12-11T11:05:46Z</time>
      </trkpt>
      <trkpt lat="45.85007" lon="4.8079">
        <ele>483</ele>
        <time>2011-12-11T11:05:51Z</time>
      </trkpt>
      <trkpt lat="45.85004" lon="4.80778">
        <ele>483</ele>
        <time>2011-12-11T11:05:55Z</time>
      </trkpt>
      <trkpt lat="45.85003" lon="4.80775">
        <ele>484</ele>
        <time>2011-12-11T11:05:56Z</time>
      </trkpt>
      <trkpt lat="45.84996" lon="4.80759">
        <ele>490</ele>
        <time>2011-12-11T11:06:01Z</time>
      </trkpt>
      <trkpt lat="45.84994" lon="4.80753">
        <ele>490</ele>
        <time>2011-12-11T11:06:03Z</time>
      </trkpt>
      <trkpt lat="45.8499" lon="4.80744">
        <ele>488</ele>
        <time>2011-12-11T11:06:06Z</time>
      </trkpt>
      <trkpt lat="45.84981" lon="4.8073">
        <ele>488</ele>
        <time>2011-12-11T11:06:11Z</time>
      </trkpt>
      <trkpt lat="45.84974" lon="4.80714">
        <ele>487</ele>
        <time>2011-12-11T11:06:16Z</time>
      </trkpt>
      <trkpt lat="45.84971" lon="4.80707">
        <ele>487</ele>
        <time>2011-12-11T11:06:18Z</time>
      </trkpt>
      <trkpt lat="45.84968" lon="4.80702">
        <ele>487</ele>
        <time>2011-12-11T11:06:20Z</time>
      </trkpt>
      <trkpt lat="45.84961" lon="4.80686">
        <ele>487</ele>
        <time>2011-12-11T11:06:25Z</time>
      </trkpt>
      <trkpt lat="45.8496" lon="4.80684">
        <ele>487</ele>
        <time>2011-12-11T11:06:26Z</time>
      </trkpt>
      <trkpt lat="45.84956" lon="4.80677">
        <ele>488</ele>
        <time>2011-12-11T11:06:30Z</time>
      </trkpt>
      <trkpt lat="45.84952" lon="4.80672">
        <ele>488</ele>
        <time>2011-12-11T11:06:33Z</time>
      </trkpt>
      <trkpt lat="45.84952" lon="4.80672">
        <ele>488</ele>
        <time>2011-12-11T11:06:35Z</time>
      </trkpt>
      <trkpt lat="45.84957" lon="4.8067">
        <ele>487</ele>
        <time>2011-12-11T11:06:49Z</time>
      </trkpt>
      <trkpt lat="45.84959" lon="4.80676">
        <ele>487</ele>
        <time>2011-12-11T11:06:57Z</time>
      </trkpt>
      <trkpt lat="45.84953" lon="4.80676">
        <ele>488</ele>
        <time>2011-12-11T11:07:02Z</time>
      </trkpt>
      <trkpt lat="45.84952" lon="4.80674">
        <ele>488</ele>
        <time>2011-12-11T11:07:12Z</time>
      </trkpt>
      <trkpt lat="45.84953" lon="4.80672">
        <ele>488</ele>
        <time>2011-12-11T11:07:19Z</time>
      </trkpt>
      <trkpt lat="45.8495" lon="4.80674">
        <ele>489</ele>
        <time>2011-12-11T11:08:15Z</time>
      </trkpt>
      <trkpt lat="45.8495" lon="4.80675">
        <ele>489</ele>
        <time>2011-12-11T11:08:48Z</time>
      </trkpt>
      <trkpt lat="45.84953" lon="4.80675">
        <ele>488</ele>
        <time>2011-12-11T11:08:59Z</time>
      </trkpt>
      <trkpt lat="45.84953" lon="4.80676">
        <ele>488</ele>
        <time>2011-12-11T11:09:05Z</time>
      </trkpt>
      <trkpt lat="45.84952" lon="4.80674">
        <ele>488</ele>
        <time>2011-12-11T11:09:14Z</time>
      </trkpt>
      <trkpt lat="45.84952" lon="4.80672">
        <ele>488</ele>
        <time>2011-12-11T11:09:29Z</time>
      </trkpt>
      <trkpt lat="45.84949" lon="4.8067">
        <ele>489</ele>
        <time>2011-12-11T11:09:32Z</time>
      </trkpt>
      <trkpt lat="45.84937" lon="4.80668">
        <ele>491</ele>
        <time>2011-12-11T11:09:37Z</time>
      </trkpt>
      <trkpt lat="45.84921" lon="4.80663">
        <ele>493</ele>
        <time>2011-12-11T11:09:44Z</time>
      </trkpt>
      <trkpt lat="45.84919" lon="4.80662">
        <ele>494</ele>
        <time>2011-12-11T11:09:45Z</time>
      </trkpt>
      <trkpt lat="45.8491" lon="4.80659">
        <ele>496</ele>
        <time>2011-12-11T11:09:49Z</time>
      </trkpt>
      <trkpt lat="45.84902" lon="4.80655">
        <ele>497</ele>
        <time>2011-12-11T11:09:52Z</time>
      </trkpt>
      <trkpt lat="45.84896" lon="4.80653">
        <ele>497</ele>
        <time>2011-12-11T11:09:54Z</time>
      </trkpt>
      <trkpt lat="45.84883" lon="4.8065">
        <ele>497</ele>
        <time>2011-12-11T11:09:59Z</time>
      </trkpt>
      <trkpt lat="45.84871" lon="4.80644">
        <ele>497</ele>
        <time>2011-12-11T11:10:04Z</time>
      </trkpt>
      <trkpt lat="45.84866" lon="4.80642">
        <ele>497</ele>
        <time>2011-12-11T11:10:06Z</time>
      </trkpt>
      <trkpt lat="45.84852" lon="4.8064">
        <ele>497</ele>
        <time>2011-12-11T11:10:11Z</time>
      </trkpt>
      <trkpt lat="45.84847" lon="4.80638">
        <ele>497</ele>
        <time>2011-12-11T11:10:13Z</time>
      </trkpt>
      <trkpt lat="45.84838" lon="4.80636">
        <ele>497</ele>
        <time>2011-12-11T11:10:16Z</time>
      </trkpt>
      <trkpt lat="45.84827" lon="4.80634">
        <ele>497</ele>
        <time>2011-12-11T11:10:20Z</time>
      </trkpt>
      <trkpt lat="45.84824" lon="4.80633">
        <ele>497</ele>
        <time>2011-12-11T11:10:21Z</time>
      </trkpt>
      <trkpt lat="45.84812" lon="4.80629">
        <ele>498</ele>
        <time>2011-12-11T11:10:26Z</time>
      </trkpt>
      <trkpt lat="45.84809" lon="4.80629">
        <ele>498</ele>
        <time>2011-12-11T11:10:27Z</time>
      </trkpt>
      <trkpt lat="45.84798" lon="4.80626">
        <ele>498</ele>
        <time>2011-12-11T11:10:31Z</time>
      </trkpt>
      <trkpt lat="45.84791" lon="4.80626">
        <ele>498</ele>
        <time>2011-12-11T11:10:34Z</time>
      </trkpt>
      <trkpt lat="45.84782" lon="4.80626">
        <ele>498</ele>
        <time>2011-12-11T11:10:37Z</time>
      </trkpt>
      <trkpt lat="45.84771" lon="4.80629">
        <ele>497</ele>
        <time>2011-12-11T11:10:41Z</time>
      </trkpt>
      <trkpt lat="45.84768" lon="4.80631">
        <ele>497</ele>
        <time>2011-12-11T11:10:43Z</time>
      </trkpt>
      <trkpt lat="45.84756" lon="4.80633">
        <ele>496</ele>
        <time>2011-12-11T11:10:47Z</time>
      </trkpt>
      <trkpt lat="45.84753" lon="4.80633">
        <ele>496</ele>
        <time>2011-12-11T11:10:48Z</time>
      </trkpt>
      <trkpt lat="45.84743" lon="4.80638">
        <ele>495</ele>
        <time>2011-12-11T11:10:53Z</time>
      </trkpt>
      <trkpt lat="45.84735" lon="4.80641">
        <ele>495</ele>
        <time>2011-12-11T11:10:56Z</time>
      </trkpt>
      <trkpt lat="45.84729" lon="4.80644">
        <ele>494</ele>
        <time>2011-12-11T11:10:58Z</time>
      </trkpt>
      <trkpt lat="45.84716" lon="4.80644">
        <ele>495</ele>
        <time>2011-12-11T11:11:03Z</time>
      </trkpt>
      <trkpt lat="45.84714" lon="4.80644">
        <ele>495</ele>
        <time>2011-12-11T11:11:04Z</time>
      </trkpt>
      <trkpt lat="45.84697" lon="4.80647">
        <ele>495</ele>
        <time>2011-12-11T11:11:10Z</time>
      </trkpt>
      <trkpt lat="45.84686" lon="4.80647">
        <ele>494</ele>
        <time>2011-12-11T11:11:15Z</time>
      </trkpt>
      <trkpt lat="45.84677" lon="4.80647">
        <ele>494</ele>
        <time>2011-12-11T11:11:19Z</time>
      </trkpt>
      <trkpt lat="45.84674" lon="4.80647">
        <ele>494</ele>
        <time>2011-12-11T11:11:20Z</time>
      </trkpt>
      <trkpt lat="45.84659" lon="4.80643">
        <ele>492</ele>
        <time>2011-12-11T11:11:26Z</time>
      </trkpt>
      <trkpt lat="45.84647" lon="4.80639">
        <ele>492</ele>
        <time>2011-12-11T11:11:31Z</time>
      </trkpt>
      <trkpt lat="45.8464" lon="4.80638">
        <ele>492</ele>
        <time>2011-12-11T11:11:34Z</time>
      </trkpt>
      <trkpt lat="45.84633" lon="4.80636">
        <ele>492</ele>
        <time>2011-12-11T11:11:37Z</time>
      </trkpt>
      <trkpt lat="45.84621" lon="4.80635">
        <ele>492</ele>
        <time>2011-12-11T11:11:42Z</time>
      </trkpt>
      <trkpt lat="45.84608" lon="4.80633">
        <ele>491</ele>
        <time>2011-12-11T11:11:48Z</time>
      </trkpt>
      <trkpt lat="45.84602" lon="4.80629">
        <ele>491</ele>
        <time>2011-12-11T11:11:52Z</time>
      </trkpt>
      <trkpt lat="45.84599" lon="4.80625">
        <ele>492</ele>
        <time>2011-12-11T11:11:54Z</time>
      </trkpt>
      <trkpt lat="45.84591" lon="4.80614">
        <ele>492</ele>
        <time>2011-12-11T11:11:59Z</time>
      </trkpt>
      <trkpt lat="45.84589" lon="4.80608">
        <ele>493</ele>
        <time>2011-12-11T11:12:01Z</time>
      </trkpt>
      <trkpt lat="45.84587" lon="4.80597">
        <ele>493</ele>
        <time>2011-12-11T11:12:05Z</time>
      </trkpt>
      <trkpt lat="45.84584" lon="4.80588">
        <ele>494</ele>
        <time>2011-12-11T11:12:10Z</time>
      </trkpt>
      <trkpt lat="45.84582" lon="4.80583">
        <ele>494</ele>
        <time>2011-12-11T11:12:12Z</time>
      </trkpt>
      <trkpt lat="45.84578" lon="4.80576">
        <ele>496</ele>
        <time>2011-12-11T11:12:15Z</time>
      </trkpt>
      <trkpt lat="45.84574" lon="4.80574">
        <ele>497</ele>
        <time>2011-12-11T11:12:18Z</time>
      </trkpt>
      <trkpt lat="45.84571" lon="4.80572">
        <ele>497</ele>
        <time>2011-12-11T11:12:20Z</time>
      </trkpt>
      <trkpt lat="45.84568" lon="4.80569">
        <ele>497</ele>
        <time>2011-12-11T11:12:22Z</time>
      </trkpt>
      <trkpt lat="45.84566" lon="4.80567">
        <ele>498</ele>
        <time>2011-12-11T11:12:23Z</time>
      </trkpt>
      <trkpt lat="45.84564" lon="4.80566">
        <ele>498</ele>
        <time>2011-12-11T11:12:24Z</time>
      </trkpt>
      <trkpt lat="45.84561" lon="4.80565">
        <ele>498</ele>
        <time>2011-12-11T11:12:25Z</time>
      </trkpt>
      <trkpt lat="45.84556" lon="4.80564">
        <ele>498</ele>
        <time>2011-12-11T11:12:29Z</time>
      </trkpt>
      <trkpt lat="45.84555" lon="4.80563">
        <ele>498</ele>
        <time>2011-12-11T11:12:31Z</time>
      </trkpt>
      <trkpt lat="45.84553" lon="4.8056">
        <ele>499</ele>
        <time>2011-12-11T11:12:35Z</time>
      </trkpt>
      <trkpt lat="45.8455" lon="4.80559">
        <ele>499</ele>
        <time>2011-12-11T11:12:38Z</time>
      </trkpt>
      <trkpt lat="45.84546" lon="4.8056">
        <ele>499</ele>
        <time>2011-12-11T11:12:41Z</time>
      </trkpt>
      <trkpt lat="45.84542" lon="4.80562">
        <ele>499</ele>
        <time>2011-12-11T11:12:44Z</time>
      </trkpt>
      <trkpt lat="45.8453" lon="4.80566">
        <ele>498</ele>
        <time>2011-12-11T11:12:51Z</time>
      </trkpt>
      <trkpt lat="45.84529" lon="4.80567">
        <ele>498</ele>
        <time>2011-12-11T11:12:52Z</time>
      </trkpt>
      <trkpt lat="45.84521" lon="4.80573">
        <ele>497</ele>
        <time>2011-12-11T11:12:56Z</time>
      </trkpt>
      <trkpt lat="45.84515" lon="4.80576">
        <ele>496</ele>
        <time>2011-12-11T11:12:59Z</time>
      </trkpt>
      <trkpt lat="45.84513" lon="4.80577">
        <ele>496</ele>
        <time>2011-12-11T11:13:00Z</time>
      </trkpt>
      <trkpt lat="45.8451" lon="4.80578">
        <ele>496</ele>
        <time>2011-12-11T11:13:02Z</time>
      </trkpt>
      <trkpt lat="45.84496" lon="4.80583">
        <ele>494</ele>
        <time>2011-12-11T11:13:09Z</time>
      </trkpt>
      <trkpt lat="45.84494" lon="4.80583">
        <ele>495</ele>
        <time>2011-12-11T11:13:10Z</time>
      </trkpt>
      <trkpt lat="45.84484" lon="4.80587">
        <ele>491</ele>
        <time>2011-12-11T11:13:15Z</time>
      </trkpt>
      <trkpt lat="45.84475" lon="4.80587">
        <ele>491</ele>
        <time>2011-12-11T11:13:19Z</time>
      </trkpt>
      <trkpt lat="45.84468" lon="4.80588">
        <ele>491</ele>
        <time>2011-12-11T11:13:22Z</time>
      </trkpt>
      <trkpt lat="45.84455" lon="4.80588">
        <ele>491</ele>
        <time>2011-12-11T11:13:27Z</time>
      </trkpt>
      <trkpt lat="45.84444" lon="4.80584">
        <ele>492</ele>
        <time>2011-12-11T11:13:32Z</time>
      </trkpt>
      <trkpt lat="45.84438" lon="4.80583">
        <ele>499</ele>
        <time>2011-12-11T11:13:35Z</time>
      </trkpt>
      <trkpt lat="45.84433" lon="4.80584">
        <ele>493</ele>
        <time>2011-12-11T11:13:37Z</time>
      </trkpt>
      <trkpt lat="45.84424" lon="4.80579">
        <ele>498</ele>
        <time>2011-12-11T11:13:42Z</time>
      </trkpt>
      <trkpt lat="45.84419" lon="4.80577">
        <ele>498</ele>
        <time>2011-12-11T11:13:44Z</time>
      </trkpt>
      <trkpt lat="45.84407" lon="4.80575">
        <ele>498</ele>
        <time>2011-12-11T11:13:49Z</time>
      </trkpt>
      <trkpt lat="45.844" lon="4.80573">
        <ele>499</ele>
        <time>2011-12-11T11:13:52Z</time>
      </trkpt>
      <trkpt lat="45.84397" lon="4.8057">
        <ele>499</ele>
        <time>2011-12-11T11:13:54Z</time>
      </trkpt>
      <trkpt lat="45.84385" lon="4.80563">
        <ele>499</ele>
        <time>2011-12-11T11:13:59Z</time>
      </trkpt>
      <trkpt lat="45.84383" lon="4.80562">
        <ele>500</ele>
        <time>2011-12-11T11:14:00Z</time>
      </trkpt>
      <trkpt lat="45.84374" lon="4.8056">
        <ele>500</ele>
        <time>2011-12-11T11:14:04Z</time>
      </trkpt>
      <trkpt lat="45.84363" lon="4.80558">
        <ele>499</ele>
        <time>2011-12-11T11:14:09Z</time>
      </trkpt>
      <trkpt lat="45.84361" lon="4.80558">
        <ele>499</ele>
        <time>2011-12-11T11:14:10Z</time>
      </trkpt>
      <trkpt lat="45.84356" lon="4.80558">
        <ele>499</ele>
        <time>2011-12-11T11:14:16Z</time>
      </trkpt>
      <trkpt lat="45.84354" lon="4.80557">
        <ele>499</ele>
        <time>2011-12-11T11:14:26Z</time>
      </trkpt>
      <trkpt lat="45.84358" lon="4.80559">
        <ele>499</ele>
        <time>2011-12-11T11:14:43Z</time>
      </trkpt>
      <trkpt lat="45.84359" lon="4.80558">
        <ele>499</ele>
        <time>2011-12-11T11:15:26Z</time>
      </trkpt>
      <trkpt lat="45.84362" lon="4.80555">
        <ele>500</ele>
        <time>2011-12-11T11:15:57Z</time>
      </trkpt>
      <trkpt lat="45.84358" lon="4.80555">
        <ele>500</ele>
        <time>2011-12-11T11:16:01Z</time>
      </trkpt>
      <trkpt lat="45.84354" lon="4.80558">
        <ele>499</ele>
        <time>2011-12-11T11:16:15Z</time>
      </trkpt>
      <trkpt lat="45.84353" lon="4.80558">
        <ele>499</ele>
        <time>2011-12-11T11:16:16Z</time>
      </trkpt>
      <trkpt lat="45.84346" lon="4.80558">
        <ele>499</ele>
        <time>2011-12-11T11:16:19Z</time>
      </trkpt>
      <trkpt lat="45.84343" lon="4.8056">
        <ele>499</ele>
        <time>2011-12-11T11:16:20Z</time>
      </trkpt>
      <trkpt lat="45.84338" lon="4.80562">
        <ele>498</ele>
        <time>2011-12-11T11:16:22Z</time>
      </trkpt>
      <trkpt lat="45.84329" lon="4.80567">
        <ele>497</ele>
        <time>2011-12-11T11:16:26Z</time>
      </trkpt>
      <trkpt lat="45.84327" lon="4.80569">
        <ele>497</ele>
        <time>2011-12-11T11:16:27Z</time>
      </trkpt>
      <trkpt lat="45.84317" lon="4.80575">
        <ele>496</ele>
        <time>2011-12-11T11:16:31Z</time>
      </trkpt>
      <trkpt lat="45.8431" lon="4.80581">
        <ele>496</ele>
        <time>2011-12-11T11:16:34Z</time>
      </trkpt>
      <trkpt lat="45.84301" lon="4.80584">
        <ele>491</ele>
        <time>2011-12-11T11:16:38Z</time>
      </trkpt>
      <trkpt lat="45.84292" lon="4.8059">
        <ele>491</ele>
        <time>2011-12-11T11:16:42Z</time>
      </trkpt>
      <trkpt lat="45.8428" lon="4.80596">
        <ele>490</ele>
        <time>2011-12-11T11:16:48Z</time>
      </trkpt>
      <trkpt lat="45.84273" lon="4.80602">
        <ele>490</ele>
        <time>2011-12-11T11:16:52Z</time>
      </trkpt>
      <trkpt lat="45.84272" lon="4.80604">
        <ele>490</ele>
        <time>2011-12-11T11:16:53Z</time>
      </trkpt>
      <trkpt lat="45.84263" lon="4.8062">
        <ele>489</ele>
        <time>2011-12-11T11:16:59Z</time>
      </trkpt>
      <trkpt lat="45.84261" lon="4.80622">
        <ele>489</ele>
        <time>2011-12-11T11:17:00Z</time>
      </trkpt>
      <trkpt lat="45.84253" lon="4.80634">
        <ele>488</ele>
        <time>2011-12-11T11:17:05Z</time>
      </trkpt>
      <trkpt lat="45.84249" lon="4.80644">
        <ele>485</ele>
        <time>2011-12-11T11:17:08Z</time>
      </trkpt>
      <trkpt lat="45.84246" lon="4.80655">
        <ele>484</ele>
        <time>2011-12-11T11:17:11Z</time>
      </trkpt>
      <trkpt lat="45.84243" lon="4.8067">
        <ele>483</ele>
        <time>2011-12-11T11:17:15Z</time>
      </trkpt>
      <trkpt lat="45.84243" lon="4.80677">
        <ele>482</ele>
        <time>2011-12-11T11:17:17Z</time>
      </trkpt>
      <trkpt lat="45.84244" lon="4.80696">
        <ele>480</ele>
        <time>2011-12-11T11:17:22Z</time>
      </trkpt>
      <trkpt lat="45.84244" lon="4.8072">
        <ele>478</ele>
        <time>2011-12-11T11:17:29Z</time>
      </trkpt>
      <trkpt lat="45.84243" lon="4.80724">
        <ele>478</ele>
        <time>2011-12-11T11:17:30Z</time>
      </trkpt>
      <trkpt lat="45.84238" lon="4.80746">
        <ele>477</ele>
        <time>2011-12-11T11:17:36Z</time>
      </trkpt>
      <trkpt lat="45.84237" lon="4.80751">
        <ele>475</ele>
        <time>2011-12-11T11:17:37Z</time>
      </trkpt>
      <trkpt lat="45.84233" lon="4.80773">
        <ele>474</ele>
        <time>2011-12-11T11:17:43Z</time>
      </trkpt>
      <trkpt lat="45.84233" lon="4.80776">
        <ele>474</ele>
        <time>2011-12-11T11:17:44Z</time>
      </trkpt>
      <trkpt lat="45.84232" lon="4.8078">
        <ele>474</ele>
        <time>2011-12-11T11:17:45Z</time>
      </trkpt>
      <trkpt lat="45.84227" lon="4.80784">
        <ele>474</ele>
        <time>2011-12-11T11:17:47Z</time>
      </trkpt>
      <trkpt lat="45.84217" lon="4.80794">
        <ele>473</ele>
        <time>2011-12-11T11:17:51Z</time>
      </trkpt>
      <trkpt lat="45.84215" lon="4.80796">
        <ele>473</ele>
        <time>2011-12-11T11:17:52Z</time>
      </trkpt>
      <trkpt lat="45.84205" lon="4.80811">
        <ele>473</ele>
        <time>2011-12-11T11:17:57Z</time>
      </trkpt>
      <trkpt lat="45.84203" lon="4.80814">
        <ele>473</ele>
        <time>2011-12-11T11:17:58Z</time>
      </trkpt>
      <trkpt lat="45.84192" lon="4.80829">
        <ele>472</ele>
        <time>2011-12-11T11:18:03Z</time>
      </trkpt>
      <trkpt lat="45.84188" lon="4.80835">
        <ele>468</ele>
        <time>2011-12-11T11:18:05Z</time>
      </trkpt>
      <trkpt lat="45.8418" lon="4.80846">
        <ele>468</ele>
        <time>2011-12-11T11:18:09Z</time>
      </trkpt>
      <trkpt lat="45.84176" lon="4.80855">
        <ele>468</ele>
        <time>2011-12-11T11:18:12Z</time>
      </trkpt>
      <trkpt lat="45.84175" lon="4.80863">
        <ele>467</ele>
        <time>2011-12-11T11:18:14Z</time>
      </trkpt>
      <trkpt lat="45.84169" lon="4.80882">
        <ele>466</ele>
        <time>2011-12-11T11:18:19Z</time>
      </trkpt>
      <trkpt lat="45.84156" lon="4.80901">
        <ele>463</ele>
        <time>2011-12-11T11:18:25Z</time>
      </trkpt>
      <trkpt lat="45.84145" lon="4.80915">
        <ele>463</ele>
        <time>2011-12-11T11:18:31Z</time>
      </trkpt>
      <trkpt lat="45.84144" lon="4.80922">
        <ele>460</ele>
        <time>2011-12-11T11:18:33Z</time>
      </trkpt>
      <trkpt lat="45.84144" lon="4.8093">
        <ele>460</ele>
        <time>2011-12-11T11:18:35Z</time>
      </trkpt>
      <trkpt lat="45.84142" lon="4.80946">
        <ele>459</ele>
        <time>2011-12-11T11:18:39Z</time>
      </trkpt>
      <trkpt lat="45.84141" lon="4.80949">
        <ele>459</ele>
        <time>2011-12-11T11:18:40Z</time>
      </trkpt>
      <trkpt lat="45.84136" lon="4.80963">
        <ele>458</ele>
        <time>2011-12-11T11:18:44Z</time>
      </trkpt>
      <trkpt lat="45.84131" lon="4.80971">
        <ele>458</ele>
        <time>2011-12-11T11:18:47Z</time>
      </trkpt>
      <trkpt lat="45.84124" lon="4.80978">
        <ele>457</ele>
        <time>2011-12-11T11:18:50Z</time>
      </trkpt>
      <trkpt lat="45.84114" lon="4.80988">
        <ele>457</ele>
        <time>2011-12-11T11:18:55Z</time>
      </trkpt>
      <trkpt lat="45.84113" lon="4.80991">
        <ele>457</ele>
        <time>2011-12-11T11:18:56Z</time>
      </trkpt>
      <trkpt lat="45.84105" lon="4.81003">
        <ele>454</ele>
        <time>2011-12-11T11:19:01Z</time>
      </trkpt>
      <trkpt lat="45.841" lon="4.81005">
        <ele>454</ele>
        <time>2011-12-11T11:19:03Z</time>
      </trkpt>
      <trkpt lat="45.84091" lon="4.8101">
        <ele>454</ele>
        <time>2011-12-11T11:19:07Z</time>
      </trkpt>
      <trkpt lat="45.84083" lon="4.81011">
        <ele>451</ele>
        <time>2011-12-11T11:19:10Z</time>
      </trkpt>
      <trkpt lat="45.8408" lon="4.8101">
        <ele>451</ele>
        <time>2011-12-11T11:19:11Z</time>
      </trkpt>
      <trkpt lat="45.84065" lon="4.81006">
        <ele>450</ele>
        <time>2011-12-11T11:19:17Z</time>
      </trkpt>
      <trkpt lat="45.84062" lon="4.81005">
        <ele>450</ele>
        <time>2011-12-11T11:19:18Z</time>
      </trkpt>
      <trkpt lat="45.8406" lon="4.81005">
        <ele>449</ele>
        <time>2011-12-11T11:19:19Z</time>
      </trkpt>
      <trkpt lat="45.84053" lon="4.81008">
        <ele>448</ele>
        <time>2011-12-11T11:19:22Z</time>
      </trkpt>
      <trkpt lat="45.84045" lon="4.81005">
        <ele>448</ele>
        <time>2011-12-11T11:19:25Z</time>
      </trkpt>
      <trkpt lat="45.84043" lon="4.81004">
        <ele>447</ele>
        <time>2011-12-11T11:19:26Z</time>
      </trkpt>
      <trkpt lat="45.84028" lon="4.81005">
        <ele>446</ele>
        <time>2011-12-11T11:19:32Z</time>
      </trkpt>
      <trkpt lat="45.84026" lon="4.81005">
        <ele>446</ele>
        <time>2011-12-11T11:19:33Z</time>
      </trkpt>
      <trkpt lat="45.84017" lon="4.81002">
        <ele>445</ele>
        <time>2011-12-11T11:19:37Z</time>
      </trkpt>
      <trkpt lat="45.84008" lon="4.81002">
        <ele>444</ele>
        <time>2011-12-11T11:19:41Z</time>
      </trkpt>
      <trkpt lat="45.84004" lon="4.81002">
        <ele>444</ele>
        <time>2011-12-11T11:19:43Z</time>
      </trkpt>
      <trkpt lat="45.83992" lon="4.81002">
        <ele>439</ele>
        <time>2011-12-11T11:19:49Z</time>
      </trkpt>
      <trkpt lat="45.83988" lon="4.81002">
        <ele>438</ele>
        <time>2011-12-11T11:19:51Z</time>
      </trkpt>
      <trkpt lat="45.83981" lon="4.81002">
        <ele>436</ele>
        <time>2011-12-11T11:19:54Z</time>
      </trkpt>
      <trkpt lat="45.83968" lon="4.81002">
        <ele>433</ele>
        <time>2011-12-11T11:19:59Z</time>
      </trkpt>
      <trkpt lat="45.83958" lon="4.80996">
        <ele>431</ele>
        <time>2011-12-11T11:20:03Z</time>
      </trkpt>
      <trkpt lat="45.83955" lon="4.80985">
        <ele>431</ele>
        <time>2011-12-11T11:20:06Z</time>
      </trkpt>
      <trkpt lat="45.83954" lon="4.80978">
        <ele>430</ele>
        <time>2011-12-11T11:20:08Z</time>
      </trkpt>
      <trkpt lat="45.83951" lon="4.80958">
        <ele>430</ele>
        <time>2011-12-11T11:20:13Z</time>
      </trkpt>
      <trkpt lat="45.83949" lon="4.80955">
        <ele>430</ele>
        <time>2011-12-11T11:20:18Z</time>
      </trkpt>
      <trkpt lat="45.8395" lon="4.80948">
        <ele>430</ele>
        <time>2011-12-11T11:20:36Z</time>
      </trkpt>
      <trkpt lat="45.83949" lon="4.80948">
        <ele>430</ele>
        <time>2011-12-11T11:20:43Z</time>
      </trkpt>
      <trkpt lat="45.83948" lon="4.80953">
        <ele>430</ele>
        <time>2011-12-11T11:20:47Z</time>
      </trkpt>
      <trkpt lat="45.83947" lon="4.80954">
        <ele>429</ele>
        <time>2011-12-11T11:20:51Z</time>
      </trkpt>
      <trkpt lat="45.83942" lon="4.80955">
        <ele>429</ele>
        <time>2011-12-11T11:21:02Z</time>
      </trkpt>
      <trkpt lat="45.83941" lon="4.80956">
        <ele>429</ele>
        <time>2011-12-11T11:21:03Z</time>
      </trkpt>
      <trkpt lat="45.83933" lon="4.80962">
        <ele>428</ele>
        <time>2011-12-11T11:21:08Z</time>
      </trkpt>
      <trkpt lat="45.83932" lon="4.80963">
        <ele>428</ele>
        <time>2011-12-11T11:21:09Z</time>
      </trkpt>
      <trkpt lat="45.83925" lon="4.80967">
        <ele>427</ele>
        <time>2011-12-11T11:21:13Z</time>
      </trkpt>
      <trkpt lat="45.83921" lon="4.80968">
        <ele>427</ele>
        <time>2011-12-11T11:21:16Z</time>
      </trkpt>
      <trkpt lat="45.83911" lon="4.80976">
        <ele>413</ele>
        <time>2011-12-11T11:21:21Z</time>
      </trkpt>
      <trkpt lat="45.83908" lon="4.80975">
        <ele>413</ele>
        <time>2011-12-11T11:21:23Z</time>
      </trkpt>
      <trkpt lat="45.83904" lon="4.80974">
        <ele>412</ele>
        <time>2011-12-11T11:21:25Z</time>
      </trkpt>
      <trkpt lat="45.83896" lon="4.80978">
        <ele>411</ele>
        <time>2011-12-11T11:21:30Z</time>
      </trkpt>
      <trkpt lat="45.83894" lon="4.8098">
        <ele>411</ele>
        <time>2011-12-11T11:21:31Z</time>
      </trkpt>
      <trkpt lat="45.8389" lon="4.80983">
        <ele>410</ele>
        <time>2011-12-11T11:21:33Z</time>
      </trkpt>
      <trkpt lat="45.83886" lon="4.80986">
        <ele>410</ele>
        <time>2011-12-11T11:21:35Z</time>
      </trkpt>
      <trkpt lat="45.83882" lon="4.80989">
        <ele>409</ele>
        <time>2011-12-11T11:21:37Z</time>
      </trkpt>
      <trkpt lat="45.83876" lon="4.80989">
        <ele>407</ele>
        <time>2011-12-11T11:21:40Z</time>
      </trkpt>
      <trkpt lat="45.83874" lon="4.80991">
        <ele>407</ele>
        <time>2011-12-11T11:21:41Z</time>
      </trkpt>
      <trkpt lat="45.83872" lon="4.80992">
        <ele>406</ele>
        <time>2011-12-11T11:21:42Z</time>
      </trkpt>
      <trkpt lat="45.83868" lon="4.80995">
        <ele>405</ele>
        <time>2011-12-11T11:21:44Z</time>
      </trkpt>
      <trkpt lat="45.8386" lon="4.80995">
        <ele>403</ele>
        <time>2011-12-11T11:21:48Z</time>
      </trkpt>
      <trkpt lat="45.83858" lon="4.80993">
        <ele>403</ele>
        <time>2011-12-11T11:21:50Z</time>
      </trkpt>
      <trkpt lat="45.83858" lon="4.80992">
        <ele>403</ele>
        <time>2011-12-11T11:21:51Z</time>
      </trkpt>
      <trkpt lat="45.83857" lon="4.80989">
        <ele>402</ele>
        <time>2011-12-11T11:21:54Z</time>
      </trkpt>
      <trkpt lat="45.83861" lon="4.80999">
        <ele>403</ele>
        <time>2011-12-11T11:22:24Z</time>
      </trkpt>
      <trkpt lat="45.8386" lon="4.8099">
        <ele>403</ele>
        <time>2011-12-11T11:22:27Z</time>
      </trkpt>
      <trkpt lat="45.83862" lon="4.80972">
        <ele>406</ele>
        <time>2011-12-11T11:22:33Z</time>
      </trkpt>
      <trkpt lat="45.83863" lon="4.8096">
        <ele>407</ele>
        <time>2011-12-11T11:22:37Z</time>
      </trkpt>
      <trkpt lat="45.83865" lon="4.80946">
        <ele>407</ele>
        <time>2011-12-11T11:22:42Z</time>
      </trkpt>
      <trkpt lat="45.83865" lon="4.80944">
        <ele>408</ele>
        <time>2011-12-11T11:22:43Z</time>
      </trkpt>
      <trkpt lat="45.83866" lon="4.80931">
        <ele>408</ele>
        <time>2011-12-11T11:22:49Z</time>
      </trkpt>
      <trkpt lat="45.83864" lon="4.80932">
        <ele>408</ele>
        <time>2011-12-11T11:22:51Z</time>
      </trkpt>
      <trkpt lat="45.83861" lon="4.80933">
        <ele>407</ele>
        <time>2011-12-11T11:22:54Z</time>
      </trkpt>
      <trkpt lat="45.83857" lon="4.80936">
        <ele>407</ele>
        <time>2011-12-11T11:22:57Z</time>
      </trkpt>
      <trkpt lat="45.83853" lon="4.80937">
        <ele>407</ele>
        <time>2011-12-11T11:22:59Z</time>
      </trkpt>
      <trkpt lat="45.83851" lon="4.80939">
        <ele>406</ele>
        <time>2011-12-11T11:23:00Z</time>
      </trkpt>
      <trkpt lat="45.83843" lon="4.80945">
        <ele>406</ele>
        <time>2011-12-11T11:23:05Z</time>
      </trkpt>
      <trkpt lat="45.83839" lon="4.80946">
        <ele>405</ele>
        <time>2011-12-11T11:23:07Z</time>
      </trkpt>
      <trkpt lat="45.83834" lon="4.80948">
        <ele>405</ele>
        <time>2011-12-11T11:23:10Z</time>
      </trkpt>
      <trkpt lat="45.83832" lon="4.80948">
        <ele>397</ele>
        <time>2011-12-11T11:23:11Z</time>
      </trkpt>
      <trkpt lat="45.83824" lon="4.80949">
        <ele>397</ele>
        <time>2011-12-11T11:23:15Z</time>
      </trkpt>
      <trkpt lat="45.83823" lon="4.80951">
        <ele>397</ele>
        <time>2011-12-11T11:23:19Z</time>
      </trkpt>
      <trkpt lat="45.8382" lon="4.80949">
        <ele>397</ele>
        <time>2011-12-11T11:23:22Z</time>
      </trkpt>
      <trkpt lat="45.83817" lon="4.80948">
        <ele>397</ele>
        <time>2011-12-11T11:23:24Z</time>
      </trkpt>
      <trkpt lat="45.83814" lon="4.80948">
        <ele>397</ele>
        <time>2011-12-11T11:23:25Z</time>
      </trkpt>
      <trkpt lat="45.8381" lon="4.80956">
        <ele>396</ele>
        <time>2011-12-11T11:23:28Z</time>
      </trkpt>
      <trkpt lat="45.83807" lon="4.80962">
        <ele>395</ele>
        <time>2011-12-11T11:23:30Z</time>
      </trkpt>
      <trkpt lat="45.83805" lon="4.80967">
        <ele>395</ele>
        <time>2011-12-11T11:23:32Z</time>
      </trkpt>
      <trkpt lat="45.83803" lon="4.80968">
        <ele>395</ele>
        <time>2011-12-11T11:23:33Z</time>
      </trkpt>
      <trkpt lat="45.83794" lon="4.80969">
        <ele>395</ele>
        <time>2011-12-11T11:23:38Z</time>
      </trkpt>
      <trkpt lat="45.83793" lon="4.8097">
        <ele>395</ele>
        <time>2011-12-11T11:23:39Z</time>
      </trkpt>
      <trkpt lat="45.83791" lon="4.80974">
        <ele>394</ele>
        <time>2011-12-11T11:23:43Z</time>
      </trkpt>
      <trkpt lat="45.83791" lon="4.80976">
        <ele>394</ele>
        <time>2011-12-11T11:23:44Z</time>
      </trkpt>
      <trkpt lat="45.83787" lon="4.80988">
        <ele>393</ele>
        <time>2011-12-11T11:23:48Z</time>
      </trkpt>
      <trkpt lat="45.83787" lon="4.80995">
        <ele>393</ele>
        <time>2011-12-11T11:23:50Z</time>
      </trkpt>
      <trkpt lat="45.83787" lon="4.80999">
        <ele>393</ele>
        <time>2011-12-11T11:23:51Z</time>
      </trkpt>
      <trkpt lat="45.83788" lon="4.81003">
        <ele>384</ele>
        <time>2011-12-11T11:23:52Z</time>
      </trkpt>
      <trkpt lat="45.83786" lon="4.81014">
        <ele>383</ele>
        <time>2011-12-11T11:23:56Z</time>
      </trkpt>
      <trkpt lat="45.83785" lon="4.81023">
        <ele>383</ele>
        <time>2011-12-11T11:24:00Z</time>
      </trkpt>
      <trkpt lat="45.83785" lon="4.81025">
        <ele>383</ele>
        <time>2011-12-11T11:24:01Z</time>
      </trkpt>
      <trkpt lat="45.83785" lon="4.81028">
        <ele>382</ele>
        <time>2011-12-11T11:24:02Z</time>
      </trkpt>
      <trkpt lat="45.83785" lon="4.81036">
        <ele>382</ele>
        <time>2011-12-11T11:24:06Z</time>
      </trkpt>
      <trkpt lat="45.83786" lon="4.8104">
        <ele>381</ele>
        <time>2011-12-11T11:24:09Z</time>
      </trkpt>
      <trkpt lat="45.83785" lon="4.81042">
        <ele>381</ele>
        <time>2011-12-11T11:24:11Z</time>
      </trkpt>
      <trkpt lat="45.83783" lon="4.8105">
        <ele>380</ele>
        <time>2011-12-11T11:24:15Z</time>
      </trkpt>
      <trkpt lat="45.83781" lon="4.81053">
        <ele>380</ele>
        <time>2011-12-11T11:24:17Z</time>
      </trkpt>
      <trkpt lat="45.83782" lon="4.8106">
        <ele>379</ele>
        <time>2011-12-11T11:24:21Z</time>
      </trkpt>
      <trkpt lat="45.83786" lon="4.81073">
        <ele>378</ele>
        <time>2011-12-11T11:24:26Z</time>
      </trkpt>
      <trkpt lat="45.83786" lon="4.81076">
        <ele>378</ele>
        <time>2011-12-11T11:24:27Z</time>
      </trkpt>
      <trkpt lat="45.83787" lon="4.81084">
        <ele>369</ele>
        <time>2011-12-11T11:24:31Z</time>
      </trkpt>
      <trkpt lat="45.83786" lon="4.81091">
        <ele>369</ele>
        <time>2011-12-11T11:24:35Z</time>
      </trkpt>
      <trkpt lat="45.83786" lon="4.81094">
        <ele>369</ele>
        <time>2011-12-11T11:24:36Z</time>
      </trkpt>
      <trkpt lat="45.83786" lon="4.81096">
        <ele>369</ele>
        <time>2011-12-11T11:24:37Z</time>
      </trkpt>
      <trkpt lat="45.83786" lon="4.81099">
        <ele>369</ele>
        <time>2011-12-11T11:24:40Z</time>
      </trkpt>
      <trkpt lat="45.83787" lon="4.811">
        <ele>369</ele>
        <time>2011-12-11T11:24:42Z</time>
      </trkpt>
      <trkpt lat="45.83788" lon="4.81101">
        <ele>369</ele>
        <time>2011-12-11T11:24:44Z</time>
      </trkpt>
      <trkpt lat="45.83788" lon="4.81102">
        <ele>369</ele>
        <time>2011-12-11T11:24:45Z</time>
      </trkpt>
      <trkpt lat="45.83791" lon="4.81107">
        <ele>369</ele>
        <time>2011-12-11T11:24:48Z</time>
      </trkpt>
      <trkpt lat="45.83794" lon="4.81108">
        <ele>369</ele>
        <time>2011-12-11T11:24:50Z</time>
      </trkpt>
      <trkpt lat="45.83798" lon="4.81109">
        <ele>369</ele>
        <time>2011-12-11T11:24:55Z</time>
      </trkpt>
      <trkpt lat="45.83798" lon="4.81112">
        <ele>369</ele>
        <time>2011-12-11T11:24:57Z</time>
      </trkpt>
      <trkpt lat="45.838" lon="4.81113">
        <ele>369</ele>
        <time>2011-12-11T11:25:04Z</time>
      </trkpt>
      <trkpt lat="45.83802" lon="4.81117">
        <ele>368</ele>
        <time>2011-12-11T11:25:09Z</time>
      </trkpt>
      <trkpt lat="45.83801" lon="4.81115">
        <ele>368</ele>
        <time>2011-12-11T11:25:18Z</time>
      </trkpt>
      <trkpt lat="45.83799" lon="4.81117">
        <ele>368</ele>
        <time>2011-12-11T11:25:20Z</time>
      </trkpt>
      <trkpt lat="45.83797" lon="4.81121">
        <ele>368</ele>
        <time>2011-12-11T11:25:23Z</time>
      </trkpt>
      <trkpt lat="45.83796" lon="4.8112">
        <ele>368</ele>
        <time>2011-12-11T11:25:24Z</time>
      </trkpt>
      <trkpt lat="45.83794" lon="4.81123">
        <ele>368</ele>
        <time>2011-12-11T11:25:27Z</time>
      </trkpt>
      <trkpt lat="45.83793" lon="4.81126">
        <ele>367</ele>
        <time>2011-12-11T11:25:29Z</time>
      </trkpt>
      <trkpt lat="45.83792" lon="4.81126">
        <ele>367</ele>
        <time>2011-12-11T11:25:30Z</time>
      </trkpt>
      <trkpt lat="45.83789" lon="4.81131">
        <ele>367</ele>
        <time>2011-12-11T11:25:34Z</time>
      </trkpt>
      <trkpt lat="45.83787" lon="4.81132">
        <ele>366</ele>
        <time>2011-12-11T11:25:36Z</time>
      </trkpt>
      <trkpt lat="45.83787" lon="4.81133">
        <ele>366</ele>
        <time>2011-12-11T11:25:39Z</time>
      </trkpt>
      <trkpt lat="45.83785" lon="4.81134">
        <ele>366</ele>
        <time>2011-12-11T11:25:44Z</time>
      </trkpt>
      <trkpt lat="45.83783" lon="4.81139">
        <ele>366</ele>
        <time>2011-12-11T11:25:50Z</time>
      </trkpt>
      <trkpt lat="45.83786" lon="4.81141">
        <ele>366</ele>
        <time>2011-12-11T11:25:53Z</time>
      </trkpt>
      <trkpt lat="45.83786" lon="4.81142">
        <ele>366</ele>
        <time>2011-12-11T11:25:54Z</time>
      </trkpt>
      <trkpt lat="45.83783" lon="4.81145">
        <ele>365</ele>
        <time>2011-12-11T11:25:56Z</time>
      </trkpt>
      <trkpt lat="45.83782" lon="4.81147">
        <ele>365</ele>
        <time>2011-12-11T11:25:57Z</time>
      </trkpt>
      <trkpt lat="45.83781" lon="4.81149">
        <ele>365</ele>
        <time>2011-12-11T11:25:58Z</time>
      </trkpt>
      <trkpt lat="45.8378" lon="4.81152">
        <ele>365</ele>
        <time>2011-12-11T11:26:00Z</time>
      </trkpt>
      <trkpt lat="45.8378" lon="4.81152">
        <ele>365</ele>
        <time>2011-12-11T11:26:02Z</time>
      </trkpt>
      <trkpt lat="45.83778" lon="4.81158">
        <ele>364</ele>
        <time>2011-12-11T11:26:05Z</time>
      </trkpt>
      <trkpt lat="45.8378" lon="4.81159">
        <ele>364</ele>
        <time>2011-12-11T11:26:08Z</time>
      </trkpt>
      <trkpt lat="45.8378" lon="4.81154">
        <ele>364</ele>
        <time>2011-12-11T11:26:14Z</time>
      </trkpt>
      <trkpt lat="45.8378" lon="4.81151">
        <ele>365</ele>
        <time>2011-12-11T11:26:18Z</time>
      </trkpt>
      <trkpt lat="45.83781" lon="4.81148">
        <ele>365</ele>
        <time>2011-12-11T11:26:20Z</time>
      </trkpt>
      <trkpt lat="45.83782" lon="4.81146">
        <ele>365</ele>
        <time>2011-12-11T11:26:26Z</time>
      </trkpt>
      <trkpt lat="45.83779" lon="4.81143">
        <ele>365</ele>
        <time>2011-12-11T11:26:48Z</time>
      </trkpt>
      <trkpt lat="45.83779" lon="4.81146">
        <ele>365</ele>
        <time>2011-12-11T11:26:49Z</time>
      </trkpt>
      <trkpt lat="45.8378" lon="4.81152">
        <ele>364</ele>
        <time>2011-12-11T11:26:51Z</time>
      </trkpt>
      <trkpt lat="45.83777" lon="4.81169">
        <ele>356</ele>
        <time>2011-12-11T11:26:58Z</time>
      </trkpt>
      <trkpt lat="45.83776" lon="4.81173">
        <ele>355</ele>
        <time>2011-12-11T11:26:59Z</time>
      </trkpt>
      <trkpt lat="45.8377" lon="4.81194">
        <ele>354</ele>
        <time>2011-12-11T11:27:05Z</time>
      </trkpt>
      <trkpt lat="45.83765" lon="4.81202">
        <ele>353</ele>
        <time>2011-12-11T11:27:08Z</time>
      </trkpt>
      <trkpt lat="45.8376" lon="4.81209">
        <ele>352</ele>
        <time>2011-12-11T11:27:11Z</time>
      </trkpt>
      <trkpt lat="45.83756" lon="4.81212">
        <ele>352</ele>
        <time>2011-12-11T11:27:13Z</time>
      </trkpt>
      <trkpt lat="45.83748" lon="4.81213">
        <ele>352</ele>
        <time>2011-12-11T11:27:17Z</time>
      </trkpt>
      <trkpt lat="45.83738" lon="4.81218">
        <ele>352</ele>
        <time>2011-12-11T11:27:22Z</time>
      </trkpt>
      <trkpt lat="45.83737" lon="4.81219">
        <ele>352</ele>
        <time>2011-12-11T11:27:23Z</time>
      </trkpt>
      <trkpt lat="45.83733" lon="4.81219">
        <ele>352</ele>
        <time>2011-12-11T11:27:25Z</time>
      </trkpt>
      <trkpt lat="45.83726" lon="4.81221">
        <ele>352</ele>
        <time>2011-12-11T11:27:28Z</time>
      </trkpt>
      <trkpt lat="45.83719" lon="4.81222">
        <ele>353</ele>
        <time>2011-12-11T11:27:31Z</time>
      </trkpt>
      <trkpt lat="45.83715" lon="4.81224">
        <ele>353</ele>
        <time>2011-12-11T11:27:34Z</time>
      </trkpt>
      <trkpt lat="45.83708" lon="4.81227">
        <ele>353</ele>
        <time>2011-12-11T11:27:40Z</time>
      </trkpt>
      <trkpt lat="45.83705" lon="4.81229">
        <ele>353</ele>
        <time>2011-12-11T11:27:43Z</time>
      </trkpt>
      <trkpt lat="45.83702" lon="4.8123">
        <ele>353</ele>
        <time>2011-12-11T11:27:48Z</time>
      </trkpt>
      <trkpt lat="45.83701" lon="4.81231">
        <ele>353</ele>
        <time>2011-12-11T11:27:49Z</time>
      </trkpt>
      <trkpt lat="45.83697" lon="4.81233">
        <ele>354</ele>
        <time>2011-12-11T11:27:53Z</time>
      </trkpt>
      <trkpt lat="45.83696" lon="4.81234">
        <ele>354</ele>
        <time>2011-12-11T11:27:55Z</time>
      </trkpt>
      <trkpt lat="45.83691" lon="4.81236">
        <ele>354</ele>
        <time>2011-12-11T11:28:01Z</time>
      </trkpt>
      <trkpt lat="45.83683" lon="4.81242">
        <ele>354</ele>
        <time>2011-12-11T11:28:08Z</time>
      </trkpt>
      <trkpt lat="45.83682" lon="4.81243">
        <ele>354</ele>
        <time>2011-12-11T11:28:09Z</time>
      </trkpt>
      <trkpt lat="45.83681" lon="4.81244">
        <ele>354</ele>
        <time>2011-12-11T11:28:10Z</time>
      </trkpt>
      <trkpt lat="45.83671" lon="4.81245">
        <ele>354</ele>
        <time>2011-12-11T11:28:16Z</time>
      </trkpt>
      <trkpt lat="45.83666" lon="4.81245">
        <ele>356</ele>
        <time>2011-12-11T11:28:19Z</time>
      </trkpt>
      <trkpt lat="45.83665" lon="4.81244">
        <ele>356</ele>
        <time>2011-12-11T11:28:20Z</time>
      </trkpt>
      <trkpt lat="45.83662" lon="4.81245">
        <ele>356</ele>
        <time>2011-12-11T11:28:22Z</time>
      </trkpt>
      <trkpt lat="45.8366" lon="4.81246">
        <ele>356</ele>
        <time>2011-12-11T11:28:23Z</time>
      </trkpt>
      <trkpt lat="45.8365" lon="4.8125">
        <ele>358</ele>
        <time>2011-12-11T11:28:32Z</time>
      </trkpt>
      <trkpt lat="45.8365" lon="4.8125">
        <ele>354</ele>
        <time>2011-12-11T11:28:33Z</time>
      </trkpt>
      <trkpt lat="45.83649" lon="4.81253">
        <ele>354</ele>
        <time>2011-12-11T11:28:35Z</time>
      </trkpt>
      <trkpt lat="45.83648" lon="4.81255">
        <ele>354</ele>
        <time>2011-12-11T11:28:36Z</time>
      </trkpt>
      <trkpt lat="45.83641" lon="4.8126">
        <ele>354</ele>
        <time>2011-12-11T11:28:43Z</time>
      </trkpt>
      <trkpt lat="45.83638" lon="4.81263">
        <ele>354</ele>
        <time>2011-12-11T11:28:45Z</time>
      </trkpt>
      <trkpt lat="45.83634" lon="4.81266">
        <ele>355</ele>
        <time>2011-12-11T11:28:48Z</time>
      </trkpt>
      <trkpt lat="45.83631" lon="4.81268">
        <ele>355</ele>
        <time>2011-12-11T11:28:51Z</time>
      </trkpt>
      <trkpt lat="45.83621" lon="4.81273">
        <ele>355</ele>
        <time>2011-12-11T11:29:00Z</time>
      </trkpt>
      <trkpt lat="45.83616" lon="4.81277">
        <ele>355</ele>
        <time>2011-12-11T11:29:04Z</time>
      </trkpt>
      <trkpt lat="45.83612" lon="4.81279">
        <ele>355</ele>
        <time>2011-12-11T11:29:07Z</time>
      </trkpt>
      <trkpt lat="45.83606" lon="4.81281">
        <ele>355</ele>
        <time>2011-12-11T11:29:13Z</time>
      </trkpt>
      <trkpt lat="45.83606" lon="4.81281">
        <ele>355</ele>
        <time>2011-12-11T11:29:14Z</time>
      </trkpt>
      <trkpt lat="45.83601" lon="4.81283">
        <ele>356</ele>
        <time>2011-12-11T11:29:18Z</time>
      </trkpt>
      <trkpt lat="45.83599" lon="4.81284">
        <ele>356</ele>
        <time>2011-12-11T11:29:19Z</time>
      </trkpt>
      <trkpt lat="45.83596" lon="4.81285">
        <ele>356</ele>
        <time>2011-12-11T11:29:21Z</time>
      </trkpt>
      <trkpt lat="45.83589" lon="4.81288">
        <ele>356</ele>
        <time>2011-12-11T11:29:26Z</time>
      </trkpt>
      <trkpt lat="45.83582" lon="4.81294">
        <ele>358</ele>
        <time>2011-12-11T11:29:32Z</time>
      </trkpt>
      <trkpt lat="45.8358" lon="4.81297">
        <ele>358</ele>
        <time>2011-12-11T11:29:34Z</time>
      </trkpt>
      <trkpt lat="45.83572" lon="4.81301">
        <ele>357</ele>
        <time>2011-12-11T11:29:41Z</time>
      </trkpt>
      <trkpt lat="45.83571" lon="4.81301">
        <ele>357</ele>
        <time>2011-12-11T11:29:42Z</time>
      </trkpt>
      <trkpt lat="45.83568" lon="4.81301">
        <ele>357</ele>
        <time>2011-12-11T11:29:47Z</time>
      </trkpt>
      <trkpt lat="45.83566" lon="4.81304">
        <ele>357</ele>
        <time>2011-12-11T11:29:51Z</time>
      </trkpt>
      <trkpt lat="45.83563" lon="4.81306">
        <ele>357</ele>
        <time>2011-12-11T11:29:53Z</time>
      </trkpt>
      <trkpt lat="45.83555" lon="4.81315">
        <ele>357</ele>
        <time>2011-12-11T11:29:58Z</time>
      </trkpt>
      <trkpt lat="45.8355" lon="4.81317">
        <ele>357</ele>
        <time>2011-12-11T11:30:00Z</time>
      </trkpt>
      <trkpt lat="45.83544" lon="4.81321">
        <ele>357</ele>
        <time>2011-12-11T11:30:03Z</time>
      </trkpt>
      <trkpt lat="45.83532" lon="4.81328">
        <ele>356</ele>
        <time>2011-12-11T11:30:08Z</time>
      </trkpt>
      <trkpt lat="45.8352" lon="4.81336">
        <ele>351</ele>
        <time>2011-12-11T11:30:13Z</time>
      </trkpt>
      <trkpt lat="45.83515" lon="4.81338">
        <ele>351</ele>
        <time>2011-12-11T11:30:15Z</time>
      </trkpt>
      <trkpt lat="45.83504" lon="4.81345">
        <ele>351</ele>
        <time>2011-12-11T11:30:19Z</time>
      </trkpt>
      <trkpt lat="45.83497" lon="4.8135">
        <ele>350</ele>
        <time>2011-12-11T11:30:22Z</time>
      </trkpt>
      <trkpt lat="45.83487" lon="4.81356">
        <ele>348</ele>
        <time>2011-12-11T11:30:26Z</time>
      </trkpt>
      <trkpt lat="45.8348" lon="4.8136">
        <ele>347</ele>
        <time>2011-12-11T11:30:29Z</time>
      </trkpt>
      <trkpt lat="45.83469" lon="4.81361">
        <ele>347</ele>
        <time>2011-12-11T11:30:33Z</time>
      </trkpt>
      <trkpt lat="45.83462" lon="4.81358">
        <ele>347</ele>
        <time>2011-12-11T11:30:36Z</time>
      </trkpt>
      <trkpt lat="45.83454" lon="4.81353">
        <ele>347</ele>
        <time>2011-12-11T11:30:39Z</time>
      </trkpt>
      <trkpt lat="45.83443" lon="4.81347">
        <ele>347</ele>
        <time>2011-12-11T11:30:43Z</time>
      </trkpt>
      <trkpt lat="45.83438" lon="4.81348">
        <ele>347</ele>
        <time>2011-12-11T11:30:45Z</time>
      </trkpt>
      <trkpt lat="45.83432" lon="4.81359">
        <ele>346</ele>
        <time>2011-12-11T11:30:49Z</time>
      </trkpt>
      <trkpt lat="45.83431" lon="4.81366">
        <ele>346</ele>
        <time>2011-12-11T11:30:51Z</time>
      </trkpt>
      <trkpt lat="45.83431" lon="4.8138">
        <ele>345</ele>
        <time>2011-12-11T11:30:55Z</time>
      </trkpt>
      <trkpt lat="45.83434" lon="4.81394">
        <ele>343</ele>
        <time>2011-12-11T11:30:59Z</time>
      </trkpt>
      <trkpt lat="45.83436" lon="4.81408">
        <ele>343</ele>
        <time>2011-12-11T11:31:04Z</time>
      </trkpt>
      <trkpt lat="45.83433" lon="4.81404">
        <ele>343</ele>
        <time>2011-12-11T11:31:08Z</time>
      </trkpt>
      <trkpt lat="45.8343" lon="4.81401">
        <ele>343</ele>
        <time>2011-12-11T11:31:10Z</time>
      </trkpt>
      <trkpt lat="45.83423" lon="4.81398">
        <ele>343</ele>
        <time>2011-12-11T11:31:13Z</time>
      </trkpt>
      <trkpt lat="45.83412" lon="4.81402">
        <ele>340</ele>
        <time>2011-12-11T11:31:17Z</time>
      </trkpt>
      <trkpt lat="45.83409" lon="4.81403">
        <ele>340</ele>
        <time>2011-12-11T11:31:18Z</time>
      </trkpt>
      <trkpt lat="45.83396" lon="4.81413">
        <ele>340</ele>
        <time>2011-12-11T11:31:23Z</time>
      </trkpt>
      <trkpt lat="45.83393" lon="4.81415">
        <ele>340</ele>
        <time>2011-12-11T11:31:24Z</time>
      </trkpt>
      <trkpt lat="45.83379" lon="4.81426">
        <ele>334</ele>
        <time>2011-12-11T11:31:29Z</time>
      </trkpt>
      <trkpt lat="45.83367" lon="4.81435">
        <ele>333</ele>
        <time>2011-12-11T11:31:34Z</time>
      </trkpt>
      <trkpt lat="45.83362" lon="4.81439">
        <ele>333</ele>
        <time>2011-12-11T11:31:36Z</time>
      </trkpt>
      <trkpt lat="45.83349" lon="4.81448">
        <ele>333</ele>
        <time>2011-12-11T11:31:41Z</time>
      </trkpt>
      <trkpt lat="45.83345" lon="4.81453">
        <ele>332</ele>
        <time>2011-12-11T11:31:43Z</time>
      </trkpt>
      <trkpt lat="45.83338" lon="4.81459">
        <ele>332</ele>
        <time>2011-12-11T11:31:46Z</time>
      </trkpt>
      <trkpt lat="45.83329" lon="4.81467">
        <ele>325</ele>
        <time>2011-12-11T11:31:50Z</time>
      </trkpt>
      <trkpt lat="45.83326" lon="4.81468">
        <ele>324</ele>
        <time>2011-12-11T11:31:51Z</time>
      </trkpt>
      <trkpt lat="45.83321" lon="4.81474">
        <ele>324</ele>
        <time>2011-12-11T11:31:54Z</time>
      </trkpt>
      <trkpt lat="45.83321" lon="4.81477">
        <ele>324</ele>
        <time>2011-12-11T11:31:55Z</time>
      </trkpt>
      <trkpt lat="45.83322" lon="4.81486">
        <ele>324</ele>
        <time>2011-12-11T11:31:57Z</time>
      </trkpt>
      <trkpt lat="45.83324" lon="4.81493">
        <ele>324</ele>
        <time>2011-12-11T11:31:59Z</time>
      </trkpt>
      <trkpt lat="45.83325" lon="4.815">
        <ele>321</ele>
        <time>2011-12-11T11:32:01Z</time>
      </trkpt>
      <trkpt lat="45.83327" lon="4.81509">
        <ele>320</ele>
        <time>2011-12-11T11:32:04Z</time>
      </trkpt>
      <trkpt lat="45.83327" lon="4.81512">
        <ele>319</ele>
        <time>2011-12-11T11:32:05Z</time>
      </trkpt>
      <trkpt lat="45.83329" lon="4.81525">
        <ele>316</ele>
        <time>2011-12-11T11:32:09Z</time>
      </trkpt>
      <trkpt lat="45.83332" lon="4.81538">
        <ele>313</ele>
        <time>2011-12-11T11:32:13Z</time>
      </trkpt>
      <trkpt lat="45.83334" lon="4.81548">
        <ele>321</ele>
        <time>2011-12-11T11:32:16Z</time>
      </trkpt>
      <trkpt lat="45.8334" lon="4.81561">
        <ele>319</ele>
        <time>2011-12-11T11:32:20Z</time>
      </trkpt>
      <trkpt lat="45.83341" lon="4.81565">
        <ele>318</ele>
        <time>2011-12-11T11:32:21Z</time>
      </trkpt>
      <trkpt lat="45.8335" lon="4.81585">
        <ele>312</ele>
        <time>2011-12-11T11:32:26Z</time>
      </trkpt>
      <trkpt lat="45.8336" lon="4.8161">
        <ele>311</ele>
        <time>2011-12-11T11:32:31Z</time>
      </trkpt>
      <trkpt lat="45.83369" lon="4.81632">
        <ele>310</ele>
        <time>2011-12-11T11:32:36Z</time>
      </trkpt>
      <trkpt lat="45.83377" lon="4.81652">
        <ele>309</ele>
        <time>2011-12-11T11:32:40Z</time>
      </trkpt>
      <trkpt lat="45.83379" lon="4.81659">
        <ele>309</ele>
        <time>2011-12-11T11:32:41Z</time>
      </trkpt>
      <trkpt lat="45.83383" lon="4.81676">
        <ele>300</ele>
        <time>2011-12-11T11:32:44Z</time>
      </trkpt>
      <trkpt lat="45.83384" lon="4.81685">
        <ele>299</ele>
        <time>2011-12-11T11:32:46Z</time>
      </trkpt>
      <trkpt lat="45.83386" lon="4.81694">
        <ele>299</ele>
        <time>2011-12-11T11:32:49Z</time>
      </trkpt>
      <trkpt lat="45.83386" lon="4.81704">
        <ele>298</ele>
        <time>2011-12-11T11:32:53Z</time>
      </trkpt>
      <trkpt lat="45.83386" lon="4.81705">
        <ele>297</ele>
        <time>2011-12-11T11:32:54Z</time>
      </trkpt>
      <trkpt lat="45.83387" lon="4.81709">
        <ele>297</ele>
        <time>2011-12-11T11:32:58Z</time>
      </trkpt>
      <trkpt lat="45.83387" lon="4.81711">
        <ele>297</ele>
        <time>2011-12-11T11:32:59Z</time>
      </trkpt>
      <trkpt lat="45.83389" lon="4.81723">
        <ele>296</ele>
        <time>2011-12-11T11:33:06Z</time>
      </trkpt>
      <trkpt lat="45.83389" lon="4.81725">
        <ele>296</ele>
        <time>2011-12-11T11:33:07Z</time>
      </trkpt>
      <trkpt lat="45.83389" lon="4.81732">
        <ele>295</ele>
        <time>2011-12-11T11:33:10Z</time>
      </trkpt>
      <trkpt lat="45.83389" lon="4.81739">
        <ele>295</ele>
        <time>2011-12-11T11:33:12Z</time>
      </trkpt>
      <trkpt lat="45.8339" lon="4.81745">
        <ele>294</ele>
        <time>2011-12-11T11:33:14Z</time>
      </trkpt>
      <trkpt lat="45.8339" lon="4.81748">
        <ele>294</ele>
        <time>2011-12-11T11:33:15Z</time>
      </trkpt>
      <trkpt lat="45.83391" lon="4.8175">
        <ele>294</ele>
        <time>2011-12-11T11:33:16Z</time>
      </trkpt>
      <trkpt lat="45.83392" lon="4.81757">
        <ele>285</ele>
        <time>2011-12-11T11:33:20Z</time>
      </trkpt>
      <trkpt lat="45.83391" lon="4.81759">
        <ele>284</ele>
        <time>2011-12-11T11:33:25Z</time>
      </trkpt>
      <trkpt lat="45.83393" lon="4.81764">
        <ele>284</ele>
        <time>2011-12-11T11:33:43Z</time>
      </trkpt>
      <trkpt lat="45.83394" lon="4.81769">
        <ele>284</ele>
        <time>2011-12-11T11:33:52Z</time>
      </trkpt>
      <trkpt lat="45.83394" lon="4.81772">
        <ele>283</ele>
        <time>2011-12-11T11:33:53Z</time>
      </trkpt>
      <trkpt lat="45.83395" lon="4.81782">
        <ele>282</ele>
        <time>2011-12-11T11:33:57Z</time>
      </trkpt>
      <trkpt lat="45.83395" lon="4.81786">
        <ele>281</ele>
        <time>2011-12-11T11:33:58Z</time>
      </trkpt>
      <trkpt lat="45.83394" lon="4.81791">
        <ele>281</ele>
        <time>2011-12-11T11:33:59Z</time>
      </trkpt>
      <trkpt lat="45.83393" lon="4.81794">
        <ele>280</ele>
        <time>2011-12-11T11:34:00Z</time>
      </trkpt>
      <trkpt lat="45.83392" lon="4.81809">
        <ele>279</ele>
        <time>2011-12-11T11:34:05Z</time>
      </trkpt>
      <trkpt lat="45.83391" lon="4.81819">
        <ele>278</ele>
        <time>2011-12-11T11:34:08Z</time>
      </trkpt>
      <trkpt lat="45.83391" lon="4.81823">
        <ele>277</ele>
        <time>2011-12-11T11:34:09Z</time>
      </trkpt>
      <trkpt lat="45.83389" lon="4.81843">
        <ele>267</ele>
        <time>2011-12-11T11:34:14Z</time>
      </trkpt>
      <trkpt lat="45.83389" lon="4.81848">
        <ele>266</ele>
        <time>2011-12-11T11:34:15Z</time>
      </trkpt>
      <trkpt lat="45.83387" lon="4.8187">
        <ele>263</ele>
        <time>2011-12-11T11:34:21Z</time>
      </trkpt>
      <trkpt lat="45.83387" lon="4.81874">
        <ele>263</ele>
        <time>2011-12-11T11:34:22Z</time>
      </trkpt>
      <trkpt lat="45.83387" lon="4.81897">
        <ele>261</ele>
        <time>2011-12-11T11:34:27Z</time>
      </trkpt>
      <trkpt lat="45.83388" lon="4.81901">
        <ele>260</ele>
        <time>2011-12-11T11:34:28Z</time>
      </trkpt>
      <trkpt lat="45.83388" lon="4.81921">
        <ele>251</ele>
        <time>2011-12-11T11:34:32Z</time>
      </trkpt>
      <trkpt lat="45.8339" lon="4.8193">
        <ele>251</ele>
        <time>2011-12-11T11:34:34Z</time>
      </trkpt>
      <trkpt lat="45.83393" lon="4.81944">
        <ele>250</ele>
        <time>2011-12-11T11:34:37Z</time>
      </trkpt>
      <trkpt lat="45.83399" lon="4.81956">
        <ele>249</ele>
        <time>2011-12-11T11:34:40Z</time>
      </trkpt>
      <trkpt lat="45.83403" lon="4.81964">
        <ele>248</ele>
        <time>2011-12-11T11:34:42Z</time>
      </trkpt>
      <trkpt lat="45.83412" lon="4.81978">
        <ele>246</ele>
        <time>2011-12-11T11:34:46Z</time>
      </trkpt>
      <trkpt lat="45.83414" lon="4.81982">
        <ele>245</ele>
        <time>2011-12-11T11:34:47Z</time>
      </trkpt>
      <trkpt lat="45.83422" lon="4.81999">
        <ele>243</ele>
        <time>2011-12-11T11:34:51Z</time>
      </trkpt>
      <trkpt lat="45.83423" lon="4.8202">
        <ele>237</ele>
        <time>2011-12-11T11:34:56Z</time>
      </trkpt>
      <trkpt lat="45.83423" lon="4.82025">
        <ele>237</ele>
        <time>2011-12-11T11:34:57Z</time>
      </trkpt>
      <trkpt lat="45.83424" lon="4.82048">
        <ele>235</ele>
        <time>2011-12-11T11:35:02Z</time>
      </trkpt>
      <trkpt lat="45.83425" lon="4.82055">
        <ele>234</ele>
        <time>2011-12-11T11:35:04Z</time>
      </trkpt>
      <trkpt lat="45.83423" lon="4.82071">
        <ele>233</ele>
        <time>2011-12-11T11:35:08Z</time>
      </trkpt>
      <trkpt lat="45.83422" lon="4.8208">
        <ele>233</ele>
        <time>2011-12-11T11:35:11Z</time>
      </trkpt>
      <trkpt lat="45.83422" lon="4.82082">
        <ele>233</ele>
        <time>2011-12-11T11:35:12Z</time>
      </trkpt>
      <trkpt lat="45.83417" lon="4.82087">
        <ele>234</ele>
        <time>2011-12-11T11:35:16Z</time>
      </trkpt>
      <trkpt lat="45.83408" lon="4.82085">
        <ele>236</ele>
        <time>2011-12-11T11:35:23Z</time>
      </trkpt>
      <trkpt lat="45.83407" lon="4.82084">
        <ele>236</ele>
        <time>2011-12-11T11:35:24Z</time>
      </trkpt>
      <trkpt lat="45.83406" lon="4.82084">
        <ele>237</ele>
        <time>2011-12-11T11:35:25Z</time>
      </trkpt>
      <trkpt lat="45.83402" lon="4.82083">
        <ele>237</ele>
        <time>2011-12-11T11:35:29Z</time>
      </trkpt>
      <trkpt lat="45.83401" lon="4.82085">
        <ele>238</ele>
        <time>2011-12-11T11:35:31Z</time>
      </trkpt>
      <trkpt lat="45.834" lon="4.82088">
        <ele>239</ele>
        <time>2011-12-11T11:35:34Z</time>
      </trkpt>
      <trkpt lat="45.83396" lon="4.82094">
        <ele>240</ele>
        <time>2011-12-11T11:35:38Z</time>
      </trkpt>
      <trkpt lat="45.83395" lon="4.82095">
        <ele>240</ele>
        <time>2011-12-11T11:35:39Z</time>
      </trkpt>
      <trkpt lat="45.83392" lon="4.82098">
        <ele>241</ele>
        <time>2011-12-11T11:35:42Z</time>
      </trkpt>
      <trkpt lat="45.83392" lon="4.82099">
        <ele>241</ele>
        <time>2011-12-11T11:35:43Z</time>
      </trkpt>
      <trkpt lat="45.83391" lon="4.821">
        <ele>241</ele>
        <time>2011-12-11T11:35:44Z</time>
      </trkpt>
      <trkpt lat="45.83387" lon="4.82105">
        <ele>242</ele>
        <time>2011-12-11T11:35:49Z</time>
      </trkpt>
      <trkpt lat="45.83386" lon="4.82106">
        <ele>242</ele>
        <time>2011-12-11T11:35:50Z</time>
      </trkpt>
      <trkpt lat="45.83381" lon="4.82115">
        <ele>243</ele>
        <time>2011-12-11T11:35:57Z</time>
      </trkpt>
      <trkpt lat="45.83379" lon="4.82118">
        <ele>243</ele>
        <time>2011-12-11T11:36:00Z</time>
      </trkpt>
      <trkpt lat="45.83377" lon="4.82124">
        <ele>244</ele>
        <time>2011-12-11T11:36:06Z</time>
      </trkpt>
      <trkpt lat="45.83375" lon="4.82127">
        <ele>244</ele>
        <time>2011-12-11T11:36:11Z</time>
      </trkpt>
      <trkpt lat="45.83374" lon="4.82132">
        <ele>245</ele>
        <time>2011-12-11T11:36:14Z</time>
      </trkpt>
      <trkpt lat="45.83373" lon="4.82134">
        <ele>245</ele>
        <time>2011-12-11T11:36:16Z</time>
      </trkpt>
      <trkpt lat="45.8337" lon="4.82141">
        <ele>246</ele>
        <time>2011-12-11T11:36:21Z</time>
      </trkpt>
      <trkpt lat="45.83369" lon="4.82142">
        <ele>246</ele>
        <time>2011-12-11T11:36:22Z</time>
      </trkpt>
      <trkpt lat="45.83366" lon="4.82144">
        <ele>247</ele>
        <time>2011-12-11T11:36:27Z</time>
      </trkpt>
      <trkpt lat="45.83365" lon="4.82146">
        <ele>247</ele>
        <time>2011-12-11T11:36:30Z</time>
      </trkpt>
      <trkpt lat="45.83363" lon="4.82147">
        <ele>247</ele>
        <time>2011-12-11T11:36:32Z</time>
      </trkpt>
      <trkpt lat="45.83359" lon="4.82151">
        <ele>248</ele>
        <time>2011-12-11T11:36:37Z</time>
      </trkpt>
      <trkpt lat="45.83356" lon="4.82157">
        <ele>250</ele>
        <time>2011-12-11T11:36:43Z</time>
      </trkpt>
      <trkpt lat="45.83355" lon="4.82156">
        <ele>250</ele>
        <time>2011-12-11T11:36:44Z</time>
      </trkpt>
      <trkpt lat="45.83354" lon="4.82157">
        <ele>250</ele>
        <time>2011-12-11T11:36:47Z</time>
      </trkpt>
      <trkpt lat="45.83349" lon="4.82159">
        <ele>252</ele>
        <time>2011-12-11T11:36:52Z</time>
      </trkpt>
      <trkpt lat="45.83347" lon="4.82158">
        <ele>252</ele>
        <time>2011-12-11T11:36:55Z</time>
      </trkpt>
      <trkpt lat="45.83341" lon="4.8216">
        <ele>255</ele>
        <time>2011-12-11T11:37:02Z</time>
      </trkpt>
      <trkpt lat="45.83339" lon="4.82161">
        <ele>256</ele>
        <time>2011-12-11T11:37:04Z</time>
      </trkpt>
      <trkpt lat="45.83337" lon="4.82161">
        <ele>256</ele>
        <time>2011-12-11T11:37:06Z</time>
      </trkpt>
      <trkpt lat="45.83336" lon="4.82161">
        <ele>257</ele>
        <time>2011-12-11T11:37:07Z</time>
      </trkpt>
      <trkpt lat="45.83334" lon="4.82162">
        <ele>257</ele>
        <time>2011-12-11T11:37:10Z</time>
      </trkpt>
      <trkpt lat="45.83331" lon="4.82163">
        <ele>261</ele>
        <time>2011-12-11T11:37:14Z</time>
      </trkpt>
      <trkpt lat="45.83329" lon="4.82162">
        <ele>262</ele>
        <time>2011-12-11T11:37:17Z</time>
      </trkpt>
      <trkpt lat="45.83328" lon="4.82161">
        <ele>262</ele>
        <time>2011-12-11T11:37:18Z</time>
      </trkpt>
      <trkpt lat="45.83327" lon="4.8216">
        <ele>262</ele>
        <time>2011-12-11T11:37:20Z</time>
      </trkpt>
      <trkpt lat="45.83326" lon="4.82159">
        <ele>262</ele>
        <time>2011-12-11T11:37:22Z</time>
      </trkpt>
      <trkpt lat="45.8332" lon="4.82161">
        <ele>263</ele>
        <time>2011-12-11T11:37:27Z</time>
      </trkpt>
      <trkpt lat="45.83319" lon="4.82161">
        <ele>263</ele>
        <time>2011-12-11T11:37:28Z</time>
      </trkpt>
      <trkpt lat="45.83316" lon="4.8216">
        <ele>264</ele>
        <time>2011-12-11T11:37:31Z</time>
      </trkpt>
      <trkpt lat="45.83314" lon="4.82161">
        <ele>265</ele>
        <time>2011-12-11T11:37:34Z</time>
      </trkpt>
      <trkpt lat="45.83314" lon="4.82165">
        <ele>265</ele>
        <time>2011-12-11T11:37:39Z</time>
      </trkpt>
      <trkpt lat="45.83313" lon="4.82168">
        <ele>274</ele>
        <time>2011-12-11T11:37:45Z</time>
      </trkpt>
      <trkpt lat="45.83313" lon="4.82165">
        <ele>265</ele>
        <time>2011-12-11T11:37:50Z</time>
      </trkpt>
      <trkpt lat="45.83312" lon="4.82164">
        <ele>265</ele>
        <time>2011-12-11T11:37:55Z</time>
      </trkpt>
      <trkpt lat="45.83306" lon="4.82162">
        <ele>266</ele>
        <time>2011-12-11T11:38:18Z</time>
      </trkpt>
      <trkpt lat="45.83303" lon="4.82163">
        <ele>267</ele>
        <time>2011-12-11T11:38:23Z</time>
      </trkpt>
      <trkpt lat="45.83299" lon="4.82162">
        <ele>268</ele>
        <time>2011-12-11T11:38:38Z</time>
      </trkpt>
      <trkpt lat="45.83301" lon="4.82162">
        <ele>267</ele>
        <time>2011-12-11T11:38:43Z</time>
      </trkpt>
      <trkpt lat="45.83306" lon="4.82153">
        <ele>266</ele>
        <time>2011-12-11T11:39:17Z</time>
      </trkpt>
      <trkpt lat="45.83306" lon="4.82154">
        <ele>266</ele>
        <time>2011-12-11T11:39:18Z</time>
      </trkpt>
      <trkpt lat="45.83311" lon="4.82162">
        <ele>265</ele>
        <time>2011-12-11T11:39:22Z</time>
      </trkpt>
      <trkpt lat="45.83319" lon="4.8217">
        <ele>271</ele>
        <time>2011-12-11T11:39:26Z</time>
      </trkpt>
      <trkpt lat="45.83321" lon="4.82172">
        <ele>271</ele>
        <time>2011-12-11T11:39:27Z</time>
      </trkpt>
      <trkpt lat="45.83329" lon="4.82181">
        <ele>271</ele>
        <time>2011-12-11T11:39:31Z</time>
      </trkpt>
      <trkpt lat="45.8333" lon="4.82184">
        <ele>273</ele>
        <time>2011-12-11T11:39:32Z</time>
      </trkpt>
      <trkpt lat="45.83333" lon="4.82189">
        <ele>260</ele>
        <time>2011-12-11T11:39:34Z</time>
      </trkpt>
      <trkpt lat="45.83341" lon="4.82198">
        <ele>261</ele>
        <time>2011-12-11T11:39:37Z</time>
      </trkpt>
      <trkpt lat="45.83347" lon="4.82206">
        <ele>261</ele>
        <time>2011-12-11T11:39:40Z</time>
      </trkpt>
      <trkpt lat="45.83351" lon="4.82211">
        <ele>262</ele>
        <time>2011-12-11T11:39:42Z</time>
      </trkpt>
      <trkpt lat="45.8336" lon="4.82225">
        <ele>263</ele>
        <time>2011-12-11T11:39:47Z</time>
      </trkpt>
      <trkpt lat="45.83361" lon="4.82228">
        <ele>263</ele>
        <time>2011-12-11T11:39:48Z</time>
      </trkpt>
      <trkpt lat="45.8337" lon="4.8224">
        <ele>262</ele>
        <time>2011-12-11T11:39:53Z</time>
      </trkpt>
      <trkpt lat="45.83373" lon="4.82246">
        <ele>262</ele>
        <time>2011-12-11T11:39:55Z</time>
      </trkpt>
      <trkpt lat="45.83375" lon="4.8225">
        <ele>271</ele>
        <time>2011-12-11T11:39:57Z</time>
      </trkpt>
      <trkpt lat="45.83384" lon="4.8226">
        <ele>269</ele>
        <time>2011-12-11T11:40:01Z</time>
      </trkpt>
      <trkpt lat="45.83387" lon="4.82265">
        <ele>269</ele>
        <time>2011-12-11T11:40:03Z</time>
      </trkpt>
      <trkpt lat="45.83394" lon="4.82273">
        <ele>268</ele>
        <time>2011-12-11T11:40:07Z</time>
      </trkpt>
      <trkpt lat="45.83403" lon="4.82281">
        <ele>268</ele>
        <time>2011-12-11T11:40:12Z</time>
      </trkpt>
      <trkpt lat="45.83405" lon="4.82283">
        <ele>268</ele>
        <time>2011-12-11T11:40:13Z</time>
      </trkpt>
      <trkpt lat="45.83422" lon="4.82292">
        <ele>252</ele>
        <time>2011-12-11T11:40:20Z</time>
      </trkpt>
      <trkpt lat="45.83437" lon="4.82305">
        <ele>253</ele>
        <time>2011-12-11T11:40:26Z</time>
      </trkpt>
      <trkpt lat="45.83438" lon="4.82308">
        <ele>253</ele>
        <time>2011-12-11T11:40:27Z</time>
      </trkpt>
      <trkpt lat="45.83445" lon="4.8232">
        <ele>253</ele>
        <time>2011-12-11T11:40:31Z</time>
      </trkpt>
      <trkpt lat="45.83451" lon="4.82329">
        <ele>252</ele>
        <time>2011-12-11T11:40:35Z</time>
      </trkpt>
    </trkseg>
  </trk>
</gpx>